<?xml version='1.0' encoding='UTF-8'?><gpx version="1.1" creator="JPX - https://github.com/jenetics/jpx" xmlns="http://www.topografix.com/GPX/1/1"><trk><trkseg><trkpt lat="43.8436949" lon="6.2214506"><ele>606.9999999999999</ele><time>2026-05-02T13:10:51.991Z</time></trkpt><trkpt lat="43.8436187" lon="6.2214583"><ele>607.0</ele><time>2026-05-02T13:11:27.991Z</time></trkpt><trkpt lat="43.8435553" lon="6.2214613"><ele>607.0</ele><time>2026-05-02T13:11:31.991Z</time></trkpt><trkpt lat="43.8434894" lon="6.2214596"><ele>607.0</ele><time>2026-05-02T13:11:36.991Z</time></trkpt><trkpt lat="43.8434572" lon="6.2215525"><ele>607.0</ele><time>2026-05-02T13:11:40.991Z</time></trkpt><trkpt lat="43.8433851" lon="6.2215708"><ele>606.9999999999999</ele><time>2026-05-02T13:11:43.991Z</time></trkpt><trkpt lat="43.84331" lon="6.2215686"><ele>607.0</ele><time>2026-05-02T13:11:45.991Z</time></trkpt><trkpt lat="43.8431664" lon="6.2215251"><ele>607.0</ele><time>2026-05-02T13:11:47.991Z</time></trkpt><trkpt lat="43.8430897" lon="6.2215124"><ele>607.0</ele><time>2026-05-02T13:11:48.991Z</time></trkpt><trkpt lat="43.8430169" lon="6.22147"><ele>607.0</ele><time>2026-05-02T13:11:49.991Z</time></trkpt><trkpt lat="43.8429578" lon="6.2214299"><ele>607.0</ele><time>2026-05-02T13:11:50.991Z</time></trkpt><trkpt lat="43.8428545" lon="6.2213312"><ele>607.0</ele><time>2026-05-02T13:11:52.991Z</time></trkpt><trkpt lat="43.8427873" lon="6.2212406"><ele>607.0</ele><time>2026-05-02T13:11:54.991Z</time></trkpt><trkpt lat="43.8426909" lon="6.2211418"><ele>606.8000000000001</ele><time>2026-05-02T13:11:56.991Z</time></trkpt><trkpt lat="43.842617" lon="6.2211124"><ele>606.6</ele><time>2026-05-02T13:11:57.99Z</time></trkpt><trkpt lat="43.8424898" lon="6.2210869"><ele>606.4000000000001</ele><time>2026-05-02T13:11:59.99Z</time></trkpt><trkpt lat="43.842416" lon="6.2210678"><ele>606.2</ele><time>2026-05-02T13:12:00.991Z</time></trkpt><trkpt lat="43.8423416" lon="6.2210609"><ele>606.0</ele><time>2026-05-02T13:12:01.991Z</time></trkpt><trkpt lat="43.8422471" lon="6.2210755"><ele>606.0</ele><time>2026-05-02T13:12:02.99Z</time></trkpt><trkpt lat="43.8421586" lon="6.2211122"><ele>606.0</ele><time>2026-05-02T13:12:03.991Z</time></trkpt><trkpt lat="43.8420928" lon="6.2211337"><ele>606.0</ele><time>2026-05-02T13:12:04.991Z</time></trkpt><trkpt lat="43.8420174" lon="6.2211586"><ele>606.0</ele><time>2026-05-02T13:12:05.99Z</time></trkpt><trkpt lat="43.841949" lon="6.221186"><ele>606.0</ele><time>2026-05-02T13:12:06.991Z</time></trkpt><trkpt lat="43.8418835" lon="6.2212168"><ele>606.0</ele><time>2026-05-02T13:12:07.991Z</time></trkpt><trkpt lat="43.8418243" lon="6.221264"><ele>606.0</ele><time>2026-05-02T13:12:08.991Z</time></trkpt><trkpt lat="43.8417697" lon="6.2213104"><ele>604.4</ele><time>2026-05-02T13:12:09.991Z</time></trkpt><trkpt lat="43.8416687" lon="6.2213967"><ele>602.8</ele><time>2026-05-02T13:12:11.991Z</time></trkpt><trkpt lat="43.841559" lon="6.2214658"><ele>601.1999999999999</ele><time>2026-05-02T13:12:13.991Z</time></trkpt><trkpt lat="43.8414951" lon="6.2214806"><ele>599.6</ele><time>2026-05-02T13:12:14.991Z</time></trkpt><trkpt lat="43.8413968" lon="6.2214208"><ele>598.0</ele><time>2026-05-02T13:12:16.991Z</time></trkpt><trkpt lat="43.841312" lon="6.2212862"><ele>598.0</ele><time>2026-05-02T13:12:18.991Z</time></trkpt><trkpt lat="43.841198" lon="6.2212465"><ele>598.0</ele><time>2026-05-02T13:12:20.991Z</time></trkpt><trkpt lat="43.8411383" lon="6.2212815"><ele>598.0</ele><time>2026-05-02T13:12:21.991Z</time></trkpt><trkpt lat="43.8410725" lon="6.2213432"><ele>598.0</ele><time>2026-05-02T13:12:22.99Z</time></trkpt><trkpt lat="43.8410056" lon="6.2214097"><ele>598.0</ele><time>2026-05-02T13:12:23.991Z</time></trkpt><trkpt lat="43.8409256" lon="6.2214787"><ele>598.0</ele><time>2026-05-02T13:12:24.991Z</time></trkpt><trkpt lat="43.8408455" lon="6.2215514"><ele>598.6</ele><time>2026-05-02T13:12:25.991Z</time></trkpt><trkpt lat="43.8407589" lon="6.2216205"><ele>599.1999999999999</ele><time>2026-05-02T13:12:26.991Z</time></trkpt><trkpt lat="43.8406661" lon="6.2216983"><ele>599.8</ele><time>2026-05-02T13:12:27.991Z</time></trkpt><trkpt lat="43.8405729" lon="6.2217775"><ele>600.4</ele><time>2026-05-02T13:12:28.991Z</time></trkpt><trkpt lat="43.8404775" lon="6.2218479"><ele>601.0</ele><time>2026-05-02T13:12:29.991Z</time></trkpt><trkpt lat="43.8403874" lon="6.2219119"><ele>601.0</ele><time>2026-05-02T13:12:30.991Z</time></trkpt><trkpt lat="43.840287" lon="6.2219371"><ele>601.0</ele><time>2026-05-02T13:12:31.991Z</time></trkpt><trkpt lat="43.8401832" lon="6.2219599"><ele>601.0</ele><time>2026-05-02T13:12:32.991Z</time></trkpt><trkpt lat="43.8400743" lon="6.221975"><ele>601.0</ele><time>2026-05-02T13:12:33.991Z</time></trkpt><trkpt lat="43.8399676" lon="6.221983"><ele>601.0</ele><time>2026-05-02T13:12:34.991Z</time></trkpt><trkpt lat="43.8398623" lon="6.2219803"><ele>599.0</ele><time>2026-05-02T13:12:35.99Z</time></trkpt><trkpt lat="43.839758" lon="6.2219383"><ele>597.0</ele><time>2026-05-02T13:12:36.991Z</time></trkpt><trkpt lat="43.8396536" lon="6.2218994"><ele>595.0</ele><time>2026-05-02T13:12:37.991Z</time></trkpt><trkpt lat="43.8395489" lon="6.2218448"><ele>593.0</ele><time>2026-05-02T13:12:38.991Z</time></trkpt><trkpt lat="43.8394604" lon="6.2217675"><ele>591.0</ele><time>2026-05-02T13:12:39.991Z</time></trkpt><trkpt lat="43.8393677" lon="6.2216528"><ele>592.0</ele><time>2026-05-02T13:12:40.991Z</time></trkpt><trkpt lat="43.8392875" lon="6.2215112"><ele>593.0</ele><time>2026-05-02T13:12:41.991Z</time></trkpt><trkpt lat="43.8392033" lon="6.2214016"><ele>594.0</ele><time>2026-05-02T13:12:42.99Z</time></trkpt><trkpt lat="43.8391232" lon="6.2213165"><ele>595.0</ele><time>2026-05-02T13:12:43.99Z</time></trkpt><trkpt lat="43.8390379" lon="6.2212494"><ele>596.0</ele><time>2026-05-02T13:12:44.99Z</time></trkpt><trkpt lat="43.8389405" lon="6.2211839"><ele>596.0</ele><time>2026-05-02T13:12:45.991Z</time></trkpt><trkpt lat="43.8388225" lon="6.2212279"><ele>596.0</ele><time>2026-05-02T13:12:46.991Z</time></trkpt><trkpt lat="43.8387194" lon="6.2212547"><ele>596.0</ele><time>2026-05-02T13:12:47.99Z</time></trkpt><trkpt lat="43.8386307" lon="6.2212978"><ele>596.0</ele><time>2026-05-02T13:12:48.991Z</time></trkpt><trkpt lat="43.8385459" lon="6.2214072"><ele>596.0</ele><time>2026-05-02T13:12:49.991Z</time></trkpt><trkpt lat="43.8384947" lon="6.2215483"><ele>594.6666666666666</ele><time>2026-05-02T13:12:50.991Z</time></trkpt><trkpt lat="43.8384406" lon="6.2216485"><ele>593.3333333333333</ele><time>2026-05-02T13:12:51.991Z</time></trkpt><trkpt lat="43.838376" lon="6.2217357"><ele>592.0</ele><time>2026-05-02T13:12:52.99Z</time></trkpt><trkpt lat="43.8382935" lon="6.2217669"><ele>590.6666666666666</ele><time>2026-05-02T13:12:53.991Z</time></trkpt><trkpt lat="43.8382115" lon="6.2217491"><ele>589.3333333333334</ele><time>2026-05-02T13:12:54.991Z</time></trkpt><trkpt lat="43.8381379" lon="6.221689"><ele>588.0</ele><time>2026-05-02T13:12:55.991Z</time></trkpt><trkpt lat="43.8380684" lon="6.2216024"><ele>588.0</ele><time>2026-05-02T13:12:56.991Z</time></trkpt><trkpt lat="43.838013" lon="6.221487"><ele>588.0</ele><time>2026-05-02T13:12:57.991Z</time></trkpt><trkpt lat="43.8379331" lon="6.2213892"><ele>588.0</ele><time>2026-05-02T13:12:58.99Z</time></trkpt><trkpt lat="43.8378403" lon="6.2212925"><ele>588.0</ele><time>2026-05-02T13:12:59.991Z</time></trkpt><trkpt lat="43.837718" lon="6.2212277"><ele>584.75</ele><time>2026-05-02T13:13:00.99Z</time></trkpt><trkpt lat="43.8376012" lon="6.221163"><ele>581.5</ele><time>2026-05-02T13:13:01.991Z</time></trkpt><trkpt lat="43.8374752" lon="6.2210895"><ele>578.25</ele><time>2026-05-02T13:13:02.991Z</time></trkpt><trkpt lat="43.8373381" lon="6.2210226"><ele>575.0</ele><time>2026-05-02T13:13:03.991Z</time></trkpt><trkpt lat="43.8372028" lon="6.22097"><ele>575.0</ele><time>2026-05-02T13:13:04.991Z</time></trkpt><trkpt lat="43.8370577" lon="6.2209203"><ele>575.0</ele><time>2026-05-02T13:13:05.99Z</time></trkpt><trkpt lat="43.8369222" lon="6.2208525"><ele>575.0</ele><time>2026-05-02T13:13:06.991Z</time></trkpt><trkpt lat="43.8367943" lon="6.2207826"><ele>575.0</ele><time>2026-05-02T13:13:07.991Z</time></trkpt><trkpt lat="43.8366699" lon="6.2207486"><ele>574.25</ele><time>2026-05-02T13:13:08.99Z</time></trkpt><trkpt lat="43.8365475" lon="6.2207156"><ele>573.5</ele><time>2026-05-02T13:13:09.991Z</time></trkpt><trkpt lat="43.8364258" lon="6.2206874"><ele>572.75</ele><time>2026-05-02T13:13:10.991Z</time></trkpt><trkpt lat="43.8363209" lon="6.2206809"><ele>572.0</ele><time>2026-05-02T13:13:11.991Z</time></trkpt><trkpt lat="43.8362042" lon="6.2207107"><ele>572.0</ele><time>2026-05-02T13:13:12.991Z</time></trkpt><trkpt lat="43.836083" lon="6.2207718"><ele>572.0</ele><time>2026-05-02T13:13:13.991Z</time></trkpt><trkpt lat="43.8359534" lon="6.2208476"><ele>572.0</ele><time>2026-05-02T13:13:14.991Z</time></trkpt><trkpt lat="43.835836" lon="6.2208889"><ele>572.0</ele><time>2026-05-02T13:13:15.991Z</time></trkpt><trkpt lat="43.8357201" lon="6.220916"><ele>570.6</ele><time>2026-05-02T13:13:16.991Z</time></trkpt><trkpt lat="43.8355875" lon="6.2209432"><ele>569.2</ele><time>2026-05-02T13:13:17.99Z</time></trkpt><trkpt lat="43.8354984" lon="6.2209565"><ele>567.8</ele><time>2026-05-02T13:13:18.99Z</time></trkpt><trkpt lat="43.8354071" lon="6.2209896"><ele>566.4</ele><time>2026-05-02T13:13:19.991Z</time></trkpt><trkpt lat="43.8353274" lon="6.2210311"><ele>565.0</ele><time>2026-05-02T13:13:20.991Z</time></trkpt><trkpt lat="43.8352406" lon="6.2211605"><ele>565.0</ele><time>2026-05-02T13:13:21.99Z</time></trkpt><trkpt lat="43.8351606" lon="6.2212742"><ele>565.0</ele><time>2026-05-02T13:13:22.991Z</time></trkpt><trkpt lat="43.8350969" lon="6.221411"><ele>565.0</ele><time>2026-05-02T13:13:23.991Z</time></trkpt><trkpt lat="43.835061" lon="6.2215598"><ele>565.0</ele><time>2026-05-02T13:13:24.99Z</time></trkpt><trkpt lat="43.83502" lon="6.2216883"><ele>565.0</ele><time>2026-05-02T13:13:25.991Z</time></trkpt><trkpt lat="43.8349636" lon="6.2218111"><ele>563.25</ele><time>2026-05-02T13:13:26.991Z</time></trkpt><trkpt lat="43.8349019" lon="6.2219153"><ele>561.5</ele><time>2026-05-02T13:13:27.991Z</time></trkpt><trkpt lat="43.8347801" lon="6.2219334"><ele>559.75</ele><time>2026-05-02T13:13:28.99Z</time></trkpt><trkpt lat="43.8346766" lon="6.2219682"><ele>558.0</ele><time>2026-05-02T13:13:29.991Z</time></trkpt><trkpt lat="43.8345464" lon="6.2220139"><ele>558.0</ele><time>2026-05-02T13:13:30.991Z</time></trkpt><trkpt lat="43.8344414" lon="6.2220575"><ele>558.0</ele><time>2026-05-02T13:13:31.991Z</time></trkpt><trkpt lat="43.8343242" lon="6.2221271"><ele>558.0</ele><time>2026-05-02T13:13:32.991Z</time></trkpt><trkpt lat="43.834276" lon="6.222224"><ele>558.0</ele><time>2026-05-02T13:13:33.991Z</time></trkpt><trkpt lat="43.8342237" lon="6.2222945"><ele>558.0</ele><time>2026-05-02T13:13:34.991Z</time></trkpt><trkpt lat="43.8341604" lon="6.2223304"><ele>556.4</ele><time>2026-05-02T13:13:35.991Z</time></trkpt><trkpt lat="43.8340957" lon="6.2223237"><ele>554.8</ele><time>2026-05-02T13:13:36.991Z</time></trkpt><trkpt lat="43.8340236" lon="6.222197"><ele>553.2</ele><time>2026-05-02T13:13:38.991Z</time></trkpt><trkpt lat="43.8340313" lon="6.222079"><ele>551.6</ele><time>2026-05-02T13:13:39.991Z</time></trkpt><trkpt lat="43.8340393" lon="6.2219648"><ele>550.0</ele><time>2026-05-02T13:13:40.991Z</time></trkpt><trkpt lat="43.8341348" lon="6.2218629"><ele>550.5</ele><time>2026-05-02T13:13:41.991Z</time></trkpt><trkpt lat="43.8342228" lon="6.2217565"><ele>551.0</ele><time>2026-05-02T13:13:42.99Z</time></trkpt><trkpt lat="43.8343136" lon="6.2216451"><ele>551.5</ele><time>2026-05-02T13:13:43.991Z</time></trkpt><trkpt lat="43.8343996" lon="6.2215243"><ele>552.0</ele><time>2026-05-02T13:13:44.991Z</time></trkpt><trkpt lat="43.8344785" lon="6.2214213"><ele>552.0</ele><time>2026-05-02T13:13:45.99Z</time></trkpt><trkpt lat="43.8345461" lon="6.2213142"><ele>552.0</ele><time>2026-05-02T13:13:46.991Z</time></trkpt><trkpt lat="43.8345963" lon="6.2212316"><ele>552.0</ele><time>2026-05-02T13:13:47.991Z</time></trkpt><trkpt lat="43.8346251" lon="6.2211518"><ele>552.0</ele><time>2026-05-02T13:13:48.991Z</time></trkpt><trkpt lat="43.8346412" lon="6.2210539"><ele>552.0</ele><time>2026-05-02T13:13:49.991Z</time></trkpt><trkpt lat="43.8346454" lon="6.2209592"><ele>552.0</ele><time>2026-05-02T13:13:50.99Z</time></trkpt><trkpt lat="43.8346002" lon="6.2208685"><ele>552.0</ele><time>2026-05-02T13:13:51.991Z</time></trkpt><trkpt lat="43.8345571" lon="6.220788"><ele>552.0</ele><time>2026-05-02T13:13:52.991Z</time></trkpt><trkpt lat="43.8344394" lon="6.2207839"><ele>552.0</ele><time>2026-05-02T13:13:53.991Z</time></trkpt><trkpt lat="43.8343434" lon="6.2208276"><ele>552.0</ele><time>2026-05-02T13:13:54.991Z</time></trkpt><trkpt lat="43.8342378" lon="6.220885"><ele>552.0</ele><time>2026-05-02T13:13:55.991Z</time></trkpt><trkpt lat="43.8341354" lon="6.2209668"><ele>548.25</ele><time>2026-05-02T13:13:56.991Z</time></trkpt><trkpt lat="43.8340286" lon="6.2210454"><ele>544.5</ele><time>2026-05-02T13:13:57.991Z</time></trkpt><trkpt lat="43.8339158" lon="6.2210996"><ele>540.75</ele><time>2026-05-02T13:13:58.991Z</time></trkpt><trkpt lat="43.8337774" lon="6.2211969"><ele>537.0</ele><time>2026-05-02T13:13:59.991Z</time></trkpt><trkpt lat="43.8336394" lon="6.2212729"><ele>537.0</ele><time>2026-05-02T13:14:00.99Z</time></trkpt><trkpt lat="43.8335035" lon="6.2213613"><ele>537.0</ele><time>2026-05-02T13:14:01.991Z</time></trkpt><trkpt lat="43.8333742" lon="6.221474"><ele>537.0</ele><time>2026-05-02T13:14:02.991Z</time></trkpt><trkpt lat="43.8332517" lon="6.2216232"><ele>536.0</ele><time>2026-05-02T13:14:03.991Z</time></trkpt><trkpt lat="43.8331348" lon="6.2217742"><ele>535.0</ele><time>2026-05-02T13:14:04.991Z</time></trkpt><trkpt lat="43.8330237" lon="6.2219316"><ele>534.0</ele><time>2026-05-02T13:14:05.991Z</time></trkpt><trkpt lat="43.8329061" lon="6.2220975"><ele>534.0</ele><time>2026-05-02T13:14:06.99Z</time></trkpt><trkpt lat="43.832798" lon="6.2222716"><ele>534.0</ele><time>2026-05-02T13:14:07.991Z</time></trkpt><trkpt lat="43.832701" lon="6.2224436"><ele>534.0</ele><time>2026-05-02T13:14:08.991Z</time></trkpt><trkpt lat="43.832594" lon="6.2226465"><ele>533.0</ele><time>2026-05-02T13:14:09.991Z</time></trkpt><trkpt lat="43.8324709" lon="6.2228213"><ele>532.0</ele><time>2026-05-02T13:14:10.991Z</time></trkpt><trkpt lat="43.832347" lon="6.2230265"><ele>531.0</ele><time>2026-05-02T13:14:11.991Z</time></trkpt><trkpt lat="43.8322271" lon="6.2232125"><ele>533.0</ele><time>2026-05-02T13:14:12.99Z</time></trkpt><trkpt lat="43.83211" lon="6.2233933"><ele>535.0</ele><time>2026-05-02T13:14:13.99Z</time></trkpt><trkpt lat="43.8320037" lon="6.2235645"><ele>537.0</ele><time>2026-05-02T13:14:14.99Z</time></trkpt><trkpt lat="43.8319021" lon="6.2237255"><ele>535.5</ele><time>2026-05-02T13:14:15.991Z</time></trkpt><trkpt lat="43.8318044" lon="6.2238885"><ele>534.0</ele><time>2026-05-02T13:14:16.991Z</time></trkpt><trkpt lat="43.8317155" lon="6.2240388"><ele>532.5</ele><time>2026-05-02T13:14:17.991Z</time></trkpt><trkpt lat="43.8316231" lon="6.2241846"><ele>531.0</ele><time>2026-05-02T13:14:18.991Z</time></trkpt><trkpt lat="43.8315258" lon="6.224323"><ele>531.0</ele><time>2026-05-02T13:14:19.991Z</time></trkpt><trkpt lat="43.8314289" lon="6.2244558"><ele>531.0</ele><time>2026-05-02T13:14:20.99Z</time></trkpt><trkpt lat="43.8313267" lon="6.2245823"><ele>531.0</ele><time>2026-05-02T13:14:21.991Z</time></trkpt><trkpt lat="43.8312309" lon="6.224707"><ele>531.0</ele><time>2026-05-02T13:14:22.991Z</time></trkpt><trkpt lat="43.8311278" lon="6.2248028"><ele>530.0</ele><time>2026-05-02T13:14:23.991Z</time></trkpt><trkpt lat="43.8309997" lon="6.2248662"><ele>529.0</ele><time>2026-05-02T13:14:24.991Z</time></trkpt><trkpt lat="43.8308647" lon="6.2249339"><ele>528.0</ele><time>2026-05-02T13:14:25.991Z</time></trkpt><trkpt lat="43.8307327" lon="6.2249637"><ele>527.0</ele><time>2026-05-02T13:14:26.991Z</time></trkpt><trkpt lat="43.8305893" lon="6.2249898"><ele>527.0</ele><time>2026-05-02T13:14:27.99Z</time></trkpt><trkpt lat="43.830446" lon="6.2250153"><ele>527.0</ele><time>2026-05-02T13:14:28.991Z</time></trkpt><trkpt lat="43.8302943" lon="6.2249999"><ele>527.0</ele><time>2026-05-02T13:14:29.991Z</time></trkpt><trkpt lat="43.830152" lon="6.2249912"><ele>527.0</ele><time>2026-05-02T13:14:30.99Z</time></trkpt><trkpt lat="43.8300064" lon="6.2249883"><ele>525.5</ele><time>2026-05-02T13:14:31.991Z</time></trkpt><trkpt lat="43.829864" lon="6.2249671"><ele>524.0</ele><time>2026-05-02T13:14:32.991Z</time></trkpt><trkpt lat="43.8297275" lon="6.2249472"><ele>522.5</ele><time>2026-05-02T13:14:33.991Z</time></trkpt><trkpt lat="43.8295875" lon="6.224938"><ele>521.0</ele><time>2026-05-02T13:14:34.991Z</time></trkpt><trkpt lat="43.8294423" lon="6.2249197"><ele>521.25</ele><time>2026-05-02T13:14:35.99Z</time></trkpt><trkpt lat="43.829305" lon="6.2248955"><ele>521.5</ele><time>2026-05-02T13:14:36.991Z</time></trkpt><trkpt lat="43.8291692" lon="6.2248775"><ele>521.75</ele><time>2026-05-02T13:14:37.99Z</time></trkpt><trkpt lat="43.8290128" lon="6.2248683"><ele>522.0</ele><time>2026-05-02T13:14:38.991Z</time></trkpt><trkpt lat="43.8288826" lon="6.2248309"><ele>521.5</ele><time>2026-05-02T13:14:39.991Z</time></trkpt><trkpt lat="43.8287556" lon="6.2247964"><ele>521.0</ele><time>2026-05-02T13:14:40.991Z</time></trkpt><trkpt lat="43.8286368" lon="6.2247664"><ele>520.5</ele><time>2026-05-02T13:14:41.991Z</time></trkpt><trkpt lat="43.8285294" lon="6.2247373"><ele>520.0</ele><time>2026-05-02T13:14:42.991Z</time></trkpt><trkpt lat="43.8284334" lon="6.2247196"><ele>520.6666666666667</ele><time>2026-05-02T13:14:43.991Z</time></trkpt><trkpt lat="43.8283472" lon="6.2246944"><ele>521.3333333333334</ele><time>2026-05-02T13:14:44.991Z</time></trkpt><trkpt lat="43.8282822" lon="6.2246935"><ele>522.0</ele><time>2026-05-02T13:14:45.991Z</time></trkpt><trkpt lat="43.8282089" lon="6.2246881"><ele>522.6666666666666</ele><time>2026-05-02T13:14:46.991Z</time></trkpt><trkpt lat="43.8281294" lon="6.2246571"><ele>523.3333333333333</ele><time>2026-05-02T13:14:47.99Z</time></trkpt><trkpt lat="43.8280348" lon="6.2246425"><ele>524.0</ele><time>2026-05-02T13:14:49.991Z</time></trkpt><trkpt lat="43.8279485" lon="6.2246869"><ele>525.2</ele><time>2026-05-02T13:14:51.991Z</time></trkpt><trkpt lat="43.8279817" lon="6.2248661"><ele>526.4</ele><time>2026-05-02T13:14:53.991Z</time></trkpt><trkpt lat="43.8280088" lon="6.2249467"><ele>527.6</ele><time>2026-05-02T13:14:54.991Z</time></trkpt><trkpt lat="43.8280547" lon="6.2250584"><ele>528.8</ele><time>2026-05-02T13:14:55.991Z</time></trkpt><trkpt lat="43.8280897" lon="6.2251855"><ele>530.0</ele><time>2026-05-02T13:14:56.991Z</time></trkpt><trkpt lat="43.8281422" lon="6.2253285"><ele>530.0</ele><time>2026-05-02T13:14:57.99Z</time></trkpt><trkpt lat="43.8281989" lon="6.2254775"><ele>530.0</ele><time>2026-05-02T13:14:58.991Z</time></trkpt><trkpt lat="43.8282468" lon="6.2256325"><ele>530.0</ele><time>2026-05-02T13:14:59.991Z</time></trkpt><trkpt lat="43.828295" lon="6.2257714"><ele>530.0</ele><time>2026-05-02T13:15:00.991Z</time></trkpt><trkpt lat="43.8283931" lon="6.2259601"><ele>531.0</ele><time>2026-05-02T13:15:01.991Z</time></trkpt><trkpt lat="43.8284901" lon="6.2260931"><ele>532.0</ele><time>2026-05-02T13:15:02.991Z</time></trkpt><trkpt lat="43.8285901" lon="6.2262401"><ele>533.0</ele><time>2026-05-02T13:15:03.991Z</time></trkpt><trkpt lat="43.8286823" lon="6.2263649"><ele>534.0</ele><time>2026-05-02T13:15:04.991Z</time></trkpt><trkpt lat="43.8287596" lon="6.2265281"><ele>534.0</ele><time>2026-05-02T13:15:05.99Z</time></trkpt><trkpt lat="43.8288178" lon="6.2266771"><ele>534.0</ele><time>2026-05-02T13:15:06.99Z</time></trkpt><trkpt lat="43.8288508" lon="6.2268627"><ele>534.0</ele><time>2026-05-02T13:15:07.991Z</time></trkpt><trkpt lat="43.8288884" lon="6.2270319"><ele>534.0</ele><time>2026-05-02T13:15:08.991Z</time></trkpt><trkpt lat="43.828943" lon="6.2271807"><ele>536.0</ele><time>2026-05-02T13:15:09.991Z</time></trkpt><trkpt lat="43.8290175" lon="6.2273157"><ele>538.0</ele><time>2026-05-02T13:15:10.99Z</time></trkpt><trkpt lat="43.8290917" lon="6.2274322"><ele>540.0</ele><time>2026-05-02T13:15:11.991Z</time></trkpt><trkpt lat="43.829163" lon="6.2275538"><ele>542.0</ele><time>2026-05-02T13:15:12.991Z</time></trkpt><trkpt lat="43.829223" lon="6.2276593"><ele>544.0</ele><time>2026-05-02T13:15:13.991Z</time></trkpt><trkpt lat="43.8292546" lon="6.2277588"><ele>544.0</ele><time>2026-05-02T13:15:14.99Z</time></trkpt><trkpt lat="43.8292798" lon="6.2278429"><ele>544.0</ele><time>2026-05-02T13:15:15.991Z</time></trkpt><trkpt lat="43.829286" lon="6.2279417"><ele>544.0</ele><time>2026-05-02T13:15:16.991Z</time></trkpt><trkpt lat="43.8292275" lon="6.2280379"><ele>544.0</ele><time>2026-05-02T13:15:18.99Z</time></trkpt><trkpt lat="43.8291469" lon="6.2279581"><ele>544.0</ele><time>2026-05-02T13:15:19.99Z</time></trkpt><trkpt lat="43.8290744" lon="6.2279078"><ele>544.0</ele><time>2026-05-02T13:15:20.991Z</time></trkpt><trkpt lat="43.8290489" lon="6.2277454"><ele>544.0</ele><time>2026-05-02T13:15:21.991Z</time></trkpt><trkpt lat="43.8290127" lon="6.2276407"><ele>544.0</ele><time>2026-05-02T13:15:22.991Z</time></trkpt><trkpt lat="43.8289605" lon="6.227521"><ele>544.0</ele><time>2026-05-02T13:15:23.99Z</time></trkpt><trkpt lat="43.8288816" lon="6.2273595"><ele>544.0</ele><time>2026-05-02T13:15:24.991Z</time></trkpt><trkpt lat="43.8288279" lon="6.2272503"><ele>544.0</ele><time>2026-05-02T13:15:25.991Z</time></trkpt><trkpt lat="43.8287434" lon="6.2271451"><ele>545.5</ele><time>2026-05-02T13:15:26.991Z</time></trkpt><trkpt lat="43.82866" lon="6.2269718"><ele>547.0</ele><time>2026-05-02T13:15:27.991Z</time></trkpt><trkpt lat="43.8285956" lon="6.226844"><ele>548.5</ele><time>2026-05-02T13:15:28.991Z</time></trkpt><trkpt lat="43.8285251" lon="6.2267272"><ele>550.0</ele><time>2026-05-02T13:15:29.991Z</time></trkpt><trkpt lat="43.8284335" lon="6.2266253"><ele>550.0</ele><time>2026-05-02T13:15:30.991Z</time></trkpt><trkpt lat="43.8283026" lon="6.2266032"><ele>550.0</ele><time>2026-05-02T13:15:31.991Z</time></trkpt><trkpt lat="43.8281929" lon="6.2265873"><ele>550.0</ele><time>2026-05-02T13:15:32.991Z</time></trkpt><trkpt lat="43.8281139" lon="6.2266096"><ele>550.0</ele><time>2026-05-02T13:15:33.991Z</time></trkpt><trkpt lat="43.8280136" lon="6.226686"><ele>550.0</ele><time>2026-05-02T13:15:34.99Z</time></trkpt><trkpt lat="43.8279081" lon="6.2267737"><ele>550.0</ele><time>2026-05-02T13:15:35.991Z</time></trkpt><trkpt lat="43.8277562" lon="6.2269012"><ele>550.0</ele><time>2026-05-02T13:15:36.991Z</time></trkpt><trkpt lat="43.8276447" lon="6.2270057"><ele>550.0</ele><time>2026-05-02T13:15:37.991Z</time></trkpt><trkpt lat="43.8275453" lon="6.2270861"><ele>550.0</ele><time>2026-05-02T13:15:38.991Z</time></trkpt><trkpt lat="43.8274555" lon="6.2271589"><ele>550.3333333333334</ele><time>2026-05-02T13:15:39.99Z</time></trkpt><trkpt lat="43.8273968" lon="6.2272086"><ele>550.6666666666667</ele><time>2026-05-02T13:15:40.991Z</time></trkpt><trkpt lat="43.8273483" lon="6.2272791"><ele>551.0</ele><time>2026-05-02T13:15:41.991Z</time></trkpt><trkpt lat="43.8273376" lon="6.2273697"><ele>551.3333333333334</ele><time>2026-05-02T13:15:42.991Z</time></trkpt><trkpt lat="43.8273194" lon="6.2274726"><ele>551.6666666666666</ele><time>2026-05-02T13:15:43.991Z</time></trkpt><trkpt lat="43.8274184" lon="6.2276001"><ele>552.0</ele><time>2026-05-02T13:15:45.991Z</time></trkpt><trkpt lat="43.8275392" lon="6.2276105"><ele>553.2</ele><time>2026-05-02T13:15:46.991Z</time></trkpt><trkpt lat="43.8276567" lon="6.2276272"><ele>554.4000000000001</ele><time>2026-05-02T13:15:47.991Z</time></trkpt><trkpt lat="43.8277562" lon="6.2276614"><ele>555.5999999999999</ele><time>2026-05-02T13:15:48.991Z</time></trkpt><trkpt lat="43.8278844" lon="6.2277164"><ele>556.8</ele><time>2026-05-02T13:15:49.99Z</time></trkpt><trkpt lat="43.8279593" lon="6.2277151"><ele>558.0</ele><time>2026-05-02T13:15:50.99Z</time></trkpt><trkpt lat="43.8280429" lon="6.2277337"><ele>558.0</ele><time>2026-05-02T13:15:51.991Z</time></trkpt><trkpt lat="43.8281046" lon="6.2277591"><ele>558.0</ele><time>2026-05-02T13:15:52.991Z</time></trkpt><trkpt lat="43.8281308" lon="6.2278927"><ele>558.0</ele><time>2026-05-02T13:15:54.991Z</time></trkpt><trkpt lat="43.8280588" lon="6.2279449"><ele>558.0</ele><time>2026-05-02T13:15:55.991Z</time></trkpt><trkpt lat="43.8279893" lon="6.2279874"><ele>558.0</ele><time>2026-05-02T13:15:56.991Z</time></trkpt><trkpt lat="43.8278718" lon="6.2280176"><ele>558.0</ele><time>2026-05-02T13:15:57.991Z</time></trkpt><trkpt lat="43.8277644" lon="6.2280528"><ele>558.0</ele><time>2026-05-02T13:15:58.991Z</time></trkpt><trkpt lat="43.8276606" lon="6.2280874"><ele>558.0</ele><time>2026-05-02T13:15:59.99Z</time></trkpt><trkpt lat="43.8274914" lon="6.2282096"><ele>558.0</ele><time>2026-05-02T13:16:00.991Z</time></trkpt><trkpt lat="43.8273585" lon="6.2283138"><ele>562.0</ele><time>2026-05-02T13:16:01.991Z</time></trkpt><trkpt lat="43.8272132" lon="6.2284431"><ele>566.0</ele><time>2026-05-02T13:16:02.99Z</time></trkpt><trkpt lat="43.8270714" lon="6.2285642"><ele>570.0</ele><time>2026-05-02T13:16:03.991Z</time></trkpt><trkpt lat="43.8269361" lon="6.2286766"><ele>569.6666666666666</ele><time>2026-05-02T13:16:04.991Z</time></trkpt><trkpt lat="43.8267935" lon="6.2287897"><ele>569.3333333333333</ele><time>2026-05-02T13:16:05.991Z</time></trkpt><trkpt lat="43.8266418" lon="6.2288881"><ele>569.0</ele><time>2026-05-02T13:16:06.991Z</time></trkpt><trkpt lat="43.8264942" lon="6.2289726"><ele>571.75</ele><time>2026-05-02T13:16:07.991Z</time></trkpt><trkpt lat="43.8263547" lon="6.2290238"><ele>574.5</ele><time>2026-05-02T13:16:08.991Z</time></trkpt><trkpt lat="43.8262311" lon="6.2290959"><ele>577.25</ele><time>2026-05-02T13:16:09.99Z</time></trkpt><trkpt lat="43.8261027" lon="6.2291528"><ele>580.0</ele><time>2026-05-02T13:16:10.991Z</time></trkpt><trkpt lat="43.8259742" lon="6.2292082"><ele>580.0</ele><time>2026-05-02T13:16:11.991Z</time></trkpt><trkpt lat="43.8258788" lon="6.2292556"><ele>580.0</ele><time>2026-05-02T13:16:12.991Z</time></trkpt><trkpt lat="43.8257743" lon="6.2293088"><ele>580.0</ele><time>2026-05-02T13:16:13.991Z</time></trkpt><trkpt lat="43.8256704" lon="6.2293704"><ele>580.0</ele><time>2026-05-02T13:16:14.99Z</time></trkpt><trkpt lat="43.8255614" lon="6.2294527"><ele>580.0</ele><time>2026-05-02T13:16:15.991Z</time></trkpt><trkpt lat="43.8255361" lon="6.2296064"><ele>580.0</ele><time>2026-05-02T13:16:16.99Z</time></trkpt><trkpt lat="43.8254861" lon="6.2297407"><ele>580.0</ele><time>2026-05-02T13:16:17.991Z</time></trkpt><trkpt lat="43.8254716" lon="6.2298914"><ele>580.0</ele><time>2026-05-02T13:16:18.991Z</time></trkpt><trkpt lat="43.8254784" lon="6.2300912"><ele>583.0</ele><time>2026-05-02T13:16:19.991Z</time></trkpt><trkpt lat="43.8254578" lon="6.2302666"><ele>586.0</ele><time>2026-05-02T13:16:20.991Z</time></trkpt><trkpt lat="43.8254481" lon="6.2304603"><ele>589.0</ele><time>2026-05-02T13:16:21.991Z</time></trkpt><trkpt lat="43.825402" lon="6.230616"><ele>592.0</ele><time>2026-05-02T13:16:22.99Z</time></trkpt><trkpt lat="43.8253517" lon="6.2307923"><ele>590.5</ele><time>2026-05-02T13:16:23.991Z</time></trkpt><trkpt lat="43.8252627" lon="6.2309334"><ele>589.0</ele><time>2026-05-02T13:16:24.99Z</time></trkpt><trkpt lat="43.8251494" lon="6.2310762"><ele>587.5</ele><time>2026-05-02T13:16:25.991Z</time></trkpt><trkpt lat="43.8250311" lon="6.2312257"><ele>586.0</ele><time>2026-05-02T13:16:26.991Z</time></trkpt><trkpt lat="43.8249084" lon="6.2313646"><ele>591.3333333333334</ele><time>2026-05-02T13:16:27.99Z</time></trkpt><trkpt lat="43.8247933" lon="6.2315352"><ele>596.6666666666666</ele><time>2026-05-02T13:16:28.99Z</time></trkpt><trkpt lat="43.824663" lon="6.2316988"><ele>602.0</ele><time>2026-05-02T13:16:29.991Z</time></trkpt><trkpt lat="43.8245401" lon="6.2318467"><ele>602.0</ele><time>2026-05-02T13:16:30.991Z</time></trkpt><trkpt lat="43.8244263" lon="6.2319935"><ele>602.0</ele><time>2026-05-02T13:16:31.991Z</time></trkpt><trkpt lat="43.8243269" lon="6.2321602"><ele>602.0</ele><time>2026-05-02T13:16:32.991Z</time></trkpt><trkpt lat="43.8242104" lon="6.2322884"><ele>604.6666666666666</ele><time>2026-05-02T13:16:33.991Z</time></trkpt><trkpt lat="43.824068" lon="6.2323979"><ele>607.3333333333334</ele><time>2026-05-02T13:16:34.991Z</time></trkpt><trkpt lat="43.8239274" lon="6.23248"><ele>610.0</ele><time>2026-05-02T13:16:35.99Z</time></trkpt><trkpt lat="43.8237888" lon="6.232536"><ele>610.0</ele><time>2026-05-02T13:16:36.991Z</time></trkpt><trkpt lat="43.8236511" lon="6.2325833"><ele>610.0</ele><time>2026-05-02T13:16:37.991Z</time></trkpt><trkpt lat="43.8235104" lon="6.232589"><ele>610.0</ele><time>2026-05-02T13:16:38.991Z</time></trkpt><trkpt lat="43.8233826" lon="6.2325755"><ele>610.0</ele><time>2026-05-02T13:16:39.991Z</time></trkpt><trkpt lat="43.8232561" lon="6.2325256"><ele>611.0</ele><time>2026-05-02T13:16:40.991Z</time></trkpt><trkpt lat="43.8231233" lon="6.2324249"><ele>612.0</ele><time>2026-05-02T13:16:41.99Z</time></trkpt><trkpt lat="43.8229936" lon="6.2323004"><ele>613.0</ele><time>2026-05-02T13:16:42.991Z</time></trkpt><trkpt lat="43.8228682" lon="6.2321868"><ele>611.25</ele><time>2026-05-02T13:16:43.99Z</time></trkpt><trkpt lat="43.8227564" lon="6.2320937"><ele>609.5</ele><time>2026-05-02T13:16:44.991Z</time></trkpt><trkpt lat="43.8226221" lon="6.232101"><ele>607.75</ele><time>2026-05-02T13:16:45.991Z</time></trkpt><trkpt lat="43.8224757" lon="6.2321231"><ele>606.0</ele><time>2026-05-02T13:16:46.991Z</time></trkpt><trkpt lat="43.8223347" lon="6.2321406"><ele>606.0</ele><time>2026-05-02T13:16:47.99Z</time></trkpt><trkpt lat="43.8221956" lon="6.2321661"><ele>606.0</ele><time>2026-05-02T13:16:48.991Z</time></trkpt><trkpt lat="43.8220296" lon="6.2322425"><ele>606.0</ele><time>2026-05-02T13:16:49.99Z</time></trkpt><trkpt lat="43.8218799" lon="6.2323128"><ele>611.0</ele><time>2026-05-02T13:16:50.99Z</time></trkpt><trkpt lat="43.8217418" lon="6.2323902"><ele>616.0</ele><time>2026-05-02T13:16:51.991Z</time></trkpt><trkpt lat="43.8215916" lon="6.2324678"><ele>621.0</ele><time>2026-05-02T13:16:52.991Z</time></trkpt><trkpt lat="43.821458" lon="6.232563"><ele>621.0</ele><time>2026-05-02T13:16:53.991Z</time></trkpt><trkpt lat="43.8213418" lon="6.232657"><ele>621.0</ele><time>2026-05-02T13:16:54.991Z</time></trkpt><trkpt lat="43.8212339" lon="6.2327521"><ele>621.0</ele><time>2026-05-02T13:16:55.99Z</time></trkpt><trkpt lat="43.8211406" lon="6.2329056"><ele>621.0</ele><time>2026-05-02T13:16:56.991Z</time></trkpt><trkpt lat="43.821058" lon="6.233062"><ele>622.25</ele><time>2026-05-02T13:16:57.991Z</time></trkpt><trkpt lat="43.8209728" lon="6.2332294"><ele>623.5</ele><time>2026-05-02T13:16:58.991Z</time></trkpt><trkpt lat="43.8208901" lon="6.2333744"><ele>624.75</ele><time>2026-05-02T13:16:59.99Z</time></trkpt><trkpt lat="43.8207954" lon="6.233484"><ele>626.0</ele><time>2026-05-02T13:17:00.991Z</time></trkpt><trkpt lat="43.8207033" lon="6.2335876"><ele>626.0</ele><time>2026-05-02T13:17:01.99Z</time></trkpt><trkpt lat="43.8205909" lon="6.2336227"><ele>626.0</ele><time>2026-05-02T13:17:02.991Z</time></trkpt><trkpt lat="43.8204734" lon="6.2336489"><ele>626.0</ele><time>2026-05-02T13:17:03.991Z</time></trkpt><trkpt lat="43.8203648" lon="6.2336946"><ele>626.0</ele><time>2026-05-02T13:17:04.991Z</time></trkpt><trkpt lat="43.8202695" lon="6.2337673"><ele>626.0</ele><time>2026-05-02T13:17:05.991Z</time></trkpt><trkpt lat="43.8201878" lon="6.2338586"><ele>626.0</ele><time>2026-05-02T13:17:06.991Z</time></trkpt><trkpt lat="43.8201047" lon="6.2339533"><ele>626.0</ele><time>2026-05-02T13:17:07.991Z</time></trkpt><trkpt lat="43.8200839" lon="6.2340828"><ele>626.0</ele><time>2026-05-02T13:17:08.991Z</time></trkpt><trkpt lat="43.8200486" lon="6.234202"><ele>626.0</ele><time>2026-05-02T13:17:09.991Z</time></trkpt><trkpt lat="43.8200071" lon="6.2343161"><ele>628.0</ele><time>2026-05-02T13:17:10.991Z</time></trkpt><trkpt lat="43.8199463" lon="6.2344008"><ele>630.0</ele><time>2026-05-02T13:17:11.991Z</time></trkpt><trkpt lat="43.8198575" lon="6.234444"><ele>632.0</ele><time>2026-05-02T13:17:12.99Z</time></trkpt><trkpt lat="43.8197627" lon="6.2344518"><ele>634.0</ele><time>2026-05-02T13:17:13.991Z</time></trkpt><trkpt lat="43.8196759" lon="6.2344649"><ele>636.0</ele><time>2026-05-02T13:17:14.991Z</time></trkpt><trkpt lat="43.8195859" lon="6.2344587"><ele>636.0</ele><time>2026-05-02T13:17:15.991Z</time></trkpt><trkpt lat="43.8194987" lon="6.2344705"><ele>636.0</ele><time>2026-05-02T13:17:16.991Z</time></trkpt><trkpt lat="43.8194048" lon="6.2345143"><ele>636.0</ele><time>2026-05-02T13:17:17.991Z</time></trkpt><trkpt lat="43.8193109" lon="6.2345485"><ele>636.0</ele><time>2026-05-02T13:17:18.991Z</time></trkpt><trkpt lat="43.8192222" lon="6.2346018"><ele>636.0</ele><time>2026-05-02T13:17:19.991Z</time></trkpt><trkpt lat="43.8191363" lon="6.2347038"><ele>635.25</ele><time>2026-05-02T13:17:20.991Z</time></trkpt><trkpt lat="43.8190713" lon="6.2347968"><ele>634.5</ele><time>2026-05-02T13:17:21.991Z</time></trkpt><trkpt lat="43.8189883" lon="6.234922"><ele>633.75</ele><time>2026-05-02T13:17:22.991Z</time></trkpt><trkpt lat="43.8189655" lon="6.2350993"><ele>633.0</ele><time>2026-05-02T13:17:23.991Z</time></trkpt><trkpt lat="43.8189494" lon="6.2352717"><ele>637.3333333333334</ele><time>2026-05-02T13:17:24.991Z</time></trkpt><trkpt lat="43.818947" lon="6.2354518"><ele>641.6666666666667</ele><time>2026-05-02T13:17:25.991Z</time></trkpt><trkpt lat="43.8189968" lon="6.2357317"><ele>646.0</ele><time>2026-05-02T13:17:26.991Z</time></trkpt><trkpt lat="43.8189962" lon="6.2359531"><ele>648.3333333333334</ele><time>2026-05-02T13:17:27.991Z</time></trkpt><trkpt lat="43.8189746" lon="6.2361664"><ele>650.6666666666666</ele><time>2026-05-02T13:17:28.991Z</time></trkpt><trkpt lat="43.8189572" lon="6.236387"><ele>653.0</ele><time>2026-05-02T13:17:29.99Z</time></trkpt><trkpt lat="43.8189074" lon="6.2365705"><ele>655.0</ele><time>2026-05-02T13:17:30.991Z</time></trkpt><trkpt lat="43.8188876" lon="6.2367145"><ele>657.0</ele><time>2026-05-02T13:17:31.991Z</time></trkpt><trkpt lat="43.8188741" lon="6.2368957"><ele>659.0</ele><time>2026-05-02T13:17:32.991Z</time></trkpt><trkpt lat="43.8188942" lon="6.237065"><ele>661.0</ele><time>2026-05-02T13:17:33.991Z</time></trkpt><trkpt lat="43.8189212" lon="6.2372558"><ele>661.0</ele><time>2026-05-02T13:17:34.991Z</time></trkpt><trkpt lat="43.8189357" lon="6.2374346"><ele>661.0</ele><time>2026-05-02T13:17:35.99Z</time></trkpt><trkpt lat="43.8189567" lon="6.2376259"><ele>661.0</ele><time>2026-05-02T13:17:36.991Z</time></trkpt><trkpt lat="43.8189207" lon="6.2377891"><ele>661.0</ele><time>2026-05-02T13:17:37.991Z</time></trkpt><trkpt lat="43.8188599" lon="6.2379604"><ele>661.0</ele><time>2026-05-02T13:17:38.991Z</time></trkpt><trkpt lat="43.818824" lon="6.2381214"><ele>661.0</ele><time>2026-05-02T13:17:39.99Z</time></trkpt><trkpt lat="43.8187707" lon="6.238273"><ele>661.0</ele><time>2026-05-02T13:17:40.991Z</time></trkpt><trkpt lat="43.818696" lon="6.2384187"><ele>661.0</ele><time>2026-05-02T13:17:41.991Z</time></trkpt><trkpt lat="43.8186133" lon="6.2385819"><ele>661.75</ele><time>2026-05-02T13:17:42.991Z</time></trkpt><trkpt lat="43.818539" lon="6.2387428"><ele>662.5</ele><time>2026-05-02T13:17:43.991Z</time></trkpt><trkpt lat="43.8184799" lon="6.2389251"><ele>663.25</ele><time>2026-05-02T13:17:44.991Z</time></trkpt><trkpt lat="43.8183789" lon="6.2390985"><ele>664.0</ele><time>2026-05-02T13:17:45.991Z</time></trkpt><trkpt lat="43.8183511" lon="6.2392334"><ele>662.5</ele><time>2026-05-02T13:17:46.99Z</time></trkpt><trkpt lat="43.8182969" lon="6.239421"><ele>661.0</ele><time>2026-05-02T13:17:47.99Z</time></trkpt><trkpt lat="43.8182565" lon="6.2395856"><ele>659.5</ele><time>2026-05-02T13:17:48.99Z</time></trkpt><trkpt lat="43.8182143" lon="6.2397513"><ele>658.0</ele><time>2026-05-02T13:17:49.991Z</time></trkpt><trkpt lat="43.818199" lon="6.2399315"><ele>658.0</ele><time>2026-05-02T13:17:50.991Z</time></trkpt><trkpt lat="43.8181783" lon="6.2401098"><ele>658.0</ele><time>2026-05-02T13:17:51.99Z</time></trkpt><trkpt lat="43.8181657" lon="6.2403031"><ele>658.0</ele><time>2026-05-02T13:17:52.991Z</time></trkpt><trkpt lat="43.8181508" lon="6.2404892"><ele>658.0</ele><time>2026-05-02T13:17:53.991Z</time></trkpt><trkpt lat="43.8180915" lon="6.2406808"><ele>658.25</ele><time>2026-05-02T13:17:54.99Z</time></trkpt><trkpt lat="43.8180434" lon="6.2408686"><ele>658.5</ele><time>2026-05-02T13:17:55.991Z</time></trkpt><trkpt lat="43.8180273" lon="6.2410253"><ele>658.75</ele><time>2026-05-02T13:17:56.991Z</time></trkpt><trkpt lat="43.8180001" lon="6.2412229"><ele>659.0</ele><time>2026-05-02T13:17:57.991Z</time></trkpt><trkpt lat="43.8180059" lon="6.2414369"><ele>660.25</ele><time>2026-05-02T13:17:58.991Z</time></trkpt><trkpt lat="43.8180205" lon="6.2416256"><ele>661.5</ele><time>2026-05-02T13:17:59.991Z</time></trkpt><trkpt lat="43.8180332" lon="6.2418178"><ele>662.75</ele><time>2026-05-02T13:18:00.991Z</time></trkpt><trkpt lat="43.8180206" lon="6.2419804"><ele>664.0</ele><time>2026-05-02T13:18:01.991Z</time></trkpt><trkpt lat="43.818023" lon="6.24216"><ele>664.5</ele><time>2026-05-02T13:18:02.991Z</time></trkpt><trkpt lat="43.8179943" lon="6.2423495"><ele>665.0</ele><time>2026-05-02T13:18:03.991Z</time></trkpt><trkpt lat="43.8179808" lon="6.2425562"><ele>665.5</ele><time>2026-05-02T13:18:04.991Z</time></trkpt><trkpt lat="43.8179454" lon="6.2427402"><ele>666.0</ele><time>2026-05-02T13:18:05.991Z</time></trkpt><trkpt lat="43.8178903" lon="6.2428768"><ele>666.0</ele><time>2026-05-02T13:18:06.991Z</time></trkpt><trkpt lat="43.8178562" lon="6.2430283"><ele>666.0</ele><time>2026-05-02T13:18:07.991Z</time></trkpt><trkpt lat="43.8178251" lon="6.2431703"><ele>666.0</ele><time>2026-05-02T13:18:08.991Z</time></trkpt><trkpt lat="43.8177926" lon="6.2432902"><ele>666.0</ele><time>2026-05-02T13:18:09.991Z</time></trkpt><trkpt lat="43.8177764" lon="6.2434142"><ele>666.0</ele><time>2026-05-02T13:18:10.991Z</time></trkpt><trkpt lat="43.8177517" lon="6.2435025"><ele>666.0</ele><time>2026-05-02T13:18:11.991Z</time></trkpt><trkpt lat="43.8176832" lon="6.2435823"><ele>666.0</ele><time>2026-05-02T13:18:12.991Z</time></trkpt><trkpt lat="43.8176228" lon="6.2436206"><ele>666.0</ele><time>2026-05-02T13:18:13.991Z</time></trkpt><trkpt lat="43.817559" lon="6.2436167"><ele>666.0</ele><time>2026-05-02T13:18:14.991Z</time></trkpt><trkpt lat="43.8174972" lon="6.2435738"><ele>666.0</ele><time>2026-05-02T13:18:15.991Z</time></trkpt><trkpt lat="43.8174035" lon="6.2434494"><ele>666.0</ele><time>2026-05-02T13:18:16.991Z</time></trkpt><trkpt lat="43.8172787" lon="6.2432634"><ele>666.0</ele><time>2026-05-02T13:18:17.991Z</time></trkpt><trkpt lat="43.8171624" lon="6.2431493"><ele>666.0</ele><time>2026-05-02T13:18:18.991Z</time></trkpt><trkpt lat="43.8170592" lon="6.2430259"><ele>666.0</ele><time>2026-05-02T13:18:19.991Z</time></trkpt><trkpt lat="43.8169773" lon="6.2429199"><ele>666.0</ele><time>2026-05-02T13:18:20.991Z</time></trkpt><trkpt lat="43.8168738" lon="6.2428213"><ele>665.5</ele><time>2026-05-02T13:18:21.991Z</time></trkpt><trkpt lat="43.8167685" lon="6.2427015"><ele>665.0</ele><time>2026-05-02T13:18:22.991Z</time></trkpt><trkpt lat="43.816647" lon="6.2425898"><ele>664.5</ele><time>2026-05-02T13:18:23.991Z</time></trkpt><trkpt lat="43.816514" lon="6.2425132"><ele>664.0</ele><time>2026-05-02T13:18:24.991Z</time></trkpt><trkpt lat="43.8164262" lon="6.2425047"><ele>664.0</ele><time>2026-05-02T13:18:25.991Z</time></trkpt><trkpt lat="43.8162547" lon="6.2424809"><ele>664.0</ele><time>2026-05-02T13:18:26.99Z</time></trkpt><trkpt lat="43.816097" lon="6.2425602"><ele>664.0</ele><time>2026-05-02T13:18:27.99Z</time></trkpt><trkpt lat="43.8159634" lon="6.2425981"><ele>662.3333333333334</ele><time>2026-05-02T13:18:28.991Z</time></trkpt><trkpt lat="43.8158149" lon="6.2426537"><ele>660.6666666666666</ele><time>2026-05-02T13:18:29.991Z</time></trkpt><trkpt lat="43.815664" lon="6.2427052"><ele>659.0</ele><time>2026-05-02T13:18:30.99Z</time></trkpt><trkpt lat="43.8155334" lon="6.2427784"><ele>659.0</ele><time>2026-05-02T13:18:31.991Z</time></trkpt><trkpt lat="43.8154146" lon="6.242872"><ele>659.0</ele><time>2026-05-02T13:18:32.991Z</time></trkpt><trkpt lat="43.8153076" lon="6.2429733"><ele>659.0</ele><time>2026-05-02T13:18:33.991Z</time></trkpt><trkpt lat="43.8152055" lon="6.2430677"><ele>659.0</ele><time>2026-05-02T13:18:34.991Z</time></trkpt><trkpt lat="43.8151119" lon="6.2431684"><ele>659.75</ele><time>2026-05-02T13:18:35.991Z</time></trkpt><trkpt lat="43.8150375" lon="6.2432879"><ele>660.5</ele><time>2026-05-02T13:18:36.991Z</time></trkpt><trkpt lat="43.8149705" lon="6.2434226"><ele>661.25</ele><time>2026-05-02T13:18:37.99Z</time></trkpt><trkpt lat="43.8149156" lon="6.2435522"><ele>662.0</ele><time>2026-05-02T13:18:38.991Z</time></trkpt><trkpt lat="43.8148505" lon="6.2437198"><ele>662.0</ele><time>2026-05-02T13:18:39.991Z</time></trkpt><trkpt lat="43.814801" lon="6.2438928"><ele>662.0</ele><time>2026-05-02T13:18:40.991Z</time></trkpt><trkpt lat="43.8147801" lon="6.2440752"><ele>662.0</ele><time>2026-05-02T13:18:41.991Z</time></trkpt><trkpt lat="43.8147174" lon="6.2442488"><ele>662.0</ele><time>2026-05-02T13:18:42.991Z</time></trkpt><trkpt lat="43.8146667" lon="6.2444275"><ele>665.0</ele><time>2026-05-02T13:18:43.99Z</time></trkpt><trkpt lat="43.8146651" lon="6.2446075"><ele>668.0</ele><time>2026-05-02T13:18:44.991Z</time></trkpt><trkpt lat="43.8146223" lon="6.244763"><ele>671.0</ele><time>2026-05-02T13:18:45.991Z</time></trkpt><trkpt lat="43.8145933" lon="6.2449572"><ele>674.0</ele><time>2026-05-02T13:18:46.991Z</time></trkpt><trkpt lat="43.8146055" lon="6.2451162"><ele>674.25</ele><time>2026-05-02T13:18:47.991Z</time></trkpt><trkpt lat="43.8146185" lon="6.2452647"><ele>674.5</ele><time>2026-05-02T13:18:48.991Z</time></trkpt><trkpt lat="43.8146443" lon="6.2453824"><ele>674.75</ele><time>2026-05-02T13:18:49.991Z</time></trkpt><trkpt lat="43.8146956" lon="6.2455359"><ele>675.0</ele><time>2026-05-02T13:18:50.991Z</time></trkpt><trkpt lat="43.8147474" lon="6.2457049"><ele>675.0</ele><time>2026-05-02T13:18:51.991Z</time></trkpt><trkpt lat="43.8148296" lon="6.2458334"><ele>675.0</ele><time>2026-05-02T13:18:52.99Z</time></trkpt><trkpt lat="43.8148771" lon="6.2459572"><ele>675.0</ele><time>2026-05-02T13:18:53.991Z</time></trkpt><trkpt lat="43.814938" lon="6.2460957"><ele>675.0</ele><time>2026-05-02T13:18:54.991Z</time></trkpt><trkpt lat="43.8150345" lon="6.2462406"><ele>675.0</ele><time>2026-05-02T13:18:55.991Z</time></trkpt><trkpt lat="43.8151087" lon="6.2463739"><ele>675.0</ele><time>2026-05-02T13:18:56.99Z</time></trkpt><trkpt lat="43.8151736" lon="6.2465187"><ele>675.0</ele><time>2026-05-02T13:18:57.99Z</time></trkpt><trkpt lat="43.8152093" lon="6.2466605"><ele>675.0</ele><time>2026-05-02T13:18:58.991Z</time></trkpt><trkpt lat="43.8152132" lon="6.2467909"><ele>675.0</ele><time>2026-05-02T13:18:59.991Z</time></trkpt><trkpt lat="43.8151976" lon="6.2469301"><ele>674.4</ele><time>2026-05-02T13:19:00.991Z</time></trkpt><trkpt lat="43.8151239" lon="6.2470665"><ele>673.8</ele><time>2026-05-02T13:19:01.991Z</time></trkpt><trkpt lat="43.8150778" lon="6.2471748"><ele>673.2</ele><time>2026-05-02T13:19:02.991Z</time></trkpt><trkpt lat="43.8150524" lon="6.2473272"><ele>672.6</ele><time>2026-05-02T13:19:03.99Z</time></trkpt><trkpt lat="43.8150309" lon="6.2474723"><ele>672.0</ele><time>2026-05-02T13:19:04.991Z</time></trkpt><trkpt lat="43.8150521" lon="6.2476368"><ele>672.2</ele><time>2026-05-02T13:19:05.99Z</time></trkpt><trkpt lat="43.8150921" lon="6.2477691"><ele>672.4000000000001</ele><time>2026-05-02T13:19:06.991Z</time></trkpt><trkpt lat="43.8151081" lon="6.2478968"><ele>672.5999999999999</ele><time>2026-05-02T13:19:07.991Z</time></trkpt><trkpt lat="43.8151256" lon="6.2480496"><ele>672.8</ele><time>2026-05-02T13:19:08.991Z</time></trkpt><trkpt lat="43.8150928" lon="6.2481599"><ele>673.0</ele><time>2026-05-02T13:19:09.99Z</time></trkpt><trkpt lat="43.8149457" lon="6.2481684"><ele>673.0</ele><time>2026-05-02T13:19:10.991Z</time></trkpt><trkpt lat="43.814882" lon="6.2482348"><ele>673.0</ele><time>2026-05-02T13:19:11.991Z</time></trkpt><trkpt lat="43.8147679" lon="6.2482981"><ele>673.0</ele><time>2026-05-02T13:19:12.991Z</time></trkpt><trkpt lat="43.8146534" lon="6.248394"><ele>673.0</ele><time>2026-05-02T13:19:13.991Z</time></trkpt><trkpt lat="43.8145468" lon="6.2484945"><ele>673.0</ele><time>2026-05-02T13:19:14.991Z</time></trkpt><trkpt lat="43.8144587" lon="6.248613"><ele>673.0</ele><time>2026-05-02T13:19:15.991Z</time></trkpt><trkpt lat="43.8143732" lon="6.2487355"><ele>673.0</ele><time>2026-05-02T13:19:16.99Z</time></trkpt><trkpt lat="43.8143024" lon="6.2488829"><ele>673.0</ele><time>2026-05-02T13:19:17.991Z</time></trkpt><trkpt lat="43.8142596" lon="6.2490419"><ele>670.2</ele><time>2026-05-02T13:19:18.991Z</time></trkpt><trkpt lat="43.8142267" lon="6.2491981"><ele>667.4</ele><time>2026-05-02T13:19:19.991Z</time></trkpt><trkpt lat="43.8141872" lon="6.2493579"><ele>664.6</ele><time>2026-05-02T13:19:20.991Z</time></trkpt><trkpt lat="43.8141753" lon="6.2495008"><ele>661.8000000000001</ele><time>2026-05-02T13:19:21.991Z</time></trkpt><trkpt lat="43.8142085" lon="6.2496101"><ele>659.0</ele><time>2026-05-02T13:19:22.991Z</time></trkpt><trkpt lat="43.8142331" lon="6.2497186"><ele>660.0</ele><time>2026-05-02T13:19:23.991Z</time></trkpt><trkpt lat="43.814241" lon="6.2498239"><ele>661.0</ele><time>2026-05-02T13:19:24.991Z</time></trkpt><trkpt lat="43.8142595" lon="6.2499538"><ele>662.0</ele><time>2026-05-02T13:19:25.991Z</time></trkpt><trkpt lat="43.8142247" lon="6.2500347"><ele>663.0</ele><time>2026-05-02T13:19:26.991Z</time></trkpt><trkpt lat="43.8140888" lon="6.2501793"><ele>664.0</ele><time>2026-05-02T13:19:28.991Z</time></trkpt><trkpt lat="43.8139755" lon="6.2502599"><ele>664.0</ele><time>2026-05-02T13:19:29.991Z</time></trkpt><trkpt lat="43.8138565" lon="6.2503365"><ele>664.0</ele><time>2026-05-02T13:19:30.99Z</time></trkpt><trkpt lat="43.8137069" lon="6.2504229"><ele>664.0</ele><time>2026-05-02T13:19:31.991Z</time></trkpt><trkpt lat="43.8135653" lon="6.2505142"><ele>664.0</ele><time>2026-05-02T13:19:32.991Z</time></trkpt><trkpt lat="43.8134593" lon="6.250567"><ele>659.25</ele><time>2026-05-02T13:19:33.991Z</time></trkpt><trkpt lat="43.813328" lon="6.2505675"><ele>654.5</ele><time>2026-05-02T13:19:34.991Z</time></trkpt><trkpt lat="43.813198" lon="6.2505562"><ele>649.75</ele><time>2026-05-02T13:19:35.991Z</time></trkpt><trkpt lat="43.813081" lon="6.2505048"><ele>645.0</ele><time>2026-05-02T13:19:36.991Z</time></trkpt><trkpt lat="43.812961" lon="6.2504401"><ele>645.0</ele><time>2026-05-02T13:19:37.991Z</time></trkpt><trkpt lat="43.8128739" lon="6.2503944"><ele>645.0</ele><time>2026-05-02T13:19:38.991Z</time></trkpt><trkpt lat="43.8127906" lon="6.2503854"><ele>645.0</ele><time>2026-05-02T13:19:39.991Z</time></trkpt><trkpt lat="43.8127282" lon="6.2504338"><ele>645.0</ele><time>2026-05-02T13:19:41.99Z</time></trkpt><trkpt lat="43.8126997" lon="6.2505989"><ele>645.0</ele><time>2026-05-02T13:19:42.991Z</time></trkpt><trkpt lat="43.8126616" lon="6.2507176"><ele>649.6666666666666</ele><time>2026-05-02T13:19:43.991Z</time></trkpt><trkpt lat="43.8126452" lon="6.2509175"><ele>654.3333333333333</ele><time>2026-05-02T13:19:44.991Z</time></trkpt><trkpt lat="43.8126503" lon="6.2510994"><ele>659.0</ele><time>2026-05-02T13:19:45.99Z</time></trkpt><trkpt lat="43.8127027" lon="6.2513454"><ele>661.0</ele><time>2026-05-02T13:19:46.991Z</time></trkpt><trkpt lat="43.8127255" lon="6.251537"><ele>663.0</ele><time>2026-05-02T13:19:47.991Z</time></trkpt><trkpt lat="43.8127312" lon="6.2517431"><ele>665.0</ele><time>2026-05-02T13:19:48.991Z</time></trkpt><trkpt lat="43.8127369" lon="6.2519683"><ele>665.0</ele><time>2026-05-02T13:19:49.991Z</time></trkpt><trkpt lat="43.8127841" lon="6.2521706"><ele>665.0</ele><time>2026-05-02T13:19:50.991Z</time></trkpt><trkpt lat="43.8128042" lon="6.2523716"><ele>665.0</ele><time>2026-05-02T13:19:51.99Z</time></trkpt><trkpt lat="43.8128239" lon="6.2525589"><ele>665.0</ele><time>2026-05-02T13:19:52.99Z</time></trkpt><trkpt lat="43.8128411" lon="6.2527575"><ele>666.0</ele><time>2026-05-02T13:19:53.991Z</time></trkpt><trkpt lat="43.8128399" lon="6.2529153"><ele>667.0</ele><time>2026-05-02T13:19:54.991Z</time></trkpt><trkpt lat="43.8128396" lon="6.2530861"><ele>668.0</ele><time>2026-05-02T13:19:55.991Z</time></trkpt><trkpt lat="43.8128111" lon="6.253256"><ele>669.0</ele><time>2026-05-02T13:19:56.991Z</time></trkpt><trkpt lat="43.8127757" lon="6.2534171"><ele>669.75</ele><time>2026-05-02T13:19:57.991Z</time></trkpt><trkpt lat="43.8127146" lon="6.2535488"><ele>670.5</ele><time>2026-05-02T13:19:58.991Z</time></trkpt><trkpt lat="43.8126528" lon="6.2536829"><ele>671.25</ele><time>2026-05-02T13:19:59.991Z</time></trkpt><trkpt lat="43.8125606" lon="6.2537767"><ele>672.0</ele><time>2026-05-02T13:20:00.991Z</time></trkpt><trkpt lat="43.8124703" lon="6.2539058"><ele>666.5</ele><time>2026-05-02T13:20:01.991Z</time></trkpt><trkpt lat="43.812383" lon="6.2540446"><ele>661.0</ele><time>2026-05-02T13:20:02.991Z</time></trkpt><trkpt lat="43.8123265" lon="6.2541785"><ele>655.5</ele><time>2026-05-02T13:20:03.99Z</time></trkpt><trkpt lat="43.8122751" lon="6.2543185"><ele>650.0</ele><time>2026-05-02T13:20:04.991Z</time></trkpt><trkpt lat="43.8122361" lon="6.2544761"><ele>650.0</ele><time>2026-05-02T13:20:05.991Z</time></trkpt><trkpt lat="43.8122323" lon="6.2546098"><ele>650.0</ele><time>2026-05-02T13:20:06.99Z</time></trkpt><trkpt lat="43.8122381" lon="6.2547596"><ele>650.0</ele><time>2026-05-02T13:20:07.99Z</time></trkpt><trkpt lat="43.8122768" lon="6.2548632"><ele>650.0</ele><time>2026-05-02T13:20:08.99Z</time></trkpt><trkpt lat="43.8122844" lon="6.2549664"><ele>650.0</ele><time>2026-05-02T13:20:09.991Z</time></trkpt><trkpt lat="43.8122946" lon="6.2550695"><ele>650.0</ele><time>2026-05-02T13:20:10.991Z</time></trkpt><trkpt lat="43.8122511" lon="6.2551817"><ele>648.8</ele><time>2026-05-02T13:20:11.991Z</time></trkpt><trkpt lat="43.8121751" lon="6.255255"><ele>647.6</ele><time>2026-05-02T13:20:12.991Z</time></trkpt><trkpt lat="43.8120846" lon="6.2553074"><ele>646.4000000000001</ele><time>2026-05-02T13:20:13.991Z</time></trkpt><trkpt lat="43.8119532" lon="6.255305"><ele>645.2</ele><time>2026-05-02T13:20:14.99Z</time></trkpt><trkpt lat="43.8118268" lon="6.2553052"><ele>644.0</ele><time>2026-05-02T13:20:15.991Z</time></trkpt><trkpt lat="43.8116435" lon="6.2552873"><ele>644.0</ele><time>2026-05-02T13:20:16.991Z</time></trkpt><trkpt lat="43.81149" lon="6.2553064"><ele>644.0</ele><time>2026-05-02T13:20:17.991Z</time></trkpt><trkpt lat="43.8113445" lon="6.2553234"><ele>644.0</ele><time>2026-05-02T13:20:18.99Z</time></trkpt><trkpt lat="43.8111905" lon="6.2553131"><ele>644.0</ele><time>2026-05-02T13:20:19.991Z</time></trkpt><trkpt lat="43.8110842" lon="6.2552627"><ele>644.0</ele><time>2026-05-02T13:20:20.991Z</time></trkpt><trkpt lat="43.8109888" lon="6.2552309"><ele>644.0</ele><time>2026-05-02T13:20:21.991Z</time></trkpt><trkpt lat="43.8108734" lon="6.2552054"><ele>644.0</ele><time>2026-05-02T13:20:22.99Z</time></trkpt><trkpt lat="43.8107611" lon="6.2552354"><ele>644.0</ele><time>2026-05-02T13:20:23.991Z</time></trkpt><trkpt lat="43.8106526" lon="6.2552831"><ele>643.8000000000001</ele><time>2026-05-02T13:20:24.991Z</time></trkpt><trkpt lat="43.8105803" lon="6.2553291"><ele>643.6</ele><time>2026-05-02T13:20:25.991Z</time></trkpt><trkpt lat="43.8105193" lon="6.2554813"><ele>643.4</ele><time>2026-05-02T13:20:26.99Z</time></trkpt><trkpt lat="43.8104541" lon="6.2555759"><ele>643.2</ele><time>2026-05-02T13:20:27.991Z</time></trkpt><trkpt lat="43.8103391" lon="6.2555784"><ele>643.0</ele><time>2026-05-02T13:20:28.991Z</time></trkpt><trkpt lat="43.8102339" lon="6.255543"><ele>645.0</ele><time>2026-05-02T13:20:29.991Z</time></trkpt><trkpt lat="43.8101407" lon="6.2554831"><ele>647.0</ele><time>2026-05-02T13:20:30.991Z</time></trkpt><trkpt lat="43.8100639" lon="6.2553891"><ele>649.0</ele><time>2026-05-02T13:20:31.991Z</time></trkpt><trkpt lat="43.8099901" lon="6.2551893"><ele>651.0</ele><time>2026-05-02T13:20:32.991Z</time></trkpt><trkpt lat="43.8099178" lon="6.2550253"><ele>651.0</ele><time>2026-05-02T13:20:33.991Z</time></trkpt><trkpt lat="43.809838" lon="6.2549067"><ele>651.0</ele><time>2026-05-02T13:20:34.991Z</time></trkpt><trkpt lat="43.809727" lon="6.2547702"><ele>651.0</ele><time>2026-05-02T13:20:35.991Z</time></trkpt><trkpt lat="43.8095826" lon="6.2546812"><ele>651.0</ele><time>2026-05-02T13:20:36.991Z</time></trkpt><trkpt lat="43.8094403" lon="6.2545843"><ele>648.5</ele><time>2026-05-02T13:20:37.991Z</time></trkpt><trkpt lat="43.8092963" lon="6.2545049"><ele>646.0</ele><time>2026-05-02T13:20:38.991Z</time></trkpt><trkpt lat="43.8091743" lon="6.2544743"><ele>643.5</ele><time>2026-05-02T13:20:39.991Z</time></trkpt><trkpt lat="43.8090443" lon="6.2544281"><ele>641.0</ele><time>2026-05-02T13:20:40.991Z</time></trkpt><trkpt lat="43.8089382" lon="6.2543917"><ele>641.0</ele><time>2026-05-02T13:20:41.991Z</time></trkpt><trkpt lat="43.8088283" lon="6.2544047"><ele>641.0</ele><time>2026-05-02T13:20:42.99Z</time></trkpt><trkpt lat="43.8087149" lon="6.254485"><ele>641.0</ele><time>2026-05-02T13:20:43.991Z</time></trkpt><trkpt lat="43.8086596" lon="6.2545945"><ele>641.0</ele><time>2026-05-02T13:20:44.991Z</time></trkpt><trkpt lat="43.8085497" lon="6.2547188"><ele>647.75</ele><time>2026-05-02T13:20:45.991Z</time></trkpt><trkpt lat="43.808438" lon="6.2547926"><ele>654.5</ele><time>2026-05-02T13:20:46.991Z</time></trkpt><trkpt lat="43.8083167" lon="6.254808"><ele>661.25</ele><time>2026-05-02T13:20:47.991Z</time></trkpt><trkpt lat="43.8081829" lon="6.2547961"><ele>668.0</ele><time>2026-05-02T13:20:48.991Z</time></trkpt><trkpt lat="43.8080541" lon="6.254814"><ele>668.0</ele><time>2026-05-02T13:20:49.99Z</time></trkpt><trkpt lat="43.8079251" lon="6.2548178"><ele>668.0</ele><time>2026-05-02T13:20:50.991Z</time></trkpt><trkpt lat="43.8077893" lon="6.2548107"><ele>668.0</ele><time>2026-05-02T13:20:51.991Z</time></trkpt><trkpt lat="43.8076456" lon="6.2548112"><ele>668.0</ele><time>2026-05-02T13:20:52.99Z</time></trkpt><trkpt lat="43.8074926" lon="6.2547946"><ele>659.25</ele><time>2026-05-02T13:20:53.991Z</time></trkpt><trkpt lat="43.8073566" lon="6.254693"><ele>650.5</ele><time>2026-05-02T13:20:54.991Z</time></trkpt><trkpt lat="43.8072181" lon="6.2546456"><ele>641.75</ele><time>2026-05-02T13:20:55.99Z</time></trkpt><trkpt lat="43.8071143" lon="6.2545978"><ele>633.0</ele><time>2026-05-02T13:20:56.991Z</time></trkpt><trkpt lat="43.8070058" lon="6.2545472"><ele>633.0</ele><time>2026-05-02T13:20:57.991Z</time></trkpt><trkpt lat="43.8069033" lon="6.2545013"><ele>633.0</ele><time>2026-05-02T13:20:58.991Z</time></trkpt><trkpt lat="43.8068018" lon="6.254454"><ele>633.0</ele><time>2026-05-02T13:20:59.991Z</time></trkpt><trkpt lat="43.8066841" lon="6.2544261"><ele>633.0</ele><time>2026-05-02T13:21:00.991Z</time></trkpt><trkpt lat="43.8065871" lon="6.2544147"><ele>633.0</ele><time>2026-05-02T13:21:01.99Z</time></trkpt><trkpt lat="43.8065154" lon="6.2544565"><ele>634.0</ele><time>2026-05-02T13:21:02.991Z</time></trkpt><trkpt lat="43.806446" lon="6.2545235"><ele>635.0</ele><time>2026-05-02T13:21:03.991Z</time></trkpt><trkpt lat="43.806398" lon="6.2545865"><ele>636.0</ele><time>2026-05-02T13:21:04.991Z</time></trkpt><trkpt lat="43.8063182" lon="6.254594"><ele>637.0</ele><time>2026-05-02T13:21:05.991Z</time></trkpt><trkpt lat="43.8062279" lon="6.254593"><ele>638.0</ele><time>2026-05-02T13:21:06.99Z</time></trkpt><trkpt lat="43.8061329" lon="6.2545598"><ele>639.0</ele><time>2026-05-02T13:21:07.991Z</time></trkpt><trkpt lat="43.8060808" lon="6.2545082"><ele>642.5</ele><time>2026-05-02T13:21:08.99Z</time></trkpt><trkpt lat="43.8059814" lon="6.2544048"><ele>646.0</ele><time>2026-05-02T13:21:09.99Z</time></trkpt><trkpt lat="43.8059183" lon="6.2543151"><ele>649.5</ele><time>2026-05-02T13:21:10.991Z</time></trkpt><trkpt lat="43.805865" lon="6.2542452"><ele>653.0</ele><time>2026-05-02T13:21:11.991Z</time></trkpt><trkpt lat="43.8058104" lon="6.2541861"><ele>656.5</ele><time>2026-05-02T13:21:12.991Z</time></trkpt><trkpt lat="43.8057322" lon="6.2541375"><ele>660.0</ele><time>2026-05-02T13:21:13.991Z</time></trkpt><trkpt lat="43.8056545" lon="6.2540941"><ele>660.0</ele><time>2026-05-02T13:21:14.991Z</time></trkpt><trkpt lat="43.8055594" lon="6.2540518"><ele>660.0</ele><time>2026-05-02T13:21:15.991Z</time></trkpt><trkpt lat="43.8054512" lon="6.2540273"><ele>660.0</ele><time>2026-05-02T13:21:16.991Z</time></trkpt><trkpt lat="43.8053338" lon="6.2540131"><ele>660.0</ele><time>2026-05-02T13:21:17.991Z</time></trkpt><trkpt lat="43.8052167" lon="6.2540205"><ele>660.0</ele><time>2026-05-02T13:21:18.991Z</time></trkpt><trkpt lat="43.8050973" lon="6.2540196"><ele>662.2</ele><time>2026-05-02T13:21:19.991Z</time></trkpt><trkpt lat="43.8049746" lon="6.2540252"><ele>664.4</ele><time>2026-05-02T13:21:20.991Z</time></trkpt><trkpt lat="43.8048643" lon="6.2540408"><ele>666.5999999999999</ele><time>2026-05-02T13:21:21.99Z</time></trkpt><trkpt lat="43.8047587" lon="6.2540184"><ele>668.8</ele><time>2026-05-02T13:21:22.991Z</time></trkpt><trkpt lat="43.804658" lon="6.2540065"><ele>671.0</ele><time>2026-05-02T13:21:23.99Z</time></trkpt><trkpt lat="43.8045525" lon="6.2540097"><ele>671.0</ele><time>2026-05-02T13:21:24.991Z</time></trkpt><trkpt lat="43.8044333" lon="6.2540596"><ele>671.0</ele><time>2026-05-02T13:21:25.991Z</time></trkpt><trkpt lat="43.8043527" lon="6.2541045"><ele>671.0</ele><time>2026-05-02T13:21:26.991Z</time></trkpt><trkpt lat="43.8042618" lon="6.2541122"><ele>671.0</ele><time>2026-05-02T13:21:27.991Z</time></trkpt><trkpt lat="43.8041846" lon="6.2541132"><ele>671.0</ele><time>2026-05-02T13:21:28.991Z</time></trkpt><trkpt lat="43.8041103" lon="6.254097"><ele>669.4</ele><time>2026-05-02T13:21:29.99Z</time></trkpt><trkpt lat="43.8040341" lon="6.2540375"><ele>667.8</ele><time>2026-05-02T13:21:30.991Z</time></trkpt><trkpt lat="43.8039702" lon="6.2540091"><ele>666.1999999999999</ele><time>2026-05-02T13:21:31.991Z</time></trkpt><trkpt lat="43.8038798" lon="6.2540047"><ele>664.5999999999999</ele><time>2026-05-02T13:21:32.991Z</time></trkpt><trkpt lat="43.8037873" lon="6.2540406"><ele>663.0</ele><time>2026-05-02T13:21:33.99Z</time></trkpt><trkpt lat="43.8037213" lon="6.2541818"><ele>663.0</ele><time>2026-05-02T13:21:34.991Z</time></trkpt><trkpt lat="43.8036366" lon="6.2542659"><ele>663.0</ele><time>2026-05-02T13:21:35.991Z</time></trkpt><trkpt lat="43.8035498" lon="6.2543456"><ele>663.0</ele><time>2026-05-02T13:21:36.991Z</time></trkpt><trkpt lat="43.8034224" lon="6.2544281"><ele>663.0</ele><time>2026-05-02T13:21:37.99Z</time></trkpt><trkpt lat="43.8033223" lon="6.2544572"><ele>658.75</ele><time>2026-05-02T13:21:38.991Z</time></trkpt><trkpt lat="43.8032082" lon="6.2544519"><ele>654.5</ele><time>2026-05-02T13:21:39.99Z</time></trkpt><trkpt lat="43.803095" lon="6.2544332"><ele>650.25</ele><time>2026-05-02T13:21:40.991Z</time></trkpt><trkpt lat="43.8029833" lon="6.2543969"><ele>646.0</ele><time>2026-05-02T13:21:41.99Z</time></trkpt><trkpt lat="43.8028672" lon="6.2543488"><ele>646.0</ele><time>2026-05-02T13:21:42.991Z</time></trkpt><trkpt lat="43.8027557" lon="6.2543261"><ele>646.0</ele><time>2026-05-02T13:21:43.991Z</time></trkpt><trkpt lat="43.802655" lon="6.2543438"><ele>646.0</ele><time>2026-05-02T13:21:44.991Z</time></trkpt><trkpt lat="43.802574" lon="6.2543791"><ele>646.0</ele><time>2026-05-02T13:21:45.991Z</time></trkpt><trkpt lat="43.8024942" lon="6.2544236"><ele>646.0</ele><time>2026-05-02T13:21:46.991Z</time></trkpt><trkpt lat="43.8024256" lon="6.2545011"><ele>643.0</ele><time>2026-05-02T13:21:47.991Z</time></trkpt><trkpt lat="43.8023621" lon="6.2545783"><ele>640.0</ele><time>2026-05-02T13:21:48.991Z</time></trkpt><trkpt lat="43.8023067" lon="6.254671"><ele>637.0</ele><time>2026-05-02T13:21:49.99Z</time></trkpt><trkpt lat="43.8022626" lon="6.2548105"><ele>634.0</ele><time>2026-05-02T13:21:50.991Z</time></trkpt><trkpt lat="43.8022398" lon="6.254987"><ele>631.0</ele><time>2026-05-02T13:21:51.991Z</time></trkpt><trkpt lat="43.8021878" lon="6.2551193"><ele>628.6</ele><time>2026-05-02T13:21:52.991Z</time></trkpt><trkpt lat="43.8021265" lon="6.2552605"><ele>626.2</ele><time>2026-05-02T13:21:53.991Z</time></trkpt><trkpt lat="43.8020574" lon="6.2553581"><ele>623.8</ele><time>2026-05-02T13:21:54.991Z</time></trkpt><trkpt lat="43.8019547" lon="6.2554451"><ele>621.4</ele><time>2026-05-02T13:21:55.991Z</time></trkpt><trkpt lat="43.8018648" lon="6.2555149"><ele>619.0</ele><time>2026-05-02T13:21:56.991Z</time></trkpt><trkpt lat="43.8017599" lon="6.2555571"><ele>629.4</ele><time>2026-05-02T13:21:57.991Z</time></trkpt><trkpt lat="43.8016554" lon="6.255626"><ele>639.8</ele><time>2026-05-02T13:21:58.991Z</time></trkpt><trkpt lat="43.8015667" lon="6.2556925"><ele>650.1999999999999</ele><time>2026-05-02T13:21:59.991Z</time></trkpt><trkpt lat="43.8014864" lon="6.2557866"><ele>660.5999999999999</ele><time>2026-05-02T13:22:00.991Z</time></trkpt><trkpt lat="43.8014111" lon="6.2559024"><ele>671.0</ele><time>2026-05-02T13:22:01.991Z</time></trkpt><trkpt lat="43.8013454" lon="6.256032"><ele>671.0</ele><time>2026-05-02T13:22:02.991Z</time></trkpt><trkpt lat="43.8012708" lon="6.256135"><ele>671.0</ele><time>2026-05-02T13:22:03.991Z</time></trkpt><trkpt lat="43.8011934" lon="6.2562416"><ele>671.0</ele><time>2026-05-02T13:22:04.991Z</time></trkpt><trkpt lat="43.8011142" lon="6.2563538"><ele>671.0</ele><time>2026-05-02T13:22:05.991Z</time></trkpt><trkpt lat="43.801032" lon="6.2564412"><ele>671.0</ele><time>2026-05-02T13:22:06.99Z</time></trkpt><trkpt lat="43.800944" lon="6.2565305"><ele>667.0</ele><time>2026-05-02T13:22:07.991Z</time></trkpt><trkpt lat="43.8008517" lon="6.2566152"><ele>663.0</ele><time>2026-05-02T13:22:08.991Z</time></trkpt><trkpt lat="43.8007711" lon="6.2567339"><ele>659.0</ele><time>2026-05-02T13:22:09.991Z</time></trkpt><trkpt lat="43.8006932" lon="6.256846"><ele>655.0</ele><time>2026-05-02T13:22:10.991Z</time></trkpt><trkpt lat="43.8006199" lon="6.2569513"><ele>651.0</ele><time>2026-05-02T13:22:11.991Z</time></trkpt><trkpt lat="43.8005579" lon="6.2570689"><ele>651.0</ele><time>2026-05-02T13:22:12.991Z</time></trkpt><trkpt lat="43.8004869" lon="6.2571698"><ele>651.0</ele><time>2026-05-02T13:22:13.991Z</time></trkpt><trkpt lat="43.8004198" lon="6.2572558"><ele>651.0</ele><time>2026-05-02T13:22:14.991Z</time></trkpt><trkpt lat="43.8003647" lon="6.2573252"><ele>651.0</ele><time>2026-05-02T13:22:15.99Z</time></trkpt><trkpt lat="43.8003212" lon="6.2574013"><ele>651.0</ele><time>2026-05-02T13:22:16.991Z</time></trkpt><trkpt lat="43.8003241" lon="6.2575733"><ele>651.0</ele><time>2026-05-02T13:22:18.991Z</time></trkpt><trkpt lat="43.8003436" lon="6.2576749"><ele>651.0</ele><time>2026-05-02T13:22:19.991Z</time></trkpt><trkpt lat="43.8003675" lon="6.2577911"><ele>651.0</ele><time>2026-05-02T13:22:20.991Z</time></trkpt><trkpt lat="43.800419" lon="6.2579119"><ele>651.0</ele><time>2026-05-02T13:22:21.991Z</time></trkpt><trkpt lat="43.8004626" lon="6.2580035"><ele>651.0</ele><time>2026-05-02T13:22:22.991Z</time></trkpt><trkpt lat="43.800516" lon="6.2580791"><ele>651.0</ele><time>2026-05-02T13:22:23.99Z</time></trkpt><trkpt lat="43.8005906" lon="6.2581488"><ele>651.0</ele><time>2026-05-02T13:22:24.991Z</time></trkpt><trkpt lat="43.8006537" lon="6.2582669"><ele>651.0</ele><time>2026-05-02T13:22:25.991Z</time></trkpt><trkpt lat="43.8007019" lon="6.2583919"><ele>651.0</ele><time>2026-05-02T13:22:26.991Z</time></trkpt><trkpt lat="43.8007493" lon="6.2585157"><ele>651.0</ele><time>2026-05-02T13:22:27.991Z</time></trkpt><trkpt lat="43.8007764" lon="6.2586295"><ele>651.0</ele><time>2026-05-02T13:22:28.991Z</time></trkpt><trkpt lat="43.8007524" lon="6.2588394"><ele>651.0</ele><time>2026-05-02T13:22:30.991Z</time></trkpt><trkpt lat="43.8007538" lon="6.258956"><ele>651.0</ele><time>2026-05-02T13:22:31.991Z</time></trkpt><trkpt lat="43.8007486" lon="6.259085"><ele>651.0</ele><time>2026-05-02T13:22:32.991Z</time></trkpt><trkpt lat="43.8007456" lon="6.2592228"><ele>651.0</ele><time>2026-05-02T13:22:33.99Z</time></trkpt><trkpt lat="43.8007375" lon="6.2593509"><ele>651.0</ele><time>2026-05-02T13:22:34.991Z</time></trkpt><trkpt lat="43.8007121" lon="6.2595275"><ele>651.0</ele><time>2026-05-02T13:22:35.991Z</time></trkpt><trkpt lat="43.8006494" lon="6.2596153"><ele>651.0</ele><time>2026-05-02T13:22:36.991Z</time></trkpt><trkpt lat="43.8005749" lon="6.2596814"><ele>651.0</ele><time>2026-05-02T13:22:37.991Z</time></trkpt><trkpt lat="43.8004981" lon="6.2597491"><ele>651.0</ele><time>2026-05-02T13:22:38.991Z</time></trkpt><trkpt lat="43.8003824" lon="6.2597301"><ele>651.0</ele><time>2026-05-02T13:22:39.99Z</time></trkpt><trkpt lat="43.800279" lon="6.259748"><ele>657.0</ele><time>2026-05-02T13:22:40.991Z</time></trkpt><trkpt lat="43.8001344" lon="6.2597673"><ele>663.0</ele><time>2026-05-02T13:22:41.991Z</time></trkpt><trkpt lat="43.8000194" lon="6.2597828"><ele>669.0</ele><time>2026-05-02T13:22:42.991Z</time></trkpt><trkpt lat="43.7999121" lon="6.2598155"><ele>675.0</ele><time>2026-05-02T13:22:43.99Z</time></trkpt><trkpt lat="43.7997982" lon="6.2597801"><ele>667.8</ele><time>2026-05-02T13:22:44.991Z</time></trkpt><trkpt lat="43.7996964" lon="6.2597318"><ele>660.6</ele><time>2026-05-02T13:22:45.991Z</time></trkpt><trkpt lat="43.799602" lon="6.2596926"><ele>653.4</ele><time>2026-05-02T13:22:46.991Z</time></trkpt><trkpt lat="43.7994811" lon="6.2596602"><ele>646.2</ele><time>2026-05-02T13:22:47.99Z</time></trkpt><trkpt lat="43.7993817" lon="6.259614"><ele>639.0</ele><time>2026-05-02T13:22:48.991Z</time></trkpt><trkpt lat="43.7992728" lon="6.2595902"><ele>639.0</ele><time>2026-05-02T13:22:49.99Z</time></trkpt><trkpt lat="43.7991694" lon="6.2595949"><ele>639.0</ele><time>2026-05-02T13:22:50.991Z</time></trkpt><trkpt lat="43.7990698" lon="6.2596199"><ele>639.0</ele><time>2026-05-02T13:22:51.991Z</time></trkpt><trkpt lat="43.7989605" lon="6.2596615"><ele>639.0</ele><time>2026-05-02T13:22:52.991Z</time></trkpt><trkpt lat="43.7988485" lon="6.2597084"><ele>639.0</ele><time>2026-05-02T13:22:53.991Z</time></trkpt><trkpt lat="43.7987499" lon="6.2597125"><ele>639.0</ele><time>2026-05-02T13:22:54.99Z</time></trkpt><trkpt lat="43.7986471" lon="6.2597249"><ele>639.0</ele><time>2026-05-02T13:22:55.991Z</time></trkpt><trkpt lat="43.7985569" lon="6.2597357"><ele>639.0</ele><time>2026-05-02T13:22:56.991Z</time></trkpt><trkpt lat="43.7984545" lon="6.259762"><ele>639.0</ele><time>2026-05-02T13:22:57.991Z</time></trkpt><trkpt lat="43.7983591" lon="6.2598242"><ele>639.0</ele><time>2026-05-02T13:22:58.991Z</time></trkpt><trkpt lat="43.798272" lon="6.2598996"><ele>642.8</ele><time>2026-05-02T13:22:59.991Z</time></trkpt><trkpt lat="43.7981967" lon="6.2599868"><ele>646.5999999999999</ele><time>2026-05-02T13:23:00.991Z</time></trkpt><trkpt lat="43.7981332" lon="6.2600927"><ele>650.4</ele><time>2026-05-02T13:23:01.991Z</time></trkpt><trkpt lat="43.7980952" lon="6.2602013"><ele>654.1999999999999</ele><time>2026-05-02T13:23:02.991Z</time></trkpt><trkpt lat="43.7980402" lon="6.2603218"><ele>658.0</ele><time>2026-05-02T13:23:03.991Z</time></trkpt><trkpt lat="43.7979561" lon="6.2604208"><ele>658.0</ele><time>2026-05-02T13:23:04.991Z</time></trkpt><trkpt lat="43.7978952" lon="6.2605105"><ele>658.0</ele><time>2026-05-02T13:23:05.991Z</time></trkpt><trkpt lat="43.7978358" lon="6.2606032"><ele>658.0</ele><time>2026-05-02T13:23:06.991Z</time></trkpt><trkpt lat="43.7977834" lon="6.26069"><ele>658.0</ele><time>2026-05-02T13:23:07.991Z</time></trkpt><trkpt lat="43.7977486" lon="6.2608049"><ele>658.0</ele><time>2026-05-02T13:23:08.99Z</time></trkpt><trkpt lat="43.7977816" lon="6.2610176"><ele>663.5</ele><time>2026-05-02T13:23:10.991Z</time></trkpt><trkpt lat="43.7978947" lon="6.2612208"><ele>669.0</ele><time>2026-05-02T13:23:11.991Z</time></trkpt><trkpt lat="43.7979885" lon="6.2613714"><ele>674.5</ele><time>2026-05-02T13:23:12.991Z</time></trkpt><trkpt lat="43.798041" lon="6.261495"><ele>680.0</ele><time>2026-05-02T13:23:13.991Z</time></trkpt><trkpt lat="43.7980793" lon="6.2616225"><ele>683.8</ele><time>2026-05-02T13:23:14.991Z</time></trkpt><trkpt lat="43.7980952" lon="6.2617102"><ele>687.6</ele><time>2026-05-02T13:23:15.991Z</time></trkpt><trkpt lat="43.7980742" lon="6.2617952"><ele>691.4000000000001</ele><time>2026-05-02T13:23:16.99Z</time></trkpt><trkpt lat="43.7979932" lon="6.2618947"><ele>695.2</ele><time>2026-05-02T13:23:18.991Z</time></trkpt><trkpt lat="43.7978668" lon="6.2620285"><ele>699.0</ele><time>2026-05-02T13:23:19.991Z</time></trkpt><trkpt lat="43.7977288" lon="6.2621507"><ele>691.0</ele><time>2026-05-02T13:23:20.99Z</time></trkpt><trkpt lat="43.7976395" lon="6.2622574"><ele>683.0</ele><time>2026-05-02T13:23:21.99Z</time></trkpt><trkpt lat="43.7975507" lon="6.2623732"><ele>675.0</ele><time>2026-05-02T13:23:22.99Z</time></trkpt><trkpt lat="43.7974543" lon="6.2624684"><ele>667.0</ele><time>2026-05-02T13:23:23.99Z</time></trkpt><trkpt lat="43.7973418" lon="6.2625265"><ele>667.0</ele><time>2026-05-02T13:23:24.991Z</time></trkpt><trkpt lat="43.7972328" lon="6.2626012"><ele>667.0</ele><time>2026-05-02T13:23:25.991Z</time></trkpt><trkpt lat="43.7971415" lon="6.2626558"><ele>667.0</ele><time>2026-05-02T13:23:26.991Z</time></trkpt><trkpt lat="43.7970637" lon="6.2627275"><ele>667.0</ele><time>2026-05-02T13:23:27.991Z</time></trkpt><trkpt lat="43.7969842" lon="6.2628144"><ele>667.0</ele><time>2026-05-02T13:23:28.991Z</time></trkpt><trkpt lat="43.7968953" lon="6.2629071"><ele>658.25</ele><time>2026-05-02T13:23:29.991Z</time></trkpt><trkpt lat="43.7967862" lon="6.2629616"><ele>649.5</ele><time>2026-05-02T13:23:30.99Z</time></trkpt><trkpt lat="43.796673" lon="6.2629948"><ele>640.75</ele><time>2026-05-02T13:23:31.991Z</time></trkpt><trkpt lat="43.7965566" lon="6.2630357"><ele>632.0</ele><time>2026-05-02T13:23:32.99Z</time></trkpt><trkpt lat="43.7964478" lon="6.2630883"><ele>638.0</ele><time>2026-05-02T13:23:33.991Z</time></trkpt><trkpt lat="43.7963493" lon="6.2631563"><ele>644.0</ele><time>2026-05-02T13:23:34.991Z</time></trkpt><trkpt lat="43.796231" lon="6.2632221"><ele>650.0</ele><time>2026-05-02T13:23:35.991Z</time></trkpt><trkpt lat="43.7960975" lon="6.2632701"><ele>656.0</ele><time>2026-05-02T13:23:36.991Z</time></trkpt><trkpt lat="43.7959717" lon="6.2633156"><ele>656.0</ele><time>2026-05-02T13:23:37.991Z</time></trkpt><trkpt lat="43.7958355" lon="6.2633323"><ele>656.0</ele><time>2026-05-02T13:23:38.99Z</time></trkpt><trkpt lat="43.7957114" lon="6.2633138"><ele>656.0</ele><time>2026-05-02T13:23:39.991Z</time></trkpt><trkpt lat="43.7956019" lon="6.2633035"><ele>656.0</ele><time>2026-05-02T13:23:40.991Z</time></trkpt><trkpt lat="43.7955053" lon="6.2632752"><ele>656.0</ele><time>2026-05-02T13:23:41.991Z</time></trkpt><trkpt lat="43.7954073" lon="6.2632421"><ele>656.0</ele><time>2026-05-02T13:23:42.991Z</time></trkpt><trkpt lat="43.7953236" lon="6.2631335"><ele>656.0</ele><time>2026-05-02T13:23:43.991Z</time></trkpt><trkpt lat="43.7952554" lon="6.2630503"><ele>656.0</ele><time>2026-05-02T13:23:44.991Z</time></trkpt><trkpt lat="43.7951767" lon="6.2629426"><ele>656.0</ele><time>2026-05-02T13:23:45.991Z</time></trkpt><trkpt lat="43.7950922" lon="6.2628786"><ele>652.4</ele><time>2026-05-02T13:23:46.991Z</time></trkpt><trkpt lat="43.7949997" lon="6.2627677"><ele>648.8</ele><time>2026-05-02T13:23:47.99Z</time></trkpt><trkpt lat="43.7949065" lon="6.2626933"><ele>645.1999999999999</ele><time>2026-05-02T13:23:48.991Z</time></trkpt><trkpt lat="43.794823" lon="6.2625796"><ele>641.5999999999999</ele><time>2026-05-02T13:23:49.991Z</time></trkpt><trkpt lat="43.7947515" lon="6.2625189"><ele>638.0</ele><time>2026-05-02T13:23:50.99Z</time></trkpt><trkpt lat="43.794662" lon="6.2625519"><ele>638.0</ele><time>2026-05-02T13:23:51.991Z</time></trkpt><trkpt lat="43.7945873" lon="6.2625791"><ele>638.0</ele><time>2026-05-02T13:23:52.99Z</time></trkpt><trkpt lat="43.7945279" lon="6.2626469"><ele>638.0</ele><time>2026-05-02T13:23:53.991Z</time></trkpt><trkpt lat="43.7944997" lon="6.2627307"><ele>638.0</ele><time>2026-05-02T13:23:54.991Z</time></trkpt><trkpt lat="43.794462" lon="6.2628378"><ele>638.0</ele><time>2026-05-02T13:23:55.991Z</time></trkpt><trkpt lat="43.794393" lon="6.2629511"><ele>638.0</ele><time>2026-05-02T13:23:56.99Z</time></trkpt><trkpt lat="43.7942823" lon="6.2631309"><ele>640.5</ele><time>2026-05-02T13:23:57.991Z</time></trkpt><trkpt lat="43.7942106" lon="6.2632764"><ele>643.0</ele><time>2026-05-02T13:23:58.991Z</time></trkpt><trkpt lat="43.7941371" lon="6.2634401"><ele>645.5</ele><time>2026-05-02T13:23:59.99Z</time></trkpt><trkpt lat="43.7940518" lon="6.2635886"><ele>648.0</ele><time>2026-05-02T13:24:00.991Z</time></trkpt><trkpt lat="43.7939716" lon="6.2637324"><ele>648.0</ele><time>2026-05-02T13:24:01.99Z</time></trkpt><trkpt lat="43.793901" lon="6.2638738"><ele>648.0</ele><time>2026-05-02T13:24:02.991Z</time></trkpt><trkpt lat="43.7938341" lon="6.2640403"><ele>648.0</ele><time>2026-05-02T13:24:03.991Z</time></trkpt><trkpt lat="43.7938321" lon="6.2642146"><ele>648.0</ele><time>2026-05-02T13:24:04.991Z</time></trkpt><trkpt lat="43.7938174" lon="6.2643775"><ele>654.0</ele><time>2026-05-02T13:24:05.991Z</time></trkpt><trkpt lat="43.7937769" lon="6.2645292"><ele>660.0</ele><time>2026-05-02T13:24:06.991Z</time></trkpt><trkpt lat="43.7937269" lon="6.2646481"><ele>666.0</ele><time>2026-05-02T13:24:07.991Z</time></trkpt><trkpt lat="43.7936423" lon="6.2647728"><ele>672.0</ele><time>2026-05-02T13:24:08.991Z</time></trkpt><trkpt lat="43.7935232" lon="6.2648689"><ele>670.5</ele><time>2026-05-02T13:24:09.991Z</time></trkpt><trkpt lat="43.7934219" lon="6.264971"><ele>669.0</ele><time>2026-05-02T13:24:10.991Z</time></trkpt><trkpt lat="43.7933071" lon="6.2650363"><ele>667.5</ele><time>2026-05-02T13:24:11.991Z</time></trkpt><trkpt lat="43.7931968" lon="6.2651026"><ele>666.0</ele><time>2026-05-02T13:24:12.991Z</time></trkpt><trkpt lat="43.7930953" lon="6.2651559"><ele>666.0</ele><time>2026-05-02T13:24:13.991Z</time></trkpt><trkpt lat="43.7929535" lon="6.2651445"><ele>666.0</ele><time>2026-05-02T13:24:14.991Z</time></trkpt><trkpt lat="43.7928285" lon="6.2651721"><ele>666.0</ele><time>2026-05-02T13:24:15.991Z</time></trkpt><trkpt lat="43.7927126" lon="6.265214"><ele>666.0</ele><time>2026-05-02T13:24:16.991Z</time></trkpt><trkpt lat="43.7925805" lon="6.2652245"><ele>661.5</ele><time>2026-05-02T13:24:17.991Z</time></trkpt><trkpt lat="43.7924466" lon="6.2652427"><ele>657.0</ele><time>2026-05-02T13:24:18.99Z</time></trkpt><trkpt lat="43.7923214" lon="6.2652526"><ele>652.5</ele><time>2026-05-02T13:24:19.991Z</time></trkpt><trkpt lat="43.7921858" lon="6.2652599"><ele>648.0</ele><time>2026-05-02T13:24:20.99Z</time></trkpt><trkpt lat="43.7920662" lon="6.265231"><ele>648.0</ele><time>2026-05-02T13:24:21.991Z</time></trkpt><trkpt lat="43.7919397" lon="6.2652343"><ele>648.0</ele><time>2026-05-02T13:24:22.991Z</time></trkpt><trkpt lat="43.7918394" lon="6.2652156"><ele>648.0</ele><time>2026-05-02T13:24:23.991Z</time></trkpt><trkpt lat="43.7917402" lon="6.2652527"><ele>648.0</ele><time>2026-05-02T13:24:24.991Z</time></trkpt><trkpt lat="43.7916282" lon="6.2652795"><ele>648.0</ele><time>2026-05-02T13:24:25.991Z</time></trkpt><trkpt lat="43.7915218" lon="6.2652916"><ele>649.0</ele><time>2026-05-02T13:24:26.991Z</time></trkpt><trkpt lat="43.7914193" lon="6.2652871"><ele>650.0</ele><time>2026-05-02T13:24:27.991Z</time></trkpt><trkpt lat="43.7913" lon="6.2652489"><ele>651.0</ele><time>2026-05-02T13:24:28.99Z</time></trkpt><trkpt lat="43.7911778" lon="6.2652125"><ele>652.0</ele><time>2026-05-02T13:24:29.991Z</time></trkpt><trkpt lat="43.7910701" lon="6.2651547"><ele>653.4000000000001</ele><time>2026-05-02T13:24:30.991Z</time></trkpt><trkpt lat="43.7909514" lon="6.2650951"><ele>654.8000000000001</ele><time>2026-05-02T13:24:31.99Z</time></trkpt><trkpt lat="43.7908699" lon="6.2650715"><ele>656.2</ele><time>2026-05-02T13:24:32.991Z</time></trkpt><trkpt lat="43.7907677" lon="6.26504"><ele>657.6</ele><time>2026-05-02T13:24:33.991Z</time></trkpt><trkpt lat="43.7906799" lon="6.2650118"><ele>659.0</ele><time>2026-05-02T13:24:34.991Z</time></trkpt><trkpt lat="43.7905625" lon="6.265103"><ele>659.0</ele><time>2026-05-02T13:24:35.991Z</time></trkpt><trkpt lat="43.7904522" lon="6.2651935"><ele>659.0</ele><time>2026-05-02T13:24:36.991Z</time></trkpt><trkpt lat="43.7903324" lon="6.2652519"><ele>659.0</ele><time>2026-05-02T13:24:37.991Z</time></trkpt><trkpt lat="43.7902077" lon="6.2652821"><ele>659.0</ele><time>2026-05-02T13:24:38.991Z</time></trkpt><trkpt lat="43.7900806" lon="6.265303"><ele>659.2</ele><time>2026-05-02T13:24:39.99Z</time></trkpt><trkpt lat="43.789958" lon="6.2653239"><ele>659.4000000000001</ele><time>2026-05-02T13:24:40.991Z</time></trkpt><trkpt lat="43.7898468" lon="6.2653215"><ele>659.6</ele><time>2026-05-02T13:24:41.991Z</time></trkpt><trkpt lat="43.7897504" lon="6.2652986"><ele>659.8</ele><time>2026-05-02T13:24:42.99Z</time></trkpt><trkpt lat="43.7896418" lon="6.2653122"><ele>660.0</ele><time>2026-05-02T13:24:43.991Z</time></trkpt><trkpt lat="43.7895363" lon="6.2653254"><ele>660.0</ele><time>2026-05-02T13:24:44.991Z</time></trkpt><trkpt lat="43.7894321" lon="6.2653736"><ele>660.0</ele><time>2026-05-02T13:24:45.991Z</time></trkpt><trkpt lat="43.7893552" lon="6.2654065"><ele>660.0</ele><time>2026-05-02T13:24:46.991Z</time></trkpt><trkpt lat="43.7892493" lon="6.2654739"><ele>660.0</ele><time>2026-05-02T13:24:47.991Z</time></trkpt><trkpt lat="43.7891857" lon="6.265586"><ele>660.0</ele><time>2026-05-02T13:24:48.991Z</time></trkpt><trkpt lat="43.7891192" lon="6.2657185"><ele>662.4</ele><time>2026-05-02T13:24:49.99Z</time></trkpt><trkpt lat="43.789063" lon="6.2658704"><ele>664.8</ele><time>2026-05-02T13:24:50.991Z</time></trkpt><trkpt lat="43.7890089" lon="6.2660192"><ele>667.2</ele><time>2026-05-02T13:24:51.991Z</time></trkpt><trkpt lat="43.78902" lon="6.2661594"><ele>669.6</ele><time>2026-05-02T13:24:52.991Z</time></trkpt><trkpt lat="43.7890171" lon="6.2662843"><ele>672.0</ele><time>2026-05-02T13:24:53.991Z</time></trkpt><trkpt lat="43.7890082" lon="6.2664455"><ele>683.0</ele><time>2026-05-02T13:24:54.991Z</time></trkpt><trkpt lat="43.7889115" lon="6.2665478"><ele>694.0</ele><time>2026-05-02T13:24:55.99Z</time></trkpt><trkpt lat="43.7888515" lon="6.2666413"><ele>705.0</ele><time>2026-05-02T13:24:56.991Z</time></trkpt><trkpt lat="43.7887354" lon="6.2666952"><ele>716.0</ele><time>2026-05-02T13:24:57.991Z</time></trkpt><trkpt lat="43.7886105" lon="6.2667151"><ele>716.0</ele><time>2026-05-02T13:24:58.99Z</time></trkpt><trkpt lat="43.7885176" lon="6.2666788"><ele>716.0</ele><time>2026-05-02T13:24:59.991Z</time></trkpt><trkpt lat="43.7883893" lon="6.2666178"><ele>716.0</ele><time>2026-05-02T13:25:00.99Z</time></trkpt><trkpt lat="43.7882416" lon="6.2665453"><ele>716.0</ele><time>2026-05-02T13:25:01.991Z</time></trkpt><trkpt lat="43.7881111" lon="6.2665176"><ele>713.0</ele><time>2026-05-02T13:25:02.991Z</time></trkpt><trkpt lat="43.7879853" lon="6.266462"><ele>710.0</ele><time>2026-05-02T13:25:03.991Z</time></trkpt><trkpt lat="43.7878671" lon="6.266381"><ele>707.0</ele><time>2026-05-02T13:25:04.991Z</time></trkpt><trkpt lat="43.7877615" lon="6.2662831"><ele>704.0</ele><time>2026-05-02T13:25:05.991Z</time></trkpt><trkpt lat="43.7876699" lon="6.2661683"><ele>700.6</ele><time>2026-05-02T13:25:06.991Z</time></trkpt><trkpt lat="43.7875908" lon="6.2660675"><ele>697.2</ele><time>2026-05-02T13:25:07.991Z</time></trkpt><trkpt lat="43.7875257" lon="6.2659589"><ele>693.8000000000001</ele><time>2026-05-02T13:25:08.991Z</time></trkpt><trkpt lat="43.7874652" lon="6.2659159"><ele>690.4000000000001</ele><time>2026-05-02T13:25:09.991Z</time></trkpt><trkpt lat="43.7873769" lon="6.265838"><ele>687.0</ele><time>2026-05-02T13:25:10.99Z</time></trkpt><trkpt lat="43.7872241" lon="6.2658331"><ele>687.0</ele><time>2026-05-02T13:25:12.99Z</time></trkpt><trkpt lat="43.7870815" lon="6.2659077"><ele>687.0</ele><time>2026-05-02T13:25:13.991Z</time></trkpt><trkpt lat="43.7869565" lon="6.265951"><ele>687.0</ele><time>2026-05-02T13:25:14.99Z</time></trkpt><trkpt lat="43.7868333" lon="6.2659851"><ele>687.0</ele><time>2026-05-02T13:25:15.991Z</time></trkpt><trkpt lat="43.7867103" lon="6.2660657"><ele>685.5</ele><time>2026-05-02T13:25:16.991Z</time></trkpt><trkpt lat="43.7865913" lon="6.2661545"><ele>684.0</ele><time>2026-05-02T13:25:17.99Z</time></trkpt><trkpt lat="43.786471" lon="6.2662415"><ele>682.5</ele><time>2026-05-02T13:25:18.991Z</time></trkpt><trkpt lat="43.7863577" lon="6.2663531"><ele>681.0</ele><time>2026-05-02T13:25:19.991Z</time></trkpt><trkpt lat="43.7862515" lon="6.2664547"><ele>685.25</ele><time>2026-05-02T13:25:20.991Z</time></trkpt><trkpt lat="43.7861587" lon="6.2665658"><ele>689.5</ele><time>2026-05-02T13:25:21.99Z</time></trkpt><trkpt lat="43.7860736" lon="6.2666644"><ele>693.75</ele><time>2026-05-02T13:25:22.991Z</time></trkpt><trkpt lat="43.7859881" lon="6.2667801"><ele>698.0</ele><time>2026-05-02T13:25:23.991Z</time></trkpt><trkpt lat="43.7858975" lon="6.2668711"><ele>698.0</ele><time>2026-05-02T13:25:24.989Z</time></trkpt><trkpt lat="43.7857861" lon="6.2669367"><ele>698.0</ele><time>2026-05-02T13:25:25.987Z</time></trkpt><trkpt lat="43.7856861" lon="6.2669529"><ele>698.0</ele><time>2026-05-02T13:25:26.987Z</time></trkpt><trkpt lat="43.7855536" lon="6.2669476"><ele>698.0</ele><time>2026-05-02T13:25:27.987Z</time></trkpt><trkpt lat="43.7854286" lon="6.2668878"><ele>698.0</ele><time>2026-05-02T13:25:28.988Z</time></trkpt><trkpt lat="43.7853178" lon="6.2669192"><ele>698.0</ele><time>2026-05-02T13:25:29.987Z</time></trkpt><trkpt lat="43.7851964" lon="6.266994"><ele>698.0</ele><time>2026-05-02T13:25:30.987Z</time></trkpt><trkpt lat="43.7850936" lon="6.2670694"><ele>698.0</ele><time>2026-05-02T13:25:31.987Z</time></trkpt><trkpt lat="43.784988" lon="6.2671641"><ele>697.8</ele><time>2026-05-02T13:25:32.987Z</time></trkpt><trkpt lat="43.7848906" lon="6.2672498"><ele>697.5999999999999</ele><time>2026-05-02T13:25:33.987Z</time></trkpt><trkpt lat="43.7847943" lon="6.26732"><ele>697.4000000000001</ele><time>2026-05-02T13:25:34.987Z</time></trkpt><trkpt lat="43.7846905" lon="6.2673982"><ele>697.2</ele><time>2026-05-02T13:25:35.987Z</time></trkpt><trkpt lat="43.784603" lon="6.2674797"><ele>697.0</ele><time>2026-05-02T13:25:36.987Z</time></trkpt><trkpt lat="43.7845399" lon="6.2675453"><ele>698.3333333333334</ele><time>2026-05-02T13:25:37.987Z</time></trkpt><trkpt lat="43.7844843" lon="6.2676069"><ele>699.6666666666667</ele><time>2026-05-02T13:25:38.986Z</time></trkpt><trkpt lat="43.7844339" lon="6.2676659"><ele>701.0</ele><time>2026-05-02T13:25:39.987Z</time></trkpt><trkpt lat="43.7843906" lon="6.2677536"><ele>702.3333333333334</ele><time>2026-05-02T13:25:40.987Z</time></trkpt><trkpt lat="43.7843558" lon="6.267857"><ele>703.6666666666666</ele><time>2026-05-02T13:25:41.987Z</time></trkpt><trkpt lat="43.7843356" lon="6.2679872"><ele>705.0</ele><time>2026-05-02T13:25:42.986Z</time></trkpt><trkpt lat="43.7843221" lon="6.2681192"><ele>705.0</ele><time>2026-05-02T13:25:43.987Z</time></trkpt><trkpt lat="43.784323" lon="6.2682489"><ele>705.0</ele><time>2026-05-02T13:25:44.987Z</time></trkpt><trkpt lat="43.7843311" lon="6.2683946"><ele>705.0</ele><time>2026-05-02T13:25:45.987Z</time></trkpt><trkpt lat="43.7843301" lon="6.2685838"><ele>705.0</ele><time>2026-05-02T13:25:46.987Z</time></trkpt><trkpt lat="43.7843344" lon="6.268762"><ele>705.0</ele><time>2026-05-02T13:25:47.987Z</time></trkpt><trkpt lat="43.7843326" lon="6.2689401"><ele>705.0</ele><time>2026-05-02T13:25:48.987Z</time></trkpt><trkpt lat="43.7843412" lon="6.2691187"><ele>705.0</ele><time>2026-05-02T13:25:49.987Z</time></trkpt><trkpt lat="43.7843408" lon="6.2693042"><ele>705.0</ele><time>2026-05-02T13:25:50.986Z</time></trkpt><trkpt lat="43.7843517" lon="6.2694969"><ele>717.25</ele><time>2026-05-02T13:25:51.987Z</time></trkpt><trkpt lat="43.7843658" lon="6.2696788"><ele>729.5</ele><time>2026-05-02T13:25:52.987Z</time></trkpt><trkpt lat="43.784393" lon="6.2698725"><ele>741.75</ele><time>2026-05-02T13:25:53.987Z</time></trkpt><trkpt lat="43.7844341" lon="6.270069"><ele>754.0</ele><time>2026-05-02T13:25:54.986Z</time></trkpt><trkpt lat="43.7844746" lon="6.2702538"><ele>758.75</ele><time>2026-05-02T13:25:55.987Z</time></trkpt><trkpt lat="43.7845213" lon="6.2704254"><ele>763.5</ele><time>2026-05-02T13:25:56.987Z</time></trkpt><trkpt lat="43.7845649" lon="6.270585"><ele>768.25</ele><time>2026-05-02T13:25:57.987Z</time></trkpt><trkpt lat="43.7846003" lon="6.2707556"><ele>773.0</ele><time>2026-05-02T13:25:58.987Z</time></trkpt><trkpt lat="43.7845972" lon="6.2709112"><ele>773.0</ele><time>2026-05-02T13:25:59.987Z</time></trkpt><trkpt lat="43.7845826" lon="6.2710708"><ele>773.0</ele><time>2026-05-02T13:26:00.987Z</time></trkpt><trkpt lat="43.784543" lon="6.271217"><ele>773.0</ele><time>2026-05-02T13:26:01.987Z</time></trkpt><trkpt lat="43.7845114" lon="6.2713574"><ele>773.0</ele><time>2026-05-02T13:26:02.987Z</time></trkpt><trkpt lat="43.7844868" lon="6.2715023"><ele>773.0</ele><time>2026-05-02T13:26:03.986Z</time></trkpt><trkpt lat="43.7844675" lon="6.2716823"><ele>770.5999999999999</ele><time>2026-05-02T13:26:04.987Z</time></trkpt><trkpt lat="43.7844589" lon="6.2718401"><ele>768.1999999999999</ele><time>2026-05-02T13:26:05.987Z</time></trkpt><trkpt lat="43.7844602" lon="6.2719934"><ele>765.8</ele><time>2026-05-02T13:26:06.986Z</time></trkpt><trkpt lat="43.7844739" lon="6.2721494"><ele>763.4</ele><time>2026-05-02T13:26:07.987Z</time></trkpt><trkpt lat="43.7844783" lon="6.2722721"><ele>761.0</ele><time>2026-05-02T13:26:08.987Z</time></trkpt><trkpt lat="43.7844711" lon="6.2724065"><ele>761.0</ele><time>2026-05-02T13:26:09.987Z</time></trkpt><trkpt lat="43.7844589" lon="6.2725285"><ele>761.0</ele><time>2026-05-02T13:26:10.987Z</time></trkpt><trkpt lat="43.784368" lon="6.2727219"><ele>761.0</ele><time>2026-05-02T13:26:12.987Z</time></trkpt><trkpt lat="43.7842653" lon="6.2728397"><ele>761.0</ele><time>2026-05-02T13:26:13.987Z</time></trkpt><trkpt lat="43.7841596" lon="6.2729856"><ele>757.25</ele><time>2026-05-02T13:26:14.987Z</time></trkpt><trkpt lat="43.7840789" lon="6.2731278"><ele>753.5</ele><time>2026-05-02T13:26:15.987Z</time></trkpt><trkpt lat="43.7839827" lon="6.2732571"><ele>749.75</ele><time>2026-05-02T13:26:16.986Z</time></trkpt><trkpt lat="43.7838928" lon="6.2734028"><ele>746.0</ele><time>2026-05-02T13:26:17.987Z</time></trkpt><trkpt lat="43.7837883" lon="6.2734928"><ele>746.0</ele><time>2026-05-02T13:26:18.986Z</time></trkpt><trkpt lat="43.7836981" lon="6.2736007"><ele>746.0</ele><time>2026-05-02T13:26:19.987Z</time></trkpt><trkpt lat="43.7836266" lon="6.2737396"><ele>746.0</ele><time>2026-05-02T13:26:20.987Z</time></trkpt><trkpt lat="43.7835648" lon="6.2738799"><ele>746.0</ele><time>2026-05-02T13:26:21.986Z</time></trkpt><trkpt lat="43.7835285" lon="6.2740571"><ele>745.5</ele><time>2026-05-02T13:26:22.987Z</time></trkpt><trkpt lat="43.7834978" lon="6.2742315"><ele>745.0</ele><time>2026-05-02T13:26:23.987Z</time></trkpt><trkpt lat="43.7834747" lon="6.2744085"><ele>744.5</ele><time>2026-05-02T13:26:24.986Z</time></trkpt><trkpt lat="43.7834577" lon="6.2745862"><ele>744.0</ele><time>2026-05-02T13:26:25.987Z</time></trkpt><trkpt lat="43.7834494" lon="6.2747819"><ele>744.0</ele><time>2026-05-02T13:26:26.987Z</time></trkpt><trkpt lat="43.7834228" lon="6.2749881"><ele>744.0</ele><time>2026-05-02T13:26:27.987Z</time></trkpt><trkpt lat="43.7833586" lon="6.275178"><ele>744.0</ele><time>2026-05-02T13:26:28.987Z</time></trkpt><trkpt lat="43.7832698" lon="6.2753288"><ele>744.0</ele><time>2026-05-02T13:26:29.986Z</time></trkpt><trkpt lat="43.7831719" lon="6.2754834"><ele>744.0</ele><time>2026-05-02T13:26:30.987Z</time></trkpt><trkpt lat="43.7830774" lon="6.2755815"><ele>744.0</ele><time>2026-05-02T13:26:31.987Z</time></trkpt><trkpt lat="43.7829977" lon="6.2756898"><ele>744.0</ele><time>2026-05-02T13:26:32.987Z</time></trkpt><trkpt lat="43.7829233" lon="6.2758331"><ele>744.0</ele><time>2026-05-02T13:26:33.987Z</time></trkpt><trkpt lat="43.7828689" lon="6.2760025"><ele>751.25</ele><time>2026-05-02T13:26:34.987Z</time></trkpt><trkpt lat="43.782832" lon="6.276181"><ele>758.5</ele><time>2026-05-02T13:26:35.987Z</time></trkpt><trkpt lat="43.7827939" lon="6.2763553"><ele>765.75</ele><time>2026-05-02T13:26:36.986Z</time></trkpt><trkpt lat="43.7827502" lon="6.27651"><ele>773.0</ele><time>2026-05-02T13:26:37.987Z</time></trkpt><trkpt lat="43.7827248" lon="6.2766703"><ele>768.5999999999999</ele><time>2026-05-02T13:26:38.986Z</time></trkpt><trkpt lat="43.7827031" lon="6.2768195"><ele>764.1999999999999</ele><time>2026-05-02T13:26:39.987Z</time></trkpt><trkpt lat="43.7826637" lon="6.2769656"><ele>759.8</ele><time>2026-05-02T13:26:40.987Z</time></trkpt><trkpt lat="43.7825937" lon="6.2770388"><ele>755.4</ele><time>2026-05-02T13:26:41.987Z</time></trkpt><trkpt lat="43.782508" lon="6.277086"><ele>751.0</ele><time>2026-05-02T13:26:42.987Z</time></trkpt><trkpt lat="43.7824244" lon="6.2771229"><ele>751.0</ele><time>2026-05-02T13:26:43.987Z</time></trkpt><trkpt lat="43.782317" lon="6.2771671"><ele>751.0</ele><time>2026-05-02T13:26:44.986Z</time></trkpt><trkpt lat="43.7821974" lon="6.2772131"><ele>751.0</ele><time>2026-05-02T13:26:45.987Z</time></trkpt><trkpt lat="43.7821235" lon="6.27732"><ele>751.0</ele><time>2026-05-02T13:26:46.987Z</time></trkpt><trkpt lat="43.782038" lon="6.2774627"><ele>749.6666666666667</ele><time>2026-05-02T13:26:47.987Z</time></trkpt><trkpt lat="43.7819331" lon="6.2776331"><ele>748.3333333333334</ele><time>2026-05-02T13:26:48.986Z</time></trkpt><trkpt lat="43.7818342" lon="6.2777637"><ele>747.0</ele><time>2026-05-02T13:26:49.987Z</time></trkpt><trkpt lat="43.7817395" lon="6.2779319"><ele>747.0</ele><time>2026-05-02T13:26:50.987Z</time></trkpt><trkpt lat="43.7816487" lon="6.2780757"><ele>747.0</ele><time>2026-05-02T13:26:51.987Z</time></trkpt><trkpt lat="43.7815654" lon="6.2782385"><ele>747.0</ele><time>2026-05-02T13:26:52.987Z</time></trkpt><trkpt lat="43.78148" lon="6.2783995"><ele>747.0</ele><time>2026-05-02T13:26:53.986Z</time></trkpt><trkpt lat="43.7813867" lon="6.2785481"><ele>752.75</ele><time>2026-05-02T13:26:54.987Z</time></trkpt><trkpt lat="43.7812952" lon="6.2786919"><ele>758.5</ele><time>2026-05-02T13:26:55.986Z</time></trkpt><trkpt lat="43.7812001" lon="6.2788216"><ele>764.25</ele><time>2026-05-02T13:26:56.987Z</time></trkpt><trkpt lat="43.7811159" lon="6.2789451"><ele>770.0</ele><time>2026-05-02T13:26:57.987Z</time></trkpt><trkpt lat="43.7810449" lon="6.2790763"><ele>766.75</ele><time>2026-05-02T13:26:58.987Z</time></trkpt><trkpt lat="43.7809755" lon="6.2792132"><ele>763.5</ele><time>2026-05-02T13:26:59.987Z</time></trkpt><trkpt lat="43.7809391" lon="6.2793895"><ele>760.25</ele><time>2026-05-02T13:27:00.986Z</time></trkpt><trkpt lat="43.7808992" lon="6.2795522"><ele>757.0</ele><time>2026-05-02T13:27:01.986Z</time></trkpt><trkpt lat="43.7808958" lon="6.2797228"><ele>760.5</ele><time>2026-05-02T13:27:02.987Z</time></trkpt><trkpt lat="43.7808917" lon="6.2798881"><ele>764.0</ele><time>2026-05-02T13:27:03.987Z</time></trkpt><trkpt lat="43.7808641" lon="6.2800407"><ele>767.5</ele><time>2026-05-02T13:27:04.987Z</time></trkpt><trkpt lat="43.7807957" lon="6.2801671"><ele>771.0</ele><time>2026-05-02T13:27:05.987Z</time></trkpt><trkpt lat="43.7807263" lon="6.2802778"><ele>771.0</ele><time>2026-05-02T13:27:06.987Z</time></trkpt><trkpt lat="43.7805968" lon="6.2804326"><ele>771.0</ele><time>2026-05-02T13:27:07.987Z</time></trkpt><trkpt lat="43.7804784" lon="6.2804967"><ele>771.0</ele><time>2026-05-02T13:27:08.987Z</time></trkpt><trkpt lat="43.7803444" lon="6.2805903"><ele>771.0</ele><time>2026-05-02T13:27:09.987Z</time></trkpt><trkpt lat="43.7802024" lon="6.2806806"><ele>773.6666666666667</ele><time>2026-05-02T13:27:10.987Z</time></trkpt><trkpt lat="43.7800528" lon="6.2807741"><ele>776.3333333333334</ele><time>2026-05-02T13:27:11.987Z</time></trkpt><trkpt lat="43.7798905" lon="6.2808261"><ele>779.0</ele><time>2026-05-02T13:27:12.987Z</time></trkpt><trkpt lat="43.7797641" lon="6.2808528"><ele>779.0</ele><time>2026-05-02T13:27:13.987Z</time></trkpt><trkpt lat="43.7796387" lon="6.2808779"><ele>779.0</ele><time>2026-05-02T13:27:14.987Z</time></trkpt><trkpt lat="43.7795397" lon="6.2809415"><ele>779.0</ele><time>2026-05-02T13:27:15.987Z</time></trkpt><trkpt lat="43.779423" lon="6.2809938"><ele>779.0</ele><time>2026-05-02T13:27:16.986Z</time></trkpt><trkpt lat="43.779295" lon="6.2810659"><ele>778.0</ele><time>2026-05-02T13:27:17.987Z</time></trkpt><trkpt lat="43.7791769" lon="6.2811558"><ele>777.0</ele><time>2026-05-02T13:27:18.987Z</time></trkpt><trkpt lat="43.7790569" lon="6.2812823"><ele>776.0</ele><time>2026-05-02T13:27:19.987Z</time></trkpt><trkpt lat="43.7789376" lon="6.2814025"><ele>775.0</ele><time>2026-05-02T13:27:20.987Z</time></trkpt><trkpt lat="43.7788122" lon="6.2815355"><ele>779.0</ele><time>2026-05-02T13:27:21.987Z</time></trkpt><trkpt lat="43.7786779" lon="6.2816353"><ele>783.0</ele><time>2026-05-02T13:27:22.987Z</time></trkpt><trkpt lat="43.7785483" lon="6.2817292"><ele>787.0</ele><time>2026-05-02T13:27:23.987Z</time></trkpt><trkpt lat="43.7784288" lon="6.2818068"><ele>791.0</ele><time>2026-05-02T13:27:24.987Z</time></trkpt><trkpt lat="43.7783008" lon="6.2819092"><ele>791.0</ele><time>2026-05-02T13:27:25.987Z</time></trkpt><trkpt lat="43.7781592" lon="6.2819641"><ele>791.0</ele><time>2026-05-02T13:27:26.987Z</time></trkpt><trkpt lat="43.7780188" lon="6.2820445"><ele>791.0</ele><time>2026-05-02T13:27:27.987Z</time></trkpt><trkpt lat="43.7778784" lon="6.2821226"><ele>791.0</ele><time>2026-05-02T13:27:28.986Z</time></trkpt><trkpt lat="43.7777219" lon="6.2821802"><ele>791.0</ele><time>2026-05-02T13:27:29.987Z</time></trkpt><trkpt lat="43.7775732" lon="6.2822107"><ele>791.0</ele><time>2026-05-02T13:27:30.986Z</time></trkpt><trkpt lat="43.7774338" lon="6.2822344"><ele>789.6666666666667</ele><time>2026-05-02T13:27:31.987Z</time></trkpt><trkpt lat="43.7772705" lon="6.2822647"><ele>788.3333333333333</ele><time>2026-05-02T13:27:32.987Z</time></trkpt><trkpt lat="43.7771069" lon="6.2823095"><ele>787.0</ele><time>2026-05-02T13:27:33.986Z</time></trkpt><trkpt lat="43.7769629" lon="6.2823257"><ele>794.25</ele><time>2026-05-02T13:27:34.987Z</time></trkpt><trkpt lat="43.7768252" lon="6.2822959"><ele>801.5</ele><time>2026-05-02T13:27:35.987Z</time></trkpt><trkpt lat="43.7766932" lon="6.2822984"><ele>808.75</ele><time>2026-05-02T13:27:36.987Z</time></trkpt><trkpt lat="43.7765706" lon="6.2823063"><ele>816.0</ele><time>2026-05-02T13:27:37.987Z</time></trkpt><trkpt lat="43.7764542" lon="6.2823036"><ele>816.0</ele><time>2026-05-02T13:27:38.987Z</time></trkpt><trkpt lat="43.7763625" lon="6.2823079"><ele>816.0</ele><time>2026-05-02T13:27:39.987Z</time></trkpt><trkpt lat="43.7762818" lon="6.2822927"><ele>816.0</ele><time>2026-05-02T13:27:40.987Z</time></trkpt><trkpt lat="43.7762045" lon="6.2822853"><ele>816.0</ele><time>2026-05-02T13:27:41.987Z</time></trkpt><trkpt lat="43.7760961" lon="6.2822519"><ele>816.0</ele><time>2026-05-02T13:27:43.987Z</time></trkpt><trkpt lat="43.7760235" lon="6.2822256"><ele>816.0</ele><time>2026-05-02T13:27:44.987Z</time></trkpt><trkpt lat="43.7759472" lon="6.2822589"><ele>816.0</ele><time>2026-05-02T13:27:46.987Z</time></trkpt><trkpt lat="43.7759214" lon="6.2823748"><ele>816.0</ele><time>2026-05-02T13:27:48.987Z</time></trkpt><trkpt lat="43.7759429" lon="6.282473"><ele>816.0</ele><time>2026-05-02T13:27:49.986Z</time></trkpt><trkpt lat="43.7760872" lon="6.2825486"><ele>816.0</ele><time>2026-05-02T13:27:51.987Z</time></trkpt><trkpt lat="43.7761702" lon="6.2825606"><ele>816.0</ele><time>2026-05-02T13:27:52.987Z</time></trkpt><trkpt lat="43.7762466" lon="6.2825726"><ele>816.0</ele><time>2026-05-02T13:27:53.986Z</time></trkpt><trkpt lat="43.7763892" lon="6.2825457"><ele>816.0</ele><time>2026-05-02T13:27:54.987Z</time></trkpt><trkpt lat="43.776565" lon="6.2825301"><ele>816.0</ele><time>2026-05-02T13:27:55.987Z</time></trkpt><trkpt lat="43.7767076" lon="6.2825368"><ele>816.0</ele><time>2026-05-02T13:27:56.987Z</time></trkpt><trkpt lat="43.7768519" lon="6.2825994"><ele>816.0</ele><time>2026-05-02T13:27:57.986Z</time></trkpt><trkpt lat="43.7769816" lon="6.2826372"><ele>816.0</ele><time>2026-05-02T13:27:58.987Z</time></trkpt><trkpt lat="43.7771184" lon="6.2827034"><ele>816.0</ele><time>2026-05-02T13:27:59.987Z</time></trkpt><trkpt lat="43.7772817" lon="6.2827079"><ele>815.75</ele><time>2026-05-02T13:28:00.986Z</time></trkpt><trkpt lat="43.7774048" lon="6.2826841"><ele>815.5</ele><time>2026-05-02T13:28:01.987Z</time></trkpt><trkpt lat="43.777551" lon="6.282732"><ele>815.25</ele><time>2026-05-02T13:28:02.987Z</time></trkpt><trkpt lat="43.7776798" lon="6.2827991"><ele>815.0</ele><time>2026-05-02T13:28:03.987Z</time></trkpt><trkpt lat="43.7778019" lon="6.2828158"><ele>815.0</ele><time>2026-05-02T13:28:04.987Z</time></trkpt><trkpt lat="43.7779475" lon="6.2828408"><ele>815.0</ele><time>2026-05-02T13:28:05.987Z</time></trkpt><trkpt lat="43.7780765" lon="6.2828394"><ele>815.0</ele><time>2026-05-02T13:28:06.987Z</time></trkpt><trkpt lat="43.7782165" lon="6.2828059"><ele>815.0</ele><time>2026-05-02T13:28:07.987Z</time></trkpt><trkpt lat="43.7783426" lon="6.2828215"><ele>815.0</ele><time>2026-05-02T13:28:08.986Z</time></trkpt><trkpt lat="43.7784595" lon="6.2828438"><ele>815.0</ele><time>2026-05-02T13:28:09.987Z</time></trkpt><trkpt lat="43.7785913" lon="6.2828301"><ele>815.0</ele><time>2026-05-02T13:28:10.987Z</time></trkpt><trkpt lat="43.7787261" lon="6.282792"><ele>815.0</ele><time>2026-05-02T13:28:11.987Z</time></trkpt><trkpt lat="43.7788398" lon="6.2827261"><ele>818.25</ele><time>2026-05-02T13:28:12.987Z</time></trkpt><trkpt lat="43.7789609" lon="6.2826345"><ele>821.5</ele><time>2026-05-02T13:28:13.987Z</time></trkpt><trkpt lat="43.7790898" lon="6.2825631"><ele>824.75</ele><time>2026-05-02T13:28:14.987Z</time></trkpt><trkpt lat="43.779219" lon="6.2825202"><ele>828.0</ele><time>2026-05-02T13:28:15.987Z</time></trkpt><trkpt lat="43.7793466" lon="6.2825177"><ele>830.25</ele><time>2026-05-02T13:28:16.987Z</time></trkpt><trkpt lat="43.7794632" lon="6.2824819"><ele>832.5</ele><time>2026-05-02T13:28:17.987Z</time></trkpt><trkpt lat="43.7795943" lon="6.2824976"><ele>834.75</ele><time>2026-05-02T13:28:18.987Z</time></trkpt><trkpt lat="43.7797337" lon="6.2824982"><ele>837.0</ele><time>2026-05-02T13:28:19.987Z</time></trkpt><trkpt lat="43.7798578" lon="6.282537"><ele>837.0</ele><time>2026-05-02T13:28:20.987Z</time></trkpt><trkpt lat="43.7799826" lon="6.2825734"><ele>837.0</ele><time>2026-05-02T13:28:21.987Z</time></trkpt><trkpt lat="43.7800954" lon="6.2825955"><ele>837.0</ele><time>2026-05-02T13:28:22.987Z</time></trkpt><trkpt lat="43.7802087" lon="6.2825875"><ele>837.0</ele><time>2026-05-02T13:28:23.987Z</time></trkpt><trkpt lat="43.7803202" lon="6.2825704"><ele>837.8</ele><time>2026-05-02T13:28:24.987Z</time></trkpt><trkpt lat="43.7804112" lon="6.2825308"><ele>838.6</ele><time>2026-05-02T13:28:25.987Z</time></trkpt><trkpt lat="43.7804921" lon="6.2824651"><ele>839.4</ele><time>2026-05-02T13:28:26.986Z</time></trkpt><trkpt lat="43.7805767" lon="6.2824111"><ele>840.1999999999999</ele><time>2026-05-02T13:28:27.987Z</time></trkpt><trkpt lat="43.7806484" lon="6.2823769"><ele>841.0</ele><time>2026-05-02T13:28:28.987Z</time></trkpt><trkpt lat="43.7807625" lon="6.2824132"><ele>841.0</ele><time>2026-05-02T13:28:30.987Z</time></trkpt><trkpt lat="43.7806801" lon="6.2825378"><ele>841.0</ele><time>2026-05-02T13:28:31.987Z</time></trkpt><trkpt lat="43.7806181" lon="6.2826159"><ele>841.0</ele><time>2026-05-02T13:28:32.987Z</time></trkpt><trkpt lat="43.7805476" lon="6.2826699"><ele>841.0</ele><time>2026-05-02T13:28:33.986Z</time></trkpt><trkpt lat="43.7804829" lon="6.282694"><ele>841.0</ele><time>2026-05-02T13:28:34.987Z</time></trkpt><trkpt lat="43.7802865" lon="6.2827007"><ele>840.0</ele><time>2026-05-02T13:28:35.987Z</time></trkpt><trkpt lat="43.7801571" lon="6.2827045"><ele>839.0</ele><time>2026-05-02T13:28:36.987Z</time></trkpt><trkpt lat="43.7800308" lon="6.2827449"><ele>838.0</ele><time>2026-05-02T13:28:37.987Z</time></trkpt><trkpt lat="43.7798902" lon="6.2827673"><ele>837.0</ele><time>2026-05-02T13:28:38.987Z</time></trkpt><trkpt lat="43.7797319" lon="6.2828096"><ele>837.0</ele><time>2026-05-02T13:28:39.986Z</time></trkpt><trkpt lat="43.7795848" lon="6.2828151"><ele>837.0</ele><time>2026-05-02T13:28:40.987Z</time></trkpt><trkpt lat="43.7794363" lon="6.2828233"><ele>837.0</ele><time>2026-05-02T13:28:41.987Z</time></trkpt><trkpt lat="43.7793104" lon="6.2828593"><ele>837.0</ele><time>2026-05-02T13:28:42.987Z</time></trkpt><trkpt lat="43.7791569" lon="6.2829821"><ele>834.0</ele><time>2026-05-02T13:28:43.987Z</time></trkpt><trkpt lat="43.7790194" lon="6.2830963"><ele>831.0</ele><time>2026-05-02T13:28:44.987Z</time></trkpt><trkpt lat="43.7788836" lon="6.2832073"><ele>828.0</ele><time>2026-05-02T13:28:45.987Z</time></trkpt><trkpt lat="43.7787528" lon="6.283318"><ele>834.6666666666667</ele><time>2026-05-02T13:28:46.987Z</time></trkpt><trkpt lat="43.7785948" lon="6.283398"><ele>841.3333333333334</ele><time>2026-05-02T13:28:47.987Z</time></trkpt><trkpt lat="43.7784592" lon="6.2834725"><ele>848.0</ele><time>2026-05-02T13:28:48.987Z</time></trkpt><trkpt lat="43.778329" lon="6.2835447"><ele>848.0</ele><time>2026-05-02T13:28:49.987Z</time></trkpt><trkpt lat="43.778183" lon="6.2836035"><ele>848.0</ele><time>2026-05-02T13:28:50.987Z</time></trkpt><trkpt lat="43.7780292" lon="6.283626"><ele>848.0</ele><time>2026-05-02T13:28:51.987Z</time></trkpt><trkpt lat="43.7778954" lon="6.2836868"><ele>848.0</ele><time>2026-05-02T13:28:52.987Z</time></trkpt><trkpt lat="43.7777439" lon="6.2836947"><ele>848.6666666666667</ele><time>2026-05-02T13:28:53.987Z</time></trkpt><trkpt lat="43.777588" lon="6.2837266"><ele>849.3333333333333</ele><time>2026-05-02T13:28:54.986Z</time></trkpt><trkpt lat="43.7774296" lon="6.2837405"><ele>850.0</ele><time>2026-05-02T13:28:55.987Z</time></trkpt><trkpt lat="43.7772673" lon="6.2837474"><ele>850.0</ele><time>2026-05-02T13:28:56.987Z</time></trkpt><trkpt lat="43.7771148" lon="6.2837678"><ele>850.0</ele><time>2026-05-02T13:28:57.986Z</time></trkpt><trkpt lat="43.7770244" lon="6.2837556"><ele>850.0</ele><time>2026-05-02T13:28:58.987Z</time></trkpt><trkpt lat="43.7769128" lon="6.283733"><ele>850.0</ele><time>2026-05-02T13:28:59.987Z</time></trkpt><trkpt lat="43.7768134" lon="6.2837429"><ele>847.75</ele><time>2026-05-02T13:29:00.987Z</time></trkpt><trkpt lat="43.7767242" lon="6.2837456"><ele>845.5</ele><time>2026-05-02T13:29:01.987Z</time></trkpt><trkpt lat="43.7766155" lon="6.2838376"><ele>843.25</ele><time>2026-05-02T13:29:02.987Z</time></trkpt><trkpt lat="43.7764967" lon="6.2838948"><ele>841.0</ele><time>2026-05-02T13:29:03.987Z</time></trkpt><trkpt lat="43.7763938" lon="6.2839989"><ele>849.5</ele><time>2026-05-02T13:29:04.987Z</time></trkpt><trkpt lat="43.7763189" lon="6.2841283"><ele>858.0</ele><time>2026-05-02T13:29:05.987Z</time></trkpt><trkpt lat="43.7762613" lon="6.2842852"><ele>866.5</ele><time>2026-05-02T13:29:06.987Z</time></trkpt><trkpt lat="43.7761675" lon="6.284424"><ele>875.0</ele><time>2026-05-02T13:29:07.987Z</time></trkpt><trkpt lat="43.7760758" lon="6.2845457"><ele>872.5</ele><time>2026-05-02T13:29:08.987Z</time></trkpt><trkpt lat="43.7759744" lon="6.2846739"><ele>870.0</ele><time>2026-05-02T13:29:09.986Z</time></trkpt><trkpt lat="43.7759312" lon="6.2848427"><ele>867.5</ele><time>2026-05-02T13:29:10.987Z</time></trkpt><trkpt lat="43.7758984" lon="6.2850494"><ele>865.0</ele><time>2026-05-02T13:29:11.987Z</time></trkpt><trkpt lat="43.7758711" lon="6.285225"><ele>865.0</ele><time>2026-05-02T13:29:12.987Z</time></trkpt><trkpt lat="43.7758446" lon="6.2853996"><ele>865.0</ele><time>2026-05-02T13:29:13.987Z</time></trkpt><trkpt lat="43.7758111" lon="6.2855568"><ele>865.0</ele><time>2026-05-02T13:29:14.987Z</time></trkpt><trkpt lat="43.7757839" lon="6.2857116"><ele>865.0</ele><time>2026-05-02T13:29:15.987Z</time></trkpt><trkpt lat="43.775774" lon="6.2858671"><ele>865.0</ele><time>2026-05-02T13:29:16.987Z</time></trkpt><trkpt lat="43.7757949" lon="6.2860431"><ele>865.0</ele><time>2026-05-02T13:29:17.987Z</time></trkpt><trkpt lat="43.7758067" lon="6.2862099"><ele>865.0</ele><time>2026-05-02T13:29:18.987Z</time></trkpt><trkpt lat="43.7758549" lon="6.2863711"><ele>865.0</ele><time>2026-05-02T13:29:19.987Z</time></trkpt><trkpt lat="43.7759257" lon="6.2865324"><ele>865.0</ele><time>2026-05-02T13:29:20.987Z</time></trkpt><trkpt lat="43.7759775" lon="6.2867059"><ele>865.0</ele><time>2026-05-02T13:29:21.987Z</time></trkpt><trkpt lat="43.7760219" lon="6.2868797"><ele>865.0</ele><time>2026-05-02T13:29:22.987Z</time></trkpt><trkpt lat="43.7760315" lon="6.2870912"><ele>865.0</ele><time>2026-05-02T13:29:23.987Z</time></trkpt><trkpt lat="43.7760536" lon="6.2872796"><ele>883.6666666666666</ele><time>2026-05-02T13:29:24.987Z</time></trkpt><trkpt lat="43.7760575" lon="6.2875023"><ele>902.3333333333333</ele><time>2026-05-02T13:29:25.986Z</time></trkpt><trkpt lat="43.7760614" lon="6.2877253"><ele>921.0</ele><time>2026-05-02T13:29:26.987Z</time></trkpt><trkpt lat="43.7760553" lon="6.2879485"><ele>921.3333333333333</ele><time>2026-05-02T13:29:27.987Z</time></trkpt><trkpt lat="43.7760509" lon="6.2881641"><ele>921.6666666666666</ele><time>2026-05-02T13:29:28.987Z</time></trkpt><trkpt lat="43.7760537" lon="6.2883908"><ele>922.0</ele><time>2026-05-02T13:29:29.987Z</time></trkpt><trkpt lat="43.7760535" lon="6.288612"><ele>922.0</ele><time>2026-05-02T13:29:30.987Z</time></trkpt><trkpt lat="43.7760538" lon="6.2888279"><ele>922.0</ele><time>2026-05-02T13:29:31.987Z</time></trkpt><trkpt lat="43.7760599" lon="6.2890614"><ele>922.0</ele><time>2026-05-02T13:29:32.986Z</time></trkpt><trkpt lat="43.7760344" lon="6.2892776"><ele>913.5</ele><time>2026-05-02T13:29:33.987Z</time></trkpt><trkpt lat="43.7759974" lon="6.2895015"><ele>905.0</ele><time>2026-05-02T13:29:34.987Z</time></trkpt><trkpt lat="43.7759514" lon="6.2896787"><ele>896.5</ele><time>2026-05-02T13:29:35.987Z</time></trkpt><trkpt lat="43.7759351" lon="6.289854"><ele>888.0</ele><time>2026-05-02T13:29:36.987Z</time></trkpt><trkpt lat="43.7759231" lon="6.2900385"><ele>888.0</ele><time>2026-05-02T13:29:37.986Z</time></trkpt><trkpt lat="43.7759341" lon="6.2902137"><ele>888.0</ele><time>2026-05-02T13:29:38.987Z</time></trkpt><trkpt lat="43.7759492" lon="6.2903913"><ele>888.0</ele><time>2026-05-02T13:29:39.987Z</time></trkpt><trkpt lat="43.7759323" lon="6.2905325"><ele>888.0</ele><time>2026-05-02T13:29:40.986Z</time></trkpt><trkpt lat="43.7758794" lon="6.2906634"><ele>891.25</ele><time>2026-05-02T13:29:41.986Z</time></trkpt><trkpt lat="43.7758369" lon="6.2908104"><ele>894.5</ele><time>2026-05-02T13:29:42.986Z</time></trkpt><trkpt lat="43.7757999" lon="6.290974"><ele>897.75</ele><time>2026-05-02T13:29:43.987Z</time></trkpt><trkpt lat="43.7757718" lon="6.2911657"><ele>901.0</ele><time>2026-05-02T13:29:44.987Z</time></trkpt><trkpt lat="43.7757317" lon="6.2913407"><ele>905.0</ele><time>2026-05-02T13:29:45.987Z</time></trkpt><trkpt lat="43.7756916" lon="6.2915075"><ele>909.0</ele><time>2026-05-02T13:29:46.987Z</time></trkpt><trkpt lat="43.775614" lon="6.291675"><ele>913.0</ele><time>2026-05-02T13:29:47.987Z</time></trkpt><trkpt lat="43.7755339" lon="6.2917923"><ele>917.0</ele><time>2026-05-02T13:29:48.987Z</time></trkpt><trkpt lat="43.7753937" lon="6.2919416"><ele>917.0</ele><time>2026-05-02T13:29:49.986Z</time></trkpt><trkpt lat="43.7752795" lon="6.2920904"><ele>917.0</ele><time>2026-05-02T13:29:50.987Z</time></trkpt><trkpt lat="43.7751855" lon="6.2922568"><ele>917.0</ele><time>2026-05-02T13:29:51.986Z</time></trkpt><trkpt lat="43.7750675" lon="6.2923946"><ele>914.75</ele><time>2026-05-02T13:29:52.987Z</time></trkpt><trkpt lat="43.774949" lon="6.2925378"><ele>912.5</ele><time>2026-05-02T13:29:53.987Z</time></trkpt><trkpt lat="43.7748513" lon="6.2926913"><ele>910.25</ele><time>2026-05-02T13:29:54.987Z</time></trkpt><trkpt lat="43.7747638" lon="6.2928401"><ele>908.0</ele><time>2026-05-02T13:29:55.987Z</time></trkpt><trkpt lat="43.7746948" lon="6.2929314"><ele>908.0</ele><time>2026-05-02T13:29:56.986Z</time></trkpt><trkpt lat="43.7746341" lon="6.293056"><ele>908.0</ele><time>2026-05-02T13:29:57.987Z</time></trkpt><trkpt lat="43.7745944" lon="6.2932029"><ele>908.0</ele><time>2026-05-02T13:29:58.987Z</time></trkpt><trkpt lat="43.7745512" lon="6.2933476"><ele>908.0</ele><time>2026-05-02T13:29:59.987Z</time></trkpt><trkpt lat="43.77452" lon="6.2935026"><ele>912.0</ele><time>2026-05-02T13:30:00.987Z</time></trkpt><trkpt lat="43.7745214" lon="6.2936407"><ele>916.0</ele><time>2026-05-02T13:30:01.987Z</time></trkpt><trkpt lat="43.7745806" lon="6.2937697"><ele>920.0</ele><time>2026-05-02T13:30:02.987Z</time></trkpt><trkpt lat="43.7746324" lon="6.2939746"><ele>924.0</ele><time>2026-05-02T13:30:03.987Z</time></trkpt><trkpt lat="43.774667" lon="6.2941506"><ele>926.75</ele><time>2026-05-02T13:30:04.987Z</time></trkpt><trkpt lat="43.7746664" lon="6.2942964"><ele>929.5</ele><time>2026-05-02T13:30:05.987Z</time></trkpt><trkpt lat="43.774631" lon="6.294439"><ele>932.25</ele><time>2026-05-02T13:30:06.987Z</time></trkpt><trkpt lat="43.7745559" lon="6.2945761"><ele>935.0</ele><time>2026-05-02T13:30:07.987Z</time></trkpt><trkpt lat="43.7744541" lon="6.2947341"><ele>931.3333333333334</ele><time>2026-05-02T13:30:08.987Z</time></trkpt><trkpt lat="43.7743179" lon="6.2948975"><ele>927.6666666666667</ele><time>2026-05-02T13:30:09.987Z</time></trkpt><trkpt lat="43.7742176" lon="6.2950652"><ele>924.0</ele><time>2026-05-02T13:30:10.986Z</time></trkpt><trkpt lat="43.7741267" lon="6.2952532"><ele>924.0</ele><time>2026-05-02T13:30:11.987Z</time></trkpt><trkpt lat="43.7740406" lon="6.2954547"><ele>924.0</ele><time>2026-05-02T13:30:12.986Z</time></trkpt><trkpt lat="43.7739647" lon="6.2956554"><ele>924.0</ele><time>2026-05-02T13:30:13.986Z</time></trkpt><trkpt lat="43.7738774" lon="6.2958538"><ele>929.0</ele><time>2026-05-02T13:30:14.987Z</time></trkpt><trkpt lat="43.7737993" lon="6.2960488"><ele>934.0</ele><time>2026-05-02T13:30:15.986Z</time></trkpt><trkpt lat="43.7737217" lon="6.2962247"><ele>939.0</ele><time>2026-05-02T13:30:16.987Z</time></trkpt><trkpt lat="43.773628" lon="6.2963864"><ele>936.0</ele><time>2026-05-02T13:30:17.986Z</time></trkpt><trkpt lat="43.7735433" lon="6.2965564"><ele>933.0</ele><time>2026-05-02T13:30:18.987Z</time></trkpt><trkpt lat="43.7734735" lon="6.29676"><ele>930.0</ele><time>2026-05-02T13:30:19.986Z</time></trkpt><trkpt lat="43.7734079" lon="6.2969614"><ele>930.0</ele><time>2026-05-02T13:30:20.987Z</time></trkpt><trkpt lat="43.7733595" lon="6.2971497"><ele>930.0</ele><time>2026-05-02T13:30:21.987Z</time></trkpt><trkpt lat="43.7733185" lon="6.2973453"><ele>930.0</ele><time>2026-05-02T13:30:22.987Z</time></trkpt><trkpt lat="43.7732718" lon="6.2975209"><ele>930.0</ele><time>2026-05-02T13:30:23.987Z</time></trkpt><trkpt lat="43.7732367" lon="6.2976946"><ele>935.0</ele><time>2026-05-02T13:30:24.987Z</time></trkpt><trkpt lat="43.7731979" lon="6.2978497"><ele>940.0</ele><time>2026-05-02T13:30:25.987Z</time></trkpt><trkpt lat="43.7731341" lon="6.2979854"><ele>945.0</ele><time>2026-05-02T13:30:26.987Z</time></trkpt><trkpt lat="43.7730222" lon="6.2980466"><ele>950.0</ele><time>2026-05-02T13:30:27.987Z</time></trkpt><trkpt lat="43.772919" lon="6.2981256"><ele>949.0</ele><time>2026-05-02T13:30:28.987Z</time></trkpt><trkpt lat="43.7728069" lon="6.2981887"><ele>948.0</ele><time>2026-05-02T13:30:29.987Z</time></trkpt><trkpt lat="43.772694" lon="6.2982502"><ele>947.0</ele><time>2026-05-02T13:30:30.987Z</time></trkpt><trkpt lat="43.7726002" lon="6.2983346"><ele>946.0</ele><time>2026-05-02T13:30:31.987Z</time></trkpt><trkpt lat="43.7725075" lon="6.2984477"><ele>946.0</ele><time>2026-05-02T13:30:32.987Z</time></trkpt><trkpt lat="43.7724238" lon="6.2985696"><ele>945.9999999999999</ele><time>2026-05-02T13:30:33.987Z</time></trkpt><trkpt lat="43.7723679" lon="6.2986834"><ele>945.9999999999999</ele><time>2026-05-02T13:30:34.987Z</time></trkpt><trkpt lat="43.7722943" lon="6.2987892"><ele>946.0</ele><time>2026-05-02T13:30:35.987Z</time></trkpt><trkpt lat="43.7722225" lon="6.2988794"><ele>946.0</ele><time>2026-05-02T13:30:36.987Z</time></trkpt><trkpt lat="43.7721392" lon="6.2989272"><ele>947.9999999999999</ele><time>2026-05-02T13:30:37.987Z</time></trkpt><trkpt lat="43.7720697" lon="6.2989871"><ele>950.0</ele><time>2026-05-02T13:30:38.987Z</time></trkpt><trkpt lat="43.7720142" lon="6.2990436"><ele>952.0</ele><time>2026-05-02T13:30:39.987Z</time></trkpt><trkpt lat="43.7719706" lon="6.2991151"><ele>954.0</ele><time>2026-05-02T13:30:40.987Z</time></trkpt><trkpt lat="43.7719261" lon="6.2992255"><ele>955.9999999999999</ele><time>2026-05-02T13:30:41.987Z</time></trkpt><trkpt lat="43.7718947" lon="6.2994084"><ele>958.0</ele><time>2026-05-02T13:30:42.987Z</time></trkpt><trkpt lat="43.7719424" lon="6.2996478"><ele>960.0</ele><time>2026-05-02T13:30:43.987Z</time></trkpt><trkpt lat="43.771957" lon="6.2998734"><ele>962.0</ele><time>2026-05-02T13:30:44.987Z</time></trkpt><trkpt lat="43.7719766" lon="6.3001003"><ele>964.0</ele><time>2026-05-02T13:30:45.986Z</time></trkpt><trkpt lat="43.7719919" lon="6.3003405"><ele>964.0</ele><time>2026-05-02T13:30:46.987Z</time></trkpt><trkpt lat="43.7720339" lon="6.300575"><ele>964.0</ele><time>2026-05-02T13:30:47.987Z</time></trkpt><trkpt lat="43.7720536" lon="6.3007881"><ele>964.0</ele><time>2026-05-02T13:30:48.987Z</time></trkpt><trkpt lat="43.7720371" lon="6.3010092"><ele>963.6666666666666</ele><time>2026-05-02T13:30:49.987Z</time></trkpt><trkpt lat="43.7719868" lon="6.3012224"><ele>963.3333333333333</ele><time>2026-05-02T13:30:50.987Z</time></trkpt><trkpt lat="43.7719185" lon="6.3014486"><ele>963.0</ele><time>2026-05-02T13:30:51.986Z</time></trkpt><trkpt lat="43.7718186" lon="6.3016749"><ele>963.0</ele><time>2026-05-02T13:30:52.987Z</time></trkpt><trkpt lat="43.7717008" lon="6.3018262"><ele>963.0</ele><time>2026-05-02T13:30:53.987Z</time></trkpt><trkpt lat="43.7715704" lon="6.3019322"><ele>963.0</ele><time>2026-05-02T13:30:54.986Z</time></trkpt><trkpt lat="43.7714609" lon="6.3020708"><ele>963.0</ele><time>2026-05-02T13:30:55.986Z</time></trkpt><trkpt lat="43.7713679" lon="6.3022252"><ele>963.0</ele><time>2026-05-02T13:30:56.987Z</time></trkpt><trkpt lat="43.771277" lon="6.3023848"><ele>963.0</ele><time>2026-05-02T13:30:57.987Z</time></trkpt><trkpt lat="43.7712284" lon="6.3025639"><ele>963.0</ele><time>2026-05-02T13:30:58.987Z</time></trkpt><trkpt lat="43.771195" lon="6.3027508"><ele>966.75</ele><time>2026-05-02T13:30:59.987Z</time></trkpt><trkpt lat="43.7711816" lon="6.3029424"><ele>970.5</ele><time>2026-05-02T13:31:00.987Z</time></trkpt><trkpt lat="43.7711906" lon="6.303136"><ele>974.25</ele><time>2026-05-02T13:31:01.987Z</time></trkpt><trkpt lat="43.771172" lon="6.3033036"><ele>978.0</ele><time>2026-05-02T13:31:02.987Z</time></trkpt><trkpt lat="43.7711446" lon="6.3034853"><ele>976.4</ele><time>2026-05-02T13:31:03.987Z</time></trkpt><trkpt lat="43.7710822" lon="6.3036444"><ele>974.8</ele><time>2026-05-02T13:31:04.987Z</time></trkpt><trkpt lat="43.7709952" lon="6.3037308"><ele>973.2</ele><time>2026-05-02T13:31:05.986Z</time></trkpt><trkpt lat="43.7709155" lon="6.3038281"><ele>971.6</ele><time>2026-05-02T13:31:06.987Z</time></trkpt><trkpt lat="43.7708336" lon="6.3038717"><ele>970.0</ele><time>2026-05-02T13:31:07.987Z</time></trkpt><trkpt lat="43.7707226" lon="6.3038784"><ele>970.0</ele><time>2026-05-02T13:31:08.987Z</time></trkpt><trkpt lat="43.7706078" lon="6.3038572"><ele>970.0</ele><time>2026-05-02T13:31:09.987Z</time></trkpt><trkpt lat="43.77048" lon="6.3038214"><ele>970.0</ele><time>2026-05-02T13:31:10.986Z</time></trkpt><trkpt lat="43.7703191" lon="6.3037701"><ele>970.0</ele><time>2026-05-02T13:31:11.987Z</time></trkpt><trkpt lat="43.7701972" lon="6.3037324"><ele>970.0</ele><time>2026-05-02T13:31:12.987Z</time></trkpt><trkpt lat="43.7700611" lon="6.3037162"><ele>970.0</ele><time>2026-05-02T13:31:13.987Z</time></trkpt><trkpt lat="43.7699484" lon="6.3037497"><ele>970.0</ele><time>2026-05-02T13:31:14.987Z</time></trkpt><trkpt lat="43.7698614" lon="6.3037925"><ele>970.0</ele><time>2026-05-02T13:31:15.987Z</time></trkpt><trkpt lat="43.7697678" lon="6.3038935"><ele>972.0</ele><time>2026-05-02T13:31:16.987Z</time></trkpt><trkpt lat="43.7697469" lon="6.3040225"><ele>974.0</ele><time>2026-05-02T13:31:17.987Z</time></trkpt><trkpt lat="43.7697241" lon="6.3042015"><ele>976.0</ele><time>2026-05-02T13:31:18.987Z</time></trkpt><trkpt lat="43.7696957" lon="6.3044182"><ele>978.0</ele><time>2026-05-02T13:31:19.987Z</time></trkpt><trkpt lat="43.7696994" lon="6.3046081"><ele>978.3333333333333</ele><time>2026-05-02T13:31:20.987Z</time></trkpt><trkpt lat="43.76974" lon="6.3049156"><ele>978.6666666666666</ele><time>2026-05-02T13:31:21.987Z</time></trkpt><trkpt lat="43.7697888" lon="6.3051189"><ele>979.0</ele><time>2026-05-02T13:31:22.987Z</time></trkpt><trkpt lat="43.7698486" lon="6.3052874"><ele>979.0</ele><time>2026-05-02T13:31:23.986Z</time></trkpt><trkpt lat="43.7699956" lon="6.3054268"><ele>979.0</ele><time>2026-05-02T13:31:24.987Z</time></trkpt><trkpt lat="43.7701022" lon="6.3055275"><ele>979.0</ele><time>2026-05-02T13:31:25.987Z</time></trkpt><trkpt lat="43.7702576" lon="6.3056074"><ele>983.75</ele><time>2026-05-02T13:31:26.987Z</time></trkpt><trkpt lat="43.7703806" lon="6.3056866"><ele>988.5</ele><time>2026-05-02T13:31:27.987Z</time></trkpt><trkpt lat="43.7704977" lon="6.305794"><ele>993.25</ele><time>2026-05-02T13:31:28.987Z</time></trkpt><trkpt lat="43.7705728" lon="6.3059092"><ele>998.0</ele><time>2026-05-02T13:31:29.987Z</time></trkpt><trkpt lat="43.7706477" lon="6.3060102"><ele>998.0</ele><time>2026-05-02T13:31:30.987Z</time></trkpt><trkpt lat="43.77073" lon="6.3060883"><ele>998.0</ele><time>2026-05-02T13:31:31.986Z</time></trkpt><trkpt lat="43.7707819" lon="6.3061753"><ele>998.0</ele><time>2026-05-02T13:31:32.987Z</time></trkpt><trkpt lat="43.7708098" lon="6.306345"><ele>998.0</ele><time>2026-05-02T13:31:34.987Z</time></trkpt><trkpt lat="43.7707957" lon="6.3064428"><ele>998.0</ele><time>2026-05-02T13:31:35.987Z</time></trkpt><trkpt lat="43.770744" lon="6.3065461"><ele>997.8</ele><time>2026-05-02T13:31:36.987Z</time></trkpt><trkpt lat="43.7706371" lon="6.3066624"><ele>997.5999999999999</ele><time>2026-05-02T13:31:37.987Z</time></trkpt><trkpt lat="43.7705621" lon="6.3067742"><ele>997.4000000000001</ele><time>2026-05-02T13:31:38.987Z</time></trkpt><trkpt lat="43.7705067" lon="6.3068836"><ele>997.2</ele><time>2026-05-02T13:31:39.986Z</time></trkpt><trkpt lat="43.7704678" lon="6.3069987"><ele>997.0</ele><time>2026-05-02T13:31:40.987Z</time></trkpt><trkpt lat="43.7704034" lon="6.3071001"><ele>997.0</ele><time>2026-05-02T13:31:41.987Z</time></trkpt><trkpt lat="43.770351" lon="6.3072363"><ele>997.0</ele><time>2026-05-02T13:31:42.987Z</time></trkpt><trkpt lat="43.7703028" lon="6.3073841"><ele>997.0</ele><time>2026-05-02T13:31:43.987Z</time></trkpt><trkpt lat="43.7702615" lon="6.3075168"><ele>997.0</ele><time>2026-05-02T13:31:44.985Z</time></trkpt><trkpt lat="43.7702293" lon="6.3076277"><ele>997.0</ele><time>2026-05-02T13:31:45.984Z</time></trkpt><trkpt lat="43.7701767" lon="6.3078021"><ele>996.75</ele><time>2026-05-02T13:31:46.986Z</time></trkpt><trkpt lat="43.7701397" lon="6.3079661"><ele>996.5</ele><time>2026-05-02T13:31:47.987Z</time></trkpt><trkpt lat="43.7701219" lon="6.3081157"><ele>996.25</ele><time>2026-05-02T13:31:48.985Z</time></trkpt><trkpt lat="43.7701147" lon="6.3082721"><ele>996.0</ele><time>2026-05-02T13:31:49.985Z</time></trkpt><trkpt lat="43.770115" lon="6.3084279"><ele>996.0</ele><time>2026-05-02T13:31:50.984Z</time></trkpt><trkpt lat="43.7701264" lon="6.3085565"><ele>996.0</ele><time>2026-05-02T13:31:51.985Z</time></trkpt><trkpt lat="43.7701321" lon="6.3086835"><ele>996.0</ele><time>2026-05-02T13:31:52.985Z</time></trkpt><trkpt lat="43.7701533" lon="6.3087811"><ele>996.0</ele><time>2026-05-02T13:31:53.984Z</time></trkpt><trkpt lat="43.7701734" lon="6.3088911"><ele>996.0</ele><time>2026-05-02T13:31:54.985Z</time></trkpt><trkpt lat="43.7701536" lon="6.3090372"><ele>996.0</ele><time>2026-05-02T13:31:56.985Z</time></trkpt><trkpt lat="43.7701221" lon="6.3091177"><ele>997.8</ele><time>2026-05-02T13:31:57.985Z</time></trkpt><trkpt lat="43.7700829" lon="6.3092048"><ele>999.5999999999999</ele><time>2026-05-02T13:31:58.984Z</time></trkpt><trkpt lat="43.7699636" lon="6.3093"><ele>1001.4</ele><time>2026-05-02T13:32:00.985Z</time></trkpt><trkpt lat="43.7698719" lon="6.3093439"><ele>1003.2</ele><time>2026-05-02T13:32:01.984Z</time></trkpt><trkpt lat="43.7697615" lon="6.3093364"><ele>1005.0</ele><time>2026-05-02T13:32:02.985Z</time></trkpt><trkpt lat="43.7696592" lon="6.3093192"><ele>1005.0</ele><time>2026-05-02T13:32:03.984Z</time></trkpt><trkpt lat="43.7695346" lon="6.3092476"><ele>1005.0</ele><time>2026-05-02T13:32:04.985Z</time></trkpt><trkpt lat="43.7694311" lon="6.3091681"><ele>1005.0</ele><time>2026-05-02T13:32:05.985Z</time></trkpt><trkpt lat="43.7693216" lon="6.3090874"><ele>1005.0</ele><time>2026-05-02T13:32:06.984Z</time></trkpt><trkpt lat="43.7692172" lon="6.309026"><ele>1006.4</ele><time>2026-05-02T13:32:07.985Z</time></trkpt><trkpt lat="43.7691185" lon="6.3089647"><ele>1007.8</ele><time>2026-05-02T13:32:08.984Z</time></trkpt><trkpt lat="43.7689969" lon="6.3089186"><ele>1009.2</ele><time>2026-05-02T13:32:09.985Z</time></trkpt><trkpt lat="43.7689174" lon="6.3088699"><ele>1010.6</ele><time>2026-05-02T13:32:10.985Z</time></trkpt><trkpt lat="43.7688344" lon="6.3087903"><ele>1012.0</ele><time>2026-05-02T13:32:11.984Z</time></trkpt><trkpt lat="43.7687616" lon="6.3087343"><ele>1008.4000000000001</ele><time>2026-05-02T13:32:12.985Z</time></trkpt><trkpt lat="43.7686786" lon="6.3086878"><ele>1004.8000000000001</ele><time>2026-05-02T13:32:13.984Z</time></trkpt><trkpt lat="43.7685862" lon="6.3086602"><ele>1001.2</ele><time>2026-05-02T13:32:14.985Z</time></trkpt><trkpt lat="43.7685021" lon="6.308671"><ele>997.6</ele><time>2026-05-02T13:32:15.985Z</time></trkpt><trkpt lat="43.7684015" lon="6.3087142"><ele>994.0</ele><time>2026-05-02T13:32:16.984Z</time></trkpt><trkpt lat="43.7683136" lon="6.3087853"><ele>992.8000000000001</ele><time>2026-05-02T13:32:17.985Z</time></trkpt><trkpt lat="43.7682429" lon="6.3088504"><ele>991.6000000000001</ele><time>2026-05-02T13:32:18.984Z</time></trkpt><trkpt lat="43.7681585" lon="6.3089349"><ele>990.4</ele><time>2026-05-02T13:32:19.985Z</time></trkpt><trkpt lat="43.7680731" lon="6.3090451"><ele>989.2</ele><time>2026-05-02T13:32:20.985Z</time></trkpt><trkpt lat="43.7679987" lon="6.3091629"><ele>988.0</ele><time>2026-05-02T13:32:21.985Z</time></trkpt><trkpt lat="43.7679301" lon="6.3093128"><ele>993.0</ele><time>2026-05-02T13:32:22.985Z</time></trkpt><trkpt lat="43.7678697" lon="6.3094851"><ele>998.0</ele><time>2026-05-02T13:32:23.985Z</time></trkpt><trkpt lat="43.7678098" lon="6.309671"><ele>1003.0</ele><time>2026-05-02T13:32:24.984Z</time></trkpt><trkpt lat="43.7677495" lon="6.3098287"><ele>1008.0</ele><time>2026-05-02T13:32:25.985Z</time></trkpt><trkpt lat="43.7676812" lon="6.3099826"><ele>1008.0</ele><time>2026-05-02T13:32:26.985Z</time></trkpt><trkpt lat="43.7676196" lon="6.3101145"><ele>1008.0</ele><time>2026-05-02T13:32:27.985Z</time></trkpt><trkpt lat="43.7675568" lon="6.310251"><ele>1008.0</ele><time>2026-05-02T13:32:28.985Z</time></trkpt><trkpt lat="43.767505" lon="6.3103977"><ele>1008.0</ele><time>2026-05-02T13:32:29.984Z</time></trkpt><trkpt lat="43.7674573" lon="6.310543"><ele>1010.2</ele><time>2026-05-02T13:32:30.985Z</time></trkpt><trkpt lat="43.7674185" lon="6.310677"><ele>1012.4</ele><time>2026-05-02T13:32:31.985Z</time></trkpt><trkpt lat="43.7673888" lon="6.3108091"><ele>1014.6000000000001</ele><time>2026-05-02T13:32:32.985Z</time></trkpt><trkpt lat="43.7673635" lon="6.3109471"><ele>1016.8000000000001</ele><time>2026-05-02T13:32:33.985Z</time></trkpt><trkpt lat="43.7673469" lon="6.3110761"><ele>1019.0</ele><time>2026-05-02T13:32:34.985Z</time></trkpt><trkpt lat="43.7673448" lon="6.3112083"><ele>1019.0</ele><time>2026-05-02T13:32:35.985Z</time></trkpt><trkpt lat="43.7673592" lon="6.3113757"><ele>1019.0</ele><time>2026-05-02T13:32:36.985Z</time></trkpt><trkpt lat="43.7674054" lon="6.3115363"><ele>1019.0</ele><time>2026-05-02T13:32:37.985Z</time></trkpt><trkpt lat="43.7674579" lon="6.3116893"><ele>1019.0</ele><time>2026-05-02T13:32:38.984Z</time></trkpt><trkpt lat="43.7675245" lon="6.3118645"><ele>1018.3333333333334</ele><time>2026-05-02T13:32:39.985Z</time></trkpt><trkpt lat="43.7676042" lon="6.3120372"><ele>1017.6666666666667</ele><time>2026-05-02T13:32:40.985Z</time></trkpt><trkpt lat="43.7677261" lon="6.3122169"><ele>1017.0</ele><time>2026-05-02T13:32:41.985Z</time></trkpt><trkpt lat="43.7678228" lon="6.3123814"><ele>1017.6666666666667</ele><time>2026-05-02T13:32:42.985Z</time></trkpt><trkpt lat="43.7679106" lon="6.3126242"><ele>1018.3333333333334</ele><time>2026-05-02T13:32:43.984Z</time></trkpt><trkpt lat="43.7680026" lon="6.3128706"><ele>1019.0</ele><time>2026-05-02T13:32:44.985Z</time></trkpt><trkpt lat="43.7681047" lon="6.3131077"><ele>1019.0</ele><time>2026-05-02T13:32:45.985Z</time></trkpt><trkpt lat="43.7681873" lon="6.3133513"><ele>1019.0</ele><time>2026-05-02T13:32:46.985Z</time></trkpt><trkpt lat="43.7682575" lon="6.3135959"><ele>1019.0</ele><time>2026-05-02T13:32:47.984Z</time></trkpt><trkpt lat="43.7683224" lon="6.3138264"><ele>1020.0</ele><time>2026-05-02T13:32:48.985Z</time></trkpt><trkpt lat="43.7683526" lon="6.3140215"><ele>1021.0</ele><time>2026-05-02T13:32:49.985Z</time></trkpt><trkpt lat="43.7684211" lon="6.3142296"><ele>1022.0</ele><time>2026-05-02T13:32:50.985Z</time></trkpt><trkpt lat="43.7684378" lon="6.3144308"><ele>1022.0</ele><time>2026-05-02T13:32:51.985Z</time></trkpt><trkpt lat="43.7684613" lon="6.3146183"><ele>1022.0</ele><time>2026-05-02T13:32:52.985Z</time></trkpt><trkpt lat="43.7684854" lon="6.3147749"><ele>1022.0</ele><time>2026-05-02T13:32:53.985Z</time></trkpt><trkpt lat="43.7685192" lon="6.3149344"><ele>1022.0</ele><time>2026-05-02T13:32:54.984Z</time></trkpt><trkpt lat="43.7685449" lon="6.3150553"><ele>1026.25</ele><time>2026-05-02T13:32:55.985Z</time></trkpt><trkpt lat="43.7685963" lon="6.3152007"><ele>1030.5</ele><time>2026-05-02T13:32:56.984Z</time></trkpt><trkpt lat="43.768666" lon="6.3153104"><ele>1034.75</ele><time>2026-05-02T13:32:57.985Z</time></trkpt><trkpt lat="43.7687665" lon="6.3153858"><ele>1039.0</ele><time>2026-05-02T13:32:58.984Z</time></trkpt><trkpt lat="43.7688871" lon="6.3154881"><ele>1036.5</ele><time>2026-05-02T13:32:59.984Z</time></trkpt><trkpt lat="43.7690034" lon="6.3155744"><ele>1034.0</ele><time>2026-05-02T13:33:00.985Z</time></trkpt><trkpt lat="43.7691251" lon="6.3156649"><ele>1031.5</ele><time>2026-05-02T13:33:01.985Z</time></trkpt><trkpt lat="43.7692433" lon="6.3157609"><ele>1029.0</ele><time>2026-05-02T13:33:02.985Z</time></trkpt><trkpt lat="43.769339" lon="6.3158502"><ele>1032.5</ele><time>2026-05-02T13:33:03.985Z</time></trkpt><trkpt lat="43.7694352" lon="6.3159492"><ele>1036.0</ele><time>2026-05-02T13:33:04.985Z</time></trkpt><trkpt lat="43.7695227" lon="6.3160319"><ele>1039.5</ele><time>2026-05-02T13:33:05.985Z</time></trkpt><trkpt lat="43.7695772" lon="6.3161864"><ele>1043.0</ele><time>2026-05-02T13:33:06.984Z</time></trkpt><trkpt lat="43.7696176" lon="6.3163538"><ele>1041.0</ele><time>2026-05-02T13:33:07.985Z</time></trkpt><trkpt lat="43.7696545" lon="6.3164617"><ele>1039.0</ele><time>2026-05-02T13:33:08.984Z</time></trkpt><trkpt lat="43.7697302" lon="6.3166322"><ele>1037.0</ele><time>2026-05-02T13:33:09.985Z</time></trkpt><trkpt lat="43.769836" lon="6.3167383"><ele>1035.0</ele><time>2026-05-02T13:33:10.985Z</time></trkpt><trkpt lat="43.7699393" lon="6.3168483"><ele>1035.0</ele><time>2026-05-02T13:33:11.985Z</time></trkpt><trkpt lat="43.7700321" lon="6.3169928"><ele>1035.0</ele><time>2026-05-02T13:33:12.984Z</time></trkpt><trkpt lat="43.7701007" lon="6.3171435"><ele>1035.0</ele><time>2026-05-02T13:33:13.985Z</time></trkpt><trkpt lat="43.7701765" lon="6.3173003"><ele>1035.0</ele><time>2026-05-02T13:33:14.984Z</time></trkpt><trkpt lat="43.7702465" lon="6.3174392"><ele>1038.0</ele><time>2026-05-02T13:33:15.985Z</time></trkpt><trkpt lat="43.7702912" lon="6.3175837"><ele>1041.0</ele><time>2026-05-02T13:33:16.985Z</time></trkpt><trkpt lat="43.770228" lon="6.3177465"><ele>1044.0</ele><time>2026-05-02T13:33:17.985Z</time></trkpt><trkpt lat="43.7701972" lon="6.3179249"><ele>1047.0</ele><time>2026-05-02T13:33:18.985Z</time></trkpt><trkpt lat="43.7701399" lon="6.3180979"><ele>1040.25</ele><time>2026-05-02T13:33:19.985Z</time></trkpt><trkpt lat="43.770095" lon="6.3182814"><ele>1033.5</ele><time>2026-05-02T13:33:20.985Z</time></trkpt><trkpt lat="43.7700351" lon="6.3184598"><ele>1026.75</ele><time>2026-05-02T13:33:21.985Z</time></trkpt><trkpt lat="43.769971" lon="6.3186505"><ele>1020.0</ele><time>2026-05-02T13:33:22.985Z</time></trkpt><trkpt lat="43.7699346" lon="6.3188416"><ele>1020.5</ele><time>2026-05-02T13:33:23.985Z</time></trkpt><trkpt lat="43.7699042" lon="6.3190026"><ele>1021.0</ele><time>2026-05-02T13:33:24.985Z</time></trkpt><trkpt lat="43.7698901" lon="6.3191796"><ele>1021.5</ele><time>2026-05-02T13:33:25.984Z</time></trkpt><trkpt lat="43.769885" lon="6.3193525"><ele>1022.0</ele><time>2026-05-02T13:33:26.985Z</time></trkpt><trkpt lat="43.769913" lon="6.3195346"><ele>1022.0</ele><time>2026-05-02T13:33:27.985Z</time></trkpt><trkpt lat="43.7699523" lon="6.3196921"><ele>1022.0</ele><time>2026-05-02T13:33:28.985Z</time></trkpt><trkpt lat="43.7700084" lon="6.3198569"><ele>1022.0</ele><time>2026-05-02T13:33:29.985Z</time></trkpt><trkpt lat="43.7700617" lon="6.3200143"><ele>1022.0</ele><time>2026-05-02T13:33:30.985Z</time></trkpt><trkpt lat="43.7700814" lon="6.3201977"><ele>1021.6666666666667</ele><time>2026-05-02T13:33:31.985Z</time></trkpt><trkpt lat="43.7700865" lon="6.3204103"><ele>1021.3333333333333</ele><time>2026-05-02T13:33:32.984Z</time></trkpt><trkpt lat="43.7701013" lon="6.3206387"><ele>1021.0</ele><time>2026-05-02T13:33:33.985Z</time></trkpt><trkpt lat="43.7701095" lon="6.3208355"><ele>1020.3333333333333</ele><time>2026-05-02T13:33:34.985Z</time></trkpt><trkpt lat="43.7701018" lon="6.3210508"><ele>1019.6666666666667</ele><time>2026-05-02T13:33:35.985Z</time></trkpt><trkpt lat="43.7701111" lon="6.3212564"><ele>1019.0</ele><time>2026-05-02T13:33:36.985Z</time></trkpt><trkpt lat="43.7701473" lon="6.3214608"><ele>1018.0</ele><time>2026-05-02T13:33:37.985Z</time></trkpt><trkpt lat="43.7701874" lon="6.3216529"><ele>1017.0</ele><time>2026-05-02T13:33:38.985Z</time></trkpt><trkpt lat="43.7702499" lon="6.3218475"><ele>1016.0</ele><time>2026-05-02T13:33:39.985Z</time></trkpt><trkpt lat="43.7703114" lon="6.3220471"><ele>1018.6666666666667</ele><time>2026-05-02T13:33:40.985Z</time></trkpt><trkpt lat="43.7703692" lon="6.3222604"><ele>1021.3333333333333</ele><time>2026-05-02T13:33:41.985Z</time></trkpt><trkpt lat="43.7704015" lon="6.3224662"><ele>1024.0</ele><time>2026-05-02T13:33:42.985Z</time></trkpt><trkpt lat="43.7704984" lon="6.3226574"><ele>1024.0</ele><time>2026-05-02T13:33:43.984Z</time></trkpt><trkpt lat="43.7705801" lon="6.3228371"><ele>1024.0</ele><time>2026-05-02T13:33:44.985Z</time></trkpt><trkpt lat="43.770694" lon="6.3229957"><ele>1024.0</ele><time>2026-05-02T13:33:45.985Z</time></trkpt><trkpt lat="43.7708207" lon="6.3231544"><ele>1025.6666666666665</ele><time>2026-05-02T13:33:46.985Z</time></trkpt><trkpt lat="43.7709328" lon="6.3233021"><ele>1027.3333333333333</ele><time>2026-05-02T13:33:47.984Z</time></trkpt><trkpt lat="43.7710602" lon="6.3234248"><ele>1029.0</ele><time>2026-05-02T13:33:48.985Z</time></trkpt><trkpt lat="43.7711929" lon="6.3235323"><ele>1029.0</ele><time>2026-05-02T13:33:49.985Z</time></trkpt><trkpt lat="43.7713107" lon="6.3236639"><ele>1029.0</ele><time>2026-05-02T13:33:50.985Z</time></trkpt><trkpt lat="43.7714078" lon="6.3238074"><ele>1029.0</ele><time>2026-05-02T13:33:51.984Z</time></trkpt><trkpt lat="43.7715186" lon="6.3239568"><ele>1029.0</ele><time>2026-05-02T13:33:52.985Z</time></trkpt><trkpt lat="43.7716166" lon="6.324106"><ele>1028.25</ele><time>2026-05-02T13:33:53.985Z</time></trkpt><trkpt lat="43.7717325" lon="6.3242032"><ele>1027.5</ele><time>2026-05-02T13:33:54.985Z</time></trkpt><trkpt lat="43.7718679" lon="6.3242967"><ele>1026.75</ele><time>2026-05-02T13:33:55.985Z</time></trkpt><trkpt lat="43.7720139" lon="6.3243819"><ele>1026.0</ele><time>2026-05-02T13:33:56.985Z</time></trkpt><trkpt lat="43.772113" lon="6.3245056"><ele>1026.0</ele><time>2026-05-02T13:33:57.985Z</time></trkpt><trkpt lat="43.7722267" lon="6.3246364"><ele>1026.0</ele><time>2026-05-02T13:33:58.985Z</time></trkpt><trkpt lat="43.7723323" lon="6.3247572"><ele>1026.0</ele><time>2026-05-02T13:33:59.985Z</time></trkpt><trkpt lat="43.772426" lon="6.3248688"><ele>1026.0</ele><time>2026-05-02T13:34:00.985Z</time></trkpt><trkpt lat="43.7725227" lon="6.3249865"><ele>1026.75</ele><time>2026-05-02T13:34:01.985Z</time></trkpt><trkpt lat="43.7726128" lon="6.3251097"><ele>1027.5</ele><time>2026-05-02T13:34:02.985Z</time></trkpt><trkpt lat="43.7726843" lon="6.3252284"><ele>1028.25</ele><time>2026-05-02T13:34:03.985Z</time></trkpt><trkpt lat="43.772747" lon="6.3253615"><ele>1029.0</ele><time>2026-05-02T13:34:04.985Z</time></trkpt><trkpt lat="43.7727422" lon="6.3255109"><ele>1028.75</ele><time>2026-05-02T13:34:05.985Z</time></trkpt><trkpt lat="43.7727272" lon="6.3256516"><ele>1028.5</ele><time>2026-05-02T13:34:06.985Z</time></trkpt><trkpt lat="43.7727026" lon="6.325816"><ele>1028.25</ele><time>2026-05-02T13:34:07.985Z</time></trkpt><trkpt lat="43.7726814" lon="6.3259951"><ele>1028.0</ele><time>2026-05-02T13:34:08.985Z</time></trkpt><trkpt lat="43.7726605" lon="6.3261658"><ele>1026.0</ele><time>2026-05-02T13:34:09.985Z</time></trkpt><trkpt lat="43.7726482" lon="6.3263248"><ele>1024.0</ele><time>2026-05-02T13:34:10.984Z</time></trkpt><trkpt lat="43.772666" lon="6.3264703"><ele>1022.0</ele><time>2026-05-02T13:34:11.985Z</time></trkpt><trkpt lat="43.7726822" lon="6.3266229"><ele>1020.0</ele><time>2026-05-02T13:34:12.985Z</time></trkpt><trkpt lat="43.7727212" lon="6.3267852"><ele>1020.0</ele><time>2026-05-02T13:34:13.985Z</time></trkpt><trkpt lat="43.7727945" lon="6.3269514"><ele>1020.0</ele><time>2026-05-02T13:34:14.985Z</time></trkpt><trkpt lat="43.7728911" lon="6.3271243"><ele>1020.0</ele><time>2026-05-02T13:34:15.985Z</time></trkpt><trkpt lat="43.7729589" lon="6.3273161"><ele>1017.5</ele><time>2026-05-02T13:34:16.985Z</time></trkpt><trkpt lat="43.7730162" lon="6.3274884"><ele>1015.0</ele><time>2026-05-02T13:34:17.984Z</time></trkpt><trkpt lat="43.7730438" lon="6.3276701"><ele>1012.5</ele><time>2026-05-02T13:34:18.985Z</time></trkpt><trkpt lat="43.7730165" lon="6.3279066"><ele>1010.0</ele><time>2026-05-02T13:34:19.985Z</time></trkpt><trkpt lat="43.7729947" lon="6.3281119"><ele>1009.3333333333334</ele><time>2026-05-02T13:34:20.985Z</time></trkpt><trkpt lat="43.7729592" lon="6.3283106"><ele>1008.6666666666667</ele><time>2026-05-02T13:34:21.985Z</time></trkpt><trkpt lat="43.7729297" lon="6.3285214"><ele>1008.0</ele><time>2026-05-02T13:34:22.985Z</time></trkpt><trkpt lat="43.7728945" lon="6.3287276"><ele>1007.25</ele><time>2026-05-02T13:34:23.985Z</time></trkpt><trkpt lat="43.7728734" lon="6.3288995"><ele>1006.5</ele><time>2026-05-02T13:34:24.985Z</time></trkpt><trkpt lat="43.772848" lon="6.3290708"><ele>1005.75</ele><time>2026-05-02T13:34:25.985Z</time></trkpt><trkpt lat="43.7728428" lon="6.329244"><ele>1005.0</ele><time>2026-05-02T13:34:26.985Z</time></trkpt><trkpt lat="43.772827" lon="6.3294167"><ele>1005.0</ele><time>2026-05-02T13:34:27.985Z</time></trkpt><trkpt lat="43.7728344" lon="6.3296089"><ele>1005.0</ele><time>2026-05-02T13:34:28.985Z</time></trkpt><trkpt lat="43.772875" lon="6.3298075"><ele>1005.0</ele><time>2026-05-02T13:34:29.985Z</time></trkpt><trkpt lat="43.7729082" lon="6.3300014"><ele>1005.0</ele><time>2026-05-02T13:34:30.984Z</time></trkpt><trkpt lat="43.7729557" lon="6.3301976"><ele>1002.6666666666667</ele><time>2026-05-02T13:34:31.985Z</time></trkpt><trkpt lat="43.7730163" lon="6.3304033"><ele>1000.3333333333334</ele><time>2026-05-02T13:34:32.985Z</time></trkpt><trkpt lat="43.7730806" lon="6.3305814"><ele>998.0</ele><time>2026-05-02T13:34:33.985Z</time></trkpt><trkpt lat="43.7731619" lon="6.3307841"><ele>994.3333333333334</ele><time>2026-05-02T13:34:34.985Z</time></trkpt><trkpt lat="43.7732291" lon="6.3309714"><ele>990.6666666666667</ele><time>2026-05-02T13:34:35.985Z</time></trkpt><trkpt lat="43.7732967" lon="6.3311498"><ele>987.0</ele><time>2026-05-02T13:34:36.984Z</time></trkpt><trkpt lat="43.7733492" lon="6.3313616"><ele>986.75</ele><time>2026-05-02T13:34:37.985Z</time></trkpt><trkpt lat="43.7733873" lon="6.3315154"><ele>986.5</ele><time>2026-05-02T13:34:38.985Z</time></trkpt><trkpt lat="43.7734462" lon="6.3316295"><ele>986.25</ele><time>2026-05-02T13:34:39.984Z</time></trkpt><trkpt lat="43.7735179" lon="6.3317656"><ele>986.0</ele><time>2026-05-02T13:34:40.985Z</time></trkpt><trkpt lat="43.7736228" lon="6.3318603"><ele>986.0</ele><time>2026-05-02T13:34:41.985Z</time></trkpt><trkpt lat="43.7737887" lon="6.3319622"><ele>986.0</ele><time>2026-05-02T13:34:42.985Z</time></trkpt><trkpt lat="43.7739326" lon="6.3320384"><ele>986.0</ele><time>2026-05-02T13:34:43.985Z</time></trkpt><trkpt lat="43.7740914" lon="6.3320802"><ele>986.0</ele><time>2026-05-02T13:34:44.985Z</time></trkpt><trkpt lat="43.7742565" lon="6.3321134"><ele>986.0</ele><time>2026-05-02T13:34:45.984Z</time></trkpt><trkpt lat="43.774374" lon="6.3321563"><ele>986.0</ele><time>2026-05-02T13:34:46.985Z</time></trkpt><trkpt lat="43.7744859" lon="6.3321801"><ele>986.0</ele><time>2026-05-02T13:34:47.985Z</time></trkpt><trkpt lat="43.7746078" lon="6.3322758"><ele>984.75</ele><time>2026-05-02T13:34:48.985Z</time></trkpt><trkpt lat="43.7747282" lon="6.3323677"><ele>983.5</ele><time>2026-05-02T13:34:49.985Z</time></trkpt><trkpt lat="43.7748349" lon="6.3324713"><ele>982.25</ele><time>2026-05-02T13:34:50.985Z</time></trkpt><trkpt lat="43.7749342" lon="6.3326016"><ele>981.0</ele><time>2026-05-02T13:34:51.985Z</time></trkpt><trkpt lat="43.7750411" lon="6.3327216"><ele>981.0</ele><time>2026-05-02T13:34:52.984Z</time></trkpt><trkpt lat="43.7751511" lon="6.3328474"><ele>981.0</ele><time>2026-05-02T13:34:53.984Z</time></trkpt><trkpt lat="43.7752585" lon="6.3329859"><ele>981.0</ele><time>2026-05-02T13:34:54.984Z</time></trkpt><trkpt lat="43.7753611" lon="6.3331219"><ele>981.0</ele><time>2026-05-02T13:34:55.985Z</time></trkpt><trkpt lat="43.7754788" lon="6.3332465"><ele>978.3333333333333</ele><time>2026-05-02T13:34:56.985Z</time></trkpt><trkpt lat="43.7756144" lon="6.3333495"><ele>975.6666666666666</ele><time>2026-05-02T13:34:57.985Z</time></trkpt><trkpt lat="43.7757511" lon="6.3334455"><ele>973.0</ele><time>2026-05-02T13:34:58.984Z</time></trkpt><trkpt lat="43.7758915" lon="6.3335313"><ele>976.6666666666666</ele><time>2026-05-02T13:34:59.984Z</time></trkpt><trkpt lat="43.7760446" lon="6.3335963"><ele>980.3333333333333</ele><time>2026-05-02T13:35:00.985Z</time></trkpt><trkpt lat="43.7761968" lon="6.3336849"><ele>984.0</ele><time>2026-05-02T13:35:01.985Z</time></trkpt><trkpt lat="43.7763383" lon="6.3338032"><ele>980.3333333333333</ele><time>2026-05-02T13:35:02.984Z</time></trkpt><trkpt lat="43.776464" lon="6.3339327"><ele>976.6666666666666</ele><time>2026-05-02T13:35:03.985Z</time></trkpt><trkpt lat="43.776585" lon="6.3340742"><ele>973.0</ele><time>2026-05-02T13:35:04.985Z</time></trkpt><trkpt lat="43.7766923" lon="6.3342311"><ele>973.0</ele><time>2026-05-02T13:35:05.985Z</time></trkpt><trkpt lat="43.7767735" lon="6.3343984"><ele>973.0</ele><time>2026-05-02T13:35:06.985Z</time></trkpt><trkpt lat="43.7768296" lon="6.3346025"><ele>973.0</ele><time>2026-05-02T13:35:07.985Z</time></trkpt><trkpt lat="43.7769039" lon="6.3347684"><ele>973.0</ele><time>2026-05-02T13:35:08.985Z</time></trkpt><trkpt lat="43.7769799" lon="6.3349395"><ele>974.0</ele><time>2026-05-02T13:35:09.984Z</time></trkpt><trkpt lat="43.7770592" lon="6.3350972"><ele>975.0</ele><time>2026-05-02T13:35:10.985Z</time></trkpt><trkpt lat="43.7771584" lon="6.3352572"><ele>976.0</ele><time>2026-05-02T13:35:11.985Z</time></trkpt><trkpt lat="43.7772539" lon="6.3354076"><ele>977.0</ele><time>2026-05-02T13:35:12.985Z</time></trkpt><trkpt lat="43.7773438" lon="6.3355577"><ele>972.3333333333334</ele><time>2026-05-02T13:35:13.984Z</time></trkpt><trkpt lat="43.7774413" lon="6.3357249"><ele>967.6666666666667</ele><time>2026-05-02T13:35:14.984Z</time></trkpt><trkpt lat="43.7775173" lon="6.3358995"><ele>963.0</ele><time>2026-05-02T13:35:15.985Z</time></trkpt><trkpt lat="43.7775979" lon="6.3360849"><ele>963.0</ele><time>2026-05-02T13:35:16.985Z</time></trkpt><trkpt lat="43.7776693" lon="6.3362704"><ele>963.0</ele><time>2026-05-02T13:35:17.985Z</time></trkpt><trkpt lat="43.7777327" lon="6.3364522"><ele>963.0</ele><time>2026-05-02T13:35:18.985Z</time></trkpt><trkpt lat="43.7777901" lon="6.3366254"><ele>963.0</ele><time>2026-05-02T13:35:19.985Z</time></trkpt><trkpt lat="43.7778813" lon="6.3367891"><ele>961.5</ele><time>2026-05-02T13:35:20.985Z</time></trkpt><trkpt lat="43.7779581" lon="6.3369431"><ele>960.0</ele><time>2026-05-02T13:35:21.985Z</time></trkpt><trkpt lat="43.7780392" lon="6.3370933"><ele>958.5</ele><time>2026-05-02T13:35:22.985Z</time></trkpt><trkpt lat="43.7781211" lon="6.3372324"><ele>957.0</ele><time>2026-05-02T13:35:23.984Z</time></trkpt><trkpt lat="43.7781964" lon="6.3373725"><ele>954.75</ele><time>2026-05-02T13:35:24.985Z</time></trkpt><trkpt lat="43.7782427" lon="6.3375167"><ele>952.5</ele><time>2026-05-02T13:35:25.984Z</time></trkpt><trkpt lat="43.778292" lon="6.3376669"><ele>950.25</ele><time>2026-05-02T13:35:26.985Z</time></trkpt><trkpt lat="43.7783825" lon="6.3377804"><ele>948.0</ele><time>2026-05-02T13:35:27.985Z</time></trkpt><trkpt lat="43.778482" lon="6.3379217"><ele>947.5</ele><time>2026-05-02T13:35:28.985Z</time></trkpt><trkpt lat="43.7785768" lon="6.3380557"><ele>947.0</ele><time>2026-05-02T13:35:29.984Z</time></trkpt><trkpt lat="43.7786547" lon="6.3381796"><ele>946.5</ele><time>2026-05-02T13:35:30.985Z</time></trkpt><trkpt lat="43.7787239" lon="6.3383"><ele>946.0</ele><time>2026-05-02T13:35:31.985Z</time></trkpt><trkpt lat="43.7787471" lon="6.3384191"><ele>946.0</ele><time>2026-05-02T13:35:32.984Z</time></trkpt><trkpt lat="43.7788046" lon="6.3385167"><ele>945.9999999999999</ele><time>2026-05-02T13:35:33.985Z</time></trkpt><trkpt lat="43.7788759" lon="6.3386153"><ele>945.9999999999999</ele><time>2026-05-02T13:35:34.985Z</time></trkpt><trkpt lat="43.7789407" lon="6.3387579"><ele>946.0</ele><time>2026-05-02T13:35:35.985Z</time></trkpt><trkpt lat="43.7789854" lon="6.3388577"><ele>946.0</ele><time>2026-05-02T13:35:36.985Z</time></trkpt><trkpt lat="43.7790363" lon="6.3389762"><ele>944.8333333333333</ele><time>2026-05-02T13:35:37.985Z</time></trkpt><trkpt lat="43.7790642" lon="6.339064"><ele>943.6666666666666</ele><time>2026-05-02T13:35:38.985Z</time></trkpt><trkpt lat="43.7791306" lon="6.3391643"><ele>942.5</ele><time>2026-05-02T13:35:40.985Z</time></trkpt><trkpt lat="43.7791687" lon="6.3392683"><ele>941.3333333333333</ele><time>2026-05-02T13:35:43.985Z</time></trkpt><trkpt lat="43.7792473" lon="6.3394153"><ele>940.1666666666666</ele><time>2026-05-02T13:37:39.985Z</time></trkpt><trkpt lat="43.7792826" lon="6.3394906"><ele>939.0</ele><time>2026-05-02T13:37:40.985Z</time></trkpt><trkpt lat="43.7793355" lon="6.3395569"><ele>939.0</ele><time>2026-05-02T13:37:41.985Z</time></trkpt><trkpt lat="43.7794037" lon="6.3396241"><ele>939.0</ele><time>2026-05-02T13:37:42.985Z</time></trkpt><trkpt lat="43.779478" lon="6.339682"><ele>939.0</ele><time>2026-05-02T13:37:43.984Z</time></trkpt><trkpt lat="43.7795418" lon="6.339737"><ele>939.0</ele><time>2026-05-02T13:37:44.984Z</time></trkpt><trkpt lat="43.7795984" lon="6.3397795"><ele>939.0</ele><time>2026-05-02T13:37:45.985Z</time></trkpt><trkpt lat="43.7796426" lon="6.3398459"><ele>939.0</ele><time>2026-05-02T13:37:46.984Z</time></trkpt><trkpt lat="43.7796773" lon="6.3399297"><ele>939.0</ele><time>2026-05-02T13:37:47.984Z</time></trkpt><trkpt lat="43.7797126" lon="6.3400161"><ele>938.4000000000001</ele><time>2026-05-02T13:37:48.985Z</time></trkpt><trkpt lat="43.7797714" lon="6.3401688"><ele>937.8000000000001</ele><time>2026-05-02T13:37:50.984Z</time></trkpt><trkpt lat="43.779796" lon="6.3402692"><ele>937.1999999999999</ele><time>2026-05-02T13:37:51.985Z</time></trkpt><trkpt lat="43.7798134" lon="6.3403697"><ele>936.5999999999999</ele><time>2026-05-02T13:37:52.985Z</time></trkpt><trkpt lat="43.7798075" lon="6.340553"><ele>936.0</ele><time>2026-05-02T13:37:54.984Z</time></trkpt><trkpt lat="43.7798226" lon="6.3406518"><ele>936.0</ele><time>2026-05-02T13:37:55.985Z</time></trkpt><trkpt lat="43.7798244" lon="6.3407621"><ele>936.0</ele><time>2026-05-02T13:37:56.984Z</time></trkpt><trkpt lat="43.779828" lon="6.340869"><ele>936.0</ele><time>2026-05-02T13:37:57.985Z</time></trkpt><trkpt lat="43.7798497" lon="6.3409558"><ele>936.0</ele><time>2026-05-02T13:37:58.985Z</time></trkpt><trkpt lat="43.7798843" lon="6.3410565"><ele>936.0</ele><time>2026-05-02T13:37:59.985Z</time></trkpt><trkpt lat="43.7799278" lon="6.3411554"><ele>936.0</ele><time>2026-05-02T13:38:00.985Z</time></trkpt><trkpt lat="43.7799419" lon="6.3412462"><ele>936.0</ele><time>2026-05-02T13:38:01.985Z</time></trkpt><trkpt lat="43.7799997" lon="6.3413295"><ele>935.9999999999999</ele><time>2026-05-02T13:38:02.985Z</time></trkpt><trkpt lat="43.7800385" lon="6.3414493"><ele>935.9999999999999</ele><time>2026-05-02T13:38:03.985Z</time></trkpt><trkpt lat="43.7800987" lon="6.3415947"><ele>936.0</ele><time>2026-05-02T13:38:04.985Z</time></trkpt><trkpt lat="43.7801242" lon="6.3417343"><ele>936.0</ele><time>2026-05-02T13:38:05.985Z</time></trkpt><trkpt lat="43.7801999" lon="6.341889"><ele>934.0</ele><time>2026-05-02T13:38:06.985Z</time></trkpt><trkpt lat="43.7801943" lon="6.3420081"><ele>931.9999999999999</ele><time>2026-05-02T13:38:07.984Z</time></trkpt><trkpt lat="43.7802483" lon="6.3421315"><ele>929.9999999999999</ele><time>2026-05-02T13:38:08.984Z</time></trkpt><trkpt lat="43.7802623" lon="6.3422544"><ele>928.0</ele><time>2026-05-02T13:38:09.985Z</time></trkpt><trkpt lat="43.7802693" lon="6.3423939"><ele>926.0</ele><time>2026-05-02T13:38:10.985Z</time></trkpt><trkpt lat="43.7803081" lon="6.3425402"><ele>925.4</ele><time>2026-05-02T13:38:11.985Z</time></trkpt><trkpt lat="43.7803252" lon="6.3426691"><ele>924.8</ele><time>2026-05-02T13:38:12.984Z</time></trkpt><trkpt lat="43.7803549" lon="6.3428047"><ele>924.1999999999999</ele><time>2026-05-02T13:38:13.984Z</time></trkpt><trkpt lat="43.7803888" lon="6.3429337"><ele>923.5999999999999</ele><time>2026-05-02T13:38:14.984Z</time></trkpt><trkpt lat="43.780466" lon="6.3430415"><ele>923.0</ele><time>2026-05-02T13:38:15.985Z</time></trkpt><trkpt lat="43.7806015" lon="6.3431629"><ele>921.75</ele><time>2026-05-02T13:38:16.984Z</time></trkpt><trkpt lat="43.780664" lon="6.3432843"><ele>920.5</ele><time>2026-05-02T13:38:17.985Z</time></trkpt><trkpt lat="43.7807457" lon="6.3434126"><ele>919.25</ele><time>2026-05-02T13:38:18.985Z</time></trkpt><trkpt lat="43.7808327" lon="6.3435663"><ele>918.0</ele><time>2026-05-02T13:38:19.985Z</time></trkpt><trkpt lat="43.7809395" lon="6.3436999"><ele>918.0</ele><time>2026-05-02T13:38:20.985Z</time></trkpt><trkpt lat="43.7810066" lon="6.343839"><ele>918.0</ele><time>2026-05-02T13:38:21.985Z</time></trkpt><trkpt lat="43.7810849" lon="6.3439453"><ele>918.0</ele><time>2026-05-02T13:38:22.985Z</time></trkpt><trkpt lat="43.7811764" lon="6.3440532"><ele>918.0</ele><time>2026-05-02T13:38:23.985Z</time></trkpt><trkpt lat="43.7812768" lon="6.3441869"><ele>916.0</ele><time>2026-05-02T13:38:24.985Z</time></trkpt><trkpt lat="43.781376" lon="6.3443133"><ele>914.0</ele><time>2026-05-02T13:38:25.985Z</time></trkpt><trkpt lat="43.7814951" lon="6.344454"><ele>912.0</ele><time>2026-05-02T13:38:26.985Z</time></trkpt><trkpt lat="43.7816002" lon="6.3445996"><ele>910.0</ele><time>2026-05-02T13:38:27.985Z</time></trkpt><trkpt lat="43.7817028" lon="6.3447421"><ele>909.5</ele><time>2026-05-02T13:38:28.985Z</time></trkpt><trkpt lat="43.7817967" lon="6.3448712"><ele>909.0</ele><time>2026-05-02T13:38:29.985Z</time></trkpt><trkpt lat="43.7818816" lon="6.3450032"><ele>908.5</ele><time>2026-05-02T13:38:30.985Z</time></trkpt><trkpt lat="43.7819357" lon="6.3451281"><ele>908.0</ele><time>2026-05-02T13:38:31.984Z</time></trkpt><trkpt lat="43.7819805" lon="6.3452593"><ele>909.25</ele><time>2026-05-02T13:38:32.985Z</time></trkpt><trkpt lat="43.7820256" lon="6.3453903"><ele>910.5</ele><time>2026-05-02T13:38:33.985Z</time></trkpt><trkpt lat="43.7820473" lon="6.3455673"><ele>911.75</ele><time>2026-05-02T13:38:34.985Z</time></trkpt><trkpt lat="43.7820325" lon="6.345752"><ele>913.0</ele><time>2026-05-02T13:38:35.985Z</time></trkpt><trkpt lat="43.7819502" lon="6.3459308"><ele>913.0</ele><time>2026-05-02T13:38:36.985Z</time></trkpt><trkpt lat="43.7819013" lon="6.3461261"><ele>913.0</ele><time>2026-05-02T13:38:37.985Z</time></trkpt><trkpt lat="43.781821" lon="6.3463403"><ele>913.0</ele><time>2026-05-02T13:38:38.984Z</time></trkpt><trkpt lat="43.7817318" lon="6.3465292"><ele>910.6666666666666</ele><time>2026-05-02T13:38:39.985Z</time></trkpt><trkpt lat="43.7816249" lon="6.3467407"><ele>908.3333333333333</ele><time>2026-05-02T13:38:40.985Z</time></trkpt><trkpt lat="43.7815056" lon="6.3469276"><ele>906.0</ele><time>2026-05-02T13:38:41.985Z</time></trkpt><trkpt lat="43.7813879" lon="6.3471023"><ele>906.6666666666667</ele><time>2026-05-02T13:38:42.985Z</time></trkpt><trkpt lat="43.7812844" lon="6.3472962"><ele>907.3333333333334</ele><time>2026-05-02T13:38:43.985Z</time></trkpt><trkpt lat="43.7811997" lon="6.3474848"><ele>908.0</ele><time>2026-05-02T13:38:44.985Z</time></trkpt><trkpt lat="43.7811198" lon="6.347686"><ele>908.0</ele><time>2026-05-02T13:38:45.985Z</time></trkpt><trkpt lat="43.7810536" lon="6.3479046"><ele>908.0</ele><time>2026-05-02T13:38:46.985Z</time></trkpt><trkpt lat="43.7809426" lon="6.3480655"><ele>908.0</ele><time>2026-05-02T13:38:47.984Z</time></trkpt><trkpt lat="43.7808624" lon="6.3482492"><ele>907.3333333333334</ele><time>2026-05-02T13:38:48.985Z</time></trkpt><trkpt lat="43.7807702" lon="6.3484039"><ele>906.6666666666667</ele><time>2026-05-02T13:38:49.985Z</time></trkpt><trkpt lat="43.7806832" lon="6.3485791"><ele>906.0</ele><time>2026-05-02T13:38:50.984Z</time></trkpt><trkpt lat="43.7806078" lon="6.3487914"><ele>907.0</ele><time>2026-05-02T13:38:51.985Z</time></trkpt><trkpt lat="43.7805224" lon="6.3489788"><ele>908.0</ele><time>2026-05-02T13:38:52.985Z</time></trkpt><trkpt lat="43.7804553" lon="6.3491664"><ele>909.0</ele><time>2026-05-02T13:38:53.985Z</time></trkpt><trkpt lat="43.7803878" lon="6.349353"><ele>909.0</ele><time>2026-05-02T13:38:54.985Z</time></trkpt><trkpt lat="43.7803418" lon="6.3495655"><ele>909.0</ele><time>2026-05-02T13:38:55.985Z</time></trkpt><trkpt lat="43.7803411" lon="6.3497987"><ele>909.0</ele><time>2026-05-02T13:38:56.985Z</time></trkpt><trkpt lat="43.7803317" lon="6.3500228"><ele>907.3333333333333</ele><time>2026-05-02T13:38:57.985Z</time></trkpt><trkpt lat="43.7803124" lon="6.3502459"><ele>905.6666666666666</ele><time>2026-05-02T13:38:58.984Z</time></trkpt><trkpt lat="43.7803039" lon="6.3504873"><ele>904.0</ele><time>2026-05-02T13:38:59.985Z</time></trkpt><trkpt lat="43.7803021" lon="6.3507264"><ele>903.0</ele><time>2026-05-02T13:39:00.984Z</time></trkpt><trkpt lat="43.7802815" lon="6.3509593"><ele>902.0</ele><time>2026-05-02T13:39:01.985Z</time></trkpt><trkpt lat="43.780277" lon="6.3512103"><ele>901.0</ele><time>2026-05-02T13:39:02.985Z</time></trkpt><trkpt lat="43.780269" lon="6.3514279"><ele>901.0</ele><time>2026-05-02T13:39:03.985Z</time></trkpt><trkpt lat="43.7802571" lon="6.3516466"><ele>901.0</ele><time>2026-05-02T13:39:04.985Z</time></trkpt><trkpt lat="43.7802484" lon="6.3518634"><ele>901.0</ele><time>2026-05-02T13:39:05.984Z</time></trkpt><trkpt lat="43.7802342" lon="6.3520759"><ele>899.6666666666666</ele><time>2026-05-02T13:39:06.985Z</time></trkpt><trkpt lat="43.7802261" lon="6.352288"><ele>898.3333333333333</ele><time>2026-05-02T13:39:07.985Z</time></trkpt><trkpt lat="43.780223" lon="6.3524971"><ele>897.0</ele><time>2026-05-02T13:39:08.985Z</time></trkpt><trkpt lat="43.7802129" lon="6.3527093"><ele>897.0</ele><time>2026-05-02T13:39:09.985Z</time></trkpt><trkpt lat="43.7801985" lon="6.3528925"><ele>897.0</ele><time>2026-05-02T13:39:10.984Z</time></trkpt><trkpt lat="43.7801923" lon="6.3531229"><ele>897.0</ele><time>2026-05-02T13:39:11.985Z</time></trkpt><trkpt lat="43.7801617" lon="6.3533408"><ele>894.0</ele><time>2026-05-02T13:39:12.985Z</time></trkpt><trkpt lat="43.7801309" lon="6.3535479"><ele>891.0</ele><time>2026-05-02T13:39:13.985Z</time></trkpt><trkpt lat="43.7800958" lon="6.3537844"><ele>888.0</ele><time>2026-05-02T13:39:14.985Z</time></trkpt><trkpt lat="43.78007" lon="6.3540265"><ele>887.0</ele><time>2026-05-02T13:39:15.985Z</time></trkpt><trkpt lat="43.7800362" lon="6.3542436"><ele>886.0</ele><time>2026-05-02T13:39:16.984Z</time></trkpt><trkpt lat="43.7800014" lon="6.3544615"><ele>885.0</ele><time>2026-05-02T13:39:17.985Z</time></trkpt><trkpt lat="43.7799707" lon="6.3546923"><ele>885.0</ele><time>2026-05-02T13:39:18.985Z</time></trkpt><trkpt lat="43.7799425" lon="6.354907"><ele>885.0</ele><time>2026-05-02T13:39:19.984Z</time></trkpt><trkpt lat="43.7799107" lon="6.3551196"><ele>885.0</ele><time>2026-05-02T13:39:20.985Z</time></trkpt><trkpt lat="43.7798839" lon="6.3553388"><ele>884.3333333333333</ele><time>2026-05-02T13:39:21.985Z</time></trkpt><trkpt lat="43.7798456" lon="6.3555515"><ele>883.6666666666666</ele><time>2026-05-02T13:39:22.985Z</time></trkpt><trkpt lat="43.7798164" lon="6.3557589"><ele>883.0</ele><time>2026-05-02T13:39:23.985Z</time></trkpt><trkpt lat="43.7797765" lon="6.3559881"><ele>883.0</ele><time>2026-05-02T13:39:24.985Z</time></trkpt><trkpt lat="43.7797339" lon="6.3562036"><ele>883.0</ele><time>2026-05-02T13:39:25.985Z</time></trkpt><trkpt lat="43.7796956" lon="6.3564133"><ele>883.0</ele><time>2026-05-02T13:39:26.984Z</time></trkpt><trkpt lat="43.7796682" lon="6.356634"><ele>882.3333333333333</ele><time>2026-05-02T13:39:27.985Z</time></trkpt><trkpt lat="43.7796358" lon="6.3568509"><ele>881.6666666666667</ele><time>2026-05-02T13:39:28.985Z</time></trkpt><trkpt lat="43.7795969" lon="6.357071"><ele>881.0</ele><time>2026-05-02T13:39:29.985Z</time></trkpt><trkpt lat="43.7795534" lon="6.3572929"><ele>880.6666666666667</ele><time>2026-05-02T13:39:30.985Z</time></trkpt><trkpt lat="43.7795118" lon="6.357548"><ele>880.3333333333333</ele><time>2026-05-02T13:39:31.985Z</time></trkpt><trkpt lat="43.7795041" lon="6.3577614"><ele>880.0</ele><time>2026-05-02T13:39:32.985Z</time></trkpt><trkpt lat="43.7794921" lon="6.3580078"><ele>883.0</ele><time>2026-05-02T13:39:33.985Z</time></trkpt><trkpt lat="43.7794736" lon="6.3582413"><ele>886.0</ele><time>2026-05-02T13:39:34.985Z</time></trkpt><trkpt lat="43.7794797" lon="6.3584834"><ele>889.0</ele><time>2026-05-02T13:39:35.985Z</time></trkpt><trkpt lat="43.779456" lon="6.3587107"><ele>890.3333333333333</ele><time>2026-05-02T13:39:36.985Z</time></trkpt><trkpt lat="43.7794321" lon="6.3589152"><ele>891.6666666666667</ele><time>2026-05-02T13:39:37.985Z</time></trkpt><trkpt lat="43.7794074" lon="6.3591483"><ele>893.0</ele><time>2026-05-02T13:39:38.985Z</time></trkpt><trkpt lat="43.7793906" lon="6.3593706"><ele>893.0</ele><time>2026-05-02T13:39:39.985Z</time></trkpt><trkpt lat="43.779386" lon="6.3595968"><ele>893.0</ele><time>2026-05-02T13:39:40.985Z</time></trkpt><trkpt lat="43.7793674" lon="6.3598237"><ele>893.0</ele><time>2026-05-02T13:39:41.985Z</time></trkpt><trkpt lat="43.7793562" lon="6.3600552"><ele>894.3333333333334</ele><time>2026-05-02T13:39:42.985Z</time></trkpt><trkpt lat="43.7793544" lon="6.3602765"><ele>895.6666666666667</ele><time>2026-05-02T13:39:43.985Z</time></trkpt><trkpt lat="43.7793529" lon="6.3604799"><ele>897.0</ele><time>2026-05-02T13:39:44.985Z</time></trkpt><trkpt lat="43.7793647" lon="6.3607127"><ele>897.0</ele><time>2026-05-02T13:39:45.985Z</time></trkpt><trkpt lat="43.7793513" lon="6.3609385"><ele>897.0</ele><time>2026-05-02T13:39:46.985Z</time></trkpt><trkpt lat="43.7793577" lon="6.3611864"><ele>897.0</ele><time>2026-05-02T13:39:47.985Z</time></trkpt><trkpt lat="43.779352" lon="6.3614328"><ele>897.3333333333333</ele><time>2026-05-02T13:39:48.985Z</time></trkpt><trkpt lat="43.7793482" lon="6.3616702"><ele>897.6666666666666</ele><time>2026-05-02T13:39:49.985Z</time></trkpt><trkpt lat="43.7793584" lon="6.3619101"><ele>898.0</ele><time>2026-05-02T13:39:50.985Z</time></trkpt><trkpt lat="43.7793657" lon="6.3621486"><ele>895.3333333333333</ele><time>2026-05-02T13:39:51.985Z</time></trkpt><trkpt lat="43.7793846" lon="6.3623957"><ele>892.6666666666667</ele><time>2026-05-02T13:39:52.984Z</time></trkpt><trkpt lat="43.7793958" lon="6.3626239"><ele>890.0</ele><time>2026-05-02T13:39:53.984Z</time></trkpt><trkpt lat="43.7794019" lon="6.3628497"><ele>888.5</ele><time>2026-05-02T13:39:54.985Z</time></trkpt><trkpt lat="43.7794042" lon="6.3630626"><ele>887.0</ele><time>2026-05-02T13:39:55.985Z</time></trkpt><trkpt lat="43.7794055" lon="6.3632701"><ele>885.5</ele><time>2026-05-02T13:39:56.984Z</time></trkpt><trkpt lat="43.779395" lon="6.3634712"><ele>884.0</ele><time>2026-05-02T13:39:57.985Z</time></trkpt><trkpt lat="43.7793756" lon="6.3636659"><ele>884.0</ele><time>2026-05-02T13:39:58.985Z</time></trkpt><trkpt lat="43.7793575" lon="6.3638581"><ele>884.0</ele><time>2026-05-02T13:39:59.985Z</time></trkpt><trkpt lat="43.7792982" lon="6.3640485"><ele>884.0</ele><time>2026-05-02T13:40:00.984Z</time></trkpt><trkpt lat="43.7791893" lon="6.3642298"><ele>881.0</ele><time>2026-05-02T13:40:01.985Z</time></trkpt><trkpt lat="43.7791017" lon="6.3644212"><ele>878.0</ele><time>2026-05-02T13:40:02.985Z</time></trkpt><trkpt lat="43.7790164" lon="6.3646214"><ele>875.0</ele><time>2026-05-02T13:40:03.985Z</time></trkpt><trkpt lat="43.7789355" lon="6.3648404"><ele>875.0</ele><time>2026-05-02T13:40:04.984Z</time></trkpt><trkpt lat="43.7788375" lon="6.3650668"><ele>875.0</ele><time>2026-05-02T13:40:05.985Z</time></trkpt><trkpt lat="43.7787239" lon="6.3652751"><ele>875.0</ele><time>2026-05-02T13:40:06.985Z</time></trkpt><trkpt lat="43.7786209" lon="6.365438"><ele>874.3333333333334</ele><time>2026-05-02T13:40:07.985Z</time></trkpt><trkpt lat="43.7785231" lon="6.3656391"><ele>873.6666666666667</ele><time>2026-05-02T13:40:08.985Z</time></trkpt><trkpt lat="43.7784248" lon="6.3658097"><ele>873.0</ele><time>2026-05-02T13:40:09.985Z</time></trkpt><trkpt lat="43.778328" lon="6.3659732"><ele>872.0</ele><time>2026-05-02T13:40:10.985Z</time></trkpt><trkpt lat="43.7782424" lon="6.3661434"><ele>871.0</ele><time>2026-05-02T13:40:11.985Z</time></trkpt><trkpt lat="43.7781594" lon="6.3663204"><ele>870.0</ele><time>2026-05-02T13:40:12.985Z</time></trkpt><trkpt lat="43.7780694" lon="6.3665096"><ele>869.0</ele><time>2026-05-02T13:40:13.985Z</time></trkpt><trkpt lat="43.777983" lon="6.3667169"><ele>868.0</ele><time>2026-05-02T13:40:14.985Z</time></trkpt><trkpt lat="43.7779" lon="6.3668991"><ele>867.0</ele><time>2026-05-02T13:40:15.984Z</time></trkpt><trkpt lat="43.7778155" lon="6.3670984"><ele>866.6666666666667</ele><time>2026-05-02T13:40:16.985Z</time></trkpt><trkpt lat="43.7777302" lon="6.3672909"><ele>866.3333333333334</ele><time>2026-05-02T13:40:17.985Z</time></trkpt><trkpt lat="43.7776758" lon="6.3674994"><ele>866.0</ele><time>2026-05-02T13:40:18.984Z</time></trkpt><trkpt lat="43.7776485" lon="6.3677354"><ele>866.0</ele><time>2026-05-02T13:40:19.985Z</time></trkpt><trkpt lat="43.7777229" lon="6.3679691"><ele>866.0</ele><time>2026-05-02T13:40:20.985Z</time></trkpt><trkpt lat="43.7777658" lon="6.3682017"><ele>866.0</ele><time>2026-05-02T13:40:21.985Z</time></trkpt><trkpt lat="43.7778315" lon="6.3684436"><ele>866.6666666666667</ele><time>2026-05-02T13:40:22.984Z</time></trkpt><trkpt lat="43.7779171" lon="6.3686929"><ele>867.3333333333333</ele><time>2026-05-02T13:40:23.984Z</time></trkpt><trkpt lat="43.7780165" lon="6.3689481"><ele>868.0</ele><time>2026-05-02T13:40:24.985Z</time></trkpt><trkpt lat="43.7781033" lon="6.3692148"><ele>868.6666666666666</ele><time>2026-05-02T13:40:25.984Z</time></trkpt><trkpt lat="43.7782057" lon="6.3694816"><ele>869.3333333333333</ele><time>2026-05-02T13:40:26.985Z</time></trkpt><trkpt lat="43.7783034" lon="6.3697425"><ele>870.0</ele><time>2026-05-02T13:40:27.985Z</time></trkpt><trkpt lat="43.7783885" lon="6.3700031"><ele>871.6666666666667</ele><time>2026-05-02T13:40:28.985Z</time></trkpt><trkpt lat="43.7784718" lon="6.3702743"><ele>873.3333333333334</ele><time>2026-05-02T13:40:29.985Z</time></trkpt><trkpt lat="43.7785521" lon="6.3705656"><ele>875.0</ele><time>2026-05-02T13:40:30.985Z</time></trkpt><trkpt lat="43.7786272" lon="6.3708603"><ele>871.6666666666667</ele><time>2026-05-02T13:40:31.984Z</time></trkpt><trkpt lat="43.7786837" lon="6.3711423"><ele>868.3333333333333</ele><time>2026-05-02T13:40:32.985Z</time></trkpt><trkpt lat="43.7787279" lon="6.3714169"><ele>865.0</ele><time>2026-05-02T13:40:33.985Z</time></trkpt><trkpt lat="43.7787538" lon="6.3716718"><ele>864.6666666666666</ele><time>2026-05-02T13:40:34.984Z</time></trkpt><trkpt lat="43.7787627" lon="6.3719469"><ele>864.3333333333333</ele><time>2026-05-02T13:40:35.984Z</time></trkpt><trkpt lat="43.7787587" lon="6.3721953"><ele>864.0</ele><time>2026-05-02T13:40:36.985Z</time></trkpt><trkpt lat="43.7787599" lon="6.3724436"><ele>864.6666666666667</ele><time>2026-05-02T13:40:37.985Z</time></trkpt><trkpt lat="43.7787466" lon="6.3726891"><ele>865.3333333333334</ele><time>2026-05-02T13:40:38.985Z</time></trkpt><trkpt lat="43.7787364" lon="6.372923"><ele>866.0</ele><time>2026-05-02T13:40:39.985Z</time></trkpt><trkpt lat="43.7787219" lon="6.3731572"><ele>867.3333333333334</ele><time>2026-05-02T13:40:40.984Z</time></trkpt><trkpt lat="43.7787271" lon="6.3733869"><ele>868.6666666666667</ele><time>2026-05-02T13:40:41.985Z</time></trkpt><trkpt lat="43.7787383" lon="6.3736259"><ele>870.0</ele><time>2026-05-02T13:40:42.984Z</time></trkpt><trkpt lat="43.7787699" lon="6.3738572"><ele>871.0</ele><time>2026-05-02T13:40:43.985Z</time></trkpt><trkpt lat="43.778809" lon="6.3740836"><ele>872.0</ele><time>2026-05-02T13:40:44.985Z</time></trkpt><trkpt lat="43.7789064" lon="6.374307"><ele>873.0</ele><time>2026-05-02T13:40:45.985Z</time></trkpt><trkpt lat="43.7790116" lon="6.3745279"><ele>874.6666666666667</ele><time>2026-05-02T13:40:46.984Z</time></trkpt><trkpt lat="43.7791295" lon="6.3747554"><ele>876.3333333333334</ele><time>2026-05-02T13:40:47.985Z</time></trkpt><trkpt lat="43.7792391" lon="6.374985"><ele>878.0</ele><time>2026-05-02T13:40:48.985Z</time></trkpt><trkpt lat="43.779337" lon="6.3752244"><ele>873.6666666666667</ele><time>2026-05-02T13:40:49.985Z</time></trkpt><trkpt lat="43.7794491" lon="6.3754668"><ele>869.3333333333333</ele><time>2026-05-02T13:40:50.985Z</time></trkpt><trkpt lat="43.7795444" lon="6.3756972"><ele>865.0</ele><time>2026-05-02T13:40:51.985Z</time></trkpt><trkpt lat="43.7796248" lon="6.37592"><ele>865.0</ele><time>2026-05-02T13:40:52.984Z</time></trkpt><trkpt lat="43.7797349" lon="6.3761533"><ele>865.0</ele><time>2026-05-02T13:40:53.985Z</time></trkpt><trkpt lat="43.7798314" lon="6.3763781"><ele>865.0</ele><time>2026-05-02T13:40:54.984Z</time></trkpt><trkpt lat="43.7799161" lon="6.3765991"><ele>866.3333333333333</ele><time>2026-05-02T13:40:55.985Z</time></trkpt><trkpt lat="43.7800073" lon="6.3768142"><ele>867.6666666666667</ele><time>2026-05-02T13:40:56.985Z</time></trkpt><trkpt lat="43.78009" lon="6.3770269"><ele>869.0</ele><time>2026-05-02T13:40:57.985Z</time></trkpt><trkpt lat="43.7801816" lon="6.3772489"><ele>865.3333333333334</ele><time>2026-05-02T13:40:58.985Z</time></trkpt><trkpt lat="43.780261" lon="6.3774602"><ele>861.6666666666667</ele><time>2026-05-02T13:40:59.985Z</time></trkpt><trkpt lat="43.7803303" lon="6.3776634"><ele>858.0</ele><time>2026-05-02T13:41:00.985Z</time></trkpt><trkpt lat="43.7804075" lon="6.3779043"><ele>858.6666666666667</ele><time>2026-05-02T13:41:01.985Z</time></trkpt><trkpt lat="43.7804653" lon="6.3781429"><ele>859.3333333333334</ele><time>2026-05-02T13:41:02.985Z</time></trkpt><trkpt lat="43.7805119" lon="6.3783674"><ele>860.0</ele><time>2026-05-02T13:41:03.985Z</time></trkpt><trkpt lat="43.7805558" lon="6.378611"><ele>860.3333333333334</ele><time>2026-05-02T13:41:04.985Z</time></trkpt><trkpt lat="43.7805858" lon="6.3788735"><ele>860.6666666666667</ele><time>2026-05-02T13:41:05.985Z</time></trkpt><trkpt lat="43.7805722" lon="6.3791125"><ele>861.0</ele><time>2026-05-02T13:41:06.985Z</time></trkpt><trkpt lat="43.7805725" lon="6.379352"><ele>861.0</ele><time>2026-05-02T13:41:07.985Z</time></trkpt><trkpt lat="43.7805601" lon="6.3795856"><ele>861.0</ele><time>2026-05-02T13:41:08.985Z</time></trkpt><trkpt lat="43.7805568" lon="6.3798491"><ele>861.0</ele><time>2026-05-02T13:41:09.985Z</time></trkpt><trkpt lat="43.7805736" lon="6.3801121"><ele>861.3333333333333</ele><time>2026-05-02T13:41:10.985Z</time></trkpt><trkpt lat="43.7805923" lon="6.3803507"><ele>861.6666666666666</ele><time>2026-05-02T13:41:11.985Z</time></trkpt><trkpt lat="43.7805809" lon="6.3805427"><ele>862.0</ele><time>2026-05-02T13:41:12.985Z</time></trkpt><trkpt lat="43.7805862" lon="6.3807618"><ele>862.3333333333333</ele><time>2026-05-02T13:41:13.984Z</time></trkpt><trkpt lat="43.7805865" lon="6.3809847"><ele>862.6666666666667</ele><time>2026-05-02T13:41:14.985Z</time></trkpt><trkpt lat="43.7805849" lon="6.3812154"><ele>863.0</ele><time>2026-05-02T13:41:15.985Z</time></trkpt><trkpt lat="43.7805749" lon="6.3814299"><ele>863.6666666666667</ele><time>2026-05-02T13:41:16.985Z</time></trkpt><trkpt lat="43.7805566" lon="6.3816566"><ele>864.3333333333333</ele><time>2026-05-02T13:41:17.985Z</time></trkpt><trkpt lat="43.7805277" lon="6.3818827"><ele>865.0</ele><time>2026-05-02T13:41:18.985Z</time></trkpt><trkpt lat="43.7805325" lon="6.3821163"><ele>866.0</ele><time>2026-05-02T13:41:19.985Z</time></trkpt><trkpt lat="43.7805456" lon="6.3823426"><ele>867.0</ele><time>2026-05-02T13:41:20.985Z</time></trkpt><trkpt lat="43.7805529" lon="6.3825598"><ele>868.0</ele><time>2026-05-02T13:41:21.985Z</time></trkpt><trkpt lat="43.7805611" lon="6.3828028"><ele>869.0</ele><time>2026-05-02T13:41:22.985Z</time></trkpt><trkpt lat="43.7805605" lon="6.3830337"><ele>870.0</ele><time>2026-05-02T13:41:23.985Z</time></trkpt><trkpt lat="43.780554" lon="6.3832624"><ele>871.0</ele><time>2026-05-02T13:41:24.985Z</time></trkpt><trkpt lat="43.7805407" lon="6.3834884"><ele>871.0</ele><time>2026-05-02T13:41:25.985Z</time></trkpt><trkpt lat="43.7805348" lon="6.3837235"><ele>871.0</ele><time>2026-05-02T13:41:26.985Z</time></trkpt><trkpt lat="43.7805123" lon="6.3839485"><ele>871.0</ele><time>2026-05-02T13:41:27.985Z</time></trkpt><trkpt lat="43.7805192" lon="6.3841779"><ele>872.6666666666666</ele><time>2026-05-02T13:41:28.985Z</time></trkpt><trkpt lat="43.7805384" lon="6.3844162"><ele>874.3333333333333</ele><time>2026-05-02T13:41:29.984Z</time></trkpt><trkpt lat="43.7805599" lon="6.3846464"><ele>876.0</ele><time>2026-05-02T13:41:30.985Z</time></trkpt><trkpt lat="43.7805823" lon="6.3848298"><ele>877.5</ele><time>2026-05-02T13:41:31.985Z</time></trkpt><trkpt lat="43.7805938" lon="6.3850217"><ele>879.0</ele><time>2026-05-02T13:41:32.984Z</time></trkpt><trkpt lat="43.7805728" lon="6.3852119"><ele>880.5</ele><time>2026-05-02T13:41:33.985Z</time></trkpt><trkpt lat="43.7805576" lon="6.3853914"><ele>882.0</ele><time>2026-05-02T13:41:34.985Z</time></trkpt><trkpt lat="43.7805134" lon="6.3855685"><ele>883.25</ele><time>2026-05-02T13:41:35.985Z</time></trkpt><trkpt lat="43.7804431" lon="6.3857589"><ele>884.5</ele><time>2026-05-02T13:41:36.985Z</time></trkpt><trkpt lat="43.7803754" lon="6.3859359"><ele>885.75</ele><time>2026-05-02T13:41:37.984Z</time></trkpt><trkpt lat="43.7803079" lon="6.3861048"><ele>887.0</ele><time>2026-05-02T13:41:38.985Z</time></trkpt><trkpt lat="43.7802729" lon="6.3862972"><ele>888.0</ele><time>2026-05-02T13:41:39.985Z</time></trkpt><trkpt lat="43.7802745" lon="6.3865401"><ele>889.0</ele><time>2026-05-02T13:41:40.985Z</time></trkpt><trkpt lat="43.7802698" lon="6.3867752"><ele>890.0</ele><time>2026-05-02T13:41:41.985Z</time></trkpt><trkpt lat="43.780256" lon="6.3869734"><ele>892.0</ele><time>2026-05-02T13:41:42.985Z</time></trkpt><trkpt lat="43.7802423" lon="6.3871809"><ele>894.0</ele><time>2026-05-02T13:41:43.985Z</time></trkpt><trkpt lat="43.7802574" lon="6.3874339"><ele>896.0</ele><time>2026-05-02T13:41:44.985Z</time></trkpt><trkpt lat="43.7802772" lon="6.3876714"><ele>896.0</ele><time>2026-05-02T13:41:45.985Z</time></trkpt><trkpt lat="43.7802769" lon="6.3878996"><ele>896.0</ele><time>2026-05-02T13:41:46.985Z</time></trkpt><trkpt lat="43.7803116" lon="6.3881313"><ele>896.0</ele><time>2026-05-02T13:41:47.984Z</time></trkpt><trkpt lat="43.7803641" lon="6.3883747"><ele>898.0</ele><time>2026-05-02T13:41:48.985Z</time></trkpt><trkpt lat="43.78042" lon="6.3885876"><ele>900.0</ele><time>2026-05-02T13:41:49.985Z</time></trkpt><trkpt lat="43.7804694" lon="6.3888291"><ele>902.0</ele><time>2026-05-02T13:41:50.985Z</time></trkpt><trkpt lat="43.7805141" lon="6.3890367"><ele>904.5</ele><time>2026-05-02T13:41:51.985Z</time></trkpt><trkpt lat="43.7805719" lon="6.3892267"><ele>907.0</ele><time>2026-05-02T13:41:52.985Z</time></trkpt><trkpt lat="43.7806007" lon="6.3894334"><ele>909.5</ele><time>2026-05-02T13:41:53.985Z</time></trkpt><trkpt lat="43.7806583" lon="6.3896067"><ele>912.0</ele><time>2026-05-02T13:41:54.985Z</time></trkpt><trkpt lat="43.7807185" lon="6.3897726"><ele>914.0</ele><time>2026-05-02T13:41:55.984Z</time></trkpt><trkpt lat="43.7807839" lon="6.3899241"><ele>916.0</ele><time>2026-05-02T13:41:56.985Z</time></trkpt><trkpt lat="43.7808407" lon="6.390065"><ele>918.0</ele><time>2026-05-02T13:41:57.985Z</time></trkpt><trkpt lat="43.7808986" lon="6.3901858"><ele>920.0</ele><time>2026-05-02T13:41:58.985Z</time></trkpt><trkpt lat="43.7809382" lon="6.3902754"><ele>922.0</ele><time>2026-05-02T13:41:59.985Z</time></trkpt><trkpt lat="43.780982" lon="6.3903742"><ele>922.0</ele><time>2026-05-02T13:42:00.985Z</time></trkpt><trkpt lat="43.7809944" lon="6.3904959"><ele>922.0</ele><time>2026-05-02T13:42:02.984Z</time></trkpt><trkpt lat="43.7809012" lon="6.3905192"><ele>922.0</ele><time>2026-05-02T13:42:04.985Z</time></trkpt><trkpt lat="43.7808233" lon="6.3904799"><ele>922.0</ele><time>2026-05-02T13:42:06.985Z</time></trkpt><trkpt lat="43.780841" lon="6.390383"><ele>922.0</ele><time>2026-05-02T13:42:12.984Z</time></trkpt><trkpt lat="43.7808041" lon="6.3902221"><ele>922.0</ele><time>2026-05-02T13:46:03.985Z</time></trkpt><trkpt lat="43.7807461" lon="6.3900738"><ele>922.0</ele><time>2026-05-02T13:46:05.985Z</time></trkpt><trkpt lat="43.7807137" lon="6.3899905"><ele>922.0</ele><time>2026-05-02T13:46:06.985Z</time></trkpt><trkpt lat="43.7806733" lon="6.3898934"><ele>922.0</ele><time>2026-05-02T13:46:07.985Z</time></trkpt><trkpt lat="43.7806162" lon="6.3898027"><ele>922.0</ele><time>2026-05-02T13:46:08.984Z</time></trkpt><trkpt lat="43.7805499" lon="6.3897118"><ele>920.0</ele><time>2026-05-02T13:46:09.985Z</time></trkpt><trkpt lat="43.7804874" lon="6.3896172"><ele>918.0</ele><time>2026-05-02T13:46:10.985Z</time></trkpt><trkpt lat="43.7804117" lon="6.389496"><ele>916.0</ele><time>2026-05-02T13:46:11.985Z</time></trkpt><trkpt lat="43.7803187" lon="6.3893771"><ele>914.0</ele><time>2026-05-02T13:46:12.985Z</time></trkpt><trkpt lat="43.7802791" lon="6.3892559"><ele>912.0</ele><time>2026-05-02T13:46:13.985Z</time></trkpt><trkpt lat="43.780227" lon="6.3891418"><ele>916.4000000000001</ele><time>2026-05-02T13:46:14.985Z</time></trkpt><trkpt lat="43.7801794" lon="6.3890491"><ele>920.8000000000001</ele><time>2026-05-02T13:46:15.985Z</time></trkpt><trkpt lat="43.7801479" lon="6.3889656"><ele>925.2</ele><time>2026-05-02T13:46:16.985Z</time></trkpt><trkpt lat="43.7800352" lon="6.3888861"><ele>929.6</ele><time>2026-05-02T13:46:18.985Z</time></trkpt><trkpt lat="43.7799651" lon="6.3889738"><ele>934.0</ele><time>2026-05-02T13:46:19.984Z</time></trkpt><trkpt lat="43.7799659" lon="6.3890944"><ele>934.0</ele><time>2026-05-02T13:46:20.985Z</time></trkpt><trkpt lat="43.7799614" lon="6.3892121"><ele>934.0</ele><time>2026-05-02T13:46:21.985Z</time></trkpt><trkpt lat="43.7799816" lon="6.3893158"><ele>934.0</ele><time>2026-05-02T13:46:22.985Z</time></trkpt><trkpt lat="43.7801184" lon="6.38953"><ele>934.0</ele><time>2026-05-02T13:46:24.985Z</time></trkpt><trkpt lat="43.7801987" lon="6.3896702"><ele>931.0</ele><time>2026-05-02T13:46:25.985Z</time></trkpt><trkpt lat="43.7802712" lon="6.3898036"><ele>928.0</ele><time>2026-05-02T13:46:26.985Z</time></trkpt><trkpt lat="43.780335" lon="6.3899304"><ele>925.0</ele><time>2026-05-02T13:46:27.985Z</time></trkpt><trkpt lat="43.7804053" lon="6.3900456"><ele>922.0</ele><time>2026-05-02T13:46:28.985Z</time></trkpt><trkpt lat="43.7804642" lon="6.3901725"><ele>922.0</ele><time>2026-05-02T13:46:29.984Z</time></trkpt><trkpt lat="43.7804439" lon="6.390284"><ele>922.0000000000001</ele><time>2026-05-02T13:46:31.985Z</time></trkpt><trkpt lat="43.7804237" lon="6.390374"><ele>922.0</ele><time>2026-05-02T13:46:33.985Z</time></trkpt><trkpt lat="43.780382" lon="6.3904667"><ele>922.0</ele><time>2026-05-02T13:46:35.985Z</time></trkpt><trkpt lat="43.7803201" lon="6.3905192"><ele>922.0000000000001</ele><time>2026-05-02T13:46:38.985Z</time></trkpt><trkpt lat="43.7803788" lon="6.3905582"><ele>922.0</ele><time>2026-05-02T13:48:10.985Z</time></trkpt><trkpt lat="43.7803236" lon="6.3904974"><ele>922.0</ele><time>2026-05-02T13:50:55.985Z</time></trkpt><trkpt lat="43.7802984" lon="6.3903687"><ele>922.0</ele><time>2026-05-02T13:51:16.985Z</time></trkpt><trkpt lat="43.7802818" lon="6.3902319"><ele>922.0</ele><time>2026-05-02T13:51:18.985Z</time></trkpt><trkpt lat="43.7802411" lon="6.39014"><ele>922.0</ele><time>2026-05-02T13:51:19.984Z</time></trkpt><trkpt lat="43.7801828" lon="6.3900356"><ele>922.0</ele><time>2026-05-02T13:51:20.985Z</time></trkpt><trkpt lat="43.7801353" lon="6.3899146"><ele>922.0</ele><time>2026-05-02T13:51:21.985Z</time></trkpt><trkpt lat="43.7800706" lon="6.3898167"><ele>925.0</ele><time>2026-05-02T13:51:22.985Z</time></trkpt><trkpt lat="43.7800035" lon="6.389697"><ele>928.0</ele><time>2026-05-02T13:51:23.984Z</time></trkpt><trkpt lat="43.7799395" lon="6.3896007"><ele>931.0</ele><time>2026-05-02T13:51:24.985Z</time></trkpt><trkpt lat="43.7798623" lon="6.3894795"><ele>934.0</ele><time>2026-05-02T13:51:25.985Z</time></trkpt><trkpt lat="43.7797559" lon="6.3893488"><ele>934.0</ele><time>2026-05-02T13:51:26.985Z</time></trkpt><trkpt lat="43.779631" lon="6.3892243"><ele>934.0</ele><time>2026-05-02T13:51:27.984Z</time></trkpt><trkpt lat="43.7795338" lon="6.3891087"><ele>934.0</ele><time>2026-05-02T13:51:28.985Z</time></trkpt><trkpt lat="43.7794451" lon="6.3889895"><ele>934.0</ele><time>2026-05-02T13:51:29.985Z</time></trkpt><trkpt lat="43.7793654" lon="6.3888297"><ele>937.75</ele><time>2026-05-02T13:51:30.985Z</time></trkpt><trkpt lat="43.7792755" lon="6.3886828"><ele>941.5</ele><time>2026-05-02T13:51:31.985Z</time></trkpt><trkpt lat="43.7791858" lon="6.3885396"><ele>945.25</ele><time>2026-05-02T13:51:32.985Z</time></trkpt><trkpt lat="43.7791173" lon="6.3883989"><ele>949.0</ele><time>2026-05-02T13:51:33.985Z</time></trkpt><trkpt lat="43.7790429" lon="6.3882466"><ele>949.0</ele><time>2026-05-02T13:51:34.985Z</time></trkpt><trkpt lat="43.778979" lon="6.3881003"><ele>949.0</ele><time>2026-05-02T13:51:35.985Z</time></trkpt><trkpt lat="43.7788933" lon="6.3879392"><ele>949.0</ele><time>2026-05-02T13:51:36.985Z</time></trkpt><trkpt lat="43.7788223" lon="6.3877825"><ele>949.0</ele><time>2026-05-02T13:51:37.985Z</time></trkpt><trkpt lat="43.7787295" lon="6.3875876"><ele>945.6666666666666</ele><time>2026-05-02T13:51:38.985Z</time></trkpt><trkpt lat="43.7786407" lon="6.3874164"><ele>942.3333333333333</ele><time>2026-05-02T13:51:39.985Z</time></trkpt><trkpt lat="43.7785454" lon="6.3872359"><ele>939.0</ele><time>2026-05-02T13:51:40.985Z</time></trkpt><trkpt lat="43.7784685" lon="6.3870636"><ele>944.75</ele><time>2026-05-02T13:51:41.984Z</time></trkpt><trkpt lat="43.7783955" lon="6.3868789"><ele>950.5</ele><time>2026-05-02T13:51:42.984Z</time></trkpt><trkpt lat="43.7783345" lon="6.3867009"><ele>956.25</ele><time>2026-05-02T13:51:43.985Z</time></trkpt><trkpt lat="43.7782826" lon="6.3865413"><ele>962.0</ele><time>2026-05-02T13:51:44.985Z</time></trkpt><trkpt lat="43.7782164" lon="6.3863809"><ele>962.0</ele><time>2026-05-02T13:51:45.985Z</time></trkpt><trkpt lat="43.7781467" lon="6.3862069"><ele>962.0</ele><time>2026-05-02T13:51:46.985Z</time></trkpt><trkpt lat="43.7780891" lon="6.3860232"><ele>962.0</ele><time>2026-05-02T13:51:47.985Z</time></trkpt><trkpt lat="43.7780209" lon="6.3858563"><ele>962.0</ele><time>2026-05-02T13:51:48.984Z</time></trkpt><trkpt lat="43.7779622" lon="6.3856852"><ele>962.0</ele><time>2026-05-02T13:51:49.985Z</time></trkpt><trkpt lat="43.7778973" lon="6.3855133"><ele>962.0</ele><time>2026-05-02T13:51:50.985Z</time></trkpt><trkpt lat="43.7778228" lon="6.3853285"><ele>962.0</ele><time>2026-05-02T13:51:51.985Z</time></trkpt><trkpt lat="43.777756" lon="6.3851485"><ele>962.0</ele><time>2026-05-02T13:51:52.985Z</time></trkpt><trkpt lat="43.7776841" lon="6.3849634"><ele>966.5</ele><time>2026-05-02T13:51:53.984Z</time></trkpt><trkpt lat="43.777613" lon="6.3847771"><ele>971.0</ele><time>2026-05-02T13:51:54.984Z</time></trkpt><trkpt lat="43.7775491" lon="6.3845935"><ele>975.5</ele><time>2026-05-02T13:51:55.985Z</time></trkpt><trkpt lat="43.777486" lon="6.3844216"><ele>980.0</ele><time>2026-05-02T13:51:56.985Z</time></trkpt><trkpt lat="43.777419" lon="6.384249"><ele>980.0</ele><time>2026-05-02T13:51:57.985Z</time></trkpt><trkpt lat="43.7773583" lon="6.3840631"><ele>980.0</ele><time>2026-05-02T13:51:58.985Z</time></trkpt><trkpt lat="43.7773061" lon="6.3838919"><ele>980.0</ele><time>2026-05-02T13:51:59.984Z</time></trkpt><trkpt lat="43.7772481" lon="6.3837183"><ele>980.0</ele><time>2026-05-02T13:52:00.984Z</time></trkpt><trkpt lat="43.7771989" lon="6.3835546"><ele>979.0</ele><time>2026-05-02T13:52:01.985Z</time></trkpt><trkpt lat="43.7771352" lon="6.3833886"><ele>978.0</ele><time>2026-05-02T13:52:02.985Z</time></trkpt><trkpt lat="43.7770746" lon="6.3832168"><ele>977.0</ele><time>2026-05-02T13:52:03.985Z</time></trkpt><trkpt lat="43.7770171" lon="6.3830341"><ele>976.0</ele><time>2026-05-02T13:52:04.985Z</time></trkpt><trkpt lat="43.7769423" lon="6.3828658"><ele>974.6666666666666</ele><time>2026-05-02T13:52:05.985Z</time></trkpt><trkpt lat="43.7768695" lon="6.3826975"><ele>973.3333333333333</ele><time>2026-05-02T13:52:06.985Z</time></trkpt><trkpt lat="43.7767467" lon="6.3825597"><ele>972.0</ele><time>2026-05-02T13:52:07.985Z</time></trkpt><trkpt lat="43.7765777" lon="6.3824118"><ele>979.3333333333333</ele><time>2026-05-02T13:52:08.985Z</time></trkpt><trkpt lat="43.7764346" lon="6.3822555"><ele>986.6666666666666</ele><time>2026-05-02T13:52:09.984Z</time></trkpt><trkpt lat="43.7763061" lon="6.382122"><ele>994.0</ele><time>2026-05-02T13:52:10.984Z</time></trkpt><trkpt lat="43.7761623" lon="6.3819852"><ele>994.0</ele><time>2026-05-02T13:52:11.985Z</time></trkpt><trkpt lat="43.776025" lon="6.3818721"><ele>994.0</ele><time>2026-05-02T13:52:12.985Z</time></trkpt><trkpt lat="43.7759053" lon="6.3817224"><ele>994.0</ele><time>2026-05-02T13:52:13.985Z</time></trkpt><trkpt lat="43.7757796" lon="6.3816152"><ele>1000.6666666666666</ele><time>2026-05-02T13:52:14.985Z</time></trkpt><trkpt lat="43.7756986" lon="6.3814222"><ele>1007.3333333333333</ele><time>2026-05-02T13:52:15.985Z</time></trkpt><trkpt lat="43.7755965" lon="6.381259"><ele>1014.0</ele><time>2026-05-02T13:52:16.985Z</time></trkpt><trkpt lat="43.7755027" lon="6.3810873"><ele>1014.0</ele><time>2026-05-02T13:52:17.985Z</time></trkpt><trkpt lat="43.7754565" lon="6.3808622"><ele>1014.0</ele><time>2026-05-02T13:52:18.985Z</time></trkpt><trkpt lat="43.7755029" lon="6.380691"><ele>1014.0</ele><time>2026-05-02T13:52:19.985Z</time></trkpt><trkpt lat="43.7755076" lon="6.3805151"><ele>1014.0</ele><time>2026-05-02T13:52:20.985Z</time></trkpt><trkpt lat="43.7755079" lon="6.3804045"><ele>1013.8000000000001</ele><time>2026-05-02T13:52:21.985Z</time></trkpt><trkpt lat="43.7754974" lon="6.3803029"><ele>1013.6000000000001</ele><time>2026-05-02T13:52:22.985Z</time></trkpt><trkpt lat="43.7754793" lon="6.380216"><ele>1013.4</ele><time>2026-05-02T13:52:23.985Z</time></trkpt><trkpt lat="43.7753618" lon="6.3801601"><ele>1013.2</ele><time>2026-05-02T13:52:25.985Z</time></trkpt><trkpt lat="43.7752842" lon="6.3801685"><ele>1013.0</ele><time>2026-05-02T13:52:26.984Z</time></trkpt><trkpt lat="43.7751751" lon="6.3802402"><ele>1019.25</ele><time>2026-05-02T13:52:28.985Z</time></trkpt><trkpt lat="43.7751669" lon="6.3804331"><ele>1025.5</ele><time>2026-05-02T13:52:29.984Z</time></trkpt><trkpt lat="43.7751681" lon="6.3806323"><ele>1031.75</ele><time>2026-05-02T13:52:30.985Z</time></trkpt><trkpt lat="43.7751342" lon="6.3807961"><ele>1038.0</ele><time>2026-05-02T13:52:31.985Z</time></trkpt><trkpt lat="43.7751266" lon="6.3810092"><ele>1038.0</ele><time>2026-05-02T13:52:32.985Z</time></trkpt><trkpt lat="43.7751281" lon="6.381216"><ele>1038.0</ele><time>2026-05-02T13:52:33.985Z</time></trkpt><trkpt lat="43.77511" lon="6.3813758"><ele>1038.0</ele><time>2026-05-02T13:52:34.985Z</time></trkpt><trkpt lat="43.7750767" lon="6.3815441"><ele>1038.0</ele><time>2026-05-02T13:52:35.985Z</time></trkpt><trkpt lat="43.7750443" lon="6.3817657"><ele>1038.75</ele><time>2026-05-02T13:52:36.985Z</time></trkpt><trkpt lat="43.7750205" lon="6.381971"><ele>1039.5</ele><time>2026-05-02T13:52:37.985Z</time></trkpt><trkpt lat="43.7750379" lon="6.3821526"><ele>1040.25</ele><time>2026-05-02T13:52:38.985Z</time></trkpt><trkpt lat="43.7750491" lon="6.3823526"><ele>1041.0</ele><time>2026-05-02T13:52:39.985Z</time></trkpt><trkpt lat="43.7750431" lon="6.3825257"><ele>1041.5</ele><time>2026-05-02T13:52:40.985Z</time></trkpt><trkpt lat="43.7750619" lon="6.3827174"><ele>1042.0</ele><time>2026-05-02T13:52:41.985Z</time></trkpt><trkpt lat="43.7750689" lon="6.3828865"><ele>1042.5</ele><time>2026-05-02T13:52:42.985Z</time></trkpt><trkpt lat="43.775127" lon="6.3830402"><ele>1043.0</ele><time>2026-05-02T13:52:43.985Z</time></trkpt><trkpt lat="43.7751915" lon="6.3831984"><ele>1043.0</ele><time>2026-05-02T13:52:44.985Z</time></trkpt><trkpt lat="43.7752549" lon="6.3833593"><ele>1043.0</ele><time>2026-05-02T13:52:45.985Z</time></trkpt><trkpt lat="43.7753116" lon="6.3834904"><ele>1043.0</ele><time>2026-05-02T13:52:46.984Z</time></trkpt><trkpt lat="43.775354" lon="6.3836344"><ele>1043.0</ele><time>2026-05-02T13:52:47.985Z</time></trkpt><trkpt lat="43.7753853" lon="6.3837349"><ele>1043.0</ele><time>2026-05-02T13:52:48.985Z</time></trkpt><trkpt lat="43.775425" lon="6.3838852"><ele>1043.0</ele><time>2026-05-02T13:52:50.985Z</time></trkpt><trkpt lat="43.7754265" lon="6.3840108"><ele>1043.0</ele><time>2026-05-02T13:52:52.985Z</time></trkpt><trkpt lat="43.7753605" lon="6.3840008"><ele>1043.0</ele><time>2026-05-02T13:52:53.985Z</time></trkpt><trkpt lat="43.7752792" lon="6.3839477"><ele>1043.0</ele><time>2026-05-02T13:52:55.985Z</time></trkpt><trkpt lat="43.775236" lon="6.3838493"><ele>1043.0</ele><time>2026-05-02T13:52:57.985Z</time></trkpt><trkpt lat="43.7752634" lon="6.3837636"><ele>1043.0</ele><time>2026-05-02T13:53:02.985Z</time></trkpt><trkpt lat="43.7751956" lon="6.3837374"><ele>1042.0</ele><time>2026-05-02T13:54:02.985Z</time></trkpt><trkpt lat="43.775148" lon="6.3837978"><ele>1041.0</ele><time>2026-05-02T13:54:25.985Z</time></trkpt><trkpt lat="43.7751598" lon="6.3838963"><ele>1040.0</ele><time>2026-05-02T13:56:34.985Z</time></trkpt><trkpt lat="43.7751544" lon="6.3840071"><ele>1039.0</ele><time>2026-05-02T13:58:25.005Z</time></trkpt><trkpt lat="43.7751617" lon="6.383909"><ele>1038.0</ele><time>2026-05-02T13:58:30.984Z</time></trkpt><trkpt lat="43.775155" lon="6.383818"><ele>1037.0</ele><time>2026-05-02T13:58:48.985Z</time></trkpt><trkpt lat="43.775152" lon="6.383723"><ele>1036.0</ele><time>2026-05-02T13:58:54.985Z</time></trkpt><trkpt lat="43.7752154" lon="6.3837241"><ele>1036.0</ele><time>2026-05-02T13:59:03.985Z</time></trkpt></trkseg><trkseg><trkpt lat="43.772217" lon="6.3772166"><ele>1091.6666666666665</ele><time>2026-05-02T14:09:00.985Z</time></trkpt><trkpt lat="43.7721442" lon="6.3771193"><ele>1090.3333333333333</ele><time>2026-05-02T14:09:19.985Z</time></trkpt><trkpt lat="43.7720804" lon="6.37706"><ele>1089.0</ele><time>2026-05-02T14:09:20.985Z</time></trkpt><trkpt lat="43.77203" lon="6.3769892"><ele>1087.6666666666667</ele><time>2026-05-02T14:09:21.985Z</time></trkpt><trkpt lat="43.7719687" lon="6.3769035"><ele>1086.3333333333335</ele><time>2026-05-02T14:09:22.985Z</time></trkpt><trkpt lat="43.7718962" lon="6.37683"><ele>1085.0</ele><time>2026-05-02T14:09:23.985Z</time></trkpt><trkpt lat="43.7718186" lon="6.3767265"><ele>1087.8</ele><time>2026-05-02T14:09:24.985Z</time></trkpt><trkpt lat="43.7717387" lon="6.3766243"><ele>1090.6</ele><time>2026-05-02T14:09:25.985Z</time></trkpt><trkpt lat="43.7716629" lon="6.376529"><ele>1093.4</ele><time>2026-05-02T14:09:26.985Z</time></trkpt><trkpt lat="43.7715801" lon="6.3764033"><ele>1096.2</ele><time>2026-05-02T14:09:27.985Z</time></trkpt><trkpt lat="43.7714937" lon="6.3763019"><ele>1099.0</ele><time>2026-05-02T14:09:28.984Z</time></trkpt><trkpt lat="43.7714134" lon="6.3761817"><ele>1099.0</ele><time>2026-05-02T14:09:29.985Z</time></trkpt><trkpt lat="43.7713284" lon="6.3760585"><ele>1099.0</ele><time>2026-05-02T14:09:30.984Z</time></trkpt><trkpt lat="43.7712536" lon="6.3759326"><ele>1099.0</ele><time>2026-05-02T14:09:31.985Z</time></trkpt><trkpt lat="43.7711679" lon="6.3758064"><ele>1099.0</ele><time>2026-05-02T14:09:32.984Z</time></trkpt><trkpt lat="43.7711047" lon="6.3756762"><ele>1099.0</ele><time>2026-05-02T14:09:33.985Z</time></trkpt><trkpt lat="43.7710371" lon="6.3755409"><ele>1099.0</ele><time>2026-05-02T14:09:34.985Z</time></trkpt><trkpt lat="43.7709722" lon="6.3754105"><ele>1099.0</ele><time>2026-05-02T14:09:35.985Z</time></trkpt><trkpt lat="43.7708922" lon="6.37528"><ele>1099.0</ele><time>2026-05-02T14:09:36.985Z</time></trkpt><trkpt lat="43.7708026" lon="6.3751486"><ele>1100.75</ele><time>2026-05-02T14:09:37.985Z</time></trkpt><trkpt lat="43.7707263" lon="6.3750114"><ele>1102.5</ele><time>2026-05-02T14:09:38.985Z</time></trkpt><trkpt lat="43.7706459" lon="6.374874"><ele>1104.25</ele><time>2026-05-02T14:09:39.985Z</time></trkpt><trkpt lat="43.7705625" lon="6.374742"><ele>1106.0</ele><time>2026-05-02T14:09:40.984Z</time></trkpt><trkpt lat="43.7704808" lon="6.3746109"><ele>1106.0</ele><time>2026-05-02T14:09:41.985Z</time></trkpt><trkpt lat="43.7703928" lon="6.3744803"><ele>1106.0</ele><time>2026-05-02T14:09:42.985Z</time></trkpt><trkpt lat="43.7702993" lon="6.374352"><ele>1106.0</ele><time>2026-05-02T14:09:43.984Z</time></trkpt><trkpt lat="43.7702166" lon="6.3742112"><ele>1106.0</ele><time>2026-05-02T14:09:44.984Z</time></trkpt><trkpt lat="43.770125" lon="6.3740763"><ele>1109.5</ele><time>2026-05-02T14:09:45.985Z</time></trkpt><trkpt lat="43.7700519" lon="6.3739432"><ele>1113.0</ele><time>2026-05-02T14:09:46.985Z</time></trkpt><trkpt lat="43.7699763" lon="6.3738089"><ele>1116.5</ele><time>2026-05-02T14:09:47.985Z</time></trkpt><trkpt lat="43.7698955" lon="6.3736665"><ele>1120.0</ele><time>2026-05-02T14:09:48.985Z</time></trkpt><trkpt lat="43.7698" lon="6.3735354"><ele>1120.25</ele><time>2026-05-02T14:09:49.985Z</time></trkpt><trkpt lat="43.769682" lon="6.3734079"><ele>1120.5</ele><time>2026-05-02T14:09:50.985Z</time></trkpt><trkpt lat="43.7695771" lon="6.3732767"><ele>1120.75</ele><time>2026-05-02T14:09:51.985Z</time></trkpt><trkpt lat="43.7694849" lon="6.3731352"><ele>1121.0</ele><time>2026-05-02T14:09:52.985Z</time></trkpt><trkpt lat="43.769382" lon="6.373007"><ele>1124.75</ele><time>2026-05-02T14:09:53.984Z</time></trkpt><trkpt lat="43.7692816" lon="6.372869"><ele>1128.5</ele><time>2026-05-02T14:09:54.985Z</time></trkpt><trkpt lat="43.7692032" lon="6.3727347"><ele>1132.25</ele><time>2026-05-02T14:09:55.985Z</time></trkpt><trkpt lat="43.7690936" lon="6.3725951"><ele>1136.0</ele><time>2026-05-02T14:09:56.985Z</time></trkpt><trkpt lat="43.7689759" lon="6.372472"><ele>1136.0</ele><time>2026-05-02T14:09:57.985Z</time></trkpt><trkpt lat="43.7688543" lon="6.3723498"><ele>1136.0</ele><time>2026-05-02T14:09:58.985Z</time></trkpt><trkpt lat="43.7687311" lon="6.3722339"><ele>1136.0</ele><time>2026-05-02T14:09:59.984Z</time></trkpt><trkpt lat="43.7686047" lon="6.3721206"><ele>1140.3333333333335</ele><time>2026-05-02T14:10:00.985Z</time></trkpt><trkpt lat="43.7684485" lon="6.3719967"><ele>1144.6666666666667</ele><time>2026-05-02T14:10:01.985Z</time></trkpt><trkpt lat="43.7683152" lon="6.3718854"><ele>1149.0</ele><time>2026-05-02T14:10:02.985Z</time></trkpt><trkpt lat="43.768173" lon="6.371781"><ele>1149.0</ele><time>2026-05-02T14:10:03.985Z</time></trkpt><trkpt lat="43.7680388" lon="6.3716639"><ele>1149.0</ele><time>2026-05-02T14:10:04.985Z</time></trkpt><trkpt lat="43.7679042" lon="6.3715517"><ele>1149.0</ele><time>2026-05-02T14:10:05.985Z</time></trkpt><trkpt lat="43.7677604" lon="6.3714472"><ele>1154.0</ele><time>2026-05-02T14:10:06.984Z</time></trkpt><trkpt lat="43.7676371" lon="6.3713358"><ele>1159.0</ele><time>2026-05-02T14:10:07.985Z</time></trkpt><trkpt lat="43.7675105" lon="6.3712048"><ele>1164.0</ele><time>2026-05-02T14:10:08.985Z</time></trkpt><trkpt lat="43.7673669" lon="6.3710465"><ele>1164.0</ele><time>2026-05-02T14:10:09.985Z</time></trkpt><trkpt lat="43.7672462" lon="6.3708906"><ele>1164.0</ele><time>2026-05-02T14:10:10.985Z</time></trkpt><trkpt lat="43.7671293" lon="6.3707403"><ele>1164.0</ele><time>2026-05-02T14:10:11.985Z</time></trkpt><trkpt lat="43.7670253" lon="6.3705796"><ele>1162.0</ele><time>2026-05-02T14:10:12.984Z</time></trkpt><trkpt lat="43.7669265" lon="6.3704187"><ele>1160.0</ele><time>2026-05-02T14:10:13.985Z</time></trkpt><trkpt lat="43.7668423" lon="6.3702619"><ele>1158.0</ele><time>2026-05-02T14:10:14.985Z</time></trkpt><trkpt lat="43.7667474" lon="6.3700891"><ele>1163.6666666666667</ele><time>2026-05-02T14:10:15.985Z</time></trkpt><trkpt lat="43.7666578" lon="6.369909"><ele>1169.3333333333335</ele><time>2026-05-02T14:10:16.984Z</time></trkpt><trkpt lat="43.7665508" lon="6.3697694"><ele>1175.0</ele><time>2026-05-02T14:10:17.985Z</time></trkpt><trkpt lat="43.766453" lon="6.3696067"><ele>1175.0</ele><time>2026-05-02T14:10:18.985Z</time></trkpt><trkpt lat="43.7663433" lon="6.3694648"><ele>1175.0</ele><time>2026-05-02T14:10:19.985Z</time></trkpt><trkpt lat="43.7662235" lon="6.3693448"><ele>1175.0</ele><time>2026-05-02T14:10:20.985Z</time></trkpt><trkpt lat="43.7660781" lon="6.3692109"><ele>1179.3333333333335</ele><time>2026-05-02T14:10:21.985Z</time></trkpt><trkpt lat="43.7659358" lon="6.3690479"><ele>1183.6666666666667</ele><time>2026-05-02T14:10:22.985Z</time></trkpt><trkpt lat="43.7658341" lon="6.3689408"><ele>1188.0</ele><time>2026-05-02T14:10:23.985Z</time></trkpt><trkpt lat="43.7657145" lon="6.3688103"><ele>1188.0</ele><time>2026-05-02T14:10:24.985Z</time></trkpt><trkpt lat="43.7656072" lon="6.3686784"><ele>1188.0</ele><time>2026-05-02T14:10:25.985Z</time></trkpt><trkpt lat="43.7654978" lon="6.3685722"><ele>1188.0</ele><time>2026-05-02T14:10:26.985Z</time></trkpt><trkpt lat="43.7654032" lon="6.3684729"><ele>1188.0</ele><time>2026-05-02T14:10:27.984Z</time></trkpt><trkpt lat="43.7653408" lon="6.3683887"><ele>1188.0</ele><time>2026-05-02T14:10:28.985Z</time></trkpt><trkpt lat="43.7653119" lon="6.36831"><ele>1188.0</ele><time>2026-05-02T14:10:29.985Z</time></trkpt><trkpt lat="43.7652587" lon="6.3682452"><ele>1188.0</ele><time>2026-05-02T14:10:30.985Z</time></trkpt><trkpt lat="43.7651715" lon="6.3682642"><ele>1188.0</ele><time>2026-05-02T14:10:32.985Z</time></trkpt><trkpt lat="43.7651564" lon="6.3683846"><ele>1188.0</ele><time>2026-05-02T14:10:33.984Z</time></trkpt><trkpt lat="43.7651058" lon="6.3684884"><ele>1188.0</ele><time>2026-05-02T14:10:34.985Z</time></trkpt><trkpt lat="43.7650719" lon="6.3685842"><ele>1189.75</ele><time>2026-05-02T14:10:35.985Z</time></trkpt><trkpt lat="43.7650852" lon="6.3686901"><ele>1191.5</ele><time>2026-05-02T14:10:36.985Z</time></trkpt><trkpt lat="43.7651841" lon="6.3688529"><ele>1193.25</ele><time>2026-05-02T14:10:37.985Z</time></trkpt><trkpt lat="43.7652379" lon="6.3689833"><ele>1195.0</ele><time>2026-05-02T14:10:38.985Z</time></trkpt><trkpt lat="43.7652784" lon="6.3691354"><ele>1195.0</ele><time>2026-05-02T14:10:39.984Z</time></trkpt><trkpt lat="43.7652861" lon="6.3693053"><ele>1195.0</ele><time>2026-05-02T14:10:40.984Z</time></trkpt><trkpt lat="43.7652893" lon="6.3694981"><ele>1195.0</ele><time>2026-05-02T14:10:41.985Z</time></trkpt><trkpt lat="43.7653014" lon="6.3697107"><ele>1195.0</ele><time>2026-05-02T14:10:42.985Z</time></trkpt><trkpt lat="43.7653052" lon="6.3698911"><ele>1196.75</ele><time>2026-05-02T14:10:43.985Z</time></trkpt><trkpt lat="43.7653141" lon="6.3700748"><ele>1198.5</ele><time>2026-05-02T14:10:44.985Z</time></trkpt><trkpt lat="43.7653149" lon="6.3702683"><ele>1200.25</ele><time>2026-05-02T14:10:45.985Z</time></trkpt><trkpt lat="43.7653161" lon="6.370459"><ele>1202.0</ele><time>2026-05-02T14:10:46.985Z</time></trkpt><trkpt lat="43.7653209" lon="6.3706465"><ele>1203.75</ele><time>2026-05-02T14:10:47.985Z</time></trkpt><trkpt lat="43.7653123" lon="6.3708462"><ele>1205.5</ele><time>2026-05-02T14:10:48.984Z</time></trkpt><trkpt lat="43.7653037" lon="6.3710316"><ele>1207.25</ele><time>2026-05-02T14:10:49.985Z</time></trkpt><trkpt lat="43.7653112" lon="6.3712207"><ele>1209.0</ele><time>2026-05-02T14:10:50.985Z</time></trkpt><trkpt lat="43.7653192" lon="6.371413"><ele>1210.5</ele><time>2026-05-02T14:10:51.985Z</time></trkpt><trkpt lat="43.7653418" lon="6.3716171"><ele>1212.0</ele><time>2026-05-02T14:10:52.984Z</time></trkpt><trkpt lat="43.7653346" lon="6.3717963"><ele>1213.5</ele><time>2026-05-02T14:10:53.985Z</time></trkpt><trkpt lat="43.7653366" lon="6.371976"><ele>1215.0</ele><time>2026-05-02T14:10:54.985Z</time></trkpt><trkpt lat="43.7653376" lon="6.3721622"><ele>1215.2</ele><time>2026-05-02T14:10:55.985Z</time></trkpt><trkpt lat="43.7653492" lon="6.3723314"><ele>1215.4</ele><time>2026-05-02T14:10:56.985Z</time></trkpt><trkpt lat="43.7653521" lon="6.3724884"><ele>1215.6</ele><time>2026-05-02T14:10:57.985Z</time></trkpt><trkpt lat="43.7653681" lon="6.3726405"><ele>1215.8</ele><time>2026-05-02T14:10:58.985Z</time></trkpt><trkpt lat="43.7653786" lon="6.3727654"><ele>1216.0</ele><time>2026-05-02T14:10:59.985Z</time></trkpt><trkpt lat="43.7654" lon="6.3728926"><ele>1216.0</ele><time>2026-05-02T14:11:00.985Z</time></trkpt><trkpt lat="43.7654354" lon="6.3730698"><ele>1216.0</ele><time>2026-05-02T14:11:02.985Z</time></trkpt><trkpt lat="43.7654618" lon="6.3731627"><ele>1216.0</ele><time>2026-05-02T14:11:03.985Z</time></trkpt><trkpt lat="43.7654286" lon="6.3732775"><ele>1216.0</ele><time>2026-05-02T14:11:05.985Z</time></trkpt><trkpt lat="43.7653716" lon="6.3733701"><ele>1216.0</ele><time>2026-05-02T14:11:07.985Z</time></trkpt><trkpt lat="43.7653112" lon="6.3733374"><ele>1216.0</ele><time>2026-05-02T14:11:09.985Z</time></trkpt><trkpt lat="43.7652712" lon="6.373215"><ele>1216.0</ele><time>2026-05-02T14:11:11.985Z</time></trkpt><trkpt lat="43.7652672" lon="6.3731033"><ele>1216.0</ele><time>2026-05-02T14:11:13.985Z</time></trkpt><trkpt lat="43.7652469" lon="6.3729813"><ele>1216.0</ele><time>2026-05-02T14:11:15.985Z</time></trkpt><trkpt lat="43.7652247" lon="6.3728616"><ele>1216.0</ele><time>2026-05-02T14:11:17.985Z</time></trkpt><trkpt lat="43.7652217" lon="6.3727687"><ele>1216.0</ele><time>2026-05-02T14:11:19.985Z</time></trkpt><trkpt lat="43.765256" lon="6.3726682"><ele>1216.0</ele><time>2026-05-02T14:11:55.984Z</time></trkpt><trkpt lat="43.7652682" lon="6.3727705"><ele>1216.0</ele><time>2026-05-02T14:12:23.985Z</time></trkpt><trkpt lat="43.7652587" lon="6.37286"><ele>1216.0</ele><time>2026-05-02T14:12:28.984Z</time></trkpt><trkpt lat="43.7652593" lon="6.3729651"><ele>1216.0</ele><time>2026-05-02T14:12:34.985Z</time></trkpt><trkpt lat="43.7652622" lon="6.3730567"><ele>1216.0</ele><time>2026-05-02T14:12:38.985Z</time></trkpt><trkpt lat="43.765269" lon="6.3731663"><ele>1216.0</ele><time>2026-05-02T14:12:42.985Z</time></trkpt><trkpt lat="43.7652701" lon="6.3725788"><ele>1216.0</ele><time>2026-05-02T14:21:15.98Z</time></trkpt><trkpt lat="43.7652206" lon="6.3725124"><ele>1216.0</ele><time>2026-05-02T14:21:18.98Z</time></trkpt><trkpt lat="43.7651866" lon="6.3724022"><ele>1216.0</ele><time>2026-05-02T14:21:20.98Z</time></trkpt><trkpt lat="43.7651534" lon="6.3722997"><ele>1216.0</ele><time>2026-05-02T14:21:21.98Z</time></trkpt><trkpt lat="43.7650941" lon="6.3722015"><ele>1216.0</ele><time>2026-05-02T14:21:22.98Z</time></trkpt><trkpt lat="43.7650501" lon="6.3720715"><ele>1216.0</ele><time>2026-05-02T14:21:23.98Z</time></trkpt><trkpt lat="43.7650204" lon="6.3719482"><ele>1219.3999999999999</ele><time>2026-05-02T14:21:24.979Z</time></trkpt><trkpt lat="43.7649766" lon="6.3718234"><ele>1222.8</ele><time>2026-05-02T14:21:25.98Z</time></trkpt><trkpt lat="43.7649385" lon="6.3716978"><ele>1226.1999999999998</ele><time>2026-05-02T14:21:26.98Z</time></trkpt><trkpt lat="43.7648813" lon="6.3715868"><ele>1229.6</ele><time>2026-05-02T14:21:27.979Z</time></trkpt><trkpt lat="43.7648193" lon="6.3714808"><ele>1233.0</ele><time>2026-05-02T14:21:28.98Z</time></trkpt><trkpt lat="43.764753" lon="6.3713671"><ele>1231.6</ele><time>2026-05-02T14:21:29.98Z</time></trkpt><trkpt lat="43.7646813" lon="6.3712532"><ele>1230.1999999999998</ele><time>2026-05-02T14:21:30.98Z</time></trkpt><trkpt lat="43.7646038" lon="6.3711462"><ele>1228.8</ele><time>2026-05-02T14:21:31.98Z</time></trkpt><trkpt lat="43.7645372" lon="6.3710433"><ele>1227.3999999999999</ele><time>2026-05-02T14:21:32.98Z</time></trkpt><trkpt lat="43.764474" lon="6.3709377"><ele>1226.0</ele><time>2026-05-02T14:21:33.98Z</time></trkpt><trkpt lat="43.7644096" lon="6.3708304"><ele>1228.2</ele><time>2026-05-02T14:21:34.98Z</time></trkpt><trkpt lat="43.7643428" lon="6.3707296"><ele>1230.3999999999999</ele><time>2026-05-02T14:21:35.98Z</time></trkpt><trkpt lat="43.7642711" lon="6.370621"><ele>1232.6</ele><time>2026-05-02T14:21:36.98Z</time></trkpt><trkpt lat="43.7641879" lon="6.3705156"><ele>1234.8</ele><time>2026-05-02T14:21:37.98Z</time></trkpt><trkpt lat="43.7640973" lon="6.3704208"><ele>1237.0</ele><time>2026-05-02T14:21:38.979Z</time></trkpt><trkpt lat="43.7639869" lon="6.3703145"><ele>1237.0</ele><time>2026-05-02T14:21:39.98Z</time></trkpt><trkpt lat="43.7638856" lon="6.3702059"><ele>1237.0</ele><time>2026-05-02T14:21:40.98Z</time></trkpt><trkpt lat="43.7637399" lon="6.3701037"><ele>1237.0</ele><time>2026-05-02T14:21:41.98Z</time></trkpt><trkpt lat="43.7635954" lon="6.3700234"><ele>1237.0</ele><time>2026-05-02T14:21:42.98Z</time></trkpt><trkpt lat="43.7634597" lon="6.3699295"><ele>1240.6666666666665</ele><time>2026-05-02T14:21:43.979Z</time></trkpt><trkpt lat="43.7633143" lon="6.3698341"><ele>1244.3333333333333</ele><time>2026-05-02T14:21:44.98Z</time></trkpt><trkpt lat="43.7631721" lon="6.3697547"><ele>1248.0</ele><time>2026-05-02T14:21:45.98Z</time></trkpt><trkpt lat="43.7630209" lon="6.3696672"><ele>1248.0</ele><time>2026-05-02T14:21:46.98Z</time></trkpt><trkpt lat="43.7628758" lon="6.3695877"><ele>1248.0</ele><time>2026-05-02T14:21:47.979Z</time></trkpt><trkpt lat="43.7627356" lon="6.3694991"><ele>1248.0</ele><time>2026-05-02T14:21:48.98Z</time></trkpt><trkpt lat="43.7626312" lon="6.3693896"><ele>1248.0</ele><time>2026-05-02T14:21:49.98Z</time></trkpt><trkpt lat="43.7624971" lon="6.3692998"><ele>1252.3333333333333</ele><time>2026-05-02T14:21:50.98Z</time></trkpt><trkpt lat="43.7623646" lon="6.3691917"><ele>1256.6666666666665</ele><time>2026-05-02T14:21:51.98Z</time></trkpt><trkpt lat="43.7622639" lon="6.3690358"><ele>1261.0</ele><time>2026-05-02T14:21:52.98Z</time></trkpt><trkpt lat="43.7621713" lon="6.36887"><ele>1260.25</ele><time>2026-05-02T14:21:53.98Z</time></trkpt><trkpt lat="43.762079" lon="6.3687106"><ele>1259.5</ele><time>2026-05-02T14:21:54.98Z</time></trkpt><trkpt lat="43.7619835" lon="6.3685488"><ele>1258.75</ele><time>2026-05-02T14:21:55.98Z</time></trkpt><trkpt lat="43.7618948" lon="6.3683851"><ele>1258.0</ele><time>2026-05-02T14:21:56.98Z</time></trkpt><trkpt lat="43.7617845" lon="6.3682249"><ele>1260.25</ele><time>2026-05-02T14:21:57.98Z</time></trkpt><trkpt lat="43.7616755" lon="6.3680782"><ele>1262.5</ele><time>2026-05-02T14:21:58.979Z</time></trkpt><trkpt lat="43.7615826" lon="6.3679331"><ele>1264.75</ele><time>2026-05-02T14:21:59.98Z</time></trkpt><trkpt lat="43.7614858" lon="6.3677861"><ele>1267.0</ele><time>2026-05-02T14:22:00.98Z</time></trkpt><trkpt lat="43.7613871" lon="6.3676415"><ele>1267.4</ele><time>2026-05-02T14:22:01.98Z</time></trkpt><trkpt lat="43.7613269" lon="6.3675422"><ele>1267.8000000000002</ele><time>2026-05-02T14:22:02.98Z</time></trkpt><trkpt lat="43.761269" lon="6.3674194"><ele>1268.2</ele><time>2026-05-02T14:22:03.98Z</time></trkpt><trkpt lat="43.7611899" lon="6.367304"><ele>1268.6000000000001</ele><time>2026-05-02T14:22:04.98Z</time></trkpt><trkpt lat="43.7610839" lon="6.3672007"><ele>1269.0</ele><time>2026-05-02T14:22:06.979Z</time></trkpt><trkpt lat="43.7609609" lon="6.3672261"><ele>1270.5</ele><time>2026-05-02T14:22:07.98Z</time></trkpt><trkpt lat="43.7608694" lon="6.3672903"><ele>1272.0</ele><time>2026-05-02T14:22:08.98Z</time></trkpt><trkpt lat="43.7607845" lon="6.3673592"><ele>1273.5</ele><time>2026-05-02T14:22:09.98Z</time></trkpt><trkpt lat="43.7607304" lon="6.3674881"><ele>1275.0</ele><time>2026-05-02T14:22:10.98Z</time></trkpt><trkpt lat="43.7606816" lon="6.3676781"><ele>1275.0</ele><time>2026-05-02T14:22:11.979Z</time></trkpt><trkpt lat="43.7606437" lon="6.3678918"><ele>1275.0</ele><time>2026-05-02T14:22:12.98Z</time></trkpt><trkpt lat="43.760609" lon="6.3680914"><ele>1275.0</ele><time>2026-05-02T14:22:13.98Z</time></trkpt><trkpt lat="43.7606294" lon="6.3683207"><ele>1274.75</ele><time>2026-05-02T14:22:14.979Z</time></trkpt><trkpt lat="43.7606035" lon="6.3685164"><ele>1274.5</ele><time>2026-05-02T14:22:15.98Z</time></trkpt><trkpt lat="43.7605893" lon="6.3687045"><ele>1274.25</ele><time>2026-05-02T14:22:16.98Z</time></trkpt><trkpt lat="43.7605733" lon="6.3688993"><ele>1274.0</ele><time>2026-05-02T14:22:17.98Z</time></trkpt><trkpt lat="43.7605525" lon="6.3690905"><ele>1274.0</ele><time>2026-05-02T14:22:18.98Z</time></trkpt><trkpt lat="43.7605386" lon="6.3692557"><ele>1274.0</ele><time>2026-05-02T14:22:19.98Z</time></trkpt><trkpt lat="43.7605123" lon="6.3694196"><ele>1274.0</ele><time>2026-05-02T14:22:20.98Z</time></trkpt><trkpt lat="43.7604776" lon="6.3695613"><ele>1274.0</ele><time>2026-05-02T14:22:21.98Z</time></trkpt><trkpt lat="43.760444" lon="6.3696999"><ele>1274.4</ele><time>2026-05-02T14:22:22.98Z</time></trkpt><trkpt lat="43.7604077" lon="6.3697845"><ele>1274.8000000000002</ele><time>2026-05-02T14:22:23.98Z</time></trkpt><trkpt lat="43.7603263" lon="6.369866"><ele>1275.1999999999998</ele><time>2026-05-02T14:22:24.98Z</time></trkpt><trkpt lat="43.7602151" lon="6.369882"><ele>1275.6</ele><time>2026-05-02T14:22:25.98Z</time></trkpt><trkpt lat="43.7601256" lon="6.3698767"><ele>1276.0</ele><time>2026-05-02T14:22:26.98Z</time></trkpt><trkpt lat="43.7600208" lon="6.3698724"><ele>1277.1999999999998</ele><time>2026-05-02T14:22:27.98Z</time></trkpt><trkpt lat="43.7599153" lon="6.3698518"><ele>1278.3999999999999</ele><time>2026-05-02T14:22:28.98Z</time></trkpt><trkpt lat="43.759841" lon="6.3697606"><ele>1279.6</ele><time>2026-05-02T14:22:29.98Z</time></trkpt><trkpt lat="43.7597641" lon="6.3696583"><ele>1280.8</ele><time>2026-05-02T14:22:30.979Z</time></trkpt><trkpt lat="43.7596869" lon="6.3695391"><ele>1282.0</ele><time>2026-05-02T14:22:31.98Z</time></trkpt><trkpt lat="43.7596013" lon="6.3694135"><ele>1281.5</ele><time>2026-05-02T14:22:32.98Z</time></trkpt><trkpt lat="43.7595184" lon="6.3692858"><ele>1281.0</ele><time>2026-05-02T14:22:33.98Z</time></trkpt><trkpt lat="43.7594346" lon="6.3691572"><ele>1280.5</ele><time>2026-05-02T14:22:34.98Z</time></trkpt><trkpt lat="43.7593369" lon="6.369022"><ele>1280.0</ele><time>2026-05-02T14:22:35.98Z</time></trkpt><trkpt lat="43.7592402" lon="6.3688917"><ele>1284.0</ele><time>2026-05-02T14:22:36.98Z</time></trkpt><trkpt lat="43.7591508" lon="6.3687645"><ele>1288.0</ele><time>2026-05-02T14:22:37.98Z</time></trkpt><trkpt lat="43.7590578" lon="6.368615"><ele>1292.0</ele><time>2026-05-02T14:22:38.98Z</time></trkpt><trkpt lat="43.7589777" lon="6.3684695"><ele>1296.0</ele><time>2026-05-02T14:22:39.98Z</time></trkpt><trkpt lat="43.7589101" lon="6.3683061"><ele>1296.0</ele><time>2026-05-02T14:22:40.98Z</time></trkpt><trkpt lat="43.7588206" lon="6.3681522"><ele>1296.0</ele><time>2026-05-02T14:22:41.979Z</time></trkpt><trkpt lat="43.7587336" lon="6.3679935"><ele>1296.0</ele><time>2026-05-02T14:22:42.979Z</time></trkpt><trkpt lat="43.7586439" lon="6.3678336"><ele>1296.0</ele><time>2026-05-02T14:22:43.98Z</time></trkpt><trkpt lat="43.7585559" lon="6.3676831"><ele>1296.5</ele><time>2026-05-02T14:22:44.98Z</time></trkpt><trkpt lat="43.7584786" lon="6.3675293"><ele>1297.0</ele><time>2026-05-02T14:22:45.98Z</time></trkpt><trkpt lat="43.7583876" lon="6.3673626"><ele>1297.5</ele><time>2026-05-02T14:22:46.979Z</time></trkpt><trkpt lat="43.7583198" lon="6.3672053"><ele>1298.0</ele><time>2026-05-02T14:22:47.98Z</time></trkpt><trkpt lat="43.7582516" lon="6.3670295"><ele>1300.5</ele><time>2026-05-02T14:22:48.98Z</time></trkpt><trkpt lat="43.7581757" lon="6.3668784"><ele>1303.0</ele><time>2026-05-02T14:22:49.98Z</time></trkpt><trkpt lat="43.758103" lon="6.3667346"><ele>1305.5</ele><time>2026-05-02T14:22:50.98Z</time></trkpt><trkpt lat="43.7580363" lon="6.3665997"><ele>1308.0</ele><time>2026-05-02T14:22:51.979Z</time></trkpt><trkpt lat="43.7579658" lon="6.3664842"><ele>1308.0</ele><time>2026-05-02T14:22:52.979Z</time></trkpt><trkpt lat="43.7578933" lon="6.3663764"><ele>1308.0</ele><time>2026-05-02T14:22:53.98Z</time></trkpt><trkpt lat="43.7578051" lon="6.3663227"><ele>1308.0</ele><time>2026-05-02T14:22:54.98Z</time></trkpt><trkpt lat="43.7577012" lon="6.3663324"><ele>1308.0</ele><time>2026-05-02T14:22:55.98Z</time></trkpt><trkpt lat="43.7576068" lon="6.3663092"><ele>1308.0</ele><time>2026-05-02T14:22:56.98Z</time></trkpt><trkpt lat="43.7574697" lon="6.3663413"><ele>1312.0</ele><time>2026-05-02T14:22:57.98Z</time></trkpt><trkpt lat="43.7573815" lon="6.3663457"><ele>1316.0</ele><time>2026-05-02T14:22:58.979Z</time></trkpt><trkpt lat="43.7572699" lon="6.3663418"><ele>1320.0</ele><time>2026-05-02T14:22:59.98Z</time></trkpt><trkpt lat="43.7571692" lon="6.366298"><ele>1324.0</ele><time>2026-05-02T14:23:00.98Z</time></trkpt><trkpt lat="43.7570926" lon="6.3662262"><ele>1328.0</ele><time>2026-05-02T14:23:01.98Z</time></trkpt><trkpt lat="43.7569824" lon="6.3661503"><ele>1328.75</ele><time>2026-05-02T14:23:02.98Z</time></trkpt><trkpt lat="43.7568623" lon="6.3660829"><ele>1329.5</ele><time>2026-05-02T14:23:03.979Z</time></trkpt><trkpt lat="43.7567648" lon="6.3659956"><ele>1330.25</ele><time>2026-05-02T14:23:04.98Z</time></trkpt><trkpt lat="43.7566671" lon="6.3659496"><ele>1331.0</ele><time>2026-05-02T14:23:05.98Z</time></trkpt><trkpt lat="43.7565649" lon="6.3659177"><ele>1331.0</ele><time>2026-05-02T14:23:06.979Z</time></trkpt><trkpt lat="43.7564298" lon="6.3658776"><ele>1331.0</ele><time>2026-05-02T14:23:07.98Z</time></trkpt><trkpt lat="43.7563242" lon="6.3658816"><ele>1331.0</ele><time>2026-05-02T14:23:08.98Z</time></trkpt><trkpt lat="43.7562604" lon="6.3659169"><ele>1331.0</ele><time>2026-05-02T14:23:09.978Z</time></trkpt><trkpt lat="43.7561897" lon="6.3659775"><ele>1331.0</ele><time>2026-05-02T14:23:10.978Z</time></trkpt><trkpt lat="43.7561056" lon="6.3660829"><ele>1330.3333333333335</ele><time>2026-05-02T14:23:11.977Z</time></trkpt><trkpt lat="43.7559943" lon="6.3662478"><ele>1329.6666666666667</ele><time>2026-05-02T14:23:12.979Z</time></trkpt><trkpt lat="43.7559457" lon="6.3664324"><ele>1329.0</ele><time>2026-05-02T14:23:13.978Z</time></trkpt><trkpt lat="43.7559373" lon="6.3667198"><ele>1328.25</ele><time>2026-05-02T14:23:14.977Z</time></trkpt><trkpt lat="43.7560055" lon="6.3668687"><ele>1327.5</ele><time>2026-05-02T14:23:15.977Z</time></trkpt><trkpt lat="43.7560526" lon="6.3670336"><ele>1326.75</ele><time>2026-05-02T14:23:16.977Z</time></trkpt><trkpt lat="43.7560708" lon="6.367229"><ele>1326.0</ele><time>2026-05-02T14:23:17.977Z</time></trkpt><trkpt lat="43.7560734" lon="6.3673867"><ele>1324.4</ele><time>2026-05-02T14:23:18.976Z</time></trkpt><trkpt lat="43.7560666" lon="6.3675474"><ele>1322.8</ele><time>2026-05-02T14:23:19.977Z</time></trkpt><trkpt lat="43.7560536" lon="6.3676657"><ele>1321.2</ele><time>2026-05-02T14:23:20.977Z</time></trkpt><trkpt lat="43.7560427" lon="6.3677996"><ele>1319.6000000000001</ele><time>2026-05-02T14:23:21.977Z</time></trkpt><trkpt lat="43.7559737" lon="6.3679405"><ele>1318.0</ele><time>2026-05-02T14:23:22.977Z</time></trkpt><trkpt lat="43.755923" lon="6.3680037"><ele>1315.2</ele><time>2026-05-02T14:23:23.977Z</time></trkpt><trkpt lat="43.7558449" lon="6.3680865"><ele>1312.4</ele><time>2026-05-02T14:23:24.977Z</time></trkpt><trkpt lat="43.7557488" lon="6.3681687"><ele>1309.6000000000001</ele><time>2026-05-02T14:23:25.977Z</time></trkpt><trkpt lat="43.7556566" lon="6.3682171"><ele>1306.8000000000002</ele><time>2026-05-02T14:23:26.976Z</time></trkpt><trkpt lat="43.7555406" lon="6.3682657"><ele>1304.0</ele><time>2026-05-02T14:23:27.977Z</time></trkpt><trkpt lat="43.7554315" lon="6.3683011"><ele>1304.0</ele><time>2026-05-02T14:23:28.977Z</time></trkpt><trkpt lat="43.7553317" lon="6.3682614"><ele>1304.0</ele><time>2026-05-02T14:23:29.977Z</time></trkpt><trkpt lat="43.7552288" lon="6.3682275"><ele>1304.0</ele><time>2026-05-02T14:23:30.977Z</time></trkpt><trkpt lat="43.755139" lon="6.3681536"><ele>1304.0</ele><time>2026-05-02T14:23:31.977Z</time></trkpt><trkpt lat="43.7550549" lon="6.3680655"><ele>1304.0</ele><time>2026-05-02T14:23:32.977Z</time></trkpt><trkpt lat="43.7549712" lon="6.3679755"><ele>1303.5</ele><time>2026-05-02T14:23:33.977Z</time></trkpt><trkpt lat="43.7548847" lon="6.3678831"><ele>1303.0</ele><time>2026-05-02T14:23:34.977Z</time></trkpt><trkpt lat="43.7548005" lon="6.3677924"><ele>1302.5</ele><time>2026-05-02T14:23:35.977Z</time></trkpt><trkpt lat="43.7547142" lon="6.3677046"><ele>1302.0</ele><time>2026-05-02T14:23:36.977Z</time></trkpt><trkpt lat="43.7546245" lon="6.3675753"><ele>1302.0</ele><time>2026-05-02T14:23:37.977Z</time></trkpt><trkpt lat="43.7545271" lon="6.3674803"><ele>1302.0</ele><time>2026-05-02T14:23:38.977Z</time></trkpt><trkpt lat="43.7544534" lon="6.3673148"><ele>1302.0</ele><time>2026-05-02T14:23:39.977Z</time></trkpt><trkpt lat="43.7543832" lon="6.3671808"><ele>1302.0</ele><time>2026-05-02T14:23:40.977Z</time></trkpt><trkpt lat="43.7543333" lon="6.3670143"><ele>1299.0</ele><time>2026-05-02T14:23:41.977Z</time></trkpt><trkpt lat="43.7542774" lon="6.3668622"><ele>1296.0</ele><time>2026-05-02T14:23:42.977Z</time></trkpt><trkpt lat="43.7542201" lon="6.3667132"><ele>1293.0</ele><time>2026-05-02T14:23:43.977Z</time></trkpt><trkpt lat="43.7541673" lon="6.3665903"><ele>1290.0</ele><time>2026-05-02T14:23:44.977Z</time></trkpt><trkpt lat="43.7541023" lon="6.3664863"><ele>1287.0</ele><time>2026-05-02T14:23:45.977Z</time></trkpt><trkpt lat="43.7540625" lon="6.3664095"><ele>1287.0</ele><time>2026-05-02T14:23:46.976Z</time></trkpt><trkpt lat="43.7539984" lon="6.3663071"><ele>1287.0</ele><time>2026-05-02T14:23:47.976Z</time></trkpt><trkpt lat="43.7538841" lon="6.3662454"><ele>1287.0</ele><time>2026-05-02T14:23:49.977Z</time></trkpt><trkpt lat="43.7538329" lon="6.366412"><ele>1287.0</ele><time>2026-05-02T14:23:51.977Z</time></trkpt><trkpt lat="43.7538445" lon="6.366578"><ele>1287.0</ele><time>2026-05-02T14:23:53.977Z</time></trkpt><trkpt lat="43.7538661" lon="6.3666641"><ele>1287.0</ele><time>2026-05-02T14:23:54.977Z</time></trkpt><trkpt lat="43.7539702" lon="6.3667993"><ele>1287.0</ele><time>2026-05-02T14:23:55.977Z</time></trkpt><trkpt lat="43.7540247" lon="6.3669257"><ele>1287.0</ele><time>2026-05-02T14:23:56.977Z</time></trkpt><trkpt lat="43.7540606" lon="6.3670512"><ele>1287.0</ele><time>2026-05-02T14:23:57.977Z</time></trkpt><trkpt lat="43.7540856" lon="6.367217"><ele>1282.5</ele><time>2026-05-02T14:23:58.977Z</time></trkpt><trkpt lat="43.7541163" lon="6.3673781"><ele>1278.0</ele><time>2026-05-02T14:23:59.977Z</time></trkpt><trkpt lat="43.7541462" lon="6.3675298"><ele>1273.5</ele><time>2026-05-02T14:24:00.977Z</time></trkpt><trkpt lat="43.7541777" lon="6.3676847"><ele>1269.0</ele><time>2026-05-02T14:24:01.977Z</time></trkpt><trkpt lat="43.7542119" lon="6.3678526"><ele>1269.0</ele><time>2026-05-02T14:24:02.977Z</time></trkpt><trkpt lat="43.7542408" lon="6.3680185"><ele>1269.0</ele><time>2026-05-02T14:24:03.976Z</time></trkpt><trkpt lat="43.7542766" lon="6.3681749"><ele>1269.0</ele><time>2026-05-02T14:24:04.976Z</time></trkpt><trkpt lat="43.7543191" lon="6.3683295"><ele>1269.0</ele><time>2026-05-02T14:24:05.976Z</time></trkpt><trkpt lat="43.7543641" lon="6.3684795"><ele>1268.75</ele><time>2026-05-02T14:24:06.977Z</time></trkpt><trkpt lat="43.7544218" lon="6.3686216"><ele>1268.5</ele><time>2026-05-02T14:24:07.977Z</time></trkpt><trkpt lat="43.7544849" lon="6.3687616"><ele>1268.25</ele><time>2026-05-02T14:24:08.977Z</time></trkpt><trkpt lat="43.7545553" lon="6.3688918"><ele>1268.0</ele><time>2026-05-02T14:24:09.977Z</time></trkpt><trkpt lat="43.7546209" lon="6.3690166"><ele>1268.0</ele><time>2026-05-02T14:24:10.977Z</time></trkpt><trkpt lat="43.7546981" lon="6.3691476"><ele>1268.0</ele><time>2026-05-02T14:24:11.977Z</time></trkpt><trkpt lat="43.7547733" lon="6.3692689"><ele>1268.0</ele><time>2026-05-02T14:24:12.977Z</time></trkpt><trkpt lat="43.7548699" lon="6.3693923"><ele>1268.0</ele><time>2026-05-02T14:24:13.977Z</time></trkpt><trkpt lat="43.7549612" lon="6.3694858"><ele>1268.0</ele><time>2026-05-02T14:24:14.977Z</time></trkpt><trkpt lat="43.7550614" lon="6.3695777"><ele>1268.0</ele><time>2026-05-02T14:24:15.977Z</time></trkpt><trkpt lat="43.7551811" lon="6.3696567"><ele>1268.0</ele><time>2026-05-02T14:24:16.977Z</time></trkpt><trkpt lat="43.7552765" lon="6.3696919"><ele>1268.0</ele><time>2026-05-02T14:24:17.977Z</time></trkpt><trkpt lat="43.7553752" lon="6.3697259"><ele>1249.0</ele><time>2026-05-02T14:24:18.976Z</time></trkpt><trkpt lat="43.7554613" lon="6.3697499"><ele>1249.0</ele><time>2026-05-02T14:24:19.976Z</time></trkpt><trkpt lat="43.7555852" lon="6.3697693"><ele>1249.0</ele><time>2026-05-02T14:24:21.976Z</time></trkpt><trkpt lat="43.7555993" lon="6.3698559"><ele>1249.0</ele><time>2026-05-02T14:24:24.977Z</time></trkpt><trkpt lat="43.7555442" lon="6.3699603"><ele>1249.0</ele><time>2026-05-02T14:24:27.977Z</time></trkpt><trkpt lat="43.7555121" lon="6.3700449"><ele>1249.0</ele><time>2026-05-02T14:24:30.976Z</time></trkpt></trkseg><trkseg><trkpt lat="43.7553891" lon="6.3700331"><ele>1249.0</ele><time>2026-05-02T14:35:35.977Z</time></trkpt><trkpt lat="43.7553042" lon="6.3699812"><ele>1249.0</ele><time>2026-05-02T14:35:36.977Z</time></trkpt><trkpt lat="43.7552286" lon="6.3699441"><ele>1249.0</ele><time>2026-05-02T14:35:37.977Z</time></trkpt><trkpt lat="43.7551394" lon="6.3699004"><ele>1249.0</ele><time>2026-05-02T14:35:38.977Z</time></trkpt><trkpt lat="43.7550618" lon="6.3698528"><ele>1249.0</ele><time>2026-05-02T14:35:39.977Z</time></trkpt><trkpt lat="43.7549762" lon="6.3698038"><ele>1249.0</ele><time>2026-05-02T14:35:40.977Z</time></trkpt><trkpt lat="43.7548918" lon="6.369752"><ele>1252.8</ele><time>2026-05-02T14:35:41.977Z</time></trkpt><trkpt lat="43.7548053" lon="6.3696898"><ele>1256.6000000000001</ele><time>2026-05-02T14:35:42.977Z</time></trkpt><trkpt lat="43.7547279" lon="6.3696121"><ele>1260.4</ele><time>2026-05-02T14:35:43.977Z</time></trkpt><trkpt lat="43.7546467" lon="6.3695221"><ele>1264.2</ele><time>2026-05-02T14:35:44.977Z</time></trkpt><trkpt lat="43.754556" lon="6.369425"><ele>1268.0</ele><time>2026-05-02T14:35:45.977Z</time></trkpt><trkpt lat="43.7544805" lon="6.3693293"><ele>1268.0</ele><time>2026-05-02T14:35:46.977Z</time></trkpt><trkpt lat="43.7544139" lon="6.3692269"><ele>1268.0</ele><time>2026-05-02T14:35:47.976Z</time></trkpt><trkpt lat="43.754331" lon="6.3691297"><ele>1268.0</ele><time>2026-05-02T14:35:48.976Z</time></trkpt><trkpt lat="43.754257" lon="6.369025"><ele>1268.0</ele><time>2026-05-02T14:35:49.977Z</time></trkpt><trkpt lat="43.7541749" lon="6.3689201"><ele>1268.0</ele><time>2026-05-02T14:35:50.977Z</time></trkpt><trkpt lat="43.7541021" lon="6.3688228"><ele>1265.0</ele><time>2026-05-02T14:35:51.977Z</time></trkpt><trkpt lat="43.7540379" lon="6.3687181"><ele>1262.0</ele><time>2026-05-02T14:35:52.977Z</time></trkpt><trkpt lat="43.7539904" lon="6.3685836"><ele>1259.0</ele><time>2026-05-02T14:35:53.977Z</time></trkpt><trkpt lat="43.753928" lon="6.3684543"><ele>1256.0</ele><time>2026-05-02T14:35:54.976Z</time></trkpt><trkpt lat="43.7538797" lon="6.3683147"><ele>1253.0</ele><time>2026-05-02T14:35:55.977Z</time></trkpt><trkpt lat="43.7538306" lon="6.3681717"><ele>1253.0</ele><time>2026-05-02T14:35:56.977Z</time></trkpt><trkpt lat="43.7537927" lon="6.3680428"><ele>1253.0</ele><time>2026-05-02T14:35:57.977Z</time></trkpt><trkpt lat="43.7537572" lon="6.3679233"><ele>1253.0</ele><time>2026-05-02T14:35:58.977Z</time></trkpt><trkpt lat="43.7537099" lon="6.3678194"><ele>1253.0</ele><time>2026-05-02T14:35:59.976Z</time></trkpt><trkpt lat="43.7536852" lon="6.3677134"><ele>1253.0</ele><time>2026-05-02T14:36:00.977Z</time></trkpt><trkpt lat="43.7536371" lon="6.3676145"><ele>1253.0</ele><time>2026-05-02T14:36:01.977Z</time></trkpt><trkpt lat="43.7535467" lon="6.3675535"><ele>1248.8333333333335</ele><time>2026-05-02T14:36:02.977Z</time></trkpt><trkpt lat="43.7534711" lon="6.3675048"><ele>1244.6666666666667</ele><time>2026-05-02T14:36:03.977Z</time></trkpt><trkpt lat="43.7533793" lon="6.3674788"><ele>1240.5</ele><time>2026-05-02T14:36:04.977Z</time></trkpt><trkpt lat="43.7532899" lon="6.3674605"><ele>1236.3333333333333</ele><time>2026-05-02T14:36:05.977Z</time></trkpt><trkpt lat="43.753207" lon="6.367408"><ele>1232.1666666666665</ele><time>2026-05-02T14:36:06.977Z</time></trkpt><trkpt lat="43.7531361" lon="6.3673396"><ele>1228.0</ele><time>2026-05-02T14:36:07.977Z</time></trkpt><trkpt lat="43.7530627" lon="6.3672258"><ele>1234.25</ele><time>2026-05-02T14:36:08.977Z</time></trkpt><trkpt lat="43.7530074" lon="6.3671097"><ele>1240.5</ele><time>2026-05-02T14:36:09.977Z</time></trkpt><trkpt lat="43.7529561" lon="6.3669709"><ele>1246.75</ele><time>2026-05-02T14:36:10.977Z</time></trkpt><trkpt lat="43.7528966" lon="6.3668281"><ele>1253.0</ele><time>2026-05-02T14:36:11.977Z</time></trkpt><trkpt lat="43.7528403" lon="6.3666715"><ele>1253.0</ele><time>2026-05-02T14:36:12.977Z</time></trkpt><trkpt lat="43.7527912" lon="6.3665285"><ele>1253.0</ele><time>2026-05-02T14:36:13.977Z</time></trkpt><trkpt lat="43.7527322" lon="6.3663922"><ele>1253.0</ele><time>2026-05-02T14:36:14.976Z</time></trkpt><trkpt lat="43.7526564" lon="6.3662503"><ele>1253.0</ele><time>2026-05-02T14:36:15.976Z</time></trkpt><trkpt lat="43.752593" lon="6.3661257"><ele>1248.0</ele><time>2026-05-02T14:36:16.977Z</time></trkpt><trkpt lat="43.7524973" lon="6.3659986"><ele>1243.0</ele><time>2026-05-02T14:36:17.976Z</time></trkpt><trkpt lat="43.7523958" lon="6.3658714"><ele>1238.0</ele><time>2026-05-02T14:36:18.977Z</time></trkpt><trkpt lat="43.7523056" lon="6.36575"><ele>1233.0</ele><time>2026-05-02T14:36:19.976Z</time></trkpt><trkpt lat="43.7522064" lon="6.3656509"><ele>1233.0</ele><time>2026-05-02T14:36:20.976Z</time></trkpt><trkpt lat="43.7521117" lon="6.3655466"><ele>1233.0</ele><time>2026-05-02T14:36:21.977Z</time></trkpt><trkpt lat="43.7520264" lon="6.3654502"><ele>1233.0</ele><time>2026-05-02T14:36:22.976Z</time></trkpt><trkpt lat="43.7519348" lon="6.3653414"><ele>1233.0</ele><time>2026-05-02T14:36:23.977Z</time></trkpt><trkpt lat="43.7518502" lon="6.3652292"><ele>1233.25</ele><time>2026-05-02T14:36:24.977Z</time></trkpt><trkpt lat="43.7517869" lon="6.3651188"><ele>1233.5</ele><time>2026-05-02T14:36:25.976Z</time></trkpt><trkpt lat="43.7517145" lon="6.3650121"><ele>1233.75</ele><time>2026-05-02T14:36:26.976Z</time></trkpt><trkpt lat="43.7516388" lon="6.3649104"><ele>1234.0</ele><time>2026-05-02T14:36:27.977Z</time></trkpt><trkpt lat="43.7506403" lon="6.3638321"><ele>1234.0</ele><time>2026-05-02T14:36:39.977Z</time></trkpt><trkpt lat="43.7505722" lon="6.3637095"><ele>1234.0</ele><time>2026-05-02T14:36:40.977Z</time></trkpt><trkpt lat="43.7504833" lon="6.3637099"><ele>1234.0</ele><time>2026-05-02T14:36:42.977Z</time></trkpt><trkpt lat="43.7504085" lon="6.3637102"><ele>1234.0</ele><time>2026-05-02T14:36:44.977Z</time></trkpt><trkpt lat="43.7503442" lon="6.3636473"><ele>1234.0</ele><time>2026-05-02T14:36:48.977Z</time></trkpt><trkpt lat="43.7502937" lon="6.3635408"><ele>1234.0</ele><time>2026-05-02T14:40:19.977Z</time></trkpt><trkpt lat="43.7502466" lon="6.3634062"><ele>1233.0</ele><time>2026-05-02T14:40:21.977Z</time></trkpt><trkpt lat="43.7501749" lon="6.3632821"><ele>1232.0</ele><time>2026-05-02T14:40:23.977Z</time></trkpt><trkpt lat="43.7501413" lon="6.3631958"><ele>1231.0</ele><time>2026-05-02T14:40:24.977Z</time></trkpt><trkpt lat="43.750125" lon="6.3631107"><ele>1230.0</ele><time>2026-05-02T14:40:25.977Z</time></trkpt><trkpt lat="43.7500945" lon="6.3629901"><ele>1229.0</ele><time>2026-05-02T14:40:26.977Z</time></trkpt><trkpt lat="43.7500629" lon="6.3628889"><ele>1228.0</ele><time>2026-05-02T14:40:27.977Z</time></trkpt><trkpt lat="43.7500415" lon="6.3627887"><ele>1228.0</ele><time>2026-05-02T14:40:28.977Z</time></trkpt><trkpt lat="43.7500313" lon="6.362603"><ele>1228.0</ele><time>2026-05-02T14:40:30.977Z</time></trkpt><trkpt lat="43.7500174" lon="6.3624842"><ele>1228.0</ele><time>2026-05-02T14:40:31.977Z</time></trkpt><trkpt lat="43.7500006" lon="6.3623684"><ele>1228.0</ele><time>2026-05-02T14:40:32.977Z</time></trkpt><trkpt lat="43.7499671" lon="6.3622448"><ele>1228.0</ele><time>2026-05-02T14:40:33.976Z</time></trkpt><trkpt lat="43.7499342" lon="6.362137"><ele>1232.25</ele><time>2026-05-02T14:40:34.977Z</time></trkpt><trkpt lat="43.7498995" lon="6.3620387"><ele>1236.5</ele><time>2026-05-02T14:40:35.977Z</time></trkpt><trkpt lat="43.7498662" lon="6.3619616"><ele>1240.75</ele><time>2026-05-02T14:40:36.976Z</time></trkpt><trkpt lat="43.7498503" lon="6.3618689"><ele>1245.0</ele><time>2026-05-02T14:40:37.977Z</time></trkpt><trkpt lat="43.7493762" lon="6.3603507"><ele>1232.6</ele><time>2026-05-02T14:40:47.977Z</time></trkpt><trkpt lat="43.7493768" lon="6.360226"><ele>1220.2</ele><time>2026-05-02T14:40:48.977Z</time></trkpt><trkpt lat="43.7493768" lon="6.3600886"><ele>1207.8</ele><time>2026-05-02T14:40:49.977Z</time></trkpt><trkpt lat="43.7493631" lon="6.3599549"><ele>1195.4</ele><time>2026-05-02T14:40:50.976Z</time></trkpt><trkpt lat="43.7493404" lon="6.3598238"><ele>1183.0</ele><time>2026-05-02T14:40:51.977Z</time></trkpt><trkpt lat="43.7493271" lon="6.359697"><ele>1183.0</ele><time>2026-05-02T14:40:52.976Z</time></trkpt><trkpt lat="43.7493073" lon="6.359577"><ele>1183.0</ele><time>2026-05-02T14:40:53.977Z</time></trkpt><trkpt lat="43.7492914" lon="6.3594314"><ele>1183.0</ele><time>2026-05-02T14:40:54.977Z</time></trkpt><trkpt lat="43.7490109" lon="6.359358"><ele>1183.0</ele><time>2026-05-02T14:40:56.977Z</time></trkpt><trkpt lat="43.7489429" lon="6.3593149"><ele>1183.0</ele><time>2026-05-02T14:40:57.977Z</time></trkpt><trkpt lat="43.7488066" lon="6.3592515"><ele>1183.0</ele><time>2026-05-02T14:40:59.976Z</time></trkpt><trkpt lat="43.748715" lon="6.3592375"><ele>1183.0</ele><time>2026-05-02T14:41:00.977Z</time></trkpt><trkpt lat="43.7486533" lon="6.3591019"><ele>1183.0</ele><time>2026-05-02T14:41:01.977Z</time></trkpt><trkpt lat="43.7485729" lon="6.3590144"><ele>1179.4</ele><time>2026-05-02T14:41:02.977Z</time></trkpt><trkpt lat="43.7484918" lon="6.3589094"><ele>1175.8</ele><time>2026-05-02T14:41:03.977Z</time></trkpt><trkpt lat="43.7484128" lon="6.3588118"><ele>1172.2</ele><time>2026-05-02T14:41:04.977Z</time></trkpt><trkpt lat="43.7483375" lon="6.3587301"><ele>1168.6</ele><time>2026-05-02T14:41:05.977Z</time></trkpt><trkpt lat="43.7482381" lon="6.3586454"><ele>1165.0</ele><time>2026-05-02T14:41:06.977Z</time></trkpt><trkpt lat="43.7481717" lon="6.3585565"><ele>1165.0</ele><time>2026-05-02T14:41:07.976Z</time></trkpt><trkpt lat="43.7481067" lon="6.3584713"><ele>1165.0</ele><time>2026-05-02T14:41:08.977Z</time></trkpt><trkpt lat="43.7480284" lon="6.3583827"><ele>1165.0</ele><time>2026-05-02T14:41:09.977Z</time></trkpt><trkpt lat="43.7479644" lon="6.3582681"><ele>1165.0</ele><time>2026-05-02T14:41:10.977Z</time></trkpt><trkpt lat="43.7479052" lon="6.3581547"><ele>1165.0</ele><time>2026-05-02T14:41:11.977Z</time></trkpt><trkpt lat="43.7478718" lon="6.3580162"><ele>1155.0</ele><time>2026-05-02T14:41:12.977Z</time></trkpt><trkpt lat="43.7478526" lon="6.35788"><ele>1145.0</ele><time>2026-05-02T14:41:13.977Z</time></trkpt><trkpt lat="43.7478251" lon="6.3577402"><ele>1135.0</ele><time>2026-05-02T14:41:14.976Z</time></trkpt><trkpt lat="43.7478058" lon="6.3576004"><ele>1125.0</ele><time>2026-05-02T14:41:15.977Z</time></trkpt><trkpt lat="43.7477557" lon="6.3574714"><ele>1115.0</ele><time>2026-05-02T14:41:16.977Z</time></trkpt><trkpt lat="43.7477084" lon="6.3573432"><ele>1115.0</ele><time>2026-05-02T14:41:17.977Z</time></trkpt><trkpt lat="43.747653" lon="6.3572029"><ele>1115.0</ele><time>2026-05-02T14:41:18.977Z</time></trkpt><trkpt lat="43.7475985" lon="6.3570664"><ele>1115.0</ele><time>2026-05-02T14:41:19.977Z</time></trkpt><trkpt lat="43.747539" lon="6.3569234"><ele>1115.0</ele><time>2026-05-02T14:41:20.977Z</time></trkpt><trkpt lat="43.7475501" lon="6.3567561"><ele>1117.25</ele><time>2026-05-02T14:41:21.977Z</time></trkpt><trkpt lat="43.7475159" lon="6.3566177"><ele>1119.5</ele><time>2026-05-02T14:41:22.977Z</time></trkpt><trkpt lat="43.7474892" lon="6.3564596"><ele>1121.75</ele><time>2026-05-02T14:41:23.976Z</time></trkpt><trkpt lat="43.7475063" lon="6.3563039"><ele>1124.0</ele><time>2026-05-02T14:41:24.977Z</time></trkpt><trkpt lat="43.7475243" lon="6.3561426"><ele>1124.0</ele><time>2026-05-02T14:41:25.977Z</time></trkpt><trkpt lat="43.7475585" lon="6.3559892"><ele>1124.0</ele><time>2026-05-02T14:41:26.977Z</time></trkpt><trkpt lat="43.7476011" lon="6.3558493"><ele>1124.0</ele><time>2026-05-02T14:41:27.977Z</time></trkpt><trkpt lat="43.7476346" lon="6.3557092"><ele>1124.0</ele><time>2026-05-02T14:41:28.977Z</time></trkpt><trkpt lat="43.747682" lon="6.3555709"><ele>1124.0</ele><time>2026-05-02T14:41:29.977Z</time></trkpt><trkpt lat="43.7477338" lon="6.3554487"><ele>1123.8</ele><time>2026-05-02T14:41:30.977Z</time></trkpt><trkpt lat="43.7477929" lon="6.3553232"><ele>1123.6000000000001</ele><time>2026-05-02T14:41:31.977Z</time></trkpt><trkpt lat="43.7478858" lon="6.3552321"><ele>1123.4</ele><time>2026-05-02T14:41:32.976Z</time></trkpt><trkpt lat="43.7479541" lon="6.3551361"><ele>1123.2</ele><time>2026-05-02T14:41:33.977Z</time></trkpt><trkpt lat="43.7480237" lon="6.3550586"><ele>1123.0</ele><time>2026-05-02T14:41:34.976Z</time></trkpt><trkpt lat="43.7481064" lon="6.3549845"><ele>1123.0</ele><time>2026-05-02T14:41:35.977Z</time></trkpt><trkpt lat="43.7481882" lon="6.3549283"><ele>1123.0</ele><time>2026-05-02T14:41:36.977Z</time></trkpt><trkpt lat="43.7482677" lon="6.3548822"><ele>1123.0</ele><time>2026-05-02T14:41:37.977Z</time></trkpt><trkpt lat="43.7483633" lon="6.354846"><ele>1123.0</ele><time>2026-05-02T14:41:38.976Z</time></trkpt><trkpt lat="43.7484652" lon="6.3548099"><ele>1123.0</ele><time>2026-05-02T14:41:39.977Z</time></trkpt><trkpt lat="43.7485424" lon="6.3547931"><ele>1121.8333333333333</ele><time>2026-05-02T14:41:40.977Z</time></trkpt><trkpt lat="43.7486155" lon="6.3547794"><ele>1120.6666666666665</ele><time>2026-05-02T14:41:41.977Z</time></trkpt><trkpt lat="43.7486931" lon="6.3547617"><ele>1119.5</ele><time>2026-05-02T14:41:42.977Z</time></trkpt><trkpt lat="43.7487574" lon="6.3547481"><ele>1118.3333333333333</ele><time>2026-05-02T14:41:43.977Z</time></trkpt><trkpt lat="43.7488254" lon="6.3547301"><ele>1117.1666666666667</ele><time>2026-05-02T14:41:44.977Z</time></trkpt><trkpt lat="43.7489165" lon="6.3546396"><ele>1116.0</ele><time>2026-05-02T14:41:46.977Z</time></trkpt><trkpt lat="43.7489804" lon="6.3545458"><ele>1116.0</ele><time>2026-05-02T14:41:48.977Z</time></trkpt><trkpt lat="43.7490122" lon="6.3544119"><ele>1116.0</ele><time>2026-05-02T14:41:50.976Z</time></trkpt><trkpt lat="43.7490257" lon="6.3543151"><ele>1116.0</ele><time>2026-05-02T14:41:52.977Z</time></trkpt><trkpt lat="43.7489718" lon="6.3542573"><ele>1116.0</ele><time>2026-05-02T14:41:55.977Z</time></trkpt><trkpt lat="43.7489148" lon="6.354295"><ele>1116.0</ele><time>2026-05-02T14:44:35.977Z</time></trkpt><trkpt lat="43.7488557" lon="6.3543923"><ele>1116.0</ele><time>2026-05-02T14:45:28.974Z</time></trkpt><trkpt lat="43.7487668" lon="6.3544835"><ele>1116.0</ele><time>2026-05-02T14:45:30.974Z</time></trkpt><trkpt lat="43.7487053" lon="6.3545033"><ele>1116.0</ele><time>2026-05-02T14:45:31.974Z</time></trkpt><trkpt lat="43.7486219" lon="6.3545357"><ele>1116.0</ele><time>2026-05-02T14:45:32.974Z</time></trkpt><trkpt lat="43.7484999" lon="6.3545787"><ele>1116.0</ele><time>2026-05-02T14:45:34.974Z</time></trkpt><trkpt lat="43.7484197" lon="6.3545976"><ele>1116.0</ele><time>2026-05-02T14:45:35.974Z</time></trkpt><trkpt lat="43.7483028" lon="6.3545888"><ele>1110.2</ele><time>2026-05-02T14:45:36.974Z</time></trkpt><trkpt lat="43.7482079" lon="6.354581"><ele>1104.3999999999999</ele><time>2026-05-02T14:45:37.974Z</time></trkpt><trkpt lat="43.7481272" lon="6.3545929"><ele>1098.6</ele><time>2026-05-02T14:45:38.973Z</time></trkpt><trkpt lat="43.7480083" lon="6.3545866"><ele>1092.8</ele><time>2026-05-02T14:45:39.974Z</time></trkpt><trkpt lat="43.7479176" lon="6.3546147"><ele>1087.0</ele><time>2026-05-02T14:45:40.974Z</time></trkpt><trkpt lat="43.7478048" lon="6.3546695"><ele>1084.0</ele><time>2026-05-02T14:45:41.974Z</time></trkpt><trkpt lat="43.747674" lon="6.3546983"><ele>1081.0</ele><time>2026-05-02T14:45:42.974Z</time></trkpt><trkpt lat="43.7475855" lon="6.3548017"><ele>1078.0</ele><time>2026-05-02T14:45:43.974Z</time></trkpt><trkpt lat="43.7474838" lon="6.3548914"><ele>1075.0</ele><time>2026-05-02T14:45:44.974Z</time></trkpt><trkpt lat="43.7473929" lon="6.3549718"><ele>1080.0</ele><time>2026-05-02T14:45:45.973Z</time></trkpt><trkpt lat="43.7472975" lon="6.3550603"><ele>1085.0</ele><time>2026-05-02T14:45:46.974Z</time></trkpt><trkpt lat="43.7472034" lon="6.355155"><ele>1090.0</ele><time>2026-05-02T14:45:47.974Z</time></trkpt><trkpt lat="43.7471359" lon="6.3552601"><ele>1095.0</ele><time>2026-05-02T14:45:48.974Z</time></trkpt><trkpt lat="43.7470832" lon="6.3553731"><ele>1100.0</ele><time>2026-05-02T14:45:49.973Z</time></trkpt><trkpt lat="43.7470445" lon="6.3555095"><ele>1104.0</ele><time>2026-05-02T14:45:50.974Z</time></trkpt><trkpt lat="43.7470072" lon="6.3556386"><ele>1108.0</ele><time>2026-05-02T14:45:51.974Z</time></trkpt><trkpt lat="43.7469944" lon="6.3557675"><ele>1112.0</ele><time>2026-05-02T14:45:52.974Z</time></trkpt><trkpt lat="43.7470092" lon="6.3558834"><ele>1116.0</ele><time>2026-05-02T14:45:53.974Z</time></trkpt><trkpt lat="43.7470165" lon="6.3559945"><ele>1120.0</ele><time>2026-05-02T14:45:54.974Z</time></trkpt><trkpt lat="43.7470272" lon="6.356098"><ele>1124.0</ele><time>2026-05-02T14:45:55.973Z</time></trkpt><trkpt lat="43.747" lon="6.3562128"><ele>1124.0</ele><time>2026-05-02T14:45:57.974Z</time></trkpt><trkpt lat="43.7468796" lon="6.3561391"><ele>1124.0</ele><time>2026-05-02T14:45:59.973Z</time></trkpt><trkpt lat="43.746841" lon="6.355978"><ele>1124.0</ele><time>2026-05-02T14:46:01.974Z</time></trkpt><trkpt lat="43.7468342" lon="6.3558755"><ele>1124.0</ele><time>2026-05-02T14:46:02.974Z</time></trkpt><trkpt lat="43.7468211" lon="6.3557579"><ele>1124.0</ele><time>2026-05-02T14:46:03.974Z</time></trkpt><trkpt lat="43.7468201" lon="6.3556186"><ele>1115.8</ele><time>2026-05-02T14:46:04.974Z</time></trkpt><trkpt lat="43.7468384" lon="6.3554794"><ele>1107.6000000000001</ele><time>2026-05-02T14:46:05.974Z</time></trkpt><trkpt lat="43.7468114" lon="6.3553459"><ele>1099.4</ele><time>2026-05-02T14:46:06.974Z</time></trkpt><trkpt lat="43.746758" lon="6.3552129"><ele>1091.2</ele><time>2026-05-02T14:46:07.973Z</time></trkpt><trkpt lat="43.7467042" lon="6.3551037"><ele>1083.0</ele><time>2026-05-02T14:46:08.974Z</time></trkpt><trkpt lat="43.7466154" lon="6.3549968"><ele>1083.0</ele><time>2026-05-02T14:46:09.974Z</time></trkpt><trkpt lat="43.7465102" lon="6.3548772"><ele>1083.0</ele><time>2026-05-02T14:46:10.973Z</time></trkpt><trkpt lat="43.7464469" lon="6.3547668"><ele>1083.0</ele><time>2026-05-02T14:46:11.973Z</time></trkpt><trkpt lat="43.7463737" lon="6.3546567"><ele>1083.0</ele><time>2026-05-02T14:46:12.974Z</time></trkpt><trkpt lat="43.7463103" lon="6.3545537"><ele>1083.0</ele><time>2026-05-02T14:46:13.974Z</time></trkpt><trkpt lat="43.7462011" lon="6.3544745"><ele>1079.6</ele><time>2026-05-02T14:46:14.974Z</time></trkpt><trkpt lat="43.7461104" lon="6.3544136"><ele>1076.1999999999998</ele><time>2026-05-02T14:46:15.974Z</time></trkpt><trkpt lat="43.7460306" lon="6.3543689"><ele>1072.8</ele><time>2026-05-02T14:46:16.974Z</time></trkpt><trkpt lat="43.7459411" lon="6.3543716"><ele>1069.3999999999999</ele><time>2026-05-02T14:46:17.974Z</time></trkpt><trkpt lat="43.7458184" lon="6.3544339"><ele>1066.0</ele><time>2026-05-02T14:46:18.974Z</time></trkpt><trkpt lat="43.7457274" lon="6.3544511"><ele>1064.0</ele><time>2026-05-02T14:46:19.973Z</time></trkpt><trkpt lat="43.7456245" lon="6.3545013"><ele>1062.0</ele><time>2026-05-02T14:46:20.974Z</time></trkpt><trkpt lat="43.7455298" lon="6.3545751"><ele>1060.0</ele><time>2026-05-02T14:46:21.974Z</time></trkpt><trkpt lat="43.7454293" lon="6.3546759"><ele>1058.0</ele><time>2026-05-02T14:46:22.974Z</time></trkpt><trkpt lat="43.745337" lon="6.354784"><ele>1057.5</ele><time>2026-05-02T14:46:23.974Z</time></trkpt><trkpt lat="43.7452416" lon="6.3548914"><ele>1057.0</ele><time>2026-05-02T14:46:24.974Z</time></trkpt><trkpt lat="43.7451482" lon="6.3550011"><ele>1056.5</ele><time>2026-05-02T14:46:25.974Z</time></trkpt><trkpt lat="43.7450725" lon="6.3550987"><ele>1056.0</ele><time>2026-05-02T14:46:26.974Z</time></trkpt><trkpt lat="43.7449958" lon="6.3552123"><ele>1056.0</ele><time>2026-05-02T14:46:27.974Z</time></trkpt><trkpt lat="43.7449115" lon="6.3553169"><ele>1056.0</ele><time>2026-05-02T14:46:28.973Z</time></trkpt><trkpt lat="43.7448249" lon="6.3554279"><ele>1056.0</ele><time>2026-05-02T14:46:29.973Z</time></trkpt><trkpt lat="43.7447283" lon="6.3555465"><ele>1056.0</ele><time>2026-05-02T14:46:30.974Z</time></trkpt><trkpt lat="43.7446439" lon="6.35569"><ele>1059.5</ele><time>2026-05-02T14:46:31.973Z</time></trkpt><trkpt lat="43.7445738" lon="6.355844"><ele>1063.0</ele><time>2026-05-02T14:46:32.974Z</time></trkpt><trkpt lat="43.7445017" lon="6.3559845"><ele>1066.5</ele><time>2026-05-02T14:46:33.974Z</time></trkpt><trkpt lat="43.7444376" lon="6.3561416"><ele>1070.0</ele><time>2026-05-02T14:46:34.974Z</time></trkpt><trkpt lat="43.7443638" lon="6.3562906"><ele>1065.25</ele><time>2026-05-02T14:46:35.974Z</time></trkpt><trkpt lat="43.7442935" lon="6.3564516"><ele>1060.5</ele><time>2026-05-02T14:46:36.974Z</time></trkpt><trkpt lat="43.7442338" lon="6.3566078"><ele>1055.75</ele><time>2026-05-02T14:46:37.974Z</time></trkpt><trkpt lat="43.7441687" lon="6.356774"><ele>1051.0</ele><time>2026-05-02T14:46:38.974Z</time></trkpt><trkpt lat="43.7441118" lon="6.3569079"><ele>1051.0</ele><time>2026-05-02T14:46:39.974Z</time></trkpt><trkpt lat="43.7440563" lon="6.357053"><ele>1051.0</ele><time>2026-05-02T14:46:40.974Z</time></trkpt><trkpt lat="43.744008" lon="6.3571864"><ele>1051.0</ele><time>2026-05-02T14:46:41.974Z</time></trkpt><trkpt lat="43.7439652" lon="6.3573353"><ele>1051.0</ele><time>2026-05-02T14:46:42.974Z</time></trkpt><trkpt lat="43.7439574" lon="6.3574389"><ele>1051.0</ele><time>2026-05-02T14:46:43.973Z</time></trkpt><trkpt lat="43.743939" lon="6.3575528"><ele>1051.0</ele><time>2026-05-02T14:46:44.973Z</time></trkpt><trkpt lat="43.7439023" lon="6.3576959"><ele>1051.0</ele><time>2026-05-02T14:46:46.974Z</time></trkpt><trkpt lat="43.7438039" lon="6.3577526"><ele>1051.0</ele><time>2026-05-02T14:46:48.973Z</time></trkpt><trkpt lat="43.7437297" lon="6.3577389"><ele>1051.0</ele><time>2026-05-02T14:46:49.974Z</time></trkpt><trkpt lat="43.7437184" lon="6.3575633"><ele>1051.0</ele><time>2026-05-02T14:46:51.974Z</time></trkpt><trkpt lat="43.7437508" lon="6.3573241"><ele>1051.0</ele><time>2026-05-02T14:46:53.973Z</time></trkpt><trkpt lat="43.7437658" lon="6.3571809"><ele>1051.0</ele><time>2026-05-02T14:46:54.974Z</time></trkpt><trkpt lat="43.7437765" lon="6.3570315"><ele>1051.0</ele><time>2026-05-02T14:46:55.974Z</time></trkpt><trkpt lat="43.74378" lon="6.3568791"><ele>1051.0</ele><time>2026-05-02T14:46:56.974Z</time></trkpt><trkpt lat="43.7437878" lon="6.3567303"><ele>1051.0</ele><time>2026-05-02T14:46:57.974Z</time></trkpt><trkpt lat="43.743795" lon="6.3565812"><ele>1051.0</ele><time>2026-05-02T14:46:58.974Z</time></trkpt><trkpt lat="43.7438027" lon="6.3564297"><ele>1051.0</ele><time>2026-05-02T14:46:59.974Z</time></trkpt><trkpt lat="43.7438144" lon="6.3562714"><ele>1051.0</ele><time>2026-05-02T14:47:00.973Z</time></trkpt><trkpt lat="43.7438231" lon="6.3561129"><ele>1051.0</ele><time>2026-05-02T14:47:01.974Z</time></trkpt><trkpt lat="43.7438382" lon="6.3559525"><ele>1047.0</ele><time>2026-05-02T14:47:02.973Z</time></trkpt><trkpt lat="43.7438654" lon="6.3557877"><ele>1043.0</ele><time>2026-05-02T14:47:03.974Z</time></trkpt><trkpt lat="43.7439016" lon="6.3556308"><ele>1039.0</ele><time>2026-05-02T14:47:04.974Z</time></trkpt><trkpt lat="43.7439398" lon="6.3554686"><ele>1035.0</ele><time>2026-05-02T14:47:05.974Z</time></trkpt><trkpt lat="43.7439962" lon="6.3553165"><ele>1031.0</ele><time>2026-05-02T14:47:06.974Z</time></trkpt><trkpt lat="43.7440435" lon="6.3551593"><ele>1027.0</ele><time>2026-05-02T14:47:07.974Z</time></trkpt><trkpt lat="43.7440892" lon="6.3550028"><ele>1023.0</ele><time>2026-05-02T14:47:08.973Z</time></trkpt><trkpt lat="43.7441316" lon="6.3548557"><ele>1019.0</ele><time>2026-05-02T14:47:09.974Z</time></trkpt><trkpt lat="43.7441723" lon="6.3547337"><ele>1021.1666666666667</ele><time>2026-05-02T14:47:10.974Z</time></trkpt><trkpt lat="43.7442272" lon="6.3546222"><ele>1023.3333333333334</ele><time>2026-05-02T14:47:11.973Z</time></trkpt><trkpt lat="43.7442868" lon="6.3545225"><ele>1025.5</ele><time>2026-05-02T14:47:12.974Z</time></trkpt><trkpt lat="43.7443547" lon="6.3544226"><ele>1027.6666666666667</ele><time>2026-05-02T14:47:13.974Z</time></trkpt><trkpt lat="43.744405" lon="6.3543404"><ele>1029.8333333333333</ele><time>2026-05-02T14:47:14.974Z</time></trkpt><trkpt lat="43.7444544" lon="6.3542683"><ele>1032.0</ele><time>2026-05-02T14:47:15.974Z</time></trkpt><trkpt lat="43.7444302" lon="6.3541286"><ele>1032.0</ele><time>2026-05-02T14:47:17.974Z</time></trkpt><trkpt lat="43.7444028" lon="6.3540111"><ele>1032.0</ele><time>2026-05-02T14:47:19.974Z</time></trkpt><trkpt lat="43.7443126" lon="6.3540259"><ele>1032.0</ele><time>2026-05-02T14:47:20.974Z</time></trkpt><trkpt lat="43.7442523" lon="6.3540775"><ele>1032.0</ele><time>2026-05-02T14:47:21.974Z</time></trkpt><trkpt lat="43.7442113" lon="6.3542757"><ele>1032.0</ele><time>2026-05-02T14:47:22.974Z</time></trkpt><trkpt lat="43.7441593" lon="6.3543665"><ele>1028.75</ele><time>2026-05-02T14:47:23.974Z</time></trkpt><trkpt lat="43.7440682" lon="6.3545414"><ele>1025.5</ele><time>2026-05-02T14:47:24.974Z</time></trkpt><trkpt lat="43.7439851" lon="6.3546721"><ele>1022.25</ele><time>2026-05-02T14:47:25.973Z</time></trkpt><trkpt lat="43.7439008" lon="6.3548168"><ele>1019.0</ele><time>2026-05-02T14:47:26.973Z</time></trkpt><trkpt lat="43.7438077" lon="6.3549517"><ele>1019.0</ele><time>2026-05-02T14:47:27.974Z</time></trkpt><trkpt lat="43.7437127" lon="6.3550852"><ele>1019.0</ele><time>2026-05-02T14:47:28.974Z</time></trkpt><trkpt lat="43.7436132" lon="6.3551838"><ele>1019.0</ele><time>2026-05-02T14:47:29.974Z</time></trkpt><trkpt lat="43.7435217" lon="6.3553198"><ele>1019.0</ele><time>2026-05-02T14:47:30.974Z</time></trkpt><trkpt lat="43.7434287" lon="6.3554396"><ele>1015.25</ele><time>2026-05-02T14:47:31.974Z</time></trkpt><trkpt lat="43.7433467" lon="6.3555514"><ele>1011.5</ele><time>2026-05-02T14:47:32.974Z</time></trkpt><trkpt lat="43.74326" lon="6.3556583"><ele>1007.75</ele><time>2026-05-02T14:47:33.974Z</time></trkpt><trkpt lat="43.7432198" lon="6.3558067"><ele>1004.0</ele><time>2026-05-02T14:47:34.974Z</time></trkpt><trkpt lat="43.7431573" lon="6.3559294"><ele>1004.0</ele><time>2026-05-02T14:47:35.974Z</time></trkpt><trkpt lat="43.7431068" lon="6.3560542"><ele>1004.0000000000001</ele><time>2026-05-02T14:47:36.974Z</time></trkpt><trkpt lat="43.7430697" lon="6.3561706"><ele>1004.0000000000001</ele><time>2026-05-02T14:47:37.974Z</time></trkpt><trkpt lat="43.7430198" lon="6.3562779"><ele>1004.0</ele><time>2026-05-02T14:47:38.974Z</time></trkpt><trkpt lat="43.7429428" lon="6.3563444"><ele>1004.0</ele><time>2026-05-02T14:47:40.974Z</time></trkpt><trkpt lat="43.742867" lon="6.3562772"><ele>1004.0</ele><time>2026-05-02T14:47:42.974Z</time></trkpt><trkpt lat="43.7429118" lon="6.3561195"><ele>1004.0000000000001</ele><time>2026-05-02T14:47:44.973Z</time></trkpt><trkpt lat="43.7429674" lon="6.3560147"><ele>1004.0000000000001</ele><time>2026-05-02T14:47:45.974Z</time></trkpt><trkpt lat="43.7430292" lon="6.3559089"><ele>1004.0</ele><time>2026-05-02T14:47:46.974Z</time></trkpt><trkpt lat="43.743083" lon="6.3557793"><ele>1004.0</ele><time>2026-05-02T14:47:47.974Z</time></trkpt><trkpt lat="43.7431319" lon="6.3556453"><ele>999.0</ele><time>2026-05-02T14:47:48.974Z</time></trkpt><trkpt lat="43.7431777" lon="6.3554872"><ele>994.0</ele><time>2026-05-02T14:47:49.974Z</time></trkpt><trkpt lat="43.7432215" lon="6.3553326"><ele>989.0</ele><time>2026-05-02T14:47:50.974Z</time></trkpt><trkpt lat="43.7432619" lon="6.3551749"><ele>984.0</ele><time>2026-05-02T14:47:51.974Z</time></trkpt><trkpt lat="43.7433174" lon="6.3550212"><ele>984.0</ele><time>2026-05-02T14:47:52.973Z</time></trkpt><trkpt lat="43.7433717" lon="6.3548581"><ele>984.0</ele><time>2026-05-02T14:47:53.974Z</time></trkpt><trkpt lat="43.7434234" lon="6.354697"><ele>984.0</ele><time>2026-05-02T14:47:54.974Z</time></trkpt><trkpt lat="43.7434792" lon="6.3545307"><ele>984.0</ele><time>2026-05-02T14:47:55.974Z</time></trkpt><trkpt lat="43.7435261" lon="6.3543558"><ele>984.25</ele><time>2026-05-02T14:47:56.974Z</time></trkpt><trkpt lat="43.7435729" lon="6.3541811"><ele>984.5</ele><time>2026-05-02T14:47:57.974Z</time></trkpt><trkpt lat="43.7436248" lon="6.3540203"><ele>984.75</ele><time>2026-05-02T14:47:58.974Z</time></trkpt><trkpt lat="43.7436859" lon="6.3538222"><ele>985.0</ele><time>2026-05-02T14:47:59.974Z</time></trkpt><trkpt lat="43.7437438" lon="6.3536352"><ele>985.0</ele><time>2026-05-02T14:48:00.974Z</time></trkpt><trkpt lat="43.7437983" lon="6.3534535"><ele>985.0</ele><time>2026-05-02T14:48:01.974Z</time></trkpt><trkpt lat="43.7438514" lon="6.3532696"><ele>985.0</ele><time>2026-05-02T14:48:02.974Z</time></trkpt><trkpt lat="43.7439029" lon="6.3530798"><ele>985.0</ele><time>2026-05-02T14:48:03.974Z</time></trkpt><trkpt lat="43.7439504" lon="6.3528961"><ele>979.75</ele><time>2026-05-02T14:48:04.974Z</time></trkpt><trkpt lat="43.7440103" lon="6.3527105"><ele>974.5</ele><time>2026-05-02T14:48:05.973Z</time></trkpt><trkpt lat="43.7440713" lon="6.3525377"><ele>969.25</ele><time>2026-05-02T14:48:06.974Z</time></trkpt><trkpt lat="43.744133" lon="6.3523391"><ele>964.0</ele><time>2026-05-02T14:48:07.973Z</time></trkpt><trkpt lat="43.7441872" lon="6.3521822"><ele>965.75</ele><time>2026-05-02T14:48:08.973Z</time></trkpt><trkpt lat="43.7442255" lon="6.3520162"><ele>967.5</ele><time>2026-05-02T14:48:09.974Z</time></trkpt><trkpt lat="43.7442813" lon="6.351854"><ele>969.25</ele><time>2026-05-02T14:48:10.974Z</time></trkpt><trkpt lat="43.7443209" lon="6.3516913"><ele>971.0</ele><time>2026-05-02T14:48:11.973Z</time></trkpt><trkpt lat="43.7443827" lon="6.351515"><ele>964.5</ele><time>2026-05-02T14:48:12.973Z</time></trkpt><trkpt lat="43.7444211" lon="6.351344"><ele>958.0</ele><time>2026-05-02T14:48:13.974Z</time></trkpt><trkpt lat="43.7444761" lon="6.3512038"><ele>951.5</ele><time>2026-05-02T14:48:14.974Z</time></trkpt><trkpt lat="43.7445446" lon="6.351049"><ele>945.0</ele><time>2026-05-02T14:48:15.974Z</time></trkpt><trkpt lat="43.7446091" lon="6.3509166"><ele>945.0</ele><time>2026-05-02T14:48:16.974Z</time></trkpt><trkpt lat="43.7446866" lon="6.3507865"><ele>945.0</ele><time>2026-05-02T14:48:17.974Z</time></trkpt><trkpt lat="43.7447842" lon="6.3506798"><ele>945.0</ele><time>2026-05-02T14:48:18.973Z</time></trkpt><trkpt lat="43.7448946" lon="6.3506292"><ele>945.0</ele><time>2026-05-02T14:48:19.973Z</time></trkpt><trkpt lat="43.745002" lon="6.3505605"><ele>939.6</ele><time>2026-05-02T14:48:20.974Z</time></trkpt><trkpt lat="43.7451089" lon="6.3505101"><ele>934.2</ele><time>2026-05-02T14:48:21.974Z</time></trkpt><trkpt lat="43.7452124" lon="6.3504927"><ele>928.8</ele><time>2026-05-02T14:48:22.974Z</time></trkpt><trkpt lat="43.7453158" lon="6.3504926"><ele>923.4</ele><time>2026-05-02T14:48:23.973Z</time></trkpt><trkpt lat="43.7454369" lon="6.3505168"><ele>918.0</ele><time>2026-05-02T14:48:24.974Z</time></trkpt><trkpt lat="43.7455332" lon="6.3505369"><ele>924.0</ele><time>2026-05-02T14:48:25.974Z</time></trkpt><trkpt lat="43.7457139" lon="6.3505612"><ele>930.0</ele><time>2026-05-02T14:48:26.974Z</time></trkpt><trkpt lat="43.7458042" lon="6.3506148"><ele>936.0</ele><time>2026-05-02T14:48:27.974Z</time></trkpt><trkpt lat="43.7459323" lon="6.3506281"><ele>942.0</ele><time>2026-05-02T14:48:28.974Z</time></trkpt><trkpt lat="43.7460427" lon="6.3506728"><ele>938.0</ele><time>2026-05-02T14:48:29.974Z</time></trkpt><trkpt lat="43.7462006" lon="6.3506909"><ele>934.0</ele><time>2026-05-02T14:48:30.973Z</time></trkpt><trkpt lat="43.7463709" lon="6.3507002"><ele>930.0</ele><time>2026-05-02T14:48:31.974Z</time></trkpt><trkpt lat="43.746476" lon="6.3507336"><ele>926.0</ele><time>2026-05-02T14:48:32.974Z</time></trkpt><trkpt lat="43.746586" lon="6.3507398"><ele>926.0</ele><time>2026-05-02T14:48:33.973Z</time></trkpt><trkpt lat="43.7466747" lon="6.3507348"><ele>926.0</ele><time>2026-05-02T14:48:34.973Z</time></trkpt><trkpt lat="43.7468108" lon="6.3507148"><ele>926.0</ele><time>2026-05-02T14:48:35.974Z</time></trkpt><trkpt lat="43.7469492" lon="6.3506903"><ele>926.0</ele><time>2026-05-02T14:48:36.974Z</time></trkpt><trkpt lat="43.7470832" lon="6.3506669"><ele>925.75</ele><time>2026-05-02T14:48:37.974Z</time></trkpt><trkpt lat="43.7471868" lon="6.3506656"><ele>925.5</ele><time>2026-05-02T14:48:38.974Z</time></trkpt><trkpt lat="43.7472981" lon="6.3506726"><ele>925.25</ele><time>2026-05-02T14:48:39.974Z</time></trkpt><trkpt lat="43.7474099" lon="6.3506677"><ele>925.0</ele><time>2026-05-02T14:48:40.974Z</time></trkpt><trkpt lat="43.7475325" lon="6.3506568"><ele>924.9999999999999</ele><time>2026-05-02T14:48:41.974Z</time></trkpt><trkpt lat="43.7476555" lon="6.3506246"><ele>925.0</ele><time>2026-05-02T14:48:42.973Z</time></trkpt><trkpt lat="43.7477451" lon="6.3505814"><ele>925.0</ele><time>2026-05-02T14:48:43.974Z</time></trkpt><trkpt lat="43.7478145" lon="6.3505427"><ele>925.0</ele><time>2026-05-02T14:48:44.974Z</time></trkpt><trkpt lat="43.747873" lon="6.3504876"><ele>924.9999999999999</ele><time>2026-05-02T14:48:45.974Z</time></trkpt><trkpt lat="43.7479122" lon="6.3503935"><ele>925.0</ele><time>2026-05-02T14:48:46.974Z</time></trkpt><trkpt lat="43.7479537" lon="6.3503063"><ele>924.9999999999999</ele><time>2026-05-02T14:48:47.974Z</time></trkpt><trkpt lat="43.7479521" lon="6.3501897"><ele>925.0</ele><time>2026-05-02T14:48:48.974Z</time></trkpt><trkpt lat="43.7479432" lon="6.3500865"><ele>925.0</ele><time>2026-05-02T14:48:49.974Z</time></trkpt><trkpt lat="43.7479258" lon="6.3499733"><ele>925.0</ele><time>2026-05-02T14:48:50.974Z</time></trkpt><trkpt lat="43.7478953" lon="6.3498519"><ele>924.9999999999999</ele><time>2026-05-02T14:48:51.974Z</time></trkpt><trkpt lat="43.7478522" lon="6.3497388"><ele>925.0</ele><time>2026-05-02T14:48:52.973Z</time></trkpt><trkpt lat="43.7478073" lon="6.3496329"><ele>924.9999999999999</ele><time>2026-05-02T14:48:53.973Z</time></trkpt><trkpt lat="43.7477722" lon="6.3495286"><ele>925.0</ele><time>2026-05-02T14:48:54.973Z</time></trkpt><trkpt lat="43.7477258" lon="6.3494334"><ele>925.0</ele><time>2026-05-02T14:48:55.974Z</time></trkpt><trkpt lat="43.7476876" lon="6.3493271"><ele>925.0</ele><time>2026-05-02T14:48:56.973Z</time></trkpt><trkpt lat="43.7476641" lon="6.3492202"><ele>924.9999999999999</ele><time>2026-05-02T14:48:57.974Z</time></trkpt><trkpt lat="43.7476518" lon="6.3491184"><ele>925.0</ele><time>2026-05-02T14:48:58.974Z</time></trkpt><trkpt lat="43.7476548" lon="6.3490012"><ele>922.4999999999999</ele><time>2026-05-02T14:48:59.974Z</time></trkpt><trkpt lat="43.74768" lon="6.3489026"><ele>920.0</ele><time>2026-05-02T14:49:00.974Z</time></trkpt><trkpt lat="43.7477159" lon="6.3488094"><ele>917.5</ele><time>2026-05-02T14:49:01.974Z</time></trkpt><trkpt lat="43.7477651" lon="6.348709"><ele>915.0</ele><time>2026-05-02T14:49:02.974Z</time></trkpt><trkpt lat="43.7478173" lon="6.3486262"><ele>912.4999999999999</ele><time>2026-05-02T14:49:03.973Z</time></trkpt><trkpt lat="43.7478848" lon="6.3485441"><ele>910.0</ele><time>2026-05-02T14:49:04.974Z</time></trkpt><trkpt lat="43.7479502" lon="6.3484712"><ele>909.9999999999999</ele><time>2026-05-02T14:49:05.974Z</time></trkpt><trkpt lat="43.7480066" lon="6.3483912"><ele>910.0</ele><time>2026-05-02T14:49:06.974Z</time></trkpt><trkpt lat="43.7480729" lon="6.3483185"><ele>910.0</ele><time>2026-05-02T14:49:07.974Z</time></trkpt><trkpt lat="43.7481291" lon="6.3482208"><ele>910.0</ele><time>2026-05-02T14:49:08.974Z</time></trkpt><trkpt lat="43.7481994" lon="6.3481291"><ele>909.9999999999999</ele><time>2026-05-02T14:49:09.974Z</time></trkpt><trkpt lat="43.74827" lon="6.348046"><ele>910.0</ele><time>2026-05-02T14:49:10.974Z</time></trkpt><trkpt lat="43.7483329" lon="6.3479548"><ele>906.4999999999999</ele><time>2026-05-02T14:49:11.974Z</time></trkpt><trkpt lat="43.7483661" lon="6.3478795"><ele>903.0</ele><time>2026-05-02T14:49:12.974Z</time></trkpt><trkpt lat="43.7484032" lon="6.347802"><ele>899.5</ele><time>2026-05-02T14:49:13.973Z</time></trkpt><trkpt lat="43.7484241" lon="6.3477052"><ele>896.0</ele><time>2026-05-02T14:49:14.974Z</time></trkpt><trkpt lat="43.7484241" lon="6.3475935"><ele>892.4999999999999</ele><time>2026-05-02T14:49:15.974Z</time></trkpt><trkpt lat="43.7483951" lon="6.3474173"><ele>889.0</ele><time>2026-05-02T14:49:17.974Z</time></trkpt><trkpt lat="43.7483781" lon="6.3472982"><ele>893.6</ele><time>2026-05-02T14:49:18.974Z</time></trkpt><trkpt lat="43.7483595" lon="6.3471606"><ele>898.2</ele><time>2026-05-02T14:49:19.974Z</time></trkpt><trkpt lat="43.7483674" lon="6.3470311"><ele>902.8000000000001</ele><time>2026-05-02T14:49:20.974Z</time></trkpt><trkpt lat="43.7483759" lon="6.3468946"><ele>907.4000000000001</ele><time>2026-05-02T14:49:21.973Z</time></trkpt><trkpt lat="43.7483954" lon="6.3467626"><ele>912.0</ele><time>2026-05-02T14:49:22.974Z</time></trkpt><trkpt lat="43.7483923" lon="6.3466555"><ele>912.0</ele><time>2026-05-02T14:49:23.973Z</time></trkpt><trkpt lat="43.7483809" lon="6.3465594"><ele>912.0</ele><time>2026-05-02T14:49:24.974Z</time></trkpt><trkpt lat="43.7483422" lon="6.3464638"><ele>912.0</ele><time>2026-05-02T14:49:25.974Z</time></trkpt><trkpt lat="43.7482801" lon="6.3463738"><ele>912.0</ele><time>2026-05-02T14:49:26.974Z</time></trkpt><trkpt lat="43.7482092" lon="6.346294"><ele>912.0</ele><time>2026-05-02T14:49:27.973Z</time></trkpt><trkpt lat="43.7481353" lon="6.3462381"><ele>912.0</ele><time>2026-05-02T14:49:28.974Z</time></trkpt><trkpt lat="43.7480535" lon="6.3461901"><ele>912.5</ele><time>2026-05-02T14:49:29.974Z</time></trkpt><trkpt lat="43.7479675" lon="6.3461613"><ele>913.0</ele><time>2026-05-02T14:49:30.973Z</time></trkpt><trkpt lat="43.7478939" lon="6.3461332"><ele>913.5</ele><time>2026-05-02T14:49:31.974Z</time></trkpt><trkpt lat="43.7478275" lon="6.3461078"><ele>914.0</ele><time>2026-05-02T14:49:32.974Z</time></trkpt><trkpt lat="43.7477602" lon="6.3460675"><ele>914.5</ele><time>2026-05-02T14:49:33.974Z</time></trkpt><trkpt lat="43.7476835" lon="6.3460397"><ele>915.0</ele><time>2026-05-02T14:49:34.974Z</time></trkpt><trkpt lat="43.7476188" lon="6.3460263"><ele>915.0</ele><time>2026-05-02T14:49:35.974Z</time></trkpt><trkpt lat="43.7475026" lon="6.3460306"><ele>915.0</ele><time>2026-05-02T14:49:37.974Z</time></trkpt><trkpt lat="43.7474229" lon="6.3460219"><ele>915.0</ele><time>2026-05-02T14:49:38.973Z</time></trkpt><trkpt lat="43.74736" lon="6.3460023"><ele>915.0</ele><time>2026-05-02T14:49:39.974Z</time></trkpt><trkpt lat="43.747281" lon="6.345994"><ele>915.0</ele><time>2026-05-02T14:49:40.974Z</time></trkpt><trkpt lat="43.7472058" lon="6.3459826"><ele>915.0</ele><time>2026-05-02T14:49:41.973Z</time></trkpt><trkpt lat="43.7471255" lon="6.3459686"><ele>915.0</ele><time>2026-05-02T14:49:42.974Z</time></trkpt><trkpt lat="43.7470349" lon="6.3459193"><ele>915.0</ele><time>2026-05-02T14:49:44.974Z</time></trkpt><trkpt lat="43.7469582" lon="6.3458417"><ele>915.0</ele><time>2026-05-02T14:49:46.974Z</time></trkpt><trkpt lat="43.7468609" lon="6.3457794"><ele>915.0</ele><time>2026-05-02T14:49:48.974Z</time></trkpt><trkpt lat="43.7468052" lon="6.3457352"><ele>915.0</ele><time>2026-05-02T14:49:49.974Z</time></trkpt><trkpt lat="43.7467186" lon="6.3456355"><ele>913.5</ele><time>2026-05-02T14:49:51.974Z</time></trkpt><trkpt lat="43.7466339" lon="6.34554"><ele>912.0</ele><time>2026-05-02T14:49:53.974Z</time></trkpt><trkpt lat="43.7466139" lon="6.3454306"><ele>910.5</ele><time>2026-05-02T14:49:56.974Z</time></trkpt><trkpt lat="43.7465999" lon="6.3453441"><ele>909.0</ele><time>2026-05-02T14:50:21.972Z</time></trkpt><trkpt lat="43.7465495" lon="6.345278"><ele>907.5</ele><time>2026-05-02T14:50:25.973Z</time></trkpt><trkpt lat="43.7464918" lon="6.3451893"><ele>906.0</ele><time>2026-05-02T14:50:28.973Z</time></trkpt><trkpt lat="43.746445" lon="6.3451216"><ele>905.9999999999999</ele><time>2026-05-02T14:50:30.972Z</time></trkpt><trkpt lat="43.746435" lon="6.3450257"><ele>906.0</ele><time>2026-05-02T14:50:34.973Z</time></trkpt><trkpt lat="43.7464229" lon="6.3449387"><ele>905.9999999999999</ele><time>2026-05-02T14:51:44.973Z</time></trkpt><trkpt lat="43.7464126" lon="6.3448435"><ele>905.9999999999999</ele><time>2026-05-02T14:51:49.973Z</time></trkpt><trkpt lat="43.7463391" lon="6.3448605"><ele>906.0</ele><time>2026-05-02T14:52:03.973Z</time></trkpt><trkpt lat="43.7462678" lon="6.3448986"><ele>905.9999999999999</ele><time>2026-05-02T14:52:09.973Z</time></trkpt><trkpt lat="43.7462427" lon="6.3450023"><ele>905.9999999999999</ele><time>2026-05-02T14:52:17.972Z</time></trkpt><trkpt lat="43.7464426" lon="6.3448431"><ele>906.0</ele><time>2026-05-02T14:56:45.974Z</time></trkpt><trkpt lat="43.7464502" lon="6.3447374"><ele>906.0</ele><time>2026-05-02T14:56:48.906Z</time></trkpt><trkpt lat="43.7464469" lon="6.344614"><ele>906.0</ele><time>2026-05-02T14:56:49.974Z</time></trkpt><trkpt lat="43.7464499" lon="6.3443921"><ele>906.0</ele><time>2026-05-02T14:56:50.974Z</time></trkpt><trkpt lat="43.7464836" lon="6.3442259"><ele>906.1666666666666</ele><time>2026-05-02T14:56:52.973Z</time></trkpt><trkpt lat="43.7464786" lon="6.3441128"><ele>906.3333333333333</ele><time>2026-05-02T14:56:53.974Z</time></trkpt><trkpt lat="43.7464642" lon="6.3440128"><ele>906.5</ele><time>2026-05-02T14:56:54.974Z</time></trkpt><trkpt lat="43.7464741" lon="6.3438888"><ele>906.6666666666666</ele><time>2026-05-02T14:56:55.974Z</time></trkpt><trkpt lat="43.7464768" lon="6.3437826"><ele>906.8333333333333</ele><time>2026-05-02T14:56:56.974Z</time></trkpt><trkpt lat="43.7464829" lon="6.343675"><ele>907.0</ele><time>2026-05-02T14:56:57.974Z</time></trkpt><trkpt lat="43.7464883" lon="6.3435626"><ele>906.6666666666666</ele><time>2026-05-02T14:56:58.974Z</time></trkpt><trkpt lat="43.746495" lon="6.3434492"><ele>906.3333333333333</ele><time>2026-05-02T14:56:59.974Z</time></trkpt><trkpt lat="43.7464805" lon="6.3433326"><ele>906.0</ele><time>2026-05-02T14:57:00.974Z</time></trkpt><trkpt lat="43.7464708" lon="6.3432215"><ele>905.6666666666667</ele><time>2026-05-02T14:57:01.974Z</time></trkpt><trkpt lat="43.7464401" lon="6.3431076"><ele>905.3333333333334</ele><time>2026-05-02T14:57:02.974Z</time></trkpt><trkpt lat="43.7464315" lon="6.3429835"><ele>905.0</ele><time>2026-05-02T14:57:03.973Z</time></trkpt><trkpt lat="43.7464277" lon="6.3428618"><ele>905.8</ele><time>2026-05-02T14:57:04.974Z</time></trkpt><trkpt lat="43.7464135" lon="6.342746"><ele>906.6</ele><time>2026-05-02T14:57:05.974Z</time></trkpt><trkpt lat="43.7464082" lon="6.3426173"><ele>907.4000000000001</ele><time>2026-05-02T14:57:06.973Z</time></trkpt><trkpt lat="43.74638" lon="6.3424815"><ele>908.2</ele><time>2026-05-02T14:57:07.974Z</time></trkpt><trkpt lat="43.7463697" lon="6.3423619"><ele>909.0</ele><time>2026-05-02T14:57:08.974Z</time></trkpt><trkpt lat="43.7463544" lon="6.3422351"><ele>911.0</ele><time>2026-05-02T14:57:09.974Z</time></trkpt><trkpt lat="43.746311" lon="6.342119"><ele>913.0000000000001</ele><time>2026-05-02T14:57:10.974Z</time></trkpt><trkpt lat="43.7462368" lon="6.3419949"><ele>915.0000000000001</ele><time>2026-05-02T14:57:11.974Z</time></trkpt><trkpt lat="43.7461881" lon="6.3418674"><ele>917.0</ele><time>2026-05-02T14:57:12.974Z</time></trkpt><trkpt lat="43.7461237" lon="6.3417797"><ele>919.0</ele><time>2026-05-02T14:57:13.974Z</time></trkpt><trkpt lat="43.746055" lon="6.3416786"><ele>912.0</ele><time>2026-05-02T14:57:14.974Z</time></trkpt><trkpt lat="43.7460272" lon="6.3415893"><ele>905.0000000000001</ele><time>2026-05-02T14:57:15.973Z</time></trkpt><trkpt lat="43.7459166" lon="6.3414874"><ele>898.0000000000001</ele><time>2026-05-02T14:57:16.974Z</time></trkpt><trkpt lat="43.7458565" lon="6.3414054"><ele>891.0</ele><time>2026-05-02T14:57:17.974Z</time></trkpt><trkpt lat="43.7457616" lon="6.3413172"><ele>884.0</ele><time>2026-05-02T14:57:18.974Z</time></trkpt><trkpt lat="43.7457275" lon="6.3412337"><ele>884.0000000000001</ele><time>2026-05-02T14:57:19.974Z</time></trkpt><trkpt lat="43.7457065" lon="6.3411387"><ele>884.0</ele><time>2026-05-02T14:57:20.974Z</time></trkpt><trkpt lat="43.7456806" lon="6.3410541"><ele>884.0</ele><time>2026-05-02T14:57:21.973Z</time></trkpt><trkpt lat="43.745683" lon="6.3409642"><ele>884.0</ele><time>2026-05-02T14:57:22.974Z</time></trkpt><trkpt lat="43.7457389" lon="6.3408542"><ele>884.0000000000001</ele><time>2026-05-02T14:57:23.974Z</time></trkpt><trkpt lat="43.7457738" lon="6.3407407"><ele>884.0</ele><time>2026-05-02T14:57:24.974Z</time></trkpt><trkpt lat="43.7458085" lon="6.3406294"><ele>882.0</ele><time>2026-05-02T14:57:25.974Z</time></trkpt><trkpt lat="43.74584" lon="6.340527"><ele>880.0000000000001</ele><time>2026-05-02T14:57:26.973Z</time></trkpt><trkpt lat="43.7458754" lon="6.3404258"><ele>878.0000000000001</ele><time>2026-05-02T14:57:27.973Z</time></trkpt><trkpt lat="43.7458957" lon="6.3403266"><ele>876.0</ele><time>2026-05-02T14:57:28.974Z</time></trkpt><trkpt lat="43.7458255" lon="6.3401554"><ele>874.0</ele><time>2026-05-02T14:57:30.974Z</time></trkpt><trkpt lat="43.7457669" lon="6.3400534"><ele>873.9999999999999</ele><time>2026-05-02T14:57:31.974Z</time></trkpt><trkpt lat="43.7457213" lon="6.3399596"><ele>874.0</ele><time>2026-05-02T14:57:32.974Z</time></trkpt><trkpt lat="43.7456826" lon="6.3398592"><ele>874.0</ele><time>2026-05-02T14:57:33.974Z</time></trkpt><trkpt lat="43.7456418" lon="6.3397522"><ele>874.0</ele><time>2026-05-02T14:57:34.974Z</time></trkpt><trkpt lat="43.7456303" lon="6.3396557"><ele>873.9999999999999</ele><time>2026-05-02T14:57:35.974Z</time></trkpt><trkpt lat="43.7456238" lon="6.3395621"><ele>874.0</ele><time>2026-05-02T14:57:36.974Z</time></trkpt><trkpt lat="43.7455882" lon="6.3394589"><ele>875.3333333333333</ele><time>2026-05-02T14:57:37.973Z</time></trkpt><trkpt lat="43.7456261" lon="6.3392842"><ele>876.6666666666666</ele><time>2026-05-02T14:57:39.974Z</time></trkpt><trkpt lat="43.7456418" lon="6.339197"><ele>878.0</ele><time>2026-05-02T14:57:40.974Z</time></trkpt><trkpt lat="43.7456707" lon="6.3391017"><ele>879.3333333333333</ele><time>2026-05-02T14:57:41.974Z</time></trkpt><trkpt lat="43.7456954" lon="6.3389897"><ele>880.6666666666666</ele><time>2026-05-02T14:57:42.974Z</time></trkpt><trkpt lat="43.7456889" lon="6.3389008"><ele>882.0</ele><time>2026-05-02T14:57:43.974Z</time></trkpt><trkpt lat="43.7456507" lon="6.3388042"><ele>882.0</ele><time>2026-05-02T14:57:44.974Z</time></trkpt><trkpt lat="43.7455946" lon="6.3386884"><ele>882.0</ele><time>2026-05-02T14:57:45.974Z</time></trkpt><trkpt lat="43.7455307" lon="6.338522"><ele>882.0</ele><time>2026-05-02T14:57:47.974Z</time></trkpt><trkpt lat="43.7454822" lon="6.3384111"><ele>882.0</ele><time>2026-05-02T14:57:48.974Z</time></trkpt><trkpt lat="43.7454544" lon="6.3383085"><ele>882.0</ele><time>2026-05-02T14:57:49.974Z</time></trkpt><trkpt lat="43.7454007" lon="6.3381876"><ele>881.3333333333334</ele><time>2026-05-02T14:57:51.974Z</time></trkpt><trkpt lat="43.7453418" lon="6.3381227"><ele>880.6666666666667</ele><time>2026-05-02T14:57:52.974Z</time></trkpt><trkpt lat="43.7453543" lon="6.3379619"><ele>880.0</ele><time>2026-05-02T14:57:54.973Z</time></trkpt><trkpt lat="43.7453893" lon="6.3378412"><ele>879.3333333333334</ele><time>2026-05-02T14:57:56.974Z</time></trkpt><trkpt lat="43.7454182" lon="6.3377634"><ele>878.6666666666667</ele><time>2026-05-02T14:57:57.974Z</time></trkpt><trkpt lat="43.7454363" lon="6.3376665"><ele>878.0</ele><time>2026-05-02T14:57:58.973Z</time></trkpt><trkpt lat="43.7454435" lon="6.3375475"><ele>878.0000000000001</ele><time>2026-05-02T14:57:59.974Z</time></trkpt><trkpt lat="43.7454425" lon="6.3374427"><ele>878.0</ele><time>2026-05-02T14:58:00.974Z</time></trkpt><trkpt lat="43.7454882" lon="6.3373441"><ele>878.0</ele><time>2026-05-02T14:58:01.974Z</time></trkpt><trkpt lat="43.7455213" lon="6.3372696"><ele>878.0</ele><time>2026-05-02T14:58:02.974Z</time></trkpt><trkpt lat="43.7455709" lon="6.3371894"><ele>878.0000000000001</ele><time>2026-05-02T14:58:03.974Z</time></trkpt><trkpt lat="43.7456611" lon="6.3371045"><ele>878.0</ele><time>2026-05-02T14:58:04.974Z</time></trkpt><trkpt lat="43.7457147" lon="6.3370467"><ele>874.3333333333334</ele><time>2026-05-02T14:58:05.974Z</time></trkpt><trkpt lat="43.7457654" lon="6.3369642"><ele>870.6666666666667</ele><time>2026-05-02T14:58:06.974Z</time></trkpt><trkpt lat="43.7457865" lon="6.3368576"><ele>867.0</ele><time>2026-05-02T14:58:07.974Z</time></trkpt><trkpt lat="43.7457869" lon="6.3367283"><ele>863.3333333333333</ele><time>2026-05-02T14:58:08.974Z</time></trkpt><trkpt lat="43.7458047" lon="6.3366277"><ele>859.6666666666666</ele><time>2026-05-02T14:58:09.973Z</time></trkpt><trkpt lat="43.7458402" lon="6.3365215"><ele>856.0</ele><time>2026-05-02T14:58:10.974Z</time></trkpt><trkpt lat="43.7458935" lon="6.336441"><ele>857.1666666666666</ele><time>2026-05-02T14:58:11.974Z</time></trkpt><trkpt lat="43.7459545" lon="6.3363529"><ele>858.3333333333333</ele><time>2026-05-02T14:58:12.974Z</time></trkpt><trkpt lat="43.7460327" lon="6.3362905"><ele>859.5</ele><time>2026-05-02T14:58:13.974Z</time></trkpt><trkpt lat="43.7461037" lon="6.3362079"><ele>860.6666666666667</ele><time>2026-05-02T14:58:14.974Z</time></trkpt><trkpt lat="43.7461749" lon="6.3361434"><ele>861.8333333333334</ele><time>2026-05-02T14:58:15.974Z</time></trkpt><trkpt lat="43.7462543" lon="6.3361057"><ele>863.0</ele><time>2026-05-02T14:58:16.974Z</time></trkpt><trkpt lat="43.7463389" lon="6.3360581"><ele>863.0000000000001</ele><time>2026-05-02T14:58:17.974Z</time></trkpt><trkpt lat="43.7464074" lon="6.3359955"><ele>863.0</ele><time>2026-05-02T14:58:18.973Z</time></trkpt><trkpt lat="43.7464784" lon="6.3359233"><ele>863.0</ele><time>2026-05-02T14:58:19.974Z</time></trkpt><trkpt lat="43.7465389" lon="6.3358379"><ele>863.0</ele><time>2026-05-02T14:58:20.974Z</time></trkpt><trkpt lat="43.746592" lon="6.3357437"><ele>863.0000000000001</ele><time>2026-05-02T14:58:21.974Z</time></trkpt><trkpt lat="43.7466547" lon="6.3356542"><ele>863.0</ele><time>2026-05-02T14:58:22.974Z</time></trkpt><trkpt lat="43.7466765" lon="6.3355658"><ele>861.1666666666667</ele><time>2026-05-02T14:58:23.973Z</time></trkpt><trkpt lat="43.7466999" lon="6.3354714"><ele>859.3333333333334</ele><time>2026-05-02T14:58:24.974Z</time></trkpt><trkpt lat="43.7467296" lon="6.3353937"><ele>857.5</ele><time>2026-05-02T14:58:25.973Z</time></trkpt><trkpt lat="43.746746" lon="6.3353086"><ele>855.6666666666667</ele><time>2026-05-02T14:58:26.973Z</time></trkpt><trkpt lat="43.7467431" lon="6.3351566"><ele>853.8333333333334</ele><time>2026-05-02T14:58:28.974Z</time></trkpt><trkpt lat="43.7466613" lon="6.335024"><ele>852.0</ele><time>2026-05-02T14:58:30.974Z</time></trkpt><trkpt lat="43.7466295" lon="6.3349178"><ele>852.0</ele><time>2026-05-02T14:58:32.973Z</time></trkpt><trkpt lat="43.7466022" lon="6.3347868"><ele>852.0</ele><time>2026-05-02T14:58:34.974Z</time></trkpt><trkpt lat="43.7465634" lon="6.3347089"><ele>852.0</ele><time>2026-05-02T14:58:36.974Z</time></trkpt><trkpt lat="43.7465067" lon="6.3346656"><ele>852.0</ele><time>2026-05-02T14:58:44.974Z</time></trkpt><trkpt lat="43.7465765" lon="6.334526"><ele>852.0</ele><time>2026-05-02T15:03:16.972Z</time></trkpt><trkpt lat="43.7466627" lon="6.3344098"><ele>853.1666666666666</ele><time>2026-05-02T15:03:18.972Z</time></trkpt><trkpt lat="43.7467102" lon="6.3343246"><ele>854.3333333333333</ele><time>2026-05-02T15:03:19.972Z</time></trkpt><trkpt lat="43.7467478" lon="6.3342414"><ele>855.5</ele><time>2026-05-02T15:03:20.972Z</time></trkpt><trkpt lat="43.7467848" lon="6.3341548"><ele>856.6666666666666</ele><time>2026-05-02T15:03:21.972Z</time></trkpt><trkpt lat="43.7468304" lon="6.3340538"><ele>857.8333333333333</ele><time>2026-05-02T15:03:22.972Z</time></trkpt><trkpt lat="43.7468665" lon="6.3339529"><ele>859.0</ele><time>2026-05-02T15:03:23.972Z</time></trkpt><trkpt lat="43.746855" lon="6.3338387"><ele>859.0</ele><time>2026-05-02T15:03:24.972Z</time></trkpt><trkpt lat="43.7468479" lon="6.3337135"><ele>859.0000000000001</ele><time>2026-05-02T15:03:25.972Z</time></trkpt><trkpt lat="43.7468467" lon="6.3335733"><ele>859.0000000000001</ele><time>2026-05-02T15:03:26.971Z</time></trkpt><trkpt lat="43.7468205" lon="6.3334552"><ele>859.0</ele><time>2026-05-02T15:03:27.972Z</time></trkpt><trkpt lat="43.7467921" lon="6.3333376"><ele>859.0</ele><time>2026-05-02T15:03:28.971Z</time></trkpt><trkpt lat="43.7467872" lon="6.3332096"><ele>864.2</ele><time>2026-05-02T15:03:29.972Z</time></trkpt><trkpt lat="43.7467931" lon="6.3330691"><ele>869.4000000000001</ele><time>2026-05-02T15:03:30.972Z</time></trkpt><trkpt lat="43.7468069" lon="6.3329368"><ele>874.6</ele><time>2026-05-02T15:03:31.972Z</time></trkpt><trkpt lat="43.7468458" lon="6.332822"><ele>879.8</ele><time>2026-05-02T15:03:32.971Z</time></trkpt><trkpt lat="43.746912" lon="6.3327227"><ele>885.0</ele><time>2026-05-02T15:03:33.972Z</time></trkpt><trkpt lat="43.7469647" lon="6.3326091"><ele>885.0</ele><time>2026-05-02T15:03:34.972Z</time></trkpt><trkpt lat="43.7470215" lon="6.332499"><ele>885.0</ele><time>2026-05-02T15:03:35.972Z</time></trkpt><trkpt lat="43.7470781" lon="6.3323971"><ele>885.0</ele><time>2026-05-02T15:03:36.971Z</time></trkpt><trkpt lat="43.7470622" lon="6.3322603"><ele>885.0</ele><time>2026-05-02T15:03:37.972Z</time></trkpt><trkpt lat="43.7470132" lon="6.3320627"><ele>885.0</ele><time>2026-05-02T15:03:38.972Z</time></trkpt><trkpt lat="43.7470069" lon="6.3319138"><ele>882.8</ele><time>2026-05-02T15:03:39.972Z</time></trkpt><trkpt lat="43.7470075" lon="6.3317623"><ele>880.6</ele><time>2026-05-02T15:03:40.972Z</time></trkpt><trkpt lat="43.746996" lon="6.3316153"><ele>878.4000000000001</ele><time>2026-05-02T15:03:41.972Z</time></trkpt><trkpt lat="43.7469828" lon="6.3314551"><ele>876.2</ele><time>2026-05-02T15:03:42.971Z</time></trkpt><trkpt lat="43.7469744" lon="6.3313036"><ele>874.0</ele><time>2026-05-02T15:03:43.972Z</time></trkpt><trkpt lat="43.7469875" lon="6.3311706"><ele>874.0</ele><time>2026-05-02T15:03:44.971Z</time></trkpt><trkpt lat="43.7470095" lon="6.3310323"><ele>874.0000000000001</ele><time>2026-05-02T15:03:45.971Z</time></trkpt><trkpt lat="43.7470703" lon="6.3309061"><ele>874.0000000000001</ele><time>2026-05-02T15:03:46.972Z</time></trkpt><trkpt lat="43.7471161" lon="6.3307979"><ele>874.0</ele><time>2026-05-02T15:03:47.972Z</time></trkpt><trkpt lat="43.7471806" lon="6.3306861"><ele>874.0</ele><time>2026-05-02T15:03:48.972Z</time></trkpt><trkpt lat="43.7472808" lon="6.3306012"><ele>874.0</ele><time>2026-05-02T15:03:49.972Z</time></trkpt><trkpt lat="43.7473967" lon="6.3305529"><ele>874.0</ele><time>2026-05-02T15:03:50.972Z</time></trkpt><trkpt lat="43.7474766" lon="6.3304541"><ele>874.0</ele><time>2026-05-02T15:03:51.972Z</time></trkpt><trkpt lat="43.7474911" lon="6.3302631"><ele>874.0</ele><time>2026-05-02T15:03:52.972Z</time></trkpt><trkpt lat="43.7475145" lon="6.330135"><ele>874.0</ele><time>2026-05-02T15:03:53.972Z</time></trkpt><trkpt lat="43.7475331" lon="6.3299982"><ele>874.0000000000001</ele><time>2026-05-02T15:03:54.972Z</time></trkpt><trkpt lat="43.7475296" lon="6.3298385"><ele>874.0000000000001</ele><time>2026-05-02T15:03:55.972Z</time></trkpt><trkpt lat="43.7475363" lon="6.329708"><ele>874.0</ele><time>2026-05-02T15:03:56.972Z</time></trkpt><trkpt lat="43.7475477" lon="6.3295878"><ele>874.0</ele><time>2026-05-02T15:03:57.972Z</time></trkpt><trkpt lat="43.7475567" lon="6.3294729"><ele>866.0</ele><time>2026-05-02T15:03:58.971Z</time></trkpt><trkpt lat="43.7475706" lon="6.3293547"><ele>858.0000000000001</ele><time>2026-05-02T15:03:59.972Z</time></trkpt><trkpt lat="43.7476204" lon="6.3292547"><ele>850.0</ele><time>2026-05-02T15:04:00.972Z</time></trkpt><trkpt lat="43.7476981" lon="6.3291774"><ele>842.0</ele><time>2026-05-02T15:04:01.972Z</time></trkpt><trkpt lat="43.7477804" lon="6.3290957"><ele>834.0</ele><time>2026-05-02T15:04:02.972Z</time></trkpt><trkpt lat="43.7478655" lon="6.3290248"><ele>834.0</ele><time>2026-05-02T15:04:03.972Z</time></trkpt><trkpt lat="43.7479322" lon="6.3289409"><ele>834.0</ele><time>2026-05-02T15:04:04.972Z</time></trkpt><trkpt lat="43.747976" lon="6.3287893"><ele>834.0</ele><time>2026-05-02T15:04:05.971Z</time></trkpt><trkpt lat="43.7480358" lon="6.3286794"><ele>834.0</ele><time>2026-05-02T15:04:06.971Z</time></trkpt><trkpt lat="43.7481052" lon="6.3285876"><ele>834.0</ele><time>2026-05-02T15:04:07.972Z</time></trkpt><trkpt lat="43.7481689" lon="6.3285042"><ele>830.8333333333334</ele><time>2026-05-02T15:04:08.972Z</time></trkpt><trkpt lat="43.7482389" lon="6.3284374"><ele>827.6666666666667</ele><time>2026-05-02T15:04:09.972Z</time></trkpt><trkpt lat="43.7483159" lon="6.32838"><ele>824.5</ele><time>2026-05-02T15:04:10.972Z</time></trkpt><trkpt lat="43.748389" lon="6.3283411"><ele>821.3333333333334</ele><time>2026-05-02T15:04:11.972Z</time></trkpt><trkpt lat="43.748491" lon="6.3283578"><ele>818.1666666666667</ele><time>2026-05-02T15:04:12.972Z</time></trkpt><trkpt lat="43.7485751" lon="6.3283864"><ele>815.0</ele><time>2026-05-02T15:04:13.972Z</time></trkpt><trkpt lat="43.7486891" lon="6.3284998"><ele>810.6</ele><time>2026-05-02T15:04:14.972Z</time></trkpt><trkpt lat="43.7487781" lon="6.3285587"><ele>806.2</ele><time>2026-05-02T15:04:15.972Z</time></trkpt><trkpt lat="43.7488788" lon="6.3286371"><ele>801.8</ele><time>2026-05-02T15:04:16.972Z</time></trkpt><trkpt lat="43.7489523" lon="6.3287211"><ele>797.4</ele><time>2026-05-02T15:04:17.972Z</time></trkpt><trkpt lat="43.7490293" lon="6.3288051"><ele>793.0</ele><time>2026-05-02T15:04:18.972Z</time></trkpt><trkpt lat="43.7491262" lon="6.3288881"><ele>799.2</ele><time>2026-05-02T15:04:19.972Z</time></trkpt><trkpt lat="43.7492154" lon="6.3289684"><ele>805.4</ele><time>2026-05-02T15:04:20.972Z</time></trkpt><trkpt lat="43.7492991" lon="6.3290577"><ele>811.6</ele><time>2026-05-02T15:04:21.972Z</time></trkpt><trkpt lat="43.7493873" lon="6.3291241"><ele>817.8000000000001</ele><time>2026-05-02T15:04:22.972Z</time></trkpt><trkpt lat="43.7494993" lon="6.3291964"><ele>824.0</ele><time>2026-05-02T15:04:23.972Z</time></trkpt><trkpt lat="43.7496261" lon="6.3292586"><ele>824.0</ele><time>2026-05-02T15:04:24.972Z</time></trkpt><trkpt lat="43.74975" lon="6.3293281"><ele>824.0</ele><time>2026-05-02T15:04:25.972Z</time></trkpt><trkpt lat="43.7499051" lon="6.3293946"><ele>824.0</ele><time>2026-05-02T15:04:26.972Z</time></trkpt><trkpt lat="43.7499957" lon="6.3294466"><ele>824.0</ele><time>2026-05-02T15:04:27.972Z</time></trkpt><trkpt lat="43.7501066" lon="6.3295028"><ele>824.0</ele><time>2026-05-02T15:04:28.972Z</time></trkpt><trkpt lat="43.7501978" lon="6.3295635"><ele>824.0</ele><time>2026-05-02T15:04:29.972Z</time></trkpt><trkpt lat="43.7502887" lon="6.3296449"><ele>824.0</ele><time>2026-05-02T15:04:30.972Z</time></trkpt><trkpt lat="43.7503738" lon="6.3297457"><ele>824.0</ele><time>2026-05-02T15:04:31.972Z</time></trkpt><trkpt lat="43.7504446" lon="6.3298675"><ele>824.0</ele><time>2026-05-02T15:04:32.971Z</time></trkpt><trkpt lat="43.7505019" lon="6.3299837"><ele>826.8000000000001</ele><time>2026-05-02T15:04:33.972Z</time></trkpt><trkpt lat="43.7505676" lon="6.3301077"><ele>829.6</ele><time>2026-05-02T15:04:34.972Z</time></trkpt><trkpt lat="43.7506338" lon="6.3302236"><ele>832.4</ele><time>2026-05-02T15:04:35.972Z</time></trkpt><trkpt lat="43.7506922" lon="6.3303298"><ele>835.2</ele><time>2026-05-02T15:04:36.972Z</time></trkpt><trkpt lat="43.7507862" lon="6.3304093"><ele>838.0</ele><time>2026-05-02T15:04:37.972Z</time></trkpt><trkpt lat="43.7508851" lon="6.330477"><ele>837.9999999999999</ele><time>2026-05-02T15:04:38.972Z</time></trkpt><trkpt lat="43.7509709" lon="6.3305179"><ele>838.0</ele><time>2026-05-02T15:04:39.971Z</time></trkpt><trkpt lat="43.7510512" lon="6.3305567"><ele>838.0</ele><time>2026-05-02T15:04:40.972Z</time></trkpt><trkpt lat="43.7511274" lon="6.3305899"><ele>838.0</ele><time>2026-05-02T15:04:41.971Z</time></trkpt><trkpt lat="43.7512147" lon="6.3306352"><ele>837.9999999999999</ele><time>2026-05-02T15:04:42.972Z</time></trkpt><trkpt lat="43.751288" lon="6.3306772"><ele>838.0</ele><time>2026-05-02T15:04:43.972Z</time></trkpt><trkpt lat="43.7513544" lon="6.3306836"><ele>840.4999999999999</ele><time>2026-05-02T15:04:44.972Z</time></trkpt><trkpt lat="43.7514445" lon="6.3306785"><ele>843.0</ele><time>2026-05-02T15:04:45.972Z</time></trkpt><trkpt lat="43.7515071" lon="6.3306137"><ele>845.5</ele><time>2026-05-02T15:04:46.972Z</time></trkpt><trkpt lat="43.7515808" lon="6.330562"><ele>848.0</ele><time>2026-05-02T15:04:47.971Z</time></trkpt><trkpt lat="43.7516207" lon="6.330472"><ele>850.4999999999999</ele><time>2026-05-02T15:04:48.972Z</time></trkpt><trkpt lat="43.7516651" lon="6.3303745"><ele>853.0</ele><time>2026-05-02T15:04:49.971Z</time></trkpt><trkpt lat="43.7516677" lon="6.3302638"><ele>853.0</ele><time>2026-05-02T15:04:50.972Z</time></trkpt><trkpt lat="43.75166" lon="6.3301704"><ele>853.0</ele><time>2026-05-02T15:04:51.972Z</time></trkpt><trkpt lat="43.7516385" lon="6.3300561"><ele>853.0</ele><time>2026-05-02T15:04:52.972Z</time></trkpt><trkpt lat="43.7515296" lon="6.3298886"><ele>853.0</ele><time>2026-05-02T15:04:53.972Z</time></trkpt><trkpt lat="43.7514731" lon="6.3297557"><ele>853.0</ele><time>2026-05-02T15:04:54.972Z</time></trkpt><trkpt lat="43.7514852" lon="6.3296018"><ele>852.5999999999999</ele><time>2026-05-02T15:04:55.972Z</time></trkpt><trkpt lat="43.7514982" lon="6.329447"><ele>852.1999999999999</ele><time>2026-05-02T15:04:56.971Z</time></trkpt><trkpt lat="43.7515223" lon="6.3292924"><ele>851.8</ele><time>2026-05-02T15:04:57.972Z</time></trkpt><trkpt lat="43.7515487" lon="6.3291568"><ele>851.4</ele><time>2026-05-02T15:04:58.972Z</time></trkpt><trkpt lat="43.7515963" lon="6.3290184"><ele>851.0</ele><time>2026-05-02T15:04:59.971Z</time></trkpt><trkpt lat="43.7516434" lon="6.3288781"><ele>852.8</ele><time>2026-05-02T15:05:00.972Z</time></trkpt><trkpt lat="43.7517034" lon="6.3287578"><ele>854.5999999999999</ele><time>2026-05-02T15:05:01.972Z</time></trkpt><trkpt lat="43.7517542" lon="6.3286425"><ele>856.4</ele><time>2026-05-02T15:05:02.972Z</time></trkpt><trkpt lat="43.7518173" lon="6.328517"><ele>858.2</ele><time>2026-05-02T15:05:03.972Z</time></trkpt><trkpt lat="43.7518846" lon="6.3283938"><ele>860.0</ele><time>2026-05-02T15:05:04.972Z</time></trkpt><trkpt lat="43.7519703" lon="6.3283926"><ele>860.0</ele><time>2026-05-02T15:05:05.972Z</time></trkpt><trkpt lat="43.752084" lon="6.3283775"><ele>860.0</ele><time>2026-05-02T15:05:06.972Z</time></trkpt><trkpt lat="43.7521802" lon="6.3283604"><ele>860.0</ele><time>2026-05-02T15:05:07.972Z</time></trkpt><trkpt lat="43.7522938" lon="6.3283956"><ele>860.0</ele><time>2026-05-02T15:05:08.972Z</time></trkpt><trkpt lat="43.7524046" lon="6.3284138"><ele>860.0</ele><time>2026-05-02T15:05:09.972Z</time></trkpt><trkpt lat="43.7525195" lon="6.3284339"><ele>860.0</ele><time>2026-05-02T15:05:10.972Z</time></trkpt><trkpt lat="43.7526399" lon="6.328448"><ele>860.0</ele><time>2026-05-02T15:05:11.972Z</time></trkpt><trkpt lat="43.7527452" lon="6.3284472"><ele>860.0</ele><time>2026-05-02T15:05:12.972Z</time></trkpt><trkpt lat="43.7528717" lon="6.3284604"><ele>860.0</ele><time>2026-05-02T15:05:13.972Z</time></trkpt><trkpt lat="43.7529944" lon="6.3284551"><ele>863.8</ele><time>2026-05-02T15:05:14.972Z</time></trkpt><trkpt lat="43.7530788" lon="6.328443"><ele>867.6</ele><time>2026-05-02T15:05:15.972Z</time></trkpt><trkpt lat="43.7531701" lon="6.3284005"><ele>871.4000000000001</ele><time>2026-05-02T15:05:16.972Z</time></trkpt><trkpt lat="43.7532529" lon="6.3283532"><ele>875.2</ele><time>2026-05-02T15:05:17.971Z</time></trkpt><trkpt lat="43.7533208" lon="6.3282513"><ele>879.0</ele><time>2026-05-02T15:05:18.972Z</time></trkpt><trkpt lat="43.7533799" lon="6.3281743"><ele>872.25</ele><time>2026-05-02T15:05:19.971Z</time></trkpt><trkpt lat="43.7533582" lon="6.3279321"><ele>865.5</ele><time>2026-05-02T15:05:20.972Z</time></trkpt><trkpt lat="43.7533547" lon="6.327759"><ele>858.75</ele><time>2026-05-02T15:05:21.971Z</time></trkpt><trkpt lat="43.7533717" lon="6.3276064"><ele>852.0</ele><time>2026-05-02T15:05:22.972Z</time></trkpt><trkpt lat="43.7533813" lon="6.3274494"><ele>852.0</ele><time>2026-05-02T15:05:23.972Z</time></trkpt><trkpt lat="43.753415" lon="6.3273094"><ele>852.0</ele><time>2026-05-02T15:05:24.971Z</time></trkpt><trkpt lat="43.7534393" lon="6.3271905"><ele>852.0</ele><time>2026-05-02T15:05:25.972Z</time></trkpt><trkpt lat="43.7534725" lon="6.3270737"><ele>852.0</ele><time>2026-05-02T15:05:26.972Z</time></trkpt><trkpt lat="43.7535174" lon="6.3269669"><ele>852.0</ele><time>2026-05-02T15:05:27.972Z</time></trkpt><trkpt lat="43.7535893" lon="6.326891"><ele>856.0</ele><time>2026-05-02T15:05:28.972Z</time></trkpt><trkpt lat="43.7536609" lon="6.3268285"><ele>860.0</ele><time>2026-05-02T15:05:29.971Z</time></trkpt><trkpt lat="43.7537648" lon="6.3268267"><ele>864.0</ele><time>2026-05-02T15:05:30.971Z</time></trkpt><trkpt lat="43.7538619" lon="6.3268076"><ele>868.0</ele><time>2026-05-02T15:05:31.971Z</time></trkpt><trkpt lat="43.7539538" lon="6.3267933"><ele>872.0</ele><time>2026-05-02T15:05:32.972Z</time></trkpt><trkpt lat="43.7540756" lon="6.3267764"><ele>872.0</ele><time>2026-05-02T15:05:34.971Z</time></trkpt><trkpt lat="43.7541699" lon="6.3267205"><ele>872.0</ele><time>2026-05-02T15:05:35.971Z</time></trkpt><trkpt lat="43.7542358" lon="6.3266592"><ele>872.0</ele><time>2026-05-02T15:05:36.971Z</time></trkpt><trkpt lat="43.7542998" lon="6.3265738"><ele>872.0</ele><time>2026-05-02T15:05:37.972Z</time></trkpt><trkpt lat="43.7543027" lon="6.3264181"><ele>872.0</ele><time>2026-05-02T15:05:38.971Z</time></trkpt><trkpt lat="43.7542524" lon="6.326248"><ele>871.4000000000001</ele><time>2026-05-02T15:05:39.972Z</time></trkpt><trkpt lat="43.7542294" lon="6.3261292"><ele>870.8000000000001</ele><time>2026-05-02T15:05:40.972Z</time></trkpt><trkpt lat="43.7542413" lon="6.3259789"><ele>870.2</ele><time>2026-05-02T15:05:41.972Z</time></trkpt><trkpt lat="43.7542773" lon="6.3258346"><ele>869.6</ele><time>2026-05-02T15:05:42.971Z</time></trkpt><trkpt lat="43.7542796" lon="6.325692"><ele>869.0</ele><time>2026-05-02T15:05:43.972Z</time></trkpt><trkpt lat="43.7543966" lon="6.325692"><ele>869.0</ele><time>2026-05-02T15:05:44.972Z</time></trkpt><trkpt lat="43.7544617" lon="6.3256349"><ele>869.0000000000001</ele><time>2026-05-02T15:05:45.972Z</time></trkpt><trkpt lat="43.7545565" lon="6.3255807"><ele>869.0000000000001</ele><time>2026-05-02T15:05:46.972Z</time></trkpt><trkpt lat="43.7546401" lon="6.3255262"><ele>869.0</ele><time>2026-05-02T15:05:47.972Z</time></trkpt><trkpt lat="43.7547559" lon="6.3254995"><ele>869.0</ele><time>2026-05-02T15:05:48.972Z</time></trkpt><trkpt lat="43.7548505" lon="6.3254642"><ele>867.0</ele><time>2026-05-02T15:05:49.971Z</time></trkpt><trkpt lat="43.7549615" lon="6.3254436"><ele>865.0</ele><time>2026-05-02T15:05:50.971Z</time></trkpt><trkpt lat="43.7550727" lon="6.3253864"><ele>863.0</ele><time>2026-05-02T15:05:51.971Z</time></trkpt><trkpt lat="43.7551824" lon="6.3253017"><ele>861.0</ele><time>2026-05-02T15:05:52.971Z</time></trkpt><trkpt lat="43.7552761" lon="6.3252079"><ele>861.0</ele><time>2026-05-02T15:05:53.972Z</time></trkpt><trkpt lat="43.7553607" lon="6.3250981"><ele>861.0</ele><time>2026-05-02T15:05:54.971Z</time></trkpt><trkpt lat="43.7554405" lon="6.3249885"><ele>861.0</ele><time>2026-05-02T15:05:55.972Z</time></trkpt><trkpt lat="43.7555415" lon="6.3248776"><ele>861.0</ele><time>2026-05-02T15:05:56.972Z</time></trkpt><trkpt lat="43.7556342" lon="6.3247725"><ele>854.8</ele><time>2026-05-02T15:05:57.971Z</time></trkpt><trkpt lat="43.755727" lon="6.3246777"><ele>848.5999999999999</ele><time>2026-05-02T15:05:58.972Z</time></trkpt><trkpt lat="43.7558101" lon="6.3245769"><ele>842.4</ele><time>2026-05-02T15:05:59.972Z</time></trkpt><trkpt lat="43.7558881" lon="6.3245047"><ele>836.2</ele><time>2026-05-02T15:06:00.972Z</time></trkpt><trkpt lat="43.7559718" lon="6.3244211"><ele>830.0</ele><time>2026-05-02T15:06:01.972Z</time></trkpt><trkpt lat="43.7560153" lon="6.3243218"><ele>831.0</ele><time>2026-05-02T15:06:02.972Z</time></trkpt><trkpt lat="43.7560569" lon="6.324224"><ele>832.0</ele><time>2026-05-02T15:06:03.972Z</time></trkpt><trkpt lat="43.7560709" lon="6.324101"><ele>833.0</ele><time>2026-05-02T15:06:04.972Z</time></trkpt><trkpt lat="43.7560672" lon="6.3239955"><ele>834.0</ele><time>2026-05-02T15:06:05.972Z</time></trkpt><trkpt lat="43.7560656" lon="6.3238582"><ele>835.0</ele><time>2026-05-02T15:06:06.972Z</time></trkpt><trkpt lat="43.7560363" lon="6.3236608"><ele>835.0</ele><time>2026-05-02T15:06:07.971Z</time></trkpt><trkpt lat="43.7560311" lon="6.3234884"><ele>835.0</ele><time>2026-05-02T15:06:08.972Z</time></trkpt><trkpt lat="43.7560402" lon="6.3233322"><ele>835.0</ele><time>2026-05-02T15:06:09.972Z</time></trkpt><trkpt lat="43.756067" lon="6.3231759"><ele>835.0</ele><time>2026-05-02T15:06:10.972Z</time></trkpt><trkpt lat="43.7560794" lon="6.3230215"><ele>841.2</ele><time>2026-05-02T15:06:11.972Z</time></trkpt><trkpt lat="43.7560902" lon="6.3228875"><ele>847.4</ele><time>2026-05-02T15:06:12.972Z</time></trkpt><trkpt lat="43.7560802" lon="6.3227379"><ele>853.5999999999999</ele><time>2026-05-02T15:06:13.971Z</time></trkpt><trkpt lat="43.7560672" lon="6.3225958"><ele>859.8</ele><time>2026-05-02T15:06:14.972Z</time></trkpt><trkpt lat="43.7560432" lon="6.3224529"><ele>866.0</ele><time>2026-05-02T15:06:15.972Z</time></trkpt><trkpt lat="43.7560294" lon="6.3223004"><ele>862.5</ele><time>2026-05-02T15:06:16.972Z</time></trkpt><trkpt lat="43.7560234" lon="6.3221451"><ele>859.0</ele><time>2026-05-02T15:06:17.972Z</time></trkpt><trkpt lat="43.7560379" lon="6.3219826"><ele>855.5</ele><time>2026-05-02T15:06:18.972Z</time></trkpt><trkpt lat="43.7560473" lon="6.3218217"><ele>852.0</ele><time>2026-05-02T15:06:19.972Z</time></trkpt><trkpt lat="43.7560666" lon="6.3216673"><ele>852.0</ele><time>2026-05-02T15:06:20.972Z</time></trkpt><trkpt lat="43.7560788" lon="6.3215157"><ele>852.0</ele><time>2026-05-02T15:06:21.972Z</time></trkpt><trkpt lat="43.7560823" lon="6.3213635"><ele>852.0</ele><time>2026-05-02T15:06:22.972Z</time></trkpt><trkpt lat="43.7560736" lon="6.3212204"><ele>852.0</ele><time>2026-05-02T15:06:23.972Z</time></trkpt><trkpt lat="43.7560731" lon="6.3210912"><ele>852.0</ele><time>2026-05-02T15:06:24.972Z</time></trkpt><trkpt lat="43.7560694" lon="6.320964"><ele>848.0</ele><time>2026-05-02T15:06:25.972Z</time></trkpt><trkpt lat="43.7560498" lon="6.3208801"><ele>844.0</ele><time>2026-05-02T15:06:26.972Z</time></trkpt><trkpt lat="43.756021" lon="6.3207919"><ele>840.0</ele><time>2026-05-02T15:06:27.971Z</time></trkpt><trkpt lat="43.755973" lon="6.3206722"><ele>836.0</ele><time>2026-05-02T15:06:29.972Z</time></trkpt><trkpt lat="43.7559188" lon="6.3205842"><ele>832.0</ele><time>2026-05-02T15:06:31.971Z</time></trkpt><trkpt lat="43.7558716" lon="6.3205164"><ele>828.0</ele><time>2026-05-02T15:06:33.971Z</time></trkpt><trkpt lat="43.7558431" lon="6.3204302"><ele>828.0</ele><time>2026-05-02T15:06:38.972Z</time></trkpt><trkpt lat="43.755925" lon="6.3203811"><ele>828.0</ele><time>2026-05-02T15:09:40.971Z</time></trkpt><trkpt lat="43.7560217" lon="6.3203304"><ele>828.0</ele><time>2026-05-02T15:09:42.972Z</time></trkpt><trkpt lat="43.756128" lon="6.320321"><ele>828.0</ele><time>2026-05-02T15:09:44.972Z</time></trkpt><trkpt lat="43.7561883" lon="6.3203694"><ele>828.0</ele><time>2026-05-02T15:09:45.971Z</time></trkpt><trkpt lat="43.7562441" lon="6.3204216"><ele>828.0</ele><time>2026-05-02T15:09:46.972Z</time></trkpt><trkpt lat="43.7563113" lon="6.3204689"><ele>828.0</ele><time>2026-05-02T15:09:47.971Z</time></trkpt><trkpt lat="43.7563776" lon="6.3205116"><ele>828.0</ele><time>2026-05-02T15:09:48.971Z</time></trkpt><trkpt lat="43.7564422" lon="6.3205525"><ele>828.0</ele><time>2026-05-02T15:09:49.972Z</time></trkpt><trkpt lat="43.756579" lon="6.3206328"><ele>828.0</ele><time>2026-05-02T15:09:51.972Z</time></trkpt><trkpt lat="43.7567139" lon="6.3206353"><ele>828.0</ele><time>2026-05-02T15:09:53.972Z</time></trkpt><trkpt lat="43.7567909" lon="6.3206689"><ele>828.0</ele><time>2026-05-02T15:09:54.972Z</time></trkpt><trkpt lat="43.7568618" lon="6.3207095"><ele>828.0</ele><time>2026-05-02T15:09:55.971Z</time></trkpt><trkpt lat="43.7569265" lon="6.3207381"><ele>828.0</ele><time>2026-05-02T15:09:56.972Z</time></trkpt><trkpt lat="43.757039" lon="6.3207868"><ele>828.0</ele><time>2026-05-02T15:09:57.972Z</time></trkpt><trkpt lat="43.7571269" lon="6.3207751"><ele>828.0</ele><time>2026-05-02T15:09:58.972Z</time></trkpt><trkpt lat="43.7572871" lon="6.3207645"><ele>827.4</ele><time>2026-05-02T15:09:59.972Z</time></trkpt><trkpt lat="43.7573949" lon="6.3207047"><ele>826.8</ele><time>2026-05-02T15:10:00.972Z</time></trkpt><trkpt lat="43.7574978" lon="6.3206555"><ele>826.2</ele><time>2026-05-02T15:10:01.972Z</time></trkpt><trkpt lat="43.7575932" lon="6.3206255"><ele>825.6</ele><time>2026-05-02T15:10:02.972Z</time></trkpt><trkpt lat="43.7576808" lon="6.3205753"><ele>825.0</ele><time>2026-05-02T15:10:03.972Z</time></trkpt><trkpt lat="43.7577843" lon="6.3205078"><ele>821.6</ele><time>2026-05-02T15:10:04.972Z</time></trkpt><trkpt lat="43.7578236" lon="6.3203609"><ele>818.2</ele><time>2026-05-02T15:10:05.972Z</time></trkpt><trkpt lat="43.7578764" lon="6.3202474"><ele>814.8</ele><time>2026-05-02T15:10:06.972Z</time></trkpt><trkpt lat="43.7579267" lon="6.3201595"><ele>811.4</ele><time>2026-05-02T15:10:07.972Z</time></trkpt><trkpt lat="43.7579998" lon="6.3200724"><ele>808.0</ele><time>2026-05-02T15:10:08.972Z</time></trkpt><trkpt lat="43.7580714" lon="6.3199662"><ele>808.0</ele><time>2026-05-02T15:10:09.972Z</time></trkpt><trkpt lat="43.758152" lon="6.3198657"><ele>808.0</ele><time>2026-05-02T15:10:10.972Z</time></trkpt><trkpt lat="43.7582287" lon="6.3198124"><ele>808.0</ele><time>2026-05-02T15:10:11.972Z</time></trkpt><trkpt lat="43.7583147" lon="6.3197115"><ele>808.0</ele><time>2026-05-02T15:10:12.972Z</time></trkpt><trkpt lat="43.7584021" lon="6.3196228"><ele>808.0</ele><time>2026-05-02T15:10:13.972Z</time></trkpt><trkpt lat="43.7585019" lon="6.3195502"><ele>801.8</ele><time>2026-05-02T15:10:14.972Z</time></trkpt><trkpt lat="43.7585981" lon="6.3194915"><ele>795.5999999999999</ele><time>2026-05-02T15:10:15.971Z</time></trkpt><trkpt lat="43.7587094" lon="6.3194792"><ele>789.4000000000001</ele><time>2026-05-02T15:10:16.972Z</time></trkpt><trkpt lat="43.7587802" lon="6.3195136"><ele>783.2</ele><time>2026-05-02T15:10:17.972Z</time></trkpt><trkpt lat="43.758864" lon="6.3195363"><ele>777.0</ele><time>2026-05-02T15:10:18.972Z</time></trkpt><trkpt lat="43.7589398" lon="6.3195657"><ele>777.0</ele><time>2026-05-02T15:10:19.972Z</time></trkpt><trkpt lat="43.7590165" lon="6.3196409"><ele>777.0</ele><time>2026-05-02T15:10:20.971Z</time></trkpt><trkpt lat="43.7590832" lon="6.3197124"><ele>777.0</ele><time>2026-05-02T15:10:21.972Z</time></trkpt><trkpt lat="43.7591605" lon="6.3197629"><ele>777.0</ele><time>2026-05-02T15:10:22.972Z</time></trkpt><trkpt lat="43.7592518" lon="6.3197885"><ele>777.0</ele><time>2026-05-02T15:10:23.972Z</time></trkpt><trkpt lat="43.7593432" lon="6.3198183"><ele>786.75</ele><time>2026-05-02T15:10:24.971Z</time></trkpt><trkpt lat="43.7594452" lon="6.3198431"><ele>796.5</ele><time>2026-05-02T15:10:25.972Z</time></trkpt><trkpt lat="43.7595358" lon="6.3197849"><ele>806.25</ele><time>2026-05-02T15:10:26.972Z</time></trkpt><trkpt lat="43.7596392" lon="6.3197358"><ele>816.0</ele><time>2026-05-02T15:10:27.972Z</time></trkpt><trkpt lat="43.759759" lon="6.3196312"><ele>816.0</ele><time>2026-05-02T15:10:28.971Z</time></trkpt><trkpt lat="43.7598253" lon="6.3194775"><ele>816.0</ele><time>2026-05-02T15:10:29.971Z</time></trkpt><trkpt lat="43.7598886" lon="6.3193614"><ele>816.0</ele><time>2026-05-02T15:10:30.972Z</time></trkpt><trkpt lat="43.7599401" lon="6.3192546"><ele>816.0</ele><time>2026-05-02T15:10:31.972Z</time></trkpt><trkpt lat="43.760001" lon="6.3191168"><ele>816.0</ele><time>2026-05-02T15:10:32.972Z</time></trkpt><trkpt lat="43.760027" lon="6.3189871"><ele>813.4</ele><time>2026-05-02T15:10:33.972Z</time></trkpt><trkpt lat="43.7600355" lon="6.3188644"><ele>810.8</ele><time>2026-05-02T15:10:34.972Z</time></trkpt><trkpt lat="43.7600068" lon="6.3187436"><ele>808.1999999999999</ele><time>2026-05-02T15:10:35.972Z</time></trkpt><trkpt lat="43.7599606" lon="6.3186003"><ele>805.5999999999999</ele><time>2026-05-02T15:10:36.972Z</time></trkpt><trkpt lat="43.7599402" lon="6.3184649"><ele>803.0</ele><time>2026-05-02T15:10:37.972Z</time></trkpt><trkpt lat="43.7599213" lon="6.3183325"><ele>803.0</ele><time>2026-05-02T15:10:38.972Z</time></trkpt><trkpt lat="43.7598972" lon="6.3182126"><ele>803.0</ele><time>2026-05-02T15:10:39.972Z</time></trkpt><trkpt lat="43.7598593" lon="6.3180936"><ele>803.0</ele><time>2026-05-02T15:10:40.971Z</time></trkpt><trkpt lat="43.7598233" lon="6.3179708"><ele>803.0</ele><time>2026-05-02T15:10:41.972Z</time></trkpt><trkpt lat="43.759762" lon="6.31784"><ele>803.0</ele><time>2026-05-02T15:10:42.971Z</time></trkpt><trkpt lat="43.7597306" lon="6.3177393"><ele>804.4</ele><time>2026-05-02T15:10:43.971Z</time></trkpt><trkpt lat="43.7596966" lon="6.3176289"><ele>805.8</ele><time>2026-05-02T15:10:44.972Z</time></trkpt><trkpt lat="43.7596704" lon="6.3174957"><ele>807.2</ele><time>2026-05-02T15:10:45.972Z</time></trkpt><trkpt lat="43.759663" lon="6.3173653"><ele>808.6</ele><time>2026-05-02T15:10:46.972Z</time></trkpt><trkpt lat="43.7596663" lon="6.3172432"><ele>810.0</ele><time>2026-05-02T15:10:47.972Z</time></trkpt><trkpt lat="43.7596735" lon="6.3171059"><ele>810.0</ele><time>2026-05-02T15:10:48.972Z</time></trkpt><trkpt lat="43.7597086" lon="6.3169774"><ele>810.0</ele><time>2026-05-02T15:10:49.972Z</time></trkpt><trkpt lat="43.7597457" lon="6.3168787"><ele>810.0</ele><time>2026-05-02T15:10:50.972Z</time></trkpt><trkpt lat="43.7598307" lon="6.3167509"><ele>810.0</ele><time>2026-05-02T15:10:51.972Z</time></trkpt><trkpt lat="43.7598923" lon="6.3166091"><ele>810.0</ele><time>2026-05-02T15:10:52.972Z</time></trkpt><trkpt lat="43.7599703" lon="6.3164862"><ele>806.6</ele><time>2026-05-02T15:10:53.972Z</time></trkpt><trkpt lat="43.7600497" lon="6.3163655"><ele>803.2</ele><time>2026-05-02T15:10:54.972Z</time></trkpt><trkpt lat="43.7601181" lon="6.3162375"><ele>799.8</ele><time>2026-05-02T15:10:55.972Z</time></trkpt><trkpt lat="43.7601888" lon="6.3161176"><ele>796.4</ele><time>2026-05-02T15:10:56.972Z</time></trkpt><trkpt lat="43.7602564" lon="6.3160252"><ele>793.0</ele><time>2026-05-02T15:10:57.972Z</time></trkpt><trkpt lat="43.7603197" lon="6.3159546"><ele>792.9999999999999</ele><time>2026-05-02T15:10:58.971Z</time></trkpt><trkpt lat="43.7603945" lon="6.3159245"><ele>793.0</ele><time>2026-05-02T15:10:59.972Z</time></trkpt><trkpt lat="43.760462" lon="6.3159252"><ele>793.0</ele><time>2026-05-02T15:11:00.972Z</time></trkpt><trkpt lat="43.7605411" lon="6.3159389"><ele>793.0</ele><time>2026-05-02T15:11:01.972Z</time></trkpt><trkpt lat="43.7606325" lon="6.3159766"><ele>792.9999999999999</ele><time>2026-05-02T15:11:02.972Z</time></trkpt><trkpt lat="43.7607361" lon="6.3160066"><ele>793.0</ele><time>2026-05-02T15:11:03.971Z</time></trkpt><trkpt lat="43.7608709" lon="6.3161204"><ele>793.0</ele><time>2026-05-02T15:11:04.972Z</time></trkpt><trkpt lat="43.7609812" lon="6.3161973"><ele>793.0</ele><time>2026-05-02T15:11:05.972Z</time></trkpt><trkpt lat="43.7610941" lon="6.3162719"><ele>793.0</ele><time>2026-05-02T15:11:06.972Z</time></trkpt><trkpt lat="43.7612165" lon="6.3163788"><ele>793.0</ele><time>2026-05-02T15:11:07.972Z</time></trkpt><trkpt lat="43.7613226" lon="6.3165231"><ele>797.5</ele><time>2026-05-02T15:11:08.972Z</time></trkpt><trkpt lat="43.7614151" lon="6.3166131"><ele>802.0</ele><time>2026-05-02T15:11:09.971Z</time></trkpt><trkpt lat="43.7615181" lon="6.3166857"><ele>806.5</ele><time>2026-05-02T15:11:10.972Z</time></trkpt><trkpt lat="43.7616232" lon="6.3167523"><ele>811.0</ele><time>2026-05-02T15:11:11.972Z</time></trkpt><trkpt lat="43.7617329" lon="6.3167897"><ele>810.25</ele><time>2026-05-02T15:11:12.972Z</time></trkpt><trkpt lat="43.7618806" lon="6.316826"><ele>809.5</ele><time>2026-05-02T15:11:13.972Z</time></trkpt><trkpt lat="43.7619808" lon="6.3168262"><ele>808.75</ele><time>2026-05-02T15:11:14.971Z</time></trkpt><trkpt lat="43.7620925" lon="6.3168218"><ele>808.0</ele><time>2026-05-02T15:11:15.972Z</time></trkpt><trkpt lat="43.7621918" lon="6.3167142"><ele>808.0</ele><time>2026-05-02T15:11:16.972Z</time></trkpt><trkpt lat="43.7622621" lon="6.3166392"><ele>808.0</ele><time>2026-05-02T15:11:17.971Z</time></trkpt><trkpt lat="43.7623528" lon="6.3165595"><ele>808.0</ele><time>2026-05-02T15:11:18.972Z</time></trkpt><trkpt lat="43.762442" lon="6.3165117"><ele>808.0</ele><time>2026-05-02T15:11:19.972Z</time></trkpt><trkpt lat="43.7625334" lon="6.3164857"><ele>808.0</ele><time>2026-05-02T15:11:20.972Z</time></trkpt><trkpt lat="43.7626147" lon="6.3164947"><ele>800.25</ele><time>2026-05-02T15:11:21.972Z</time></trkpt><trkpt lat="43.762706" lon="6.3165482"><ele>792.5</ele><time>2026-05-02T15:11:22.972Z</time></trkpt><trkpt lat="43.7627624" lon="6.3166152"><ele>784.75</ele><time>2026-05-02T15:11:23.972Z</time></trkpt><trkpt lat="43.7628225" lon="6.3168719"><ele>777.0</ele><time>2026-05-02T15:11:24.972Z</time></trkpt><trkpt lat="43.7628535" lon="6.3170098"><ele>777.0</ele><time>2026-05-02T15:11:25.972Z</time></trkpt><trkpt lat="43.7628976" lon="6.3171507"><ele>777.0</ele><time>2026-05-02T15:11:26.972Z</time></trkpt><trkpt lat="43.7629511" lon="6.3172869"><ele>777.0</ele><time>2026-05-02T15:11:27.972Z</time></trkpt><trkpt lat="43.7630312" lon="6.3174047"><ele>777.0</ele><time>2026-05-02T15:11:28.972Z</time></trkpt><trkpt lat="43.7631036" lon="6.3175028"><ele>777.0</ele><time>2026-05-02T15:11:29.972Z</time></trkpt><trkpt lat="43.7631696" lon="6.3175638"><ele>781.0</ele><time>2026-05-02T15:11:30.972Z</time></trkpt><trkpt lat="43.7632839" lon="6.3176147"><ele>785.0</ele><time>2026-05-02T15:11:31.972Z</time></trkpt><trkpt lat="43.7634047" lon="6.3176606"><ele>789.0</ele><time>2026-05-02T15:11:32.972Z</time></trkpt><trkpt lat="43.7635283" lon="6.3177173"><ele>793.0</ele><time>2026-05-02T15:11:33.972Z</time></trkpt><trkpt lat="43.7636911" lon="6.3178268"><ele>793.0</ele><time>2026-05-02T15:11:34.972Z</time></trkpt><trkpt lat="43.7638233" lon="6.3179608"><ele>793.0</ele><time>2026-05-02T15:11:35.971Z</time></trkpt><trkpt lat="43.7639099" lon="6.3180705"><ele>793.0</ele><time>2026-05-02T15:11:36.972Z</time></trkpt><trkpt lat="43.7640274" lon="6.3182223"><ele>793.0</ele><time>2026-05-02T15:11:37.971Z</time></trkpt><trkpt lat="43.7640951" lon="6.3183627"><ele>800.0</ele><time>2026-05-02T15:11:38.972Z</time></trkpt><trkpt lat="43.7641802" lon="6.3185264"><ele>807.0</ele><time>2026-05-02T15:11:39.972Z</time></trkpt><trkpt lat="43.7642405" lon="6.3186761"><ele>814.0</ele><time>2026-05-02T15:11:40.972Z</time></trkpt><trkpt lat="43.7642919" lon="6.3187782"><ele>821.0</ele><time>2026-05-02T15:11:41.972Z</time></trkpt><trkpt lat="43.7643485" lon="6.3188886"><ele>818.1999999999999</ele><time>2026-05-02T15:11:42.972Z</time></trkpt><trkpt lat="43.7644188" lon="6.3189907"><ele>815.4</ele><time>2026-05-02T15:11:43.972Z</time></trkpt><trkpt lat="43.7645035" lon="6.3190764"><ele>812.6</ele><time>2026-05-02T15:11:44.971Z</time></trkpt><trkpt lat="43.7645762" lon="6.3191564"><ele>809.8</ele><time>2026-05-02T15:11:45.972Z</time></trkpt><trkpt lat="43.7646307" lon="6.3192377"><ele>807.0</ele><time>2026-05-02T15:11:46.972Z</time></trkpt><trkpt lat="43.7646887" lon="6.3193218"><ele>807.0</ele><time>2026-05-02T15:11:47.972Z</time></trkpt><trkpt lat="43.7647289" lon="6.3193931"><ele>807.0</ele><time>2026-05-02T15:11:48.972Z</time></trkpt><trkpt lat="43.7647864" lon="6.3195289"><ele>807.0</ele><time>2026-05-02T15:11:49.972Z</time></trkpt><trkpt lat="43.764824" lon="6.3196639"><ele>807.0</ele><time>2026-05-02T15:11:50.971Z</time></trkpt><trkpt lat="43.764875" lon="6.3198128"><ele>807.0</ele><time>2026-05-02T15:11:51.972Z</time></trkpt><trkpt lat="43.7649143" lon="6.3199503"><ele>811.75</ele><time>2026-05-02T15:11:52.971Z</time></trkpt><trkpt lat="43.7649878" lon="6.320084"><ele>816.5</ele><time>2026-05-02T15:11:53.972Z</time></trkpt><trkpt lat="43.7650495" lon="6.320223"><ele>821.25</ele><time>2026-05-02T15:11:54.972Z</time></trkpt><trkpt lat="43.7651179" lon="6.3203625"><ele>826.0</ele><time>2026-05-02T15:11:55.972Z</time></trkpt><trkpt lat="43.7652083" lon="6.3205062"><ele>820.0</ele><time>2026-05-02T15:11:56.972Z</time></trkpt><trkpt lat="43.7652959" lon="6.3206284"><ele>814.0</ele><time>2026-05-02T15:11:57.972Z</time></trkpt><trkpt lat="43.7654076" lon="6.320813"><ele>808.0</ele><time>2026-05-02T15:11:58.972Z</time></trkpt><trkpt lat="43.7655591" lon="6.3209981"><ele>808.0</ele><time>2026-05-02T15:11:59.972Z</time></trkpt><trkpt lat="43.7656655" lon="6.3211566"><ele>808.0</ele><time>2026-05-02T15:12:00.972Z</time></trkpt><trkpt lat="43.7657643" lon="6.3212978"><ele>808.0</ele><time>2026-05-02T15:12:01.972Z</time></trkpt><trkpt lat="43.7658786" lon="6.3214672"><ele>808.0</ele><time>2026-05-02T15:12:02.971Z</time></trkpt><trkpt lat="43.7659775" lon="6.3216443"><ele>808.0</ele><time>2026-05-02T15:12:03.971Z</time></trkpt><trkpt lat="43.7660864" lon="6.3218185"><ele>808.0</ele><time>2026-05-02T15:12:04.972Z</time></trkpt><trkpt lat="43.7661763" lon="6.3219796"><ele>808.0</ele><time>2026-05-02T15:12:05.972Z</time></trkpt><trkpt lat="43.7662354" lon="6.3221916"><ele>808.0</ele><time>2026-05-02T15:12:06.972Z</time></trkpt><trkpt lat="43.7663335" lon="6.3223859"><ele>808.0</ele><time>2026-05-02T15:12:07.972Z</time></trkpt><trkpt lat="43.7664089" lon="6.3225635"><ele>810.75</ele><time>2026-05-02T15:12:08.972Z</time></trkpt><trkpt lat="43.7665053" lon="6.3227287"><ele>813.5</ele><time>2026-05-02T15:12:09.972Z</time></trkpt><trkpt lat="43.7665705" lon="6.322894"><ele>816.25</ele><time>2026-05-02T15:12:10.971Z</time></trkpt><trkpt lat="43.7666615" lon="6.3230725"><ele>819.0</ele><time>2026-05-02T15:12:11.972Z</time></trkpt><trkpt lat="43.7667346" lon="6.3232789"><ele>823.3333333333333</ele><time>2026-05-02T15:12:12.972Z</time></trkpt><trkpt lat="43.7668569" lon="6.3234626"><ele>827.6666666666666</ele><time>2026-05-02T15:12:13.972Z</time></trkpt><trkpt lat="43.7669246" lon="6.3236031"><ele>832.0</ele><time>2026-05-02T15:12:14.972Z</time></trkpt><trkpt lat="43.7670481" lon="6.3237524"><ele>832.0</ele><time>2026-05-02T15:12:15.972Z</time></trkpt><trkpt lat="43.7671645" lon="6.323884"><ele>832.0</ele><time>2026-05-02T15:12:16.972Z</time></trkpt><trkpt lat="43.7672571" lon="6.3240153"><ele>832.0</ele><time>2026-05-02T15:12:17.972Z</time></trkpt><trkpt lat="43.7673696" lon="6.3241394"><ele>832.0</ele><time>2026-05-02T15:12:18.971Z</time></trkpt><trkpt lat="43.7674092" lon="6.3242719"><ele>832.75</ele><time>2026-05-02T15:12:19.972Z</time></trkpt><trkpt lat="43.7673717" lon="6.3244023"><ele>833.5</ele><time>2026-05-02T15:12:20.972Z</time></trkpt><trkpt lat="43.7673875" lon="6.3245689"><ele>834.25</ele><time>2026-05-02T15:12:21.972Z</time></trkpt><trkpt lat="43.7674343" lon="6.3247297"><ele>835.0</ele><time>2026-05-02T15:12:22.972Z</time></trkpt><trkpt lat="43.7675394" lon="6.3249743"><ele>836.5</ele><time>2026-05-02T15:12:23.972Z</time></trkpt><trkpt lat="43.7675982" lon="6.3251141"><ele>838.0</ele><time>2026-05-02T15:12:24.972Z</time></trkpt><trkpt lat="43.7676468" lon="6.3252174"><ele>839.5</ele><time>2026-05-02T15:12:25.972Z</time></trkpt><trkpt lat="43.7676978" lon="6.3253656"><ele>841.0</ele><time>2026-05-02T15:12:26.972Z</time></trkpt><trkpt lat="43.7677729" lon="6.3255355"><ele>842.75</ele><time>2026-05-02T15:12:27.971Z</time></trkpt><trkpt lat="43.7678009" lon="6.3256832"><ele>844.5</ele><time>2026-05-02T15:12:28.971Z</time></trkpt><trkpt lat="43.7678174" lon="6.3258476"><ele>846.25</ele><time>2026-05-02T15:12:29.972Z</time></trkpt><trkpt lat="43.7678085" lon="6.3259911"><ele>848.0</ele><time>2026-05-02T15:12:30.972Z</time></trkpt><trkpt lat="43.7678037" lon="6.3261769"><ele>848.0</ele><time>2026-05-02T15:12:31.972Z</time></trkpt><trkpt lat="43.7678063" lon="6.3263771"><ele>848.0</ele><time>2026-05-02T15:12:32.972Z</time></trkpt><trkpt lat="43.7678108" lon="6.3265626"><ele>848.0</ele><time>2026-05-02T15:12:33.972Z</time></trkpt><trkpt lat="43.7678494" lon="6.3267184"><ele>848.0</ele><time>2026-05-02T15:12:34.971Z</time></trkpt><trkpt lat="43.7678969" lon="6.3268769"><ele>848.0</ele><time>2026-05-02T15:12:35.971Z</time></trkpt><trkpt lat="43.7679497" lon="6.3270137"><ele>848.0</ele><time>2026-05-02T15:12:36.972Z</time></trkpt><trkpt lat="43.7680102" lon="6.3271417"><ele>848.0</ele><time>2026-05-02T15:12:37.972Z</time></trkpt><trkpt lat="43.7680657" lon="6.3272827"><ele>848.0</ele><time>2026-05-02T15:12:38.972Z</time></trkpt><trkpt lat="43.7680651" lon="6.3274087"><ele>848.0</ele><time>2026-05-02T15:12:39.972Z</time></trkpt><trkpt lat="43.7680388" lon="6.3275308"><ele>848.4</ele><time>2026-05-02T15:12:40.971Z</time></trkpt><trkpt lat="43.7680289" lon="6.3276221"><ele>848.8</ele><time>2026-05-02T15:12:41.972Z</time></trkpt><trkpt lat="43.7679593" lon="6.3277688"><ele>849.2</ele><time>2026-05-02T15:12:42.972Z</time></trkpt><trkpt lat="43.7679135" lon="6.327897"><ele>849.6</ele><time>2026-05-02T15:12:43.972Z</time></trkpt><trkpt lat="43.7678625" lon="6.3279857"><ele>850.0</ele><time>2026-05-02T15:12:44.971Z</time></trkpt><trkpt lat="43.7678291" lon="6.3280914"><ele>850.0</ele><time>2026-05-02T15:12:46.972Z</time></trkpt><trkpt lat="43.7677452" lon="6.3280539"><ele>850.0</ele><time>2026-05-02T15:12:48.971Z</time></trkpt><trkpt lat="43.7679005" lon="6.3280509"><ele>850.0</ele><time>2026-05-02T15:12:50.972Z</time></trkpt><trkpt lat="43.7680169" lon="6.3280352"><ele>850.0</ele><time>2026-05-02T15:12:51.972Z</time></trkpt><trkpt lat="43.7680935" lon="6.3279789"><ele>850.0</ele><time>2026-05-02T15:12:52.972Z</time></trkpt><trkpt lat="43.7682034" lon="6.3278713"><ele>850.0</ele><time>2026-05-02T15:12:53.972Z</time></trkpt><trkpt lat="43.7683604" lon="6.3277814"><ele>850.0</ele><time>2026-05-02T15:12:54.972Z</time></trkpt><trkpt lat="43.7684233" lon="6.3277599"><ele>850.0</ele><time>2026-05-02T15:12:55.971Z</time></trkpt><trkpt lat="43.7685192" lon="6.3276713"><ele>850.0</ele><time>2026-05-02T15:12:57.972Z</time></trkpt><trkpt lat="43.7683681" lon="6.3279644"><ele>851.75</ele><time>2026-05-02T15:13:02.972Z</time></trkpt><trkpt lat="43.7683055" lon="6.3281386"><ele>853.5</ele><time>2026-05-02T15:13:03.972Z</time></trkpt><trkpt lat="43.7682517" lon="6.3282881"><ele>855.25</ele><time>2026-05-02T15:13:04.972Z</time></trkpt><trkpt lat="43.768198" lon="6.3284387"><ele>857.0</ele><time>2026-05-02T15:13:05.972Z</time></trkpt><trkpt lat="43.7681466" lon="6.328589"><ele>857.0</ele><time>2026-05-02T15:13:06.972Z</time></trkpt><trkpt lat="43.7681125" lon="6.3287518"><ele>857.0</ele><time>2026-05-02T15:13:07.972Z</time></trkpt><trkpt lat="43.768079" lon="6.3288886"><ele>857.0</ele><time>2026-05-02T15:13:08.972Z</time></trkpt><trkpt lat="43.7680432" lon="6.3290415"><ele>857.0</ele><time>2026-05-02T15:13:09.972Z</time></trkpt><trkpt lat="43.7680052" lon="6.3291779"><ele>857.0</ele><time>2026-05-02T15:13:10.971Z</time></trkpt><trkpt lat="43.7681121" lon="6.3293794"><ele>858.2</ele><time>2026-05-02T15:13:11.972Z</time></trkpt><trkpt lat="43.7681329" lon="6.3295215"><ele>859.4000000000001</ele><time>2026-05-02T15:13:12.972Z</time></trkpt><trkpt lat="43.7681945" lon="6.3296647"><ele>860.5999999999999</ele><time>2026-05-02T15:13:13.972Z</time></trkpt><trkpt lat="43.7682347" lon="6.3297944"><ele>861.8</ele><time>2026-05-02T15:13:14.972Z</time></trkpt><trkpt lat="43.7682582" lon="6.3298885"><ele>863.0</ele><time>2026-05-02T15:13:15.972Z</time></trkpt><trkpt lat="43.7683433" lon="6.330001"><ele>863.25</ele><time>2026-05-02T15:13:16.972Z</time></trkpt><trkpt lat="43.7684549" lon="6.3300852"><ele>863.5</ele><time>2026-05-02T15:13:17.972Z</time></trkpt><trkpt lat="43.7685446" lon="6.3301513"><ele>863.75</ele><time>2026-05-02T15:13:18.972Z</time></trkpt><trkpt lat="43.7686395" lon="6.3302774"><ele>864.0</ele><time>2026-05-02T15:13:19.972Z</time></trkpt><trkpt lat="43.7687308" lon="6.3303923"><ele>865.75</ele><time>2026-05-02T15:13:20.972Z</time></trkpt><trkpt lat="43.768835" lon="6.3304894"><ele>867.5</ele><time>2026-05-02T15:13:21.972Z</time></trkpt><trkpt lat="43.7689368" lon="6.3305823"><ele>869.25</ele><time>2026-05-02T15:13:22.972Z</time></trkpt><trkpt lat="43.7690846" lon="6.3306364"><ele>871.0</ele><time>2026-05-02T15:13:23.972Z</time></trkpt><trkpt lat="43.7692395" lon="6.3307023"><ele>871.0</ele><time>2026-05-02T15:13:24.972Z</time></trkpt><trkpt lat="43.7693486" lon="6.3307527"><ele>871.0</ele><time>2026-05-02T15:13:25.972Z</time></trkpt><trkpt lat="43.7694961" lon="6.3308395"><ele>871.0</ele><time>2026-05-02T15:13:26.972Z</time></trkpt><trkpt lat="43.7696541" lon="6.3309513"><ele>872.0</ele><time>2026-05-02T15:13:27.971Z</time></trkpt><trkpt lat="43.7697652" lon="6.3311175"><ele>873.0</ele><time>2026-05-02T15:13:28.972Z</time></trkpt><trkpt lat="43.7698758" lon="6.3312588"><ele>874.0</ele><time>2026-05-02T15:13:29.972Z</time></trkpt><trkpt lat="43.7699871" lon="6.3314354"><ele>874.0</ele><time>2026-05-02T15:13:30.972Z</time></trkpt><trkpt lat="43.7701188" lon="6.3315972"><ele>874.0</ele><time>2026-05-02T15:13:31.972Z</time></trkpt><trkpt lat="43.7702496" lon="6.3317304"><ele>874.0</ele><time>2026-05-02T15:13:32.972Z</time></trkpt><trkpt lat="43.7703395" lon="6.3318872"><ele>878.6666666666666</ele><time>2026-05-02T15:13:33.972Z</time></trkpt><trkpt lat="43.7704779" lon="6.332038"><ele>883.3333333333333</ele><time>2026-05-02T15:13:34.972Z</time></trkpt><trkpt lat="43.7706031" lon="6.3322231"><ele>888.0</ele><time>2026-05-02T15:13:35.972Z</time></trkpt><trkpt lat="43.7706944" lon="6.3324305"><ele>888.0</ele><time>2026-05-02T15:13:36.972Z</time></trkpt><trkpt lat="43.7707806" lon="6.3326008"><ele>888.0</ele><time>2026-05-02T15:13:37.972Z</time></trkpt><trkpt lat="43.7708781" lon="6.3327754"><ele>888.0</ele><time>2026-05-02T15:13:38.972Z</time></trkpt><trkpt lat="43.7709888" lon="6.3329359"><ele>889.5</ele><time>2026-05-02T15:13:39.972Z</time></trkpt><trkpt lat="43.7710799" lon="6.3330838"><ele>891.0</ele><time>2026-05-02T15:13:40.972Z</time></trkpt><trkpt lat="43.7712077" lon="6.3332322"><ele>892.5</ele><time>2026-05-02T15:13:41.972Z</time></trkpt><trkpt lat="43.7712898" lon="6.3333822"><ele>894.0</ele><time>2026-05-02T15:13:42.972Z</time></trkpt><trkpt lat="43.7713816" lon="6.3335535"><ele>894.0</ele><time>2026-05-02T15:13:43.972Z</time></trkpt><trkpt lat="43.7714143" lon="6.3337079"><ele>894.0000000000001</ele><time>2026-05-02T15:13:44.972Z</time></trkpt><trkpt lat="43.7714308" lon="6.3338586"><ele>894.0000000000001</ele><time>2026-05-02T15:13:45.972Z</time></trkpt><trkpt lat="43.7714718" lon="6.3339672"><ele>894.0</ele><time>2026-05-02T15:13:46.972Z</time></trkpt><trkpt lat="43.7714898" lon="6.3340889"><ele>894.0</ele><time>2026-05-02T15:13:47.972Z</time></trkpt><trkpt lat="43.7715197" lon="6.3342757"><ele>893.0</ele><time>2026-05-02T15:13:48.972Z</time></trkpt><trkpt lat="43.771561" lon="6.3344047"><ele>892.0000000000001</ele><time>2026-05-02T15:13:49.971Z</time></trkpt><trkpt lat="43.7716122" lon="6.334522"><ele>891.0000000000001</ele><time>2026-05-02T15:13:50.972Z</time></trkpt><trkpt lat="43.7717007" lon="6.3345764"><ele>890.0</ele><time>2026-05-02T15:13:51.972Z</time></trkpt><trkpt lat="43.771783" lon="6.3346285"><ele>889.0</ele><time>2026-05-02T15:13:52.971Z</time></trkpt><trkpt lat="43.7718843" lon="6.3346857"><ele>892.0</ele><time>2026-05-02T15:13:53.972Z</time></trkpt><trkpt lat="43.7719912" lon="6.3347757"><ele>895.0</ele><time>2026-05-02T15:13:54.971Z</time></trkpt><trkpt lat="43.7720665" lon="6.3349129"><ele>898.0</ele><time>2026-05-02T15:13:55.972Z</time></trkpt><trkpt lat="43.7721325" lon="6.3350422"><ele>901.0</ele><time>2026-05-02T15:13:56.971Z</time></trkpt><trkpt lat="43.7721963" lon="6.3352184"><ele>901.0</ele><time>2026-05-02T15:13:57.971Z</time></trkpt><trkpt lat="43.7722562" lon="6.3353802"><ele>901.0</ele><time>2026-05-02T15:13:58.972Z</time></trkpt><trkpt lat="43.772289" lon="6.3355434"><ele>901.0</ele><time>2026-05-02T15:13:59.972Z</time></trkpt><trkpt lat="43.7723248" lon="6.3356876"><ele>901.0</ele><time>2026-05-02T15:14:00.972Z</time></trkpt><trkpt lat="43.7723573" lon="6.3358257"><ele>901.9999999999999</ele><time>2026-05-02T15:14:01.972Z</time></trkpt><trkpt lat="43.7723871" lon="6.3359544"><ele>903.0</ele><time>2026-05-02T15:14:02.972Z</time></trkpt><trkpt lat="43.7724357" lon="6.3360294"><ele>904.0</ele><time>2026-05-02T15:14:03.972Z</time></trkpt><trkpt lat="43.772476" lon="6.3361052"><ele>905.0</ele><time>2026-05-02T15:14:04.972Z</time></trkpt><trkpt lat="43.7725668" lon="6.3360941"><ele>905.9999999999999</ele><time>2026-05-02T15:14:05.972Z</time></trkpt><trkpt lat="43.7726494" lon="6.3361364"><ele>907.0</ele><time>2026-05-02T15:14:06.971Z</time></trkpt><trkpt lat="43.7727398" lon="6.3361465"><ele>907.0</ele><time>2026-05-02T15:14:07.971Z</time></trkpt><trkpt lat="43.7728246" lon="6.3360855"><ele>907.0</ele><time>2026-05-02T15:14:08.971Z</time></trkpt><trkpt lat="43.7729087" lon="6.3359752"><ele>907.0</ele><time>2026-05-02T15:14:09.972Z</time></trkpt><trkpt lat="43.7729869" lon="6.335915"><ele>907.0</ele><time>2026-05-02T15:14:10.971Z</time></trkpt><trkpt lat="43.7730739" lon="6.3359245"><ele>907.0</ele><time>2026-05-02T15:14:11.972Z</time></trkpt><trkpt lat="43.7731597" lon="6.3359368"><ele>906.9999999999999</ele><time>2026-05-02T15:14:12.972Z</time></trkpt><trkpt lat="43.7732129" lon="6.3359925"><ele>907.0</ele><time>2026-05-02T15:14:13.972Z</time></trkpt><trkpt lat="43.7732618" lon="6.336103"><ele>907.0</ele><time>2026-05-02T15:14:14.972Z</time></trkpt><trkpt lat="43.7733177" lon="6.3362099"><ele>907.0</ele><time>2026-05-02T15:14:15.972Z</time></trkpt><trkpt lat="43.7733728" lon="6.3363022"><ele>906.9999999999999</ele><time>2026-05-02T15:14:16.972Z</time></trkpt><trkpt lat="43.7734249" lon="6.3364003"><ele>907.0</ele><time>2026-05-02T15:14:17.972Z</time></trkpt><trkpt lat="43.7734795" lon="6.3364906"><ele>908.8</ele><time>2026-05-02T15:14:18.971Z</time></trkpt><trkpt lat="43.7735381" lon="6.3365681"><ele>910.6</ele><time>2026-05-02T15:14:19.972Z</time></trkpt><trkpt lat="43.7735909" lon="6.3366359"><ele>912.3999999999999</ele><time>2026-05-02T15:14:20.972Z</time></trkpt><trkpt lat="43.7736578" lon="6.3366848"><ele>914.1999999999999</ele><time>2026-05-02T15:14:21.972Z</time></trkpt><trkpt lat="43.7737971" lon="6.3367415"><ele>916.0</ele><time>2026-05-02T15:14:22.972Z</time></trkpt><trkpt lat="43.7738923" lon="6.3368033"><ele>916.0</ele><time>2026-05-02T15:14:23.972Z</time></trkpt><trkpt lat="43.7740234" lon="6.336874"><ele>916.0</ele><time>2026-05-02T15:14:24.971Z</time></trkpt><trkpt lat="43.7741414" lon="6.3369222"><ele>916.0</ele><time>2026-05-02T15:14:25.972Z</time></trkpt><trkpt lat="43.7742469" lon="6.3369591"><ele>916.0</ele><time>2026-05-02T15:14:26.972Z</time></trkpt><trkpt lat="43.7743529" lon="6.337005"><ele>916.8333333333333</ele><time>2026-05-02T15:14:27.972Z</time></trkpt><trkpt lat="43.7744335" lon="6.3370365"><ele>917.6666666666666</ele><time>2026-05-02T15:14:28.972Z</time></trkpt><trkpt lat="43.7745127" lon="6.3370574"><ele>918.5</ele><time>2026-05-02T15:14:29.971Z</time></trkpt><trkpt lat="43.774586" lon="6.3370881"><ele>919.3333333333333</ele><time>2026-05-02T15:14:30.972Z</time></trkpt><trkpt lat="43.7746713" lon="6.3371306"><ele>920.1666666666666</ele><time>2026-05-02T15:14:31.972Z</time></trkpt><trkpt lat="43.7747592" lon="6.3371825"><ele>921.0</ele><time>2026-05-02T15:14:32.971Z</time></trkpt><trkpt lat="43.7748395" lon="6.3372413"><ele>921.0</ele><time>2026-05-02T15:14:33.971Z</time></trkpt><trkpt lat="43.77491" lon="6.3373122"><ele>920.9999999999999</ele><time>2026-05-02T15:14:34.972Z</time></trkpt><trkpt lat="43.7749603" lon="6.337392"><ele>920.9999999999999</ele><time>2026-05-02T15:14:35.972Z</time></trkpt><trkpt lat="43.7750019" lon="6.337546"><ele>921.0</ele><time>2026-05-02T15:14:36.972Z</time></trkpt><trkpt lat="43.7750209" lon="6.3376759"><ele>921.0</ele><time>2026-05-02T15:14:37.972Z</time></trkpt><trkpt lat="43.7749934" lon="6.3377977"><ele>921.0</ele><time>2026-05-02T15:14:38.972Z</time></trkpt><trkpt lat="43.7749315" lon="6.3379195"><ele>920.9999999999999</ele><time>2026-05-02T15:14:39.972Z</time></trkpt><trkpt lat="43.7748934" lon="6.338043"><ele>920.9999999999999</ele><time>2026-05-02T15:14:40.972Z</time></trkpt><trkpt lat="43.7748523" lon="6.338123"><ele>921.0</ele><time>2026-05-02T15:14:41.972Z</time></trkpt><trkpt lat="43.7747926" lon="6.3382238"><ele>921.0</ele><time>2026-05-02T15:14:42.972Z</time></trkpt><trkpt lat="43.7747464" lon="6.3383319"><ele>922.1999999999999</ele><time>2026-05-02T15:14:43.972Z</time></trkpt><trkpt lat="43.7747111" lon="6.3384434"><ele>923.3999999999999</ele><time>2026-05-02T15:14:44.972Z</time></trkpt><trkpt lat="43.7746584" lon="6.3385626"><ele>924.6</ele><time>2026-05-02T15:14:45.972Z</time></trkpt><trkpt lat="43.774616" lon="6.3386847"><ele>925.8</ele><time>2026-05-02T15:14:46.972Z</time></trkpt><trkpt lat="43.7745904" lon="6.3387991"><ele>927.0</ele><time>2026-05-02T15:14:47.972Z</time></trkpt><trkpt lat="43.7745623" lon="6.3389172"><ele>927.6</ele><time>2026-05-02T15:14:48.972Z</time></trkpt><trkpt lat="43.7745449" lon="6.3390314"><ele>928.2</ele><time>2026-05-02T15:14:49.972Z</time></trkpt><trkpt lat="43.7745356" lon="6.3391458"><ele>928.8</ele><time>2026-05-02T15:14:50.972Z</time></trkpt><trkpt lat="43.774539" lon="6.3393031"><ele>929.4</ele><time>2026-05-02T15:14:51.972Z</time></trkpt><trkpt lat="43.7745461" lon="6.3394506"><ele>930.0</ele><time>2026-05-02T15:14:52.972Z</time></trkpt><trkpt lat="43.7745638" lon="6.3396048"><ele>930.3333333333334</ele><time>2026-05-02T15:14:53.972Z</time></trkpt><trkpt lat="43.7745886" lon="6.3397503"><ele>930.6666666666667</ele><time>2026-05-02T15:14:54.972Z</time></trkpt><trkpt lat="43.7745988" lon="6.3398579"><ele>931.0</ele><time>2026-05-02T15:14:55.972Z</time></trkpt><trkpt lat="43.7746277" lon="6.3399685"><ele>931.3333333333334</ele><time>2026-05-02T15:14:56.972Z</time></trkpt><trkpt lat="43.774646" lon="6.3400738"><ele>931.6666666666667</ele><time>2026-05-02T15:14:57.972Z</time></trkpt><trkpt lat="43.7746787" lon="6.3401793"><ele>932.0</ele><time>2026-05-02T15:14:58.971Z</time></trkpt><trkpt lat="43.774727" lon="6.3402959"><ele>932.0000000000001</ele><time>2026-05-02T15:14:59.972Z</time></trkpt><trkpt lat="43.7747972" lon="6.3404136"><ele>932.0</ele><time>2026-05-02T15:15:00.971Z</time></trkpt><trkpt lat="43.774844" lon="6.3405113"><ele>932.0</ele><time>2026-05-02T15:15:01.972Z</time></trkpt><trkpt lat="43.7749042" lon="6.3406064"><ele>932.0</ele><time>2026-05-02T15:15:02.972Z</time></trkpt><trkpt lat="43.7749606" lon="6.3406817"><ele>932.0000000000001</ele><time>2026-05-02T15:15:03.971Z</time></trkpt><trkpt lat="43.775012" lon="6.3407674"><ele>932.0</ele><time>2026-05-02T15:15:04.972Z</time></trkpt><trkpt lat="43.7750966" lon="6.3409189"><ele>931.0</ele><time>2026-05-02T15:15:05.971Z</time></trkpt><trkpt lat="43.775177" lon="6.3410045"><ele>930.0</ele><time>2026-05-02T15:15:07.972Z</time></trkpt><trkpt lat="43.7752474" lon="6.3411041"><ele>929.0</ele><time>2026-05-02T15:15:09.971Z</time></trkpt><trkpt lat="43.7753531" lon="6.3411027"><ele>928.0</ele><time>2026-05-02T15:15:11.972Z</time></trkpt><trkpt lat="43.7754349" lon="6.341058"><ele>927.0</ele><time>2026-05-02T15:15:13.972Z</time></trkpt><trkpt lat="43.7754796" lon="6.3408654"><ele>927.0</ele><time>2026-05-02T15:15:15.972Z</time></trkpt><trkpt lat="43.7754391" lon="6.3406734"><ele>927.0</ele><time>2026-05-02T15:15:16.971Z</time></trkpt><trkpt lat="43.7754205" lon="6.3405082"><ele>927.0</ele><time>2026-05-02T15:15:17.971Z</time></trkpt><trkpt lat="43.7754156" lon="6.3403841"><ele>927.0</ele><time>2026-05-02T15:15:18.972Z</time></trkpt><trkpt lat="43.7753944" lon="6.3402475"><ele>927.0</ele><time>2026-05-02T15:15:19.972Z</time></trkpt><trkpt lat="43.7753669" lon="6.3401115"><ele>927.0</ele><time>2026-05-02T15:15:20.972Z</time></trkpt><trkpt lat="43.775351" lon="6.3399968"><ele>927.0</ele><time>2026-05-02T15:15:21.971Z</time></trkpt><trkpt lat="43.7753304" lon="6.3398943"><ele>927.0</ele><time>2026-05-02T15:15:22.971Z</time></trkpt><trkpt lat="43.7753159" lon="6.3398035"><ele>927.0</ele><time>2026-05-02T15:15:23.972Z</time></trkpt><trkpt lat="43.7753061" lon="6.3396508"><ele>927.0</ele><time>2026-05-02T15:15:25.972Z</time></trkpt><trkpt lat="43.7753267" lon="6.3395603"><ele>927.0</ele><time>2026-05-02T15:15:26.972Z</time></trkpt><trkpt lat="43.7753809" lon="6.3394607"><ele>927.0</ele><time>2026-05-02T15:15:28.972Z</time></trkpt><trkpt lat="43.7754611" lon="6.3396171"><ele>927.0</ele><time>2026-05-02T15:15:31.971Z</time></trkpt><trkpt lat="43.7754761" lon="6.3397444"><ele>927.0</ele><time>2026-05-02T15:15:32.971Z</time></trkpt><trkpt lat="43.7755081" lon="6.339864"><ele>927.0</ele><time>2026-05-02T15:15:33.972Z</time></trkpt><trkpt lat="43.775536" lon="6.3399994"><ele>927.0</ele><time>2026-05-02T15:15:34.972Z</time></trkpt><trkpt lat="43.7755823" lon="6.3401524"><ele>927.0</ele><time>2026-05-02T15:15:35.972Z</time></trkpt><trkpt lat="43.7756098" lon="6.3402973"><ele>927.0</ele><time>2026-05-02T15:15:36.972Z</time></trkpt><trkpt lat="43.775647" lon="6.3404321"><ele>927.0</ele><time>2026-05-02T15:15:37.972Z</time></trkpt><trkpt lat="43.7756762" lon="6.3405616"><ele>927.0</ele><time>2026-05-02T15:15:38.972Z</time></trkpt><trkpt lat="43.7757057" lon="6.3407026"><ele>926.4000000000001</ele><time>2026-05-02T15:15:39.972Z</time></trkpt><trkpt lat="43.7757332" lon="6.340839"><ele>925.8000000000001</ele><time>2026-05-02T15:15:40.972Z</time></trkpt><trkpt lat="43.7757636" lon="6.3409795"><ele>925.2</ele><time>2026-05-02T15:15:41.972Z</time></trkpt><trkpt lat="43.7757904" lon="6.3411095"><ele>924.6</ele><time>2026-05-02T15:15:42.972Z</time></trkpt><trkpt lat="43.7758294" lon="6.3412347"><ele>924.0</ele><time>2026-05-02T15:15:43.972Z</time></trkpt><trkpt lat="43.7758824" lon="6.3413587"><ele>923.0</ele><time>2026-05-02T15:15:44.972Z</time></trkpt><trkpt lat="43.7759646" lon="6.3414473"><ele>922.0000000000001</ele><time>2026-05-02T15:15:45.972Z</time></trkpt><trkpt lat="43.7760525" lon="6.3415337"><ele>921.0000000000001</ele><time>2026-05-02T15:15:46.972Z</time></trkpt><trkpt lat="43.7761488" lon="6.3415808"><ele>920.0</ele><time>2026-05-02T15:15:47.972Z</time></trkpt><trkpt lat="43.7762828" lon="6.3415891"><ele>919.0</ele><time>2026-05-02T15:15:48.972Z</time></trkpt><trkpt lat="43.7763952" lon="6.3416047"><ele>918.75</ele><time>2026-05-02T15:15:49.972Z</time></trkpt><trkpt lat="43.7765194" lon="6.3415976"><ele>918.5</ele><time>2026-05-02T15:15:50.972Z</time></trkpt><trkpt lat="43.7766434" lon="6.3415999"><ele>918.25</ele><time>2026-05-02T15:15:51.972Z</time></trkpt><trkpt lat="43.7767737" lon="6.3416087"><ele>918.0</ele><time>2026-05-02T15:15:52.972Z</time></trkpt><trkpt lat="43.776902" lon="6.3416019"><ele>918.0</ele><time>2026-05-02T15:15:53.972Z</time></trkpt><trkpt lat="43.7770261" lon="6.3416143"><ele>918.0</ele><time>2026-05-02T15:15:54.972Z</time></trkpt><trkpt lat="43.7771497" lon="6.3416169"><ele>918.0</ele><time>2026-05-02T15:15:55.971Z</time></trkpt><trkpt lat="43.7772441" lon="6.3416335"><ele>918.0</ele><time>2026-05-02T15:15:56.972Z</time></trkpt><trkpt lat="43.7773387" lon="6.3416504"><ele>918.0</ele><time>2026-05-02T15:15:57.972Z</time></trkpt><trkpt lat="43.7774168" lon="6.3416808"><ele>918.0</ele><time>2026-05-02T15:15:58.972Z</time></trkpt><trkpt lat="43.7775183" lon="6.3416923"><ele>918.0</ele><time>2026-05-02T15:15:59.972Z</time></trkpt><trkpt lat="43.7776249" lon="6.3417048"><ele>918.0</ele><time>2026-05-02T15:16:00.972Z</time></trkpt><trkpt lat="43.7777261" lon="6.3417187"><ele>918.0</ele><time>2026-05-02T15:16:01.972Z</time></trkpt><trkpt lat="43.7778226" lon="6.3417248"><ele>918.0</ele><time>2026-05-02T15:16:02.972Z</time></trkpt><trkpt lat="43.7779346" lon="6.3417369"><ele>918.4</ele><time>2026-05-02T15:16:03.972Z</time></trkpt><trkpt lat="43.7780367" lon="6.3417455"><ele>918.8</ele><time>2026-05-02T15:16:04.972Z</time></trkpt><trkpt lat="43.7781199" lon="6.3417458"><ele>919.2</ele><time>2026-05-02T15:16:05.971Z</time></trkpt><trkpt lat="43.7782125" lon="6.3417238"><ele>919.6</ele><time>2026-05-02T15:16:06.972Z</time></trkpt><trkpt lat="43.7782952" lon="6.3417061"><ele>920.0</ele><time>2026-05-02T15:16:07.972Z</time></trkpt><trkpt lat="43.7783854" lon="6.3417202"><ele>920.0000000000001</ele><time>2026-05-02T15:16:08.972Z</time></trkpt><trkpt lat="43.7784669" lon="6.3417223"><ele>920.0</ele><time>2026-05-02T15:16:09.972Z</time></trkpt><trkpt lat="43.7785386" lon="6.3417222"><ele>920.0</ele><time>2026-05-02T15:16:10.972Z</time></trkpt><trkpt lat="43.7786103" lon="6.3417277"><ele>920.0</ele><time>2026-05-02T15:16:11.972Z</time></trkpt><trkpt lat="43.7786776" lon="6.341713"><ele>920.0000000000001</ele><time>2026-05-02T15:16:12.972Z</time></trkpt><trkpt lat="43.778782" lon="6.3415996"><ele>920.0</ele><time>2026-05-02T15:16:14.972Z</time></trkpt><trkpt lat="43.7788314" lon="6.3414905"><ele>922.2</ele><time>2026-05-02T15:16:16.972Z</time></trkpt><trkpt lat="43.7788733" lon="6.3413783"><ele>924.4</ele><time>2026-05-02T15:16:19.972Z</time></trkpt><trkpt lat="43.7789171" lon="6.3412545"><ele>926.5999999999999</ele><time>2026-05-02T15:16:21.972Z</time></trkpt><trkpt lat="43.7789542" lon="6.3411402"><ele>928.8</ele><time>2026-05-02T15:16:23.972Z</time></trkpt><trkpt lat="43.7789942" lon="6.3410056"><ele>931.0</ele><time>2026-05-02T15:16:25.972Z</time></trkpt><trkpt lat="43.7790562" lon="6.3408753"><ele>930.9999999999999</ele><time>2026-05-02T15:16:27.972Z</time></trkpt><trkpt lat="43.7790933" lon="6.3407428"><ele>931.0</ele><time>2026-05-02T15:16:29.972Z</time></trkpt><trkpt lat="43.7791477" lon="6.340616"><ele>931.0</ele><time>2026-05-02T15:16:31.972Z</time></trkpt><trkpt lat="43.7791902" lon="6.3405145"><ele>931.0</ele><time>2026-05-02T15:16:33.972Z</time></trkpt><trkpt lat="43.779257" lon="6.3404363"><ele>930.9999999999999</ele><time>2026-05-02T15:16:36.972Z</time></trkpt><trkpt lat="43.779321" lon="6.3404144"><ele>931.0</ele><time>2026-05-02T15:16:41.972Z</time></trkpt><trkpt lat="43.77948" lon="6.3403636"><ele>931.6666666666666</ele><time>2026-05-02T15:18:04.971Z</time></trkpt><trkpt lat="43.7795439" lon="6.3403187"><ele>932.3333333333333</ele><time>2026-05-02T15:18:05.972Z</time></trkpt><trkpt lat="43.7796481" lon="6.3402497"><ele>933.0</ele><time>2026-05-02T15:18:07.971Z</time></trkpt><trkpt lat="43.7797099" lon="6.3402231"><ele>933.6666666666667</ele><time>2026-05-02T15:18:08.972Z</time></trkpt><trkpt lat="43.779779" lon="6.3402142"><ele>934.3333333333334</ele><time>2026-05-02T15:18:09.972Z</time></trkpt><trkpt lat="43.7798335" lon="6.3402643"><ele>935.0</ele><time>2026-05-02T15:18:10.972Z</time></trkpt><trkpt lat="43.7798871" lon="6.3403323"><ele>935.0</ele><time>2026-05-02T15:18:13.971Z</time></trkpt><trkpt lat="43.7798745" lon="6.3404482"><ele>935.0</ele><time>2026-05-02T15:18:15.972Z</time></trkpt><trkpt lat="43.7798796" lon="6.3405785"><ele>935.0</ele><time>2026-05-02T15:18:17.972Z</time></trkpt><trkpt lat="43.7798767" lon="6.3407147"><ele>935.0</ele><time>2026-05-02T15:18:18.972Z</time></trkpt><trkpt lat="43.7798951" lon="6.3408773"><ele>935.0</ele><time>2026-05-02T15:18:20.972Z</time></trkpt><trkpt lat="43.7799152" lon="6.3410086"><ele>935.25</ele><time>2026-05-02T15:18:22.972Z</time></trkpt><trkpt lat="43.7799731" lon="6.341111"><ele>935.5</ele><time>2026-05-02T15:18:23.971Z</time></trkpt><trkpt lat="43.7800244" lon="6.3412228"><ele>935.75</ele><time>2026-05-02T15:18:24.972Z</time></trkpt><trkpt lat="43.7800925" lon="6.3414037"><ele>936.0</ele><time>2026-05-02T15:18:26.971Z</time></trkpt><trkpt lat="43.7801521" lon="6.3415861"><ele>935.5999999999999</ele><time>2026-05-02T15:18:28.972Z</time></trkpt><trkpt lat="43.7801751" lon="6.3416954"><ele>935.1999999999999</ele><time>2026-05-02T15:18:29.972Z</time></trkpt><trkpt lat="43.7802131" lon="6.3418003"><ele>934.8000000000001</ele><time>2026-05-02T15:18:30.972Z</time></trkpt><trkpt lat="43.7802267" lon="6.3418963"><ele>934.4000000000001</ele><time>2026-05-02T15:18:31.972Z</time></trkpt><trkpt lat="43.7802765" lon="6.3420766"><ele>934.0</ele><time>2026-05-02T15:18:33.972Z</time></trkpt><trkpt lat="43.7802785" lon="6.3421827"><ele>932.1666666666666</ele><time>2026-05-02T15:18:34.972Z</time></trkpt><trkpt lat="43.7802876" lon="6.3422786"><ele>930.3333333333333</ele><time>2026-05-02T15:18:35.972Z</time></trkpt><trkpt lat="43.7802986" lon="6.3423838"><ele>928.5</ele><time>2026-05-02T15:18:36.972Z</time></trkpt><trkpt lat="43.7803532" lon="6.3425218"><ele>926.6666666666667</ele><time>2026-05-02T15:18:37.972Z</time></trkpt><trkpt lat="43.780354" lon="6.342622"><ele>924.8333333333334</ele><time>2026-05-02T15:18:38.972Z</time></trkpt><trkpt lat="43.7803529" lon="6.342738"><ele>923.0</ele><time>2026-05-02T15:18:39.971Z</time></trkpt><trkpt lat="43.7804006" lon="6.3428317"><ele>923.0</ele><time>2026-05-02T15:18:40.971Z</time></trkpt><trkpt lat="43.7804354" lon="6.3429202"><ele>923.0</ele><time>2026-05-02T15:18:41.972Z</time></trkpt><trkpt lat="43.7804886" lon="6.3430062"><ele>923.0</ele><time>2026-05-02T15:18:42.972Z</time></trkpt><trkpt lat="43.7805551" lon="6.3431315"><ele>923.0</ele><time>2026-05-02T15:18:43.972Z</time></trkpt><trkpt lat="43.7807034" lon="6.343299"><ele>921.3333333333334</ele><time>2026-05-02T15:18:44.972Z</time></trkpt><trkpt lat="43.7808234" lon="6.3434547"><ele>919.6666666666667</ele><time>2026-05-02T15:18:45.972Z</time></trkpt><trkpt lat="43.7809258" lon="6.3436379"><ele>918.0</ele><time>2026-05-02T15:18:46.972Z</time></trkpt><trkpt lat="43.7810329" lon="6.3438076"><ele>915.3333333333333</ele><time>2026-05-02T15:18:47.972Z</time></trkpt><trkpt lat="43.7811502" lon="6.3439729"><ele>912.6666666666666</ele><time>2026-05-02T15:18:48.971Z</time></trkpt><trkpt lat="43.7812615" lon="6.3441348"><ele>910.0</ele><time>2026-05-02T15:18:49.972Z</time></trkpt><trkpt lat="43.7813541" lon="6.3442781"><ele>910.0</ele><time>2026-05-02T15:18:50.971Z</time></trkpt><trkpt lat="43.7814601" lon="6.3444133"><ele>910.0</ele><time>2026-05-02T15:18:51.972Z</time></trkpt><trkpt lat="43.7815953" lon="6.3445526"><ele>910.0</ele><time>2026-05-02T15:18:52.972Z</time></trkpt><trkpt lat="43.7816977" lon="6.3446824"><ele>909.5</ele><time>2026-05-02T15:18:53.972Z</time></trkpt><trkpt lat="43.7817916" lon="6.3448115"><ele>909.0</ele><time>2026-05-02T15:18:54.972Z</time></trkpt><trkpt lat="43.7818959" lon="6.3449354"><ele>908.5</ele><time>2026-05-02T15:18:55.972Z</time></trkpt><trkpt lat="43.7819756" lon="6.3450625"><ele>908.0</ele><time>2026-05-02T15:18:56.972Z</time></trkpt><trkpt lat="43.7820418" lon="6.345233"><ele>909.25</ele><time>2026-05-02T15:18:57.972Z</time></trkpt><trkpt lat="43.7820845" lon="6.3453825"><ele>910.5</ele><time>2026-05-02T15:18:58.972Z</time></trkpt><trkpt lat="43.782105" lon="6.3455777"><ele>911.75</ele><time>2026-05-02T15:18:59.972Z</time></trkpt><trkpt lat="43.7821113" lon="6.3457934"><ele>913.0</ele><time>2026-05-02T15:19:00.971Z</time></trkpt><trkpt lat="43.7820454" lon="6.3459608"><ele>913.0</ele><time>2026-05-02T15:19:01.972Z</time></trkpt><trkpt lat="43.7819987" lon="6.3461275"><ele>913.0</ele><time>2026-05-02T15:19:02.972Z</time></trkpt><trkpt lat="43.7818235" lon="6.3463834"><ele>913.0</ele><time>2026-05-02T15:19:03.972Z</time></trkpt><trkpt lat="43.7817015" lon="6.3465869"><ele>910.6666666666666</ele><time>2026-05-02T15:19:04.972Z</time></trkpt><trkpt lat="43.7815782" lon="6.3467857"><ele>908.3333333333333</ele><time>2026-05-02T15:19:05.971Z</time></trkpt><trkpt lat="43.7814566" lon="6.3469748"><ele>906.0</ele><time>2026-05-02T15:19:06.972Z</time></trkpt><trkpt lat="43.7813494" lon="6.3471745"><ele>906.6666666666667</ele><time>2026-05-02T15:19:07.972Z</time></trkpt><trkpt lat="43.7812504" lon="6.3473683"><ele>907.3333333333334</ele><time>2026-05-02T15:19:08.971Z</time></trkpt><trkpt lat="43.7811648" lon="6.3475894"><ele>908.0</ele><time>2026-05-02T15:19:09.972Z</time></trkpt><trkpt lat="43.7810846" lon="6.3478156"><ele>907.3333333333334</ele><time>2026-05-02T15:19:10.972Z</time></trkpt><trkpt lat="43.7809793" lon="6.3480238"><ele>906.6666666666667</ele><time>2026-05-02T15:19:11.971Z</time></trkpt><trkpt lat="43.7808777" lon="6.3482398"><ele>906.0</ele><time>2026-05-02T15:19:12.971Z</time></trkpt><trkpt lat="43.7807969" lon="6.3484623"><ele>906.0</ele><time>2026-05-02T15:19:13.972Z</time></trkpt><trkpt lat="43.7807202" lon="6.3486826"><ele>906.0</ele><time>2026-05-02T15:19:14.971Z</time></trkpt><trkpt lat="43.7806477" lon="6.3488971"><ele>906.0</ele><time>2026-05-02T15:19:15.972Z</time></trkpt><trkpt lat="43.7805582" lon="6.3491147"><ele>905.3333333333333</ele><time>2026-05-02T15:19:16.972Z</time></trkpt><trkpt lat="43.780482" lon="6.3493293"><ele>904.6666666666666</ele><time>2026-05-02T15:19:17.972Z</time></trkpt><trkpt lat="43.780428" lon="6.3495707"><ele>904.0</ele><time>2026-05-02T15:19:18.972Z</time></trkpt><trkpt lat="43.7803896" lon="6.3498007"><ele>904.0</ele><time>2026-05-02T15:19:19.972Z</time></trkpt><trkpt lat="43.7803584" lon="6.3500428"><ele>904.0</ele><time>2026-05-02T15:19:20.972Z</time></trkpt><trkpt lat="43.7803424" lon="6.3503044"><ele>904.0</ele><time>2026-05-02T15:19:21.972Z</time></trkpt><trkpt lat="43.7803297" lon="6.3505653"><ele>902.6666666666666</ele><time>2026-05-02T15:19:22.972Z</time></trkpt><trkpt lat="43.7803175" lon="6.3508266"><ele>901.3333333333333</ele><time>2026-05-02T15:19:23.972Z</time></trkpt><trkpt lat="43.7802985" lon="6.3510872"><ele>900.0</ele><time>2026-05-02T15:19:24.971Z</time></trkpt><trkpt lat="43.7802925" lon="6.3513513"><ele>900.3333333333333</ele><time>2026-05-02T15:19:25.972Z</time></trkpt><trkpt lat="43.7802862" lon="6.3515994"><ele>900.6666666666666</ele><time>2026-05-02T15:19:26.972Z</time></trkpt><trkpt lat="43.7802808" lon="6.3518514"><ele>901.0</ele><time>2026-05-02T15:19:27.972Z</time></trkpt><trkpt lat="43.7802768" lon="6.352099"><ele>899.6666666666666</ele><time>2026-05-02T15:19:28.971Z</time></trkpt><trkpt lat="43.780263" lon="6.3523491"><ele>898.3333333333333</ele><time>2026-05-02T15:19:29.972Z</time></trkpt><trkpt lat="43.7802589" lon="6.3525927"><ele>897.0</ele><time>2026-05-02T15:19:30.972Z</time></trkpt><trkpt lat="43.7802553" lon="6.3528385"><ele>896.0</ele><time>2026-05-02T15:19:31.972Z</time></trkpt><trkpt lat="43.7802339" lon="6.3530912"><ele>895.0</ele><time>2026-05-02T15:19:32.972Z</time></trkpt><trkpt lat="43.7802191" lon="6.3533449"><ele>894.0</ele><time>2026-05-02T15:19:33.972Z</time></trkpt><trkpt lat="43.7802124" lon="6.3535988"><ele>894.0</ele><time>2026-05-02T15:19:34.972Z</time></trkpt><trkpt lat="43.7802076" lon="6.3538557"><ele>894.0</ele><time>2026-05-02T15:19:35.972Z</time></trkpt><trkpt lat="43.7801981" lon="6.3540945"><ele>894.0</ele><time>2026-05-02T15:19:36.972Z</time></trkpt><trkpt lat="43.7801791" lon="6.3543171"><ele>891.0</ele><time>2026-05-02T15:19:37.972Z</time></trkpt><trkpt lat="43.7801685" lon="6.35454"><ele>888.0</ele><time>2026-05-02T15:19:38.972Z</time></trkpt><trkpt lat="43.7801644" lon="6.35474"><ele>885.0</ele><time>2026-05-02T15:19:39.971Z</time></trkpt><trkpt lat="43.7801559" lon="6.3549509"><ele>885.0</ele><time>2026-05-02T15:19:40.972Z</time></trkpt><trkpt lat="43.7801751" lon="6.3551598"><ele>885.0</ele><time>2026-05-02T15:19:41.972Z</time></trkpt><trkpt lat="43.780201" lon="6.3553697"><ele>885.0</ele><time>2026-05-02T15:19:42.971Z</time></trkpt><trkpt lat="43.7802307" lon="6.3555716"><ele>884.6666666666667</ele><time>2026-05-02T15:19:43.972Z</time></trkpt><trkpt lat="43.7802951" lon="6.3557744"><ele>884.3333333333334</ele><time>2026-05-02T15:19:44.972Z</time></trkpt><trkpt lat="43.7803382" lon="6.3559653"><ele>884.0</ele><time>2026-05-02T15:19:45.971Z</time></trkpt><trkpt lat="43.780388" lon="6.3561617"><ele>884.0</ele><time>2026-05-02T15:19:46.971Z</time></trkpt><trkpt lat="43.7804276" lon="6.3563641"><ele>884.0</ele><time>2026-05-02T15:19:47.972Z</time></trkpt><trkpt lat="43.7804713" lon="6.3565678"><ele>884.0</ele><time>2026-05-02T15:19:48.972Z</time></trkpt><trkpt lat="43.7805059" lon="6.356789"><ele>883.0</ele><time>2026-05-02T15:19:49.972Z</time></trkpt><trkpt lat="43.7805803" lon="6.3570003"><ele>882.0</ele><time>2026-05-02T15:19:50.972Z</time></trkpt><trkpt lat="43.7806437" lon="6.3572042"><ele>881.0</ele><time>2026-05-02T15:19:51.972Z</time></trkpt><trkpt lat="43.7806752" lon="6.3574245"><ele>879.3333333333334</ele><time>2026-05-02T15:19:52.971Z</time></trkpt><trkpt lat="43.7807502" lon="6.3576782"><ele>877.6666666666667</ele><time>2026-05-02T15:19:53.972Z</time></trkpt><trkpt lat="43.7807984" lon="6.3579003"><ele>876.0</ele><time>2026-05-02T15:19:54.972Z</time></trkpt><trkpt lat="43.7808501" lon="6.3581264"><ele>876.0</ele><time>2026-05-02T15:19:55.972Z</time></trkpt><trkpt lat="43.7809074" lon="6.358346"><ele>876.0</ele><time>2026-05-02T15:19:56.972Z</time></trkpt><trkpt lat="43.7809585" lon="6.3585735"><ele>876.0</ele><time>2026-05-02T15:19:57.972Z</time></trkpt><trkpt lat="43.7810192" lon="6.3588008"><ele>873.0</ele><time>2026-05-02T15:19:58.971Z</time></trkpt><trkpt lat="43.7810758" lon="6.3590151"><ele>870.0</ele><time>2026-05-02T15:19:59.972Z</time></trkpt><trkpt lat="43.7811376" lon="6.3592418"><ele>867.0</ele><time>2026-05-02T15:20:00.972Z</time></trkpt><trkpt lat="43.7811968" lon="6.3594673"><ele>867.0</ele><time>2026-05-02T15:20:01.972Z</time></trkpt><trkpt lat="43.7812665" lon="6.359691"><ele>867.0</ele><time>2026-05-02T15:20:02.972Z</time></trkpt><trkpt lat="43.7813409" lon="6.3599251"><ele>867.0</ele><time>2026-05-02T15:20:03.972Z</time></trkpt><trkpt lat="43.7814149" lon="6.3601554"><ele>867.6666666666667</ele><time>2026-05-02T15:20:04.972Z</time></trkpt><trkpt lat="43.781492" lon="6.3603736"><ele>868.3333333333334</ele><time>2026-05-02T15:20:05.971Z</time></trkpt><trkpt lat="43.781557" lon="6.3605894"><ele>869.0</ele><time>2026-05-02T15:20:06.972Z</time></trkpt><trkpt lat="43.7816393" lon="6.3608189"><ele>869.0</ele><time>2026-05-02T15:20:07.971Z</time></trkpt><trkpt lat="43.7816942" lon="6.361029"><ele>869.0</ele><time>2026-05-02T15:20:08.972Z</time></trkpt><trkpt lat="43.7817601" lon="6.3612516"><ele>869.0</ele><time>2026-05-02T15:20:09.972Z</time></trkpt><trkpt lat="43.7818324" lon="6.361465"><ele>863.3333333333334</ele><time>2026-05-02T15:20:10.972Z</time></trkpt><trkpt lat="43.78191" lon="6.3616811"><ele>857.6666666666667</ele><time>2026-05-02T15:20:11.971Z</time></trkpt><trkpt lat="43.7819717" lon="6.3618917"><ele>852.0</ele><time>2026-05-02T15:20:12.972Z</time></trkpt><trkpt lat="43.7820258" lon="6.3620905"><ele>851.0</ele><time>2026-05-02T15:20:13.971Z</time></trkpt><trkpt lat="43.7820757" lon="6.3622939"><ele>850.0</ele><time>2026-05-02T15:20:14.972Z</time></trkpt><trkpt lat="43.7821189" lon="6.3625396"><ele>849.0</ele><time>2026-05-02T15:20:15.971Z</time></trkpt><trkpt lat="43.7821418" lon="6.3627663"><ele>849.0</ele><time>2026-05-02T15:20:16.972Z</time></trkpt><trkpt lat="43.7821549" lon="6.3629836"><ele>849.0</ele><time>2026-05-02T15:20:17.972Z</time></trkpt><trkpt lat="43.7821816" lon="6.3632045"><ele>849.0</ele><time>2026-05-02T15:20:18.972Z</time></trkpt><trkpt lat="43.7822076" lon="6.3634363"><ele>848.3333333333333</ele><time>2026-05-02T15:20:19.972Z</time></trkpt><trkpt lat="43.7822205" lon="6.3636497"><ele>847.6666666666666</ele><time>2026-05-02T15:20:20.972Z</time></trkpt><trkpt lat="43.7822343" lon="6.3638658"><ele>847.0</ele><time>2026-05-02T15:20:21.971Z</time></trkpt><trkpt lat="43.7822467" lon="6.3640941"><ele>846.3333333333333</ele><time>2026-05-02T15:20:22.972Z</time></trkpt><trkpt lat="43.7822721" lon="6.3643076"><ele>845.6666666666667</ele><time>2026-05-02T15:20:23.972Z</time></trkpt><trkpt lat="43.7823227" lon="6.364525"><ele>845.0</ele><time>2026-05-02T15:20:24.971Z</time></trkpt><trkpt lat="43.7823871" lon="6.3647467"><ele>847.0</ele><time>2026-05-02T15:20:25.972Z</time></trkpt><trkpt lat="43.7824474" lon="6.3649622"><ele>849.0</ele><time>2026-05-02T15:20:26.972Z</time></trkpt><trkpt lat="43.7825019" lon="6.365171"><ele>851.0</ele><time>2026-05-02T15:20:27.972Z</time></trkpt><trkpt lat="43.7825711" lon="6.3653951"><ele>854.6666666666667</ele><time>2026-05-02T15:20:28.972Z</time></trkpt><trkpt lat="43.7826425" lon="6.3656221"><ele>858.3333333333333</ele><time>2026-05-02T15:20:29.972Z</time></trkpt><trkpt lat="43.7827201" lon="6.365846"><ele>862.0</ele><time>2026-05-02T15:20:30.972Z</time></trkpt><trkpt lat="43.7828008" lon="6.366062"><ele>853.0</ele><time>2026-05-02T15:20:31.972Z</time></trkpt><trkpt lat="43.782884" lon="6.3662786"><ele>844.0</ele><time>2026-05-02T15:20:32.972Z</time></trkpt><trkpt lat="43.7829744" lon="6.3664978"><ele>835.0</ele><time>2026-05-02T15:20:33.972Z</time></trkpt><trkpt lat="43.7830698" lon="6.3667211"><ele>835.0</ele><time>2026-05-02T15:20:34.971Z</time></trkpt><trkpt lat="43.7831673" lon="6.3669498"><ele>835.0</ele><time>2026-05-02T15:20:35.972Z</time></trkpt><trkpt lat="43.7832804" lon="6.3671791"><ele>835.0</ele><time>2026-05-02T15:20:36.972Z</time></trkpt><trkpt lat="43.7833624" lon="6.3674079"><ele>837.6666666666666</ele><time>2026-05-02T15:20:37.972Z</time></trkpt><trkpt lat="43.7834515" lon="6.3676468"><ele>840.3333333333333</ele><time>2026-05-02T15:20:38.972Z</time></trkpt><trkpt lat="43.7835255" lon="6.3678813"><ele>843.0</ele><time>2026-05-02T15:20:39.972Z</time></trkpt><trkpt lat="43.7836042" lon="6.3681074"><ele>835.6666666666667</ele><time>2026-05-02T15:20:40.972Z</time></trkpt><trkpt lat="43.7836967" lon="6.3683141"><ele>828.3333333333334</ele><time>2026-05-02T15:20:41.972Z</time></trkpt><trkpt lat="43.7838059" lon="6.3685431"><ele>821.0</ele><time>2026-05-02T15:20:42.972Z</time></trkpt><trkpt lat="43.7839044" lon="6.368759"><ele>823.3333333333334</ele><time>2026-05-02T15:20:43.972Z</time></trkpt><trkpt lat="43.783996" lon="6.3689898"><ele>825.6666666666667</ele><time>2026-05-02T15:20:44.972Z</time></trkpt><trkpt lat="43.7840789" lon="6.3692007"><ele>828.0</ele><time>2026-05-02T15:20:45.972Z</time></trkpt><trkpt lat="43.7841533" lon="6.3694244"><ele>828.0</ele><time>2026-05-02T15:20:46.972Z</time></trkpt><trkpt lat="43.7842328" lon="6.3696397"><ele>828.0</ele><time>2026-05-02T15:20:47.972Z</time></trkpt><trkpt lat="43.7843155" lon="6.3698529"><ele>828.0</ele><time>2026-05-02T15:20:48.972Z</time></trkpt><trkpt lat="43.784395" lon="6.3700619"><ele>823.6666666666667</ele><time>2026-05-02T15:20:49.972Z</time></trkpt><trkpt lat="43.7844834" lon="6.3702551"><ele>819.3333333333334</ele><time>2026-05-02T15:20:50.972Z</time></trkpt><trkpt lat="43.7845842" lon="6.3704452"><ele>815.0</ele><time>2026-05-02T15:20:51.972Z</time></trkpt><trkpt lat="43.7846825" lon="6.3706251"><ele>815.0</ele><time>2026-05-02T15:20:52.972Z</time></trkpt><trkpt lat="43.7847702" lon="6.370806"><ele>815.0</ele><time>2026-05-02T15:20:53.972Z</time></trkpt><trkpt lat="43.7848634" lon="6.3709724"><ele>815.0</ele><time>2026-05-02T15:20:54.972Z</time></trkpt><trkpt lat="43.7849783" lon="6.3711275"><ele>815.0</ele><time>2026-05-02T15:20:55.971Z</time></trkpt><trkpt lat="43.7851006" lon="6.3712732"><ele>815.0</ele><time>2026-05-02T15:20:56.972Z</time></trkpt><trkpt lat="43.7851969" lon="6.3714271"><ele>815.0</ele><time>2026-05-02T15:20:57.972Z</time></trkpt><trkpt lat="43.785295" lon="6.371563"><ele>815.0</ele><time>2026-05-02T15:20:58.971Z</time></trkpt><trkpt lat="43.7853673" lon="6.3716525"><ele>813.4</ele><time>2026-05-02T15:20:59.972Z</time></trkpt><trkpt lat="43.7854708" lon="6.3717269"><ele>811.8</ele><time>2026-05-02T15:21:00.971Z</time></trkpt><trkpt lat="43.7855556" lon="6.3717405"><ele>810.2</ele><time>2026-05-02T15:21:01.972Z</time></trkpt><trkpt lat="43.785658" lon="6.3717832"><ele>808.6</ele><time>2026-05-02T15:21:02.972Z</time></trkpt><trkpt lat="43.7857689" lon="6.3717902"><ele>807.0</ele><time>2026-05-02T15:21:03.971Z</time></trkpt><trkpt lat="43.7858631" lon="6.3717528"><ele>807.0</ele><time>2026-05-02T15:21:04.971Z</time></trkpt><trkpt lat="43.7859339" lon="6.3716874"><ele>807.0</ele><time>2026-05-02T15:21:05.972Z</time></trkpt><trkpt lat="43.7860039" lon="6.3716577"><ele>807.0</ele><time>2026-05-02T15:21:06.972Z</time></trkpt><trkpt lat="43.7860647" lon="6.371708"><ele>807.0</ele><time>2026-05-02T15:21:07.972Z</time></trkpt><trkpt lat="43.7861251" lon="6.3719436"><ele>807.0</ele><time>2026-05-02T15:21:09.972Z</time></trkpt><trkpt lat="43.7861215" lon="6.3720763"><ele>802.6</ele><time>2026-05-02T15:21:10.972Z</time></trkpt><trkpt lat="43.7861531" lon="6.3722291"><ele>798.2</ele><time>2026-05-02T15:21:11.972Z</time></trkpt><trkpt lat="43.7861814" lon="6.3723506"><ele>793.8</ele><time>2026-05-02T15:21:12.971Z</time></trkpt><trkpt lat="43.7862127" lon="6.3724923"><ele>789.4</ele><time>2026-05-02T15:21:13.972Z</time></trkpt><trkpt lat="43.7862483" lon="6.3725777"><ele>785.0</ele><time>2026-05-02T15:21:14.972Z</time></trkpt><trkpt lat="43.786347" lon="6.3726841"><ele>785.0</ele><time>2026-05-02T15:21:15.972Z</time></trkpt><trkpt lat="43.7864244" lon="6.3727924"><ele>785.0</ele><time>2026-05-02T15:21:16.972Z</time></trkpt><trkpt lat="43.7865111" lon="6.3728934"><ele>785.0</ele><time>2026-05-02T15:21:17.972Z</time></trkpt><trkpt lat="43.7865794" lon="6.3730054"><ele>785.0</ele><time>2026-05-02T15:21:18.972Z</time></trkpt><trkpt lat="43.7866353" lon="6.373122"><ele>785.0</ele><time>2026-05-02T15:21:19.972Z</time></trkpt><trkpt lat="43.7866644" lon="6.3732372"><ele>789.75</ele><time>2026-05-02T15:21:20.972Z</time></trkpt><trkpt lat="43.786676" lon="6.3733809"><ele>794.5</ele><time>2026-05-02T15:21:21.972Z</time></trkpt><trkpt lat="43.7866968" lon="6.3735352"><ele>799.25</ele><time>2026-05-02T15:21:22.972Z</time></trkpt><trkpt lat="43.7867435" lon="6.3736899"><ele>804.0</ele><time>2026-05-02T15:21:23.972Z</time></trkpt><trkpt lat="43.786784" lon="6.3738409"><ele>807.25</ele><time>2026-05-02T15:21:24.972Z</time></trkpt><trkpt lat="43.7868301" lon="6.3739903"><ele>810.5</ele><time>2026-05-02T15:21:25.972Z</time></trkpt><trkpt lat="43.7868939" lon="6.3741476"><ele>813.75</ele><time>2026-05-02T15:21:26.972Z</time></trkpt><trkpt lat="43.7869535" lon="6.3742935"><ele>817.0</ele><time>2026-05-02T15:21:27.972Z</time></trkpt><trkpt lat="43.7870188" lon="6.3744268"><ele>811.75</ele><time>2026-05-02T15:21:28.972Z</time></trkpt><trkpt lat="43.7870866" lon="6.3745497"><ele>806.5</ele><time>2026-05-02T15:21:29.972Z</time></trkpt><trkpt lat="43.7871754" lon="6.3746706"><ele>801.25</ele><time>2026-05-02T15:21:30.972Z</time></trkpt><trkpt lat="43.787278" lon="6.3747496"><ele>796.0</ele><time>2026-05-02T15:21:31.971Z</time></trkpt><trkpt lat="43.7873726" lon="6.3748095"><ele>796.0</ele><time>2026-05-02T15:21:32.972Z</time></trkpt><trkpt lat="43.787498" lon="6.3748611"><ele>796.0</ele><time>2026-05-02T15:21:33.971Z</time></trkpt><trkpt lat="43.7876265" lon="6.3749225"><ele>796.0</ele><time>2026-05-02T15:21:34.972Z</time></trkpt><trkpt lat="43.7877177" lon="6.3750339"><ele>796.0</ele><time>2026-05-02T15:21:35.972Z</time></trkpt><trkpt lat="43.7877996" lon="6.3751474"><ele>795.25</ele><time>2026-05-02T15:21:36.972Z</time></trkpt><trkpt lat="43.7878871" lon="6.3752809"><ele>794.5</ele><time>2026-05-02T15:21:37.972Z</time></trkpt><trkpt lat="43.7879909" lon="6.3754084"><ele>793.75</ele><time>2026-05-02T15:21:38.972Z</time></trkpt><trkpt lat="43.7880761" lon="6.3755263"><ele>793.0</ele><time>2026-05-02T15:21:39.972Z</time></trkpt><trkpt lat="43.7881842" lon="6.3756205"><ele>793.0</ele><time>2026-05-02T15:21:40.972Z</time></trkpt><trkpt lat="43.788281" lon="6.3756684"><ele>793.0</ele><time>2026-05-02T15:21:41.972Z</time></trkpt><trkpt lat="43.7884032" lon="6.3757303"><ele>793.0</ele><time>2026-05-02T15:21:42.972Z</time></trkpt><trkpt lat="43.7885372" lon="6.3758455"><ele>793.0</ele><time>2026-05-02T15:21:43.971Z</time></trkpt><trkpt lat="43.7886467" lon="6.3759382"><ele>786.0</ele><time>2026-05-02T15:21:44.971Z</time></trkpt><trkpt lat="43.7887693" lon="6.3760513"><ele>779.0</ele><time>2026-05-02T15:21:45.972Z</time></trkpt><trkpt lat="43.7888912" lon="6.3761307"><ele>772.0</ele><time>2026-05-02T15:21:46.972Z</time></trkpt><trkpt lat="43.7890347" lon="6.3762151"><ele>765.0</ele><time>2026-05-02T15:21:47.972Z</time></trkpt><trkpt lat="43.7891607" lon="6.3763226"><ele>764.25</ele><time>2026-05-02T15:21:48.971Z</time></trkpt><trkpt lat="43.789283" lon="6.3764125"><ele>763.5</ele><time>2026-05-02T15:21:49.972Z</time></trkpt><trkpt lat="43.7893944" lon="6.3765251"><ele>762.75</ele><time>2026-05-02T15:21:50.972Z</time></trkpt><trkpt lat="43.789502" lon="6.376621"><ele>762.0</ele><time>2026-05-02T15:21:51.971Z</time></trkpt><trkpt lat="43.7895937" lon="6.3767349"><ele>762.0</ele><time>2026-05-02T15:21:52.972Z</time></trkpt><trkpt lat="43.7896879" lon="6.3768618"><ele>762.0</ele><time>2026-05-02T15:21:53.972Z</time></trkpt><trkpt lat="43.7897608" lon="6.3769806"><ele>762.0</ele><time>2026-05-02T15:21:54.972Z</time></trkpt><trkpt lat="43.7898281" lon="6.3771071"><ele>762.0</ele><time>2026-05-02T15:21:55.972Z</time></trkpt><trkpt lat="43.789855" lon="6.3772342"><ele>762.0</ele><time>2026-05-02T15:21:56.972Z</time></trkpt><trkpt lat="43.7898924" lon="6.3773609"><ele>762.0</ele><time>2026-05-02T15:21:57.972Z</time></trkpt><trkpt lat="43.7898964" lon="6.3774818"><ele>762.0</ele><time>2026-05-02T15:21:58.972Z</time></trkpt><trkpt lat="43.7898055" lon="6.37756"><ele>762.0</ele><time>2026-05-02T15:21:59.972Z</time></trkpt><trkpt lat="43.7897376" lon="6.3776264"><ele>762.0</ele><time>2026-05-02T15:22:00.972Z</time></trkpt><trkpt lat="43.7896236" lon="6.377741"><ele>762.0</ele><time>2026-05-02T15:22:01.971Z</time></trkpt><trkpt lat="43.7895214" lon="6.3778302"><ele>762.0</ele><time>2026-05-02T15:22:02.972Z</time></trkpt><trkpt lat="43.7893939" lon="6.3779353"><ele>762.0</ele><time>2026-05-02T15:22:03.972Z</time></trkpt><trkpt lat="43.789287" lon="6.3780614"><ele>762.0</ele><time>2026-05-02T15:22:04.972Z</time></trkpt><trkpt lat="43.789159" lon="6.3781988"><ele>762.5</ele><time>2026-05-02T15:22:05.971Z</time></trkpt><trkpt lat="43.7890655" lon="6.3783558"><ele>763.0</ele><time>2026-05-02T15:22:06.972Z</time></trkpt><trkpt lat="43.7889679" lon="6.3784976"><ele>763.5</ele><time>2026-05-02T15:22:07.972Z</time></trkpt><trkpt lat="43.7888981" lon="6.3786464"><ele>764.0</ele><time>2026-05-02T15:22:08.972Z</time></trkpt><trkpt lat="43.788822" lon="6.3788151"><ele>759.5</ele><time>2026-05-02T15:22:09.971Z</time></trkpt><trkpt lat="43.7887698" lon="6.378973"><ele>755.0</ele><time>2026-05-02T15:22:10.972Z</time></trkpt><trkpt lat="43.7887442" lon="6.3791654"><ele>750.5</ele><time>2026-05-02T15:22:11.972Z</time></trkpt><trkpt lat="43.7887187" lon="6.3793388"><ele>746.0</ele><time>2026-05-02T15:22:12.972Z</time></trkpt><trkpt lat="43.7887188" lon="6.3795259"><ele>746.0</ele><time>2026-05-02T15:22:13.972Z</time></trkpt><trkpt lat="43.7887263" lon="6.3796586"><ele>746.0</ele><time>2026-05-02T15:22:14.972Z</time></trkpt><trkpt lat="43.7887038" lon="6.3798049"><ele>746.0</ele><time>2026-05-02T15:22:15.972Z</time></trkpt><trkpt lat="43.7886537" lon="6.3799246"><ele>746.0</ele><time>2026-05-02T15:22:16.972Z</time></trkpt><trkpt lat="43.7885705" lon="6.3800228"><ele>746.0</ele><time>2026-05-02T15:22:17.972Z</time></trkpt><trkpt lat="43.788509" lon="6.3801484"><ele>744.5</ele><time>2026-05-02T15:22:18.972Z</time></trkpt><trkpt lat="43.7884535" lon="6.3802624"><ele>743.0</ele><time>2026-05-02T15:22:19.972Z</time></trkpt><trkpt lat="43.7884196" lon="6.3803736"><ele>741.5</ele><time>2026-05-02T15:22:20.972Z</time></trkpt><trkpt lat="43.7883886" lon="6.3804691"><ele>740.0</ele><time>2026-05-02T15:22:21.972Z</time></trkpt><trkpt lat="43.7883353" lon="6.3805446"><ele>738.5</ele><time>2026-05-02T15:22:22.972Z</time></trkpt><trkpt lat="43.788277" lon="6.3805836"><ele>737.0</ele><time>2026-05-02T15:22:23.971Z</time></trkpt><trkpt lat="43.7882079" lon="6.380537"><ele>741.1666666666666</ele><time>2026-05-02T15:22:24.972Z</time></trkpt><trkpt lat="43.7881406" lon="6.3804831"><ele>745.3333333333333</ele><time>2026-05-02T15:22:25.972Z</time></trkpt><trkpt lat="43.7880662" lon="6.380434"><ele>749.5</ele><time>2026-05-02T15:22:26.972Z</time></trkpt><trkpt lat="43.7879953" lon="6.3803895"><ele>753.6666666666666</ele><time>2026-05-02T15:22:27.972Z</time></trkpt><trkpt lat="43.7879237" lon="6.3803758"><ele>757.8333333333334</ele><time>2026-05-02T15:22:28.972Z</time></trkpt><trkpt lat="43.7878528" lon="6.3803528"><ele>762.0</ele><time>2026-05-02T15:22:29.972Z</time></trkpt><trkpt lat="43.7877731" lon="6.380331"><ele>763.0</ele><time>2026-05-02T15:22:30.972Z</time></trkpt><trkpt lat="43.787671" lon="6.3803234"><ele>764.0</ele><time>2026-05-02T15:22:31.972Z</time></trkpt><trkpt lat="43.7875754" lon="6.3803008"><ele>765.0</ele><time>2026-05-02T15:22:32.972Z</time></trkpt><trkpt lat="43.7874442" lon="6.3803145"><ele>766.0</ele><time>2026-05-02T15:22:33.972Z</time></trkpt><trkpt lat="43.7873367" lon="6.3803745"><ele>767.0</ele><time>2026-05-02T15:22:34.972Z</time></trkpt><trkpt lat="43.7872435" lon="6.3804362"><ele>767.0</ele><time>2026-05-02T15:22:35.972Z</time></trkpt><trkpt lat="43.7871631" lon="6.3804684"><ele>767.0</ele><time>2026-05-02T15:22:36.972Z</time></trkpt><trkpt lat="43.7870281" lon="6.3805155"><ele>767.0</ele><time>2026-05-02T15:22:37.972Z</time></trkpt><trkpt lat="43.7869659" lon="6.380566"><ele>767.0</ele><time>2026-05-02T15:22:38.971Z</time></trkpt><trkpt lat="43.7869136" lon="6.3806215"><ele>767.0</ele><time>2026-05-02T15:22:39.971Z</time></trkpt><trkpt lat="43.786901" lon="6.380708"><ele>767.0</ele><time>2026-05-02T15:22:40.971Z</time></trkpt><trkpt lat="43.7869093" lon="6.3808078"><ele>760.6</ele><time>2026-05-02T15:22:41.972Z</time></trkpt><trkpt lat="43.7868883" lon="6.3809761"><ele>754.2</ele><time>2026-05-02T15:22:43.972Z</time></trkpt><trkpt lat="43.7869921" lon="6.3810545"><ele>747.8</ele><time>2026-05-02T15:22:44.972Z</time></trkpt><trkpt lat="43.7870686" lon="6.3810786"><ele>741.4</ele><time>2026-05-02T15:22:45.972Z</time></trkpt><trkpt lat="43.787144" lon="6.3811077"><ele>735.0</ele><time>2026-05-02T15:22:46.971Z</time></trkpt><trkpt lat="43.7872343" lon="6.3810901"><ele>735.0</ele><time>2026-05-02T15:22:47.972Z</time></trkpt><trkpt lat="43.7873293" lon="6.3810915"><ele>735.0</ele><time>2026-05-02T15:22:48.972Z</time></trkpt><trkpt lat="43.787412" lon="6.3809092"><ele>735.0</ele><time>2026-05-02T15:22:49.972Z</time></trkpt><trkpt lat="43.7874917" lon="6.3808044"><ele>735.0</ele><time>2026-05-02T15:22:50.972Z</time></trkpt><trkpt lat="43.7875616" lon="6.3807366"><ele>735.0</ele><time>2026-05-02T15:22:51.972Z</time></trkpt><trkpt lat="43.7876489" lon="6.3807162"><ele>735.4</ele><time>2026-05-02T15:22:52.972Z</time></trkpt><trkpt lat="43.7877525" lon="6.380711"><ele>735.8</ele><time>2026-05-02T15:22:53.972Z</time></trkpt><trkpt lat="43.7878549" lon="6.3807416"><ele>736.2</ele><time>2026-05-02T15:22:54.972Z</time></trkpt><trkpt lat="43.7879398" lon="6.3807884"><ele>736.6</ele><time>2026-05-02T15:22:55.972Z</time></trkpt><trkpt lat="43.7880417" lon="6.3808535"><ele>737.0</ele><time>2026-05-02T15:22:56.972Z</time></trkpt><trkpt lat="43.7881373" lon="6.3809443"><ele>737.0</ele><time>2026-05-02T15:22:57.971Z</time></trkpt><trkpt lat="43.7882426" lon="6.3810109"><ele>737.0</ele><time>2026-05-02T15:22:58.972Z</time></trkpt><trkpt lat="43.7883409" lon="6.3810748"><ele>737.0</ele><time>2026-05-02T15:22:59.972Z</time></trkpt><trkpt lat="43.7884321" lon="6.3811283"><ele>737.0</ele><time>2026-05-02T15:23:00.972Z</time></trkpt><trkpt lat="43.7885322" lon="6.3811473"><ele>737.0</ele><time>2026-05-02T15:23:01.972Z</time></trkpt><trkpt lat="43.7886636" lon="6.3811616"><ele>734.0</ele><time>2026-05-02T15:23:02.971Z</time></trkpt><trkpt lat="43.7887741" lon="6.3811286"><ele>731.0</ele><time>2026-05-02T15:23:03.972Z</time></trkpt><trkpt lat="43.7888619" lon="6.3810967"><ele>728.0</ele><time>2026-05-02T15:23:04.972Z</time></trkpt><trkpt lat="43.7889434" lon="6.3810174"><ele>725.0</ele><time>2026-05-02T15:23:05.972Z</time></trkpt><trkpt lat="43.7890099" lon="6.3809406"><ele>722.0</ele><time>2026-05-02T15:23:06.972Z</time></trkpt><trkpt lat="43.7890734" lon="6.3808038"><ele>722.0</ele><time>2026-05-02T15:23:07.972Z</time></trkpt><trkpt lat="43.7891529" lon="6.380666"><ele>722.0</ele><time>2026-05-02T15:23:08.972Z</time></trkpt><trkpt lat="43.789239" lon="6.3805198"><ele>722.0</ele><time>2026-05-02T15:23:09.972Z</time></trkpt><trkpt lat="43.7893039" lon="6.3803794"><ele>722.0</ele><time>2026-05-02T15:23:10.971Z</time></trkpt><trkpt lat="43.7893613" lon="6.3802347"><ele>719.4000000000001</ele><time>2026-05-02T15:23:11.972Z</time></trkpt><trkpt lat="43.7894232" lon="6.3801024"><ele>716.8000000000001</ele><time>2026-05-02T15:23:12.972Z</time></trkpt><trkpt lat="43.7894708" lon="6.3799543"><ele>714.2</ele><time>2026-05-02T15:23:13.971Z</time></trkpt><trkpt lat="43.7895404" lon="6.379864"><ele>711.6</ele><time>2026-05-02T15:23:14.972Z</time></trkpt><trkpt lat="43.7896401" lon="6.379802"><ele>709.0</ele><time>2026-05-02T15:23:15.972Z</time></trkpt><trkpt lat="43.7897" lon="6.3797032"><ele>711.0</ele><time>2026-05-02T15:23:16.972Z</time></trkpt><trkpt lat="43.7897456" lon="6.3795741"><ele>713.0</ele><time>2026-05-02T15:23:17.972Z</time></trkpt><trkpt lat="43.7897707" lon="6.3794432"><ele>715.0</ele><time>2026-05-02T15:23:18.972Z</time></trkpt><trkpt lat="43.7898206" lon="6.3793237"><ele>717.0</ele><time>2026-05-02T15:23:19.972Z</time></trkpt><trkpt lat="43.789881" lon="6.3791939"><ele>719.0</ele><time>2026-05-02T15:23:20.972Z</time></trkpt><trkpt lat="43.7899453" lon="6.3790786"><ele>719.0</ele><time>2026-05-02T15:23:21.972Z</time></trkpt><trkpt lat="43.7900143" lon="6.3790097"><ele>719.0</ele><time>2026-05-02T15:23:22.972Z</time></trkpt><trkpt lat="43.7900839" lon="6.3789074"><ele>719.0</ele><time>2026-05-02T15:23:23.972Z</time></trkpt><trkpt lat="43.7902" lon="6.3788795"><ele>719.0</ele><time>2026-05-02T15:23:24.972Z</time></trkpt><trkpt lat="43.7902944" lon="6.3788167"><ele>719.0</ele><time>2026-05-02T15:23:25.972Z</time></trkpt><trkpt lat="43.7903633" lon="6.3787056"><ele>717.4000000000001</ele><time>2026-05-02T15:23:26.972Z</time></trkpt><trkpt lat="43.7904423" lon="6.378616"><ele>715.8</ele><time>2026-05-02T15:23:27.971Z</time></trkpt><trkpt lat="43.7905026" lon="6.3784972"><ele>714.2</ele><time>2026-05-02T15:23:28.972Z</time></trkpt><trkpt lat="43.7905906" lon="6.3784095"><ele>712.5999999999999</ele><time>2026-05-02T15:23:29.972Z</time></trkpt><trkpt lat="43.790668" lon="6.3783453"><ele>711.0</ele><time>2026-05-02T15:23:30.971Z</time></trkpt><trkpt lat="43.7907886" lon="6.3782967"><ele>711.0</ele><time>2026-05-02T15:23:31.972Z</time></trkpt><trkpt lat="43.7909375" lon="6.3782423"><ele>711.0</ele><time>2026-05-02T15:23:32.972Z</time></trkpt><trkpt lat="43.7910476" lon="6.3781958"><ele>711.0</ele><time>2026-05-02T15:23:33.972Z</time></trkpt><trkpt lat="43.7911538" lon="6.3780986"><ele>711.0</ele><time>2026-05-02T15:23:34.972Z</time></trkpt><trkpt lat="43.791214" lon="6.3779633"><ele>708.1999999999999</ele><time>2026-05-02T15:23:35.972Z</time></trkpt><trkpt lat="43.7912803" lon="6.37785"><ele>705.4</ele><time>2026-05-02T15:23:36.972Z</time></trkpt><trkpt lat="43.791338" lon="6.3777464"><ele>702.6</ele><time>2026-05-02T15:23:37.971Z</time></trkpt><trkpt lat="43.7914402" lon="6.3776972"><ele>699.8</ele><time>2026-05-02T15:23:38.971Z</time></trkpt><trkpt lat="43.791526" lon="6.3776354"><ele>697.0</ele><time>2026-05-02T15:23:39.971Z</time></trkpt><trkpt lat="43.7916318" lon="6.3776052"><ele>697.0</ele><time>2026-05-02T15:23:40.972Z</time></trkpt><trkpt lat="43.7917169" lon="6.3776136"><ele>697.0</ele><time>2026-05-02T15:23:41.972Z</time></trkpt><trkpt lat="43.7918057" lon="6.3776249"><ele>697.0</ele><time>2026-05-02T15:23:42.972Z</time></trkpt><trkpt lat="43.7919044" lon="6.3776834"><ele>697.0</ele><time>2026-05-02T15:23:43.972Z</time></trkpt><trkpt lat="43.7919806" lon="6.3777676"><ele>697.0</ele><time>2026-05-02T15:23:44.972Z</time></trkpt><trkpt lat="43.7920427" lon="6.3778478"><ele>697.0</ele><time>2026-05-02T15:23:45.972Z</time></trkpt><trkpt lat="43.7920846" lon="6.3779415"><ele>697.0</ele><time>2026-05-02T15:23:46.971Z</time></trkpt><trkpt lat="43.7921505" lon="6.3781472"><ele>697.0</ele><time>2026-05-02T15:23:47.972Z</time></trkpt><trkpt lat="43.7922151" lon="6.3783105"><ele>697.0</ele><time>2026-05-02T15:23:48.972Z</time></trkpt><trkpt lat="43.7923026" lon="6.3785042"><ele>697.0</ele><time>2026-05-02T15:23:49.972Z</time></trkpt><trkpt lat="43.7923914" lon="6.3786897"><ele>697.0</ele><time>2026-05-02T15:23:50.971Z</time></trkpt><trkpt lat="43.7924656" lon="6.3789014"><ele>697.0</ele><time>2026-05-02T15:23:51.972Z</time></trkpt><trkpt lat="43.7925025" lon="6.3791059"><ele>697.0</ele><time>2026-05-02T15:23:52.972Z</time></trkpt><trkpt lat="43.7925671" lon="6.3792999"><ele>697.0</ele><time>2026-05-02T15:23:53.972Z</time></trkpt><trkpt lat="43.7926164" lon="6.3794786"><ele>697.0</ele><time>2026-05-02T15:23:54.972Z</time></trkpt><trkpt lat="43.7926666" lon="6.3796312"><ele>697.0</ele><time>2026-05-02T15:23:55.972Z</time></trkpt><trkpt lat="43.7927117" lon="6.3797758"><ele>697.6</ele><time>2026-05-02T15:23:56.972Z</time></trkpt><trkpt lat="43.7927594" lon="6.3799229"><ele>698.2</ele><time>2026-05-02T15:23:57.972Z</time></trkpt><trkpt lat="43.7927015" lon="6.3800165"><ele>698.8</ele><time>2026-05-02T15:23:58.972Z</time></trkpt><trkpt lat="43.7926662" lon="6.3801567"><ele>699.4</ele><time>2026-05-02T15:23:59.972Z</time></trkpt><trkpt lat="43.7926352" lon="6.3802947"><ele>700.0</ele><time>2026-05-02T15:24:00.972Z</time></trkpt><trkpt lat="43.7926077" lon="6.380456"><ele>701.25</ele><time>2026-05-02T15:24:01.971Z</time></trkpt><trkpt lat="43.7925961" lon="6.3806449"><ele>702.5</ele><time>2026-05-02T15:24:02.971Z</time></trkpt><trkpt lat="43.7925949" lon="6.3808377"><ele>703.75</ele><time>2026-05-02T15:24:03.972Z</time></trkpt><trkpt lat="43.7925891" lon="6.3810264"><ele>705.0</ele><time>2026-05-02T15:24:04.972Z</time></trkpt><trkpt lat="43.7925578" lon="6.3811939"><ele>708.5</ele><time>2026-05-02T15:24:05.972Z</time></trkpt><trkpt lat="43.7925209" lon="6.3813593"><ele>712.0</ele><time>2026-05-02T15:24:06.971Z</time></trkpt><trkpt lat="43.7924645" lon="6.3815189"><ele>715.5</ele><time>2026-05-02T15:24:07.971Z</time></trkpt><trkpt lat="43.7924082" lon="6.3816838"><ele>719.0</ele><time>2026-05-02T15:24:08.972Z</time></trkpt><trkpt lat="43.7923308" lon="6.3818537"><ele>719.0</ele><time>2026-05-02T15:24:09.972Z</time></trkpt><trkpt lat="43.7922455" lon="6.3819916"><ele>719.0</ele><time>2026-05-02T15:24:10.971Z</time></trkpt><trkpt lat="43.79216" lon="6.3821214"><ele>719.0</ele><time>2026-05-02T15:24:11.972Z</time></trkpt><trkpt lat="43.7920739" lon="6.3822479"><ele>719.0</ele><time>2026-05-02T15:24:12.972Z</time></trkpt><trkpt lat="43.7919888" lon="6.3823815"><ele>716.75</ele><time>2026-05-02T15:24:13.972Z</time></trkpt><trkpt lat="43.791905" lon="6.3825129"><ele>714.5</ele><time>2026-05-02T15:24:14.971Z</time></trkpt><trkpt lat="43.7918497" lon="6.3826733"><ele>712.25</ele><time>2026-05-02T15:24:15.972Z</time></trkpt><trkpt lat="43.7918072" lon="6.3828341"><ele>710.0</ele><time>2026-05-02T15:24:16.972Z</time></trkpt><trkpt lat="43.7917704" lon="6.3829685"><ele>711.25</ele><time>2026-05-02T15:24:17.972Z</time></trkpt><trkpt lat="43.7917638" lon="6.3831494"><ele>712.5</ele><time>2026-05-02T15:24:18.972Z</time></trkpt><trkpt lat="43.7917525" lon="6.3833059"><ele>713.75</ele><time>2026-05-02T15:24:19.972Z</time></trkpt><trkpt lat="43.7917723" lon="6.3834693"><ele>715.0</ele><time>2026-05-02T15:24:20.972Z</time></trkpt><trkpt lat="43.7918115" lon="6.3836144"><ele>716.8</ele><time>2026-05-02T15:24:21.972Z</time></trkpt><trkpt lat="43.7918462" lon="6.3837573"><ele>718.6</ele><time>2026-05-02T15:24:22.972Z</time></trkpt><trkpt lat="43.7919336" lon="6.383862"><ele>720.4000000000001</ele><time>2026-05-02T15:24:23.972Z</time></trkpt><trkpt lat="43.7920071" lon="6.3839669"><ele>722.2</ele><time>2026-05-02T15:24:24.972Z</time></trkpt><trkpt lat="43.792066" lon="6.3840658"><ele>724.0</ele><time>2026-05-02T15:24:25.972Z</time></trkpt><trkpt lat="43.7921322" lon="6.3841039"><ele>724.0</ele><time>2026-05-02T15:24:26.972Z</time></trkpt><trkpt lat="43.792198" lon="6.3841612"><ele>724.0</ele><time>2026-05-02T15:24:27.972Z</time></trkpt><trkpt lat="43.7922728" lon="6.3841976"><ele>724.0</ele><time>2026-05-02T15:24:28.972Z</time></trkpt><trkpt lat="43.7924336" lon="6.3841926"><ele>724.0</ele><time>2026-05-02T15:24:29.972Z</time></trkpt><trkpt lat="43.7925768" lon="6.3840761"><ele>723.0</ele><time>2026-05-02T15:24:30.972Z</time></trkpt><trkpt lat="43.7927007" lon="6.3840205"><ele>722.0</ele><time>2026-05-02T15:24:31.972Z</time></trkpt><trkpt lat="43.7928337" lon="6.3839817"><ele>721.0</ele><time>2026-05-02T15:24:32.972Z</time></trkpt><trkpt lat="43.7929532" lon="6.3839419"><ele>720.0</ele><time>2026-05-02T15:24:33.972Z</time></trkpt><trkpt lat="43.7930885" lon="6.3839206"><ele>720.0</ele><time>2026-05-02T15:24:34.972Z</time></trkpt><trkpt lat="43.7932239" lon="6.3839156"><ele>720.0</ele><time>2026-05-02T15:24:35.971Z</time></trkpt><trkpt lat="43.7933774" lon="6.3839366"><ele>720.0</ele><time>2026-05-02T15:24:36.971Z</time></trkpt><trkpt lat="43.7934934" lon="6.3839336"><ele>720.0</ele><time>2026-05-02T15:24:37.972Z</time></trkpt><trkpt lat="43.7936208" lon="6.3839338"><ele>722.25</ele><time>2026-05-02T15:24:38.971Z</time></trkpt><trkpt lat="43.7937607" lon="6.3839527"><ele>724.5</ele><time>2026-05-02T15:24:39.972Z</time></trkpt><trkpt lat="43.7938733" lon="6.3839468"><ele>726.75</ele><time>2026-05-02T15:24:40.971Z</time></trkpt><trkpt lat="43.7940196" lon="6.3839631"><ele>729.0</ele><time>2026-05-02T15:24:41.972Z</time></trkpt><trkpt lat="43.7941385" lon="6.3839551"><ele>729.0</ele><time>2026-05-02T15:24:42.972Z</time></trkpt><trkpt lat="43.7942344" lon="6.3839662"><ele>729.0</ele><time>2026-05-02T15:24:43.972Z</time></trkpt><trkpt lat="43.7943342" lon="6.3839633"><ele>729.0</ele><time>2026-05-02T15:24:44.972Z</time></trkpt><trkpt lat="43.7944342" lon="6.3839845"><ele>729.0</ele><time>2026-05-02T15:24:45.972Z</time></trkpt><trkpt lat="43.7945285" lon="6.3839276"><ele>729.0</ele><time>2026-05-02T15:24:46.971Z</time></trkpt><trkpt lat="43.7946365" lon="6.3838404"><ele>731.0</ele><time>2026-05-02T15:24:47.972Z</time></trkpt><trkpt lat="43.7947402" lon="6.3837581"><ele>733.0</ele><time>2026-05-02T15:24:48.972Z</time></trkpt><trkpt lat="43.7948464" lon="6.383671"><ele>735.0</ele><time>2026-05-02T15:24:49.972Z</time></trkpt><trkpt lat="43.7949498" lon="6.383542"><ele>737.0</ele><time>2026-05-02T15:24:50.972Z</time></trkpt><trkpt lat="43.7950495" lon="6.3834184"><ele>737.0</ele><time>2026-05-02T15:24:51.972Z</time></trkpt><trkpt lat="43.7951541" lon="6.3832933"><ele>737.0</ele><time>2026-05-02T15:24:52.972Z</time></trkpt><trkpt lat="43.7952559" lon="6.3831702"><ele>737.0</ele><time>2026-05-02T15:24:53.972Z</time></trkpt><trkpt lat="43.7953512" lon="6.3830568"><ele>737.0</ele><time>2026-05-02T15:24:54.972Z</time></trkpt><trkpt lat="43.7954532" lon="6.382948"><ele>738.6</ele><time>2026-05-02T15:24:55.971Z</time></trkpt><trkpt lat="43.7955456" lon="6.3828452"><ele>740.2</ele><time>2026-05-02T15:24:56.972Z</time></trkpt><trkpt lat="43.7956336" lon="6.3827587"><ele>741.8</ele><time>2026-05-02T15:24:57.972Z</time></trkpt><trkpt lat="43.7957105" lon="6.3826634"><ele>743.4</ele><time>2026-05-02T15:24:58.972Z</time></trkpt><trkpt lat="43.7957764" lon="6.3825833"><ele>745.0</ele><time>2026-05-02T15:24:59.972Z</time></trkpt><trkpt lat="43.7958378" lon="6.3825208"><ele>745.0</ele><time>2026-05-02T15:25:00.972Z</time></trkpt><trkpt lat="43.7959141" lon="6.3824628"><ele>745.0</ele><time>2026-05-02T15:25:01.971Z</time></trkpt><trkpt lat="43.7959881" lon="6.382488"><ele>745.0</ele><time>2026-05-02T15:25:02.972Z</time></trkpt><trkpt lat="43.7960544" lon="6.3825153"><ele>745.0</ele><time>2026-05-02T15:25:03.972Z</time></trkpt><trkpt lat="43.796128" lon="6.3825703"><ele>745.0</ele><time>2026-05-02T15:25:04.971Z</time></trkpt><trkpt lat="43.7961831" lon="6.3826684"><ele>745.0</ele><time>2026-05-02T15:25:05.972Z</time></trkpt><trkpt lat="43.7962353" lon="6.3827708"><ele>747.6</ele><time>2026-05-02T15:25:06.972Z</time></trkpt><trkpt lat="43.7962918" lon="6.3828391"><ele>750.2</ele><time>2026-05-02T15:25:07.972Z</time></trkpt><trkpt lat="43.7963118" lon="6.3829833"><ele>752.8</ele><time>2026-05-02T15:25:08.972Z</time></trkpt><trkpt lat="43.7963113" lon="6.383126"><ele>755.4</ele><time>2026-05-02T15:25:09.971Z</time></trkpt><trkpt lat="43.7962402" lon="6.3832286"><ele>758.0</ele><time>2026-05-02T15:25:10.971Z</time></trkpt><trkpt lat="43.7962095" lon="6.3833535"><ele>758.0</ele><time>2026-05-02T15:25:11.971Z</time></trkpt><trkpt lat="43.7961182" lon="6.3834353"><ele>758.0</ele><time>2026-05-02T15:25:12.971Z</time></trkpt><trkpt lat="43.7960802" lon="6.3835456"><ele>758.0</ele><time>2026-05-02T15:25:13.972Z</time></trkpt><trkpt lat="43.7960634" lon="6.3836569"><ele>758.0</ele><time>2026-05-02T15:25:14.972Z</time></trkpt><trkpt lat="43.7960826" lon="6.3837593"><ele>758.0</ele><time>2026-05-02T15:25:15.972Z</time></trkpt><trkpt lat="43.7961134" lon="6.3838691"><ele>758.0</ele><time>2026-05-02T15:25:16.972Z</time></trkpt><trkpt lat="43.796239" lon="6.3839973"><ele>757.4</ele><time>2026-05-02T15:25:18.972Z</time></trkpt><trkpt lat="43.7963778" lon="6.3840788"><ele>756.8</ele><time>2026-05-02T15:25:20.971Z</time></trkpt><trkpt lat="43.7964725" lon="6.3841367"><ele>756.2</ele><time>2026-05-02T15:25:21.972Z</time></trkpt><trkpt lat="43.7965462" lon="6.3841829"><ele>755.6</ele><time>2026-05-02T15:25:22.972Z</time></trkpt><trkpt lat="43.7966225" lon="6.3842345"><ele>755.0</ele><time>2026-05-02T15:25:23.971Z</time></trkpt><trkpt lat="43.7966751" lon="6.3843056"><ele>755.0</ele><time>2026-05-02T15:25:24.971Z</time></trkpt><trkpt lat="43.7967102" lon="6.3843998"><ele>755.0</ele><time>2026-05-02T15:25:25.972Z</time></trkpt><trkpt lat="43.7967448" lon="6.384515"><ele>755.0</ele><time>2026-05-02T15:25:26.972Z</time></trkpt><trkpt lat="43.7967176" lon="6.3846206"><ele>755.0</ele><time>2026-05-02T15:25:27.972Z</time></trkpt><trkpt lat="43.7966926" lon="6.384747"><ele>755.0</ele><time>2026-05-02T15:25:28.972Z</time></trkpt><trkpt lat="43.79667" lon="6.3848669"><ele>755.0</ele><time>2026-05-02T15:25:29.972Z</time></trkpt><trkpt lat="43.7966375" lon="6.3849827"><ele>755.1666666666666</ele><time>2026-05-02T15:25:30.972Z</time></trkpt><trkpt lat="43.796615" lon="6.3850908"><ele>755.3333333333333</ele><time>2026-05-02T15:25:31.972Z</time></trkpt><trkpt lat="43.79654" lon="6.3851641"><ele>755.5</ele><time>2026-05-02T15:25:32.972Z</time></trkpt><trkpt lat="43.7964822" lon="6.3852756"><ele>755.6666666666666</ele><time>2026-05-02T15:25:33.972Z</time></trkpt><trkpt lat="43.7964275" lon="6.3853614"><ele>755.8333333333334</ele><time>2026-05-02T15:25:34.972Z</time></trkpt><trkpt lat="43.7963524" lon="6.3854336"><ele>756.0</ele><time>2026-05-02T15:25:35.972Z</time></trkpt><trkpt lat="43.7962817" lon="6.385516"><ele>758.1999999999999</ele><time>2026-05-02T15:25:36.972Z</time></trkpt><trkpt lat="43.7962369" lon="6.3856064"><ele>760.4</ele><time>2026-05-02T15:25:37.972Z</time></trkpt><trkpt lat="43.7961879" lon="6.3857269"><ele>762.6</ele><time>2026-05-02T15:25:38.972Z</time></trkpt><trkpt lat="43.7961502" lon="6.3858386"><ele>764.8</ele><time>2026-05-02T15:25:39.972Z</time></trkpt><trkpt lat="43.7961449" lon="6.385967"><ele>767.0</ele><time>2026-05-02T15:25:40.972Z</time></trkpt><trkpt lat="43.7961665" lon="6.386106"><ele>767.0</ele><time>2026-05-02T15:25:41.972Z</time></trkpt><trkpt lat="43.7961784" lon="6.3862228"><ele>767.0</ele><time>2026-05-02T15:25:42.972Z</time></trkpt><trkpt lat="43.7961718" lon="6.3863288"><ele>767.0</ele><time>2026-05-02T15:25:43.972Z</time></trkpt><trkpt lat="43.7961393" lon="6.3864291"><ele>767.0</ele><time>2026-05-02T15:25:44.972Z</time></trkpt><trkpt lat="43.7961044" lon="6.3865345"><ele>767.0</ele><time>2026-05-02T15:25:45.972Z</time></trkpt><trkpt lat="43.7960485" lon="6.3866213"><ele>767.0</ele><time>2026-05-02T15:25:46.972Z</time></trkpt><trkpt lat="43.7959864" lon="6.3866804"><ele>765.6666666666666</ele><time>2026-05-02T15:25:47.971Z</time></trkpt><trkpt lat="43.7959197" lon="6.3867205"><ele>764.3333333333333</ele><time>2026-05-02T15:25:48.972Z</time></trkpt><trkpt lat="43.7958519" lon="6.3867769"><ele>763.0</ele><time>2026-05-02T15:25:49.972Z</time></trkpt><trkpt lat="43.7957792" lon="6.386825"><ele>761.6666666666666</ele><time>2026-05-02T15:25:50.972Z</time></trkpt><trkpt lat="43.7957249" lon="6.3868922"><ele>760.3333333333334</ele><time>2026-05-02T15:25:51.972Z</time></trkpt><trkpt lat="43.7956494" lon="6.3869371"><ele>759.0</ele><time>2026-05-02T15:25:52.972Z</time></trkpt><trkpt lat="43.7955684" lon="6.3869464"><ele>759.0</ele><time>2026-05-02T15:25:53.972Z</time></trkpt><trkpt lat="43.7954442" lon="6.3867283"><ele>759.0</ele><time>2026-05-02T15:25:55.972Z</time></trkpt><trkpt lat="43.7953796" lon="6.3866287"><ele>759.0</ele><time>2026-05-02T15:25:56.972Z</time></trkpt><trkpt lat="43.7953271" lon="6.3865741"><ele>759.0</ele><time>2026-05-02T15:25:57.972Z</time></trkpt><trkpt lat="43.7952473" lon="6.3864956"><ele>759.4000000000001</ele><time>2026-05-02T15:25:58.972Z</time></trkpt><trkpt lat="43.7951426" lon="6.3864613"><ele>759.8</ele><time>2026-05-02T15:25:59.972Z</time></trkpt><trkpt lat="43.7950417" lon="6.3865212"><ele>760.2</ele><time>2026-05-02T15:26:01.972Z</time></trkpt><trkpt lat="43.7949331" lon="6.3865496"><ele>760.5999999999999</ele><time>2026-05-02T15:26:02.972Z</time></trkpt><trkpt lat="43.7948812" lon="6.3866873"><ele>761.0</ele><time>2026-05-02T15:26:03.972Z</time></trkpt><trkpt lat="43.7948518" lon="6.3868237"><ele>761.0</ele><time>2026-05-02T15:26:04.972Z</time></trkpt><trkpt lat="43.7947779" lon="6.3869322"><ele>761.0</ele><time>2026-05-02T15:26:05.972Z</time></trkpt><trkpt lat="43.7947278" lon="6.3870766"><ele>761.0</ele><time>2026-05-02T15:26:06.972Z</time></trkpt><trkpt lat="43.7947282" lon="6.387233"><ele>761.0</ele><time>2026-05-02T15:26:07.972Z</time></trkpt><trkpt lat="43.7947168" lon="6.3873718"><ele>761.0</ele><time>2026-05-02T15:26:08.972Z</time></trkpt><trkpt lat="43.7947482" lon="6.3875162"><ele>761.0</ele><time>2026-05-02T15:26:09.972Z</time></trkpt><trkpt lat="43.7947859" lon="6.3876413"><ele>761.0</ele><time>2026-05-02T15:26:10.972Z</time></trkpt><trkpt lat="43.7948375" lon="6.3877708"><ele>761.0</ele><time>2026-05-02T15:26:11.972Z</time></trkpt><trkpt lat="43.7948944" lon="6.3879148"><ele>761.0</ele><time>2026-05-02T15:26:12.971Z</time></trkpt><trkpt lat="43.7949542" lon="6.3880493"><ele>761.0</ele><time>2026-05-02T15:26:13.972Z</time></trkpt><trkpt lat="43.7949761" lon="6.3881723"><ele>761.0</ele><time>2026-05-02T15:26:14.972Z</time></trkpt><trkpt lat="43.7950225" lon="6.3883106"><ele>761.0</ele><time>2026-05-02T15:26:15.972Z</time></trkpt><trkpt lat="43.7950512" lon="6.3884118"><ele>761.0</ele><time>2026-05-02T15:26:16.972Z</time></trkpt><trkpt lat="43.7950407" lon="6.388529"><ele>761.0</ele><time>2026-05-02T15:26:17.971Z</time></trkpt><trkpt lat="43.7950334" lon="6.3886296"><ele>761.0</ele><time>2026-05-02T15:26:18.972Z</time></trkpt><trkpt lat="43.7950116" lon="6.3887262"><ele>761.0</ele><time>2026-05-02T15:26:19.972Z</time></trkpt><trkpt lat="43.7949751" lon="6.3888296"><ele>763.5999999999999</ele><time>2026-05-02T15:26:20.972Z</time></trkpt><trkpt lat="43.7949078" lon="6.3889047"><ele>766.2</ele><time>2026-05-02T15:26:21.972Z</time></trkpt><trkpt lat="43.7948376" lon="6.388973"><ele>768.8</ele><time>2026-05-02T15:26:22.972Z</time></trkpt><trkpt lat="43.7947289" lon="6.3890073"><ele>771.4000000000001</ele><time>2026-05-02T15:26:23.972Z</time></trkpt><trkpt lat="43.7946403" lon="6.3890597"><ele>774.0</ele><time>2026-05-02T15:26:24.972Z</time></trkpt><trkpt lat="43.7945602" lon="6.3891492"><ele>774.0</ele><time>2026-05-02T15:26:25.972Z</time></trkpt><trkpt lat="43.7944692" lon="6.3892456"><ele>774.0</ele><time>2026-05-02T15:26:26.972Z</time></trkpt><trkpt lat="43.7943844" lon="6.3893628"><ele>774.0</ele><time>2026-05-02T15:26:27.971Z</time></trkpt><trkpt lat="43.7943092" lon="6.3895109"><ele>774.0</ele><time>2026-05-02T15:26:28.972Z</time></trkpt><trkpt lat="43.7942332" lon="6.3896452"><ele>774.75</ele><time>2026-05-02T15:26:29.972Z</time></trkpt><trkpt lat="43.794151" lon="6.3897983"><ele>775.5</ele><time>2026-05-02T15:26:30.972Z</time></trkpt><trkpt lat="43.7940691" lon="6.3899633"><ele>776.25</ele><time>2026-05-02T15:26:31.972Z</time></trkpt><trkpt lat="43.7939867" lon="6.3901227"><ele>777.0</ele><time>2026-05-02T15:26:32.972Z</time></trkpt><trkpt lat="43.79391" lon="6.3902904"><ele>777.0</ele><time>2026-05-02T15:26:33.972Z</time></trkpt><trkpt lat="43.793839" lon="6.3904552"><ele>777.0</ele><time>2026-05-02T15:26:34.972Z</time></trkpt><trkpt lat="43.7937845" lon="6.3906287"><ele>777.0</ele><time>2026-05-02T15:26:35.972Z</time></trkpt><trkpt lat="43.7937361" lon="6.390805"><ele>777.0</ele><time>2026-05-02T15:26:36.972Z</time></trkpt><trkpt lat="43.793697" lon="6.390989"><ele>784.6666666666667</ele><time>2026-05-02T15:26:37.972Z</time></trkpt><trkpt lat="43.7936577" lon="6.3911658"><ele>792.3333333333334</ele><time>2026-05-02T15:26:38.972Z</time></trkpt><trkpt lat="43.7936311" lon="6.391392"><ele>800.0</ele><time>2026-05-02T15:26:39.972Z</time></trkpt><trkpt lat="43.7936091" lon="6.3915992"><ele>802.5</ele><time>2026-05-02T15:26:40.972Z</time></trkpt><trkpt lat="43.7935959" lon="6.3917892"><ele>805.0</ele><time>2026-05-02T15:26:41.972Z</time></trkpt><trkpt lat="43.7935866" lon="6.3919536"><ele>807.5</ele><time>2026-05-02T15:26:42.972Z</time></trkpt><trkpt lat="43.7935608" lon="6.3921094"><ele>810.0</ele><time>2026-05-02T15:26:43.972Z</time></trkpt><trkpt lat="43.7935569" lon="6.3922667"><ele>810.0</ele><time>2026-05-02T15:26:44.972Z</time></trkpt><trkpt lat="43.7935564" lon="6.3924476"><ele>810.0</ele><time>2026-05-02T15:26:45.972Z</time></trkpt><trkpt lat="43.7935685" lon="6.3925735"><ele>810.0</ele><time>2026-05-02T15:26:46.972Z</time></trkpt><trkpt lat="43.7935974" lon="6.392712"><ele>810.0</ele><time>2026-05-02T15:26:47.972Z</time></trkpt><trkpt lat="43.7936263" lon="6.3928298"><ele>810.0</ele><time>2026-05-02T15:26:48.972Z</time></trkpt><trkpt lat="43.7936665" lon="6.392937"><ele>808.6</ele><time>2026-05-02T15:26:49.971Z</time></trkpt><trkpt lat="43.7936909" lon="6.3930534"><ele>807.2</ele><time>2026-05-02T15:26:50.972Z</time></trkpt><trkpt lat="43.7937192" lon="6.3931746"><ele>805.8</ele><time>2026-05-02T15:26:51.972Z</time></trkpt><trkpt lat="43.793701" lon="6.3933162"><ele>804.4</ele><time>2026-05-02T15:26:52.972Z</time></trkpt><trkpt lat="43.7936977" lon="6.3934518"><ele>803.0</ele><time>2026-05-02T15:26:53.972Z</time></trkpt><trkpt lat="43.7937155" lon="6.3935817"><ele>803.0000000000001</ele><time>2026-05-02T15:26:54.972Z</time></trkpt><trkpt lat="43.793748" lon="6.3937051"><ele>803.0</ele><time>2026-05-02T15:26:55.972Z</time></trkpt><trkpt lat="43.7937829" lon="6.3938203"><ele>803.0</ele><time>2026-05-02T15:26:56.972Z</time></trkpt><trkpt lat="43.7937979" lon="6.3939243"><ele>803.0</ele><time>2026-05-02T15:26:57.971Z</time></trkpt><trkpt lat="43.7938133" lon="6.3940225"><ele>803.0000000000001</ele><time>2026-05-02T15:26:58.972Z</time></trkpt><trkpt lat="43.7938449" lon="6.3941691"><ele>803.0</ele><time>2026-05-02T15:27:01.972Z</time></trkpt><trkpt lat="43.793876" lon="6.3943392"><ele>801.4</ele><time>2026-05-02T15:27:03.972Z</time></trkpt><trkpt lat="43.7938912" lon="6.3944491"><ele>799.8</ele><time>2026-05-02T15:27:04.972Z</time></trkpt><trkpt lat="43.7939065" lon="6.3945514"><ele>798.2</ele><time>2026-05-02T15:27:05.972Z</time></trkpt><trkpt lat="43.7939298" lon="6.3946935"><ele>796.6</ele><time>2026-05-02T15:27:06.972Z</time></trkpt><trkpt lat="43.7939417" lon="6.3948267"><ele>795.0</ele><time>2026-05-02T15:27:07.972Z</time></trkpt><trkpt lat="43.7939719" lon="6.3949807"><ele>794.5</ele><time>2026-05-02T15:27:08.972Z</time></trkpt><trkpt lat="43.7940125" lon="6.3951339"><ele>794.0</ele><time>2026-05-02T15:27:09.972Z</time></trkpt><trkpt lat="43.7940563" lon="6.3952835"><ele>793.5</ele><time>2026-05-02T15:27:10.972Z</time></trkpt><trkpt lat="43.7940966" lon="6.395438"><ele>793.0</ele><time>2026-05-02T15:27:11.972Z</time></trkpt><trkpt lat="43.794118" lon="6.3955984"><ele>791.25</ele><time>2026-05-02T15:27:12.971Z</time></trkpt><trkpt lat="43.7941326" lon="6.3957651"><ele>789.5</ele><time>2026-05-02T15:27:13.972Z</time></trkpt><trkpt lat="43.794147" lon="6.3959442"><ele>787.75</ele><time>2026-05-02T15:27:14.972Z</time></trkpt><trkpt lat="43.7941433" lon="6.3961169"><ele>786.0</ele><time>2026-05-02T15:27:15.972Z</time></trkpt><trkpt lat="43.7941258" lon="6.3962581"><ele>785.1999999999999</ele><time>2026-05-02T15:27:16.971Z</time></trkpt><trkpt lat="43.7941168" lon="6.3963892"><ele>784.4</ele><time>2026-05-02T15:27:17.972Z</time></trkpt><trkpt lat="43.794108" lon="6.396521"><ele>783.6</ele><time>2026-05-02T15:27:18.972Z</time></trkpt><trkpt lat="43.7941186" lon="6.3966359"><ele>782.8</ele><time>2026-05-02T15:27:19.972Z</time></trkpt><trkpt lat="43.7941933" lon="6.3967403"><ele>782.0</ele><time>2026-05-02T15:27:20.972Z</time></trkpt><trkpt lat="43.7942627" lon="6.3968352"><ele>786.4000000000001</ele><time>2026-05-02T15:27:21.972Z</time></trkpt><trkpt lat="43.7943566" lon="6.3969055"><ele>790.8000000000001</ele><time>2026-05-02T15:27:22.972Z</time></trkpt><trkpt lat="43.7944496" lon="6.3969923"><ele>795.2</ele><time>2026-05-02T15:27:23.972Z</time></trkpt><trkpt lat="43.7945281" lon="6.3970809"><ele>799.6</ele><time>2026-05-02T15:27:24.972Z</time></trkpt><trkpt lat="43.7945785" lon="6.3971694"><ele>804.0</ele><time>2026-05-02T15:27:25.972Z</time></trkpt><trkpt lat="43.7946084" lon="6.3972507"><ele>804.0</ele><time>2026-05-02T15:27:26.972Z</time></trkpt><trkpt lat="43.794595" lon="6.3974134"><ele>804.0</ele><time>2026-05-02T15:27:27.972Z</time></trkpt><trkpt lat="43.7945357" lon="6.3974999"><ele>804.0</ele><time>2026-05-02T15:27:28.972Z</time></trkpt><trkpt lat="43.7945353" lon="6.3975957"><ele>804.0</ele><time>2026-05-02T15:27:29.971Z</time></trkpt><trkpt lat="43.794541" lon="6.3976928"><ele>804.0</ele><time>2026-05-02T15:27:30.972Z</time></trkpt><trkpt lat="43.7945352" lon="6.3977865"><ele>804.0</ele><time>2026-05-02T15:27:31.972Z</time></trkpt><trkpt lat="43.7945368" lon="6.3978927"><ele>804.0</ele><time>2026-05-02T15:27:32.972Z</time></trkpt><trkpt lat="43.7945106" lon="6.3979759"><ele>804.0</ele><time>2026-05-02T15:27:33.972Z</time></trkpt><trkpt lat="43.7944802" lon="6.3980647"><ele>804.0</ele><time>2026-05-02T15:27:34.972Z</time></trkpt><trkpt lat="43.794433" lon="6.3981469"><ele>804.0</ele><time>2026-05-02T15:27:35.972Z</time></trkpt><trkpt lat="43.7943781" lon="6.3982134"><ele>804.0</ele><time>2026-05-02T15:27:36.971Z</time></trkpt><trkpt lat="43.7942756" lon="6.3983211"><ele>804.0</ele><time>2026-05-02T15:27:38.972Z</time></trkpt><trkpt lat="43.7942216" lon="6.3983717"><ele>801.3333333333334</ele><time>2026-05-02T15:27:39.972Z</time></trkpt><trkpt lat="43.7941717" lon="6.3984673"><ele>798.6666666666667</ele><time>2026-05-02T15:27:40.971Z</time></trkpt><trkpt lat="43.7941553" lon="6.3985623"><ele>796.0</ele><time>2026-05-02T15:27:41.971Z</time></trkpt><trkpt lat="43.7941242" lon="6.3986584"><ele>793.3333333333334</ele><time>2026-05-02T15:27:42.972Z</time></trkpt><trkpt lat="43.7940903" lon="6.3987597"><ele>790.6666666666667</ele><time>2026-05-02T15:27:43.972Z</time></trkpt><trkpt lat="43.7940756" lon="6.3988627"><ele>788.0</ele><time>2026-05-02T15:27:44.972Z</time></trkpt><trkpt lat="43.7940618" lon="6.3989667"><ele>788.0</ele><time>2026-05-02T15:27:45.972Z</time></trkpt><trkpt lat="43.7940461" lon="6.3991314"><ele>788.0</ele><time>2026-05-02T15:27:46.971Z</time></trkpt><trkpt lat="43.7940768" lon="6.3992681"><ele>788.0</ele><time>2026-05-02T15:27:48.972Z</time></trkpt><trkpt lat="43.7941241" lon="6.3993512"><ele>788.0</ele><time>2026-05-02T15:27:49.972Z</time></trkpt><trkpt lat="43.7942931" lon="6.3995145"><ele>789.0</ele><time>2026-05-02T15:27:51.972Z</time></trkpt><trkpt lat="43.7944019" lon="6.3996219"><ele>790.0</ele><time>2026-05-02T15:27:52.972Z</time></trkpt><trkpt lat="43.7944767" lon="6.3997517"><ele>791.0</ele><time>2026-05-02T15:27:53.971Z</time></trkpt><trkpt lat="43.7945333" lon="6.3998934"><ele>792.0</ele><time>2026-05-02T15:27:54.972Z</time></trkpt><trkpt lat="43.7945781" lon="6.4000127"><ele>792.0</ele><time>2026-05-02T15:27:55.971Z</time></trkpt><trkpt lat="43.7946236" lon="6.4001342"><ele>792.0</ele><time>2026-05-02T15:27:56.972Z</time></trkpt><trkpt lat="43.7946696" lon="6.4002536"><ele>792.0</ele><time>2026-05-02T15:27:57.972Z</time></trkpt><trkpt lat="43.7947274" lon="6.4003153"><ele>792.0</ele><time>2026-05-02T15:27:58.971Z</time></trkpt><trkpt lat="43.7948135" lon="6.4003867"><ele>792.0</ele><time>2026-05-02T15:27:59.972Z</time></trkpt><trkpt lat="43.7948577" lon="6.4004499"><ele>792.0</ele><time>2026-05-02T15:28:00.972Z</time></trkpt><trkpt lat="43.7949064" lon="6.4005272"><ele>790.2</ele><time>2026-05-02T15:28:01.972Z</time></trkpt><trkpt lat="43.7949151" lon="6.4006772"><ele>788.4000000000001</ele><time>2026-05-02T15:28:02.972Z</time></trkpt><trkpt lat="43.7948943" lon="6.4008034"><ele>786.5999999999999</ele><time>2026-05-02T15:28:03.972Z</time></trkpt><trkpt lat="43.7948647" lon="6.4009358"><ele>784.8</ele><time>2026-05-02T15:28:04.972Z</time></trkpt><trkpt lat="43.7948216" lon="6.4010455"><ele>783.0</ele><time>2026-05-02T15:28:05.972Z</time></trkpt><trkpt lat="43.7947504" lon="6.4011648"><ele>783.0</ele><time>2026-05-02T15:28:06.972Z</time></trkpt><trkpt lat="43.7947058" lon="6.4012574"><ele>783.0</ele><time>2026-05-02T15:28:07.972Z</time></trkpt><trkpt lat="43.7946487" lon="6.4013319"><ele>783.0</ele><time>2026-05-02T15:28:08.972Z</time></trkpt><trkpt lat="43.7945937" lon="6.4014054"><ele>783.0</ele><time>2026-05-02T15:28:09.972Z</time></trkpt><trkpt lat="43.7944962" lon="6.4014808"><ele>783.0</ele><time>2026-05-02T15:28:10.972Z</time></trkpt><trkpt lat="43.794422" lon="6.4015633"><ele>783.0</ele><time>2026-05-02T15:28:11.971Z</time></trkpt><trkpt lat="43.7943666" lon="6.40165"><ele>780.4</ele><time>2026-05-02T15:28:12.972Z</time></trkpt><trkpt lat="43.7943019" lon="6.4017333"><ele>777.8</ele><time>2026-05-02T15:28:13.972Z</time></trkpt><trkpt lat="43.7942385" lon="6.4018144"><ele>775.2</ele><time>2026-05-02T15:28:14.972Z</time></trkpt><trkpt lat="43.7941948" lon="6.4019305"><ele>772.6</ele><time>2026-05-02T15:28:15.972Z</time></trkpt><trkpt lat="43.7941448" lon="6.4020461"><ele>770.0</ele><time>2026-05-02T15:28:16.972Z</time></trkpt><trkpt lat="43.7941401" lon="6.4021898"><ele>770.0</ele><time>2026-05-02T15:28:17.972Z</time></trkpt><trkpt lat="43.7941473" lon="6.4023279"><ele>770.0</ele><time>2026-05-02T15:28:18.972Z</time></trkpt><trkpt lat="43.7941492" lon="6.4024683"><ele>770.0</ele><time>2026-05-02T15:28:19.972Z</time></trkpt><trkpt lat="43.7941543" lon="6.4026156"><ele>770.0</ele><time>2026-05-02T15:28:20.972Z</time></trkpt><trkpt lat="43.7941402" lon="6.4027518"><ele>770.0</ele><time>2026-05-02T15:28:21.971Z</time></trkpt><trkpt lat="43.7941111" lon="6.4028948"><ele>770.8</ele><time>2026-05-02T15:28:22.972Z</time></trkpt><trkpt lat="43.7940471" lon="6.4029994"><ele>771.6</ele><time>2026-05-02T15:28:23.972Z</time></trkpt><trkpt lat="43.7939608" lon="6.4030906"><ele>772.4000000000001</ele><time>2026-05-02T15:28:24.972Z</time></trkpt><trkpt lat="43.7939121" lon="6.4031936"><ele>773.2</ele><time>2026-05-02T15:28:25.971Z</time></trkpt><trkpt lat="43.793841" lon="6.4033188"><ele>774.0</ele><time>2026-05-02T15:28:26.972Z</time></trkpt><trkpt lat="43.7937733" lon="6.4034325"><ele>774.0</ele><time>2026-05-02T15:28:27.972Z</time></trkpt><trkpt lat="43.7937085" lon="6.4035367"><ele>774.0</ele><time>2026-05-02T15:28:28.971Z</time></trkpt><trkpt lat="43.7936478" lon="6.4036325"><ele>774.0</ele><time>2026-05-02T15:28:29.972Z</time></trkpt><trkpt lat="43.7936228" lon="6.4037615"><ele>774.0</ele><time>2026-05-02T15:28:30.972Z</time></trkpt><trkpt lat="43.7935882" lon="6.4038834"><ele>774.0</ele><time>2026-05-02T15:28:31.972Z</time></trkpt><trkpt lat="43.7935848" lon="6.4039918"><ele>775.2</ele><time>2026-05-02T15:28:32.972Z</time></trkpt><trkpt lat="43.7936227" lon="6.4041155"><ele>776.4000000000001</ele><time>2026-05-02T15:28:33.972Z</time></trkpt><trkpt lat="43.7936446" lon="6.4042356"><ele>777.6</ele><time>2026-05-02T15:28:34.972Z</time></trkpt><trkpt lat="43.7936754" lon="6.4043358"><ele>778.8</ele><time>2026-05-02T15:28:35.972Z</time></trkpt><trkpt lat="43.7937642" lon="6.4044598"><ele>780.0</ele><time>2026-05-02T15:28:36.972Z</time></trkpt><trkpt lat="43.7938053" lon="6.4045852"><ele>778.8</ele><time>2026-05-02T15:28:37.972Z</time></trkpt><trkpt lat="43.7938348" lon="6.4047096"><ele>777.6</ele><time>2026-05-02T15:28:38.972Z</time></trkpt><trkpt lat="43.7938414" lon="6.4048779"><ele>776.4000000000001</ele><time>2026-05-02T15:28:39.972Z</time></trkpt><trkpt lat="43.7938054" lon="6.4050114"><ele>775.2</ele><time>2026-05-02T15:28:40.971Z</time></trkpt><trkpt lat="43.7937968" lon="6.4051857"><ele>774.0</ele><time>2026-05-02T15:28:41.972Z</time></trkpt><trkpt lat="43.7937919" lon="6.4053551"><ele>772.8000000000001</ele><time>2026-05-02T15:28:42.972Z</time></trkpt><trkpt lat="43.7937962" lon="6.4055036"><ele>771.6</ele><time>2026-05-02T15:28:43.972Z</time></trkpt><trkpt lat="43.7938005" lon="6.4056613"><ele>770.4</ele><time>2026-05-02T15:28:44.972Z</time></trkpt><trkpt lat="43.7937703" lon="6.4057846"><ele>769.2</ele><time>2026-05-02T15:28:45.972Z</time></trkpt><trkpt lat="43.7937263" lon="6.4059064"><ele>768.0</ele><time>2026-05-02T15:28:46.972Z</time></trkpt><trkpt lat="43.7936774" lon="6.4060263"><ele>768.0</ele><time>2026-05-02T15:28:47.972Z</time></trkpt><trkpt lat="43.7936363" lon="6.4061344"><ele>768.0</ele><time>2026-05-02T15:28:48.972Z</time></trkpt><trkpt lat="43.7936058" lon="6.4062457"><ele>768.0</ele><time>2026-05-02T15:28:49.972Z</time></trkpt><trkpt lat="43.793549" lon="6.4063633"><ele>768.0</ele><time>2026-05-02T15:28:50.972Z</time></trkpt><trkpt lat="43.7934818" lon="6.4064589"><ele>768.0</ele><time>2026-05-02T15:28:51.972Z</time></trkpt><trkpt lat="43.7934209" lon="6.4065657"><ele>765.4</ele><time>2026-05-02T15:28:52.972Z</time></trkpt><trkpt lat="43.7933642" lon="6.4066835"><ele>762.8</ele><time>2026-05-02T15:28:53.972Z</time></trkpt><trkpt lat="43.7933146" lon="6.4068045"><ele>760.2</ele><time>2026-05-02T15:28:54.972Z</time></trkpt><trkpt lat="43.7932652" lon="6.4069255"><ele>757.6</ele><time>2026-05-02T15:28:55.972Z</time></trkpt><trkpt lat="43.7932397" lon="6.4070247"><ele>755.0</ele><time>2026-05-02T15:28:56.971Z</time></trkpt><trkpt lat="43.7932495" lon="6.4071797"><ele>753.6</ele><time>2026-05-02T15:28:58.972Z</time></trkpt><trkpt lat="43.7932788" lon="6.4073273"><ele>752.2</ele><time>2026-05-02T15:29:00.972Z</time></trkpt><trkpt lat="43.7933442" lon="6.4073775"><ele>750.8</ele><time>2026-05-02T15:29:01.972Z</time></trkpt><trkpt lat="43.7934478" lon="6.4074671"><ele>749.4</ele><time>2026-05-02T15:29:02.972Z</time></trkpt><trkpt lat="43.793537" lon="6.4075383"><ele>748.0</ele><time>2026-05-02T15:29:03.972Z</time></trkpt><trkpt lat="43.793649" lon="6.4076437"><ele>748.0</ele><time>2026-05-02T15:29:04.971Z</time></trkpt><trkpt lat="43.7937107" lon="6.4076629"><ele>748.0</ele><time>2026-05-02T15:29:05.971Z</time></trkpt><trkpt lat="43.7937704" lon="6.4077167"><ele>748.0</ele><time>2026-05-02T15:29:06.972Z</time></trkpt><trkpt lat="43.7938652" lon="6.4077741"><ele>748.0</ele><time>2026-05-02T15:29:07.971Z</time></trkpt><trkpt lat="43.7939557" lon="6.4077961"><ele>748.0</ele><time>2026-05-02T15:29:08.972Z</time></trkpt><trkpt lat="43.7940237" lon="6.4078536"><ele>748.0</ele><time>2026-05-02T15:29:09.972Z</time></trkpt><trkpt lat="43.7941066" lon="6.4078677"><ele>748.0</ele><time>2026-05-02T15:29:10.972Z</time></trkpt><trkpt lat="43.794177" lon="6.4078455"><ele>748.0</ele><time>2026-05-02T15:29:11.972Z</time></trkpt><trkpt lat="43.79426" lon="6.4078192"><ele>748.0</ele><time>2026-05-02T15:29:12.971Z</time></trkpt><trkpt lat="43.794335" lon="6.4077511"><ele>748.0</ele><time>2026-05-02T15:29:13.972Z</time></trkpt><trkpt lat="43.7944806" lon="6.4076716"><ele>748.0</ele><time>2026-05-02T15:29:14.972Z</time></trkpt><trkpt lat="43.7945559" lon="6.407641"><ele>745.25</ele><time>2026-05-02T15:29:15.972Z</time></trkpt><trkpt lat="43.7947054" lon="6.407619"><ele>742.5</ele><time>2026-05-02T15:29:16.972Z</time></trkpt><trkpt lat="43.7947991" lon="6.4076159"><ele>739.75</ele><time>2026-05-02T15:29:17.971Z</time></trkpt><trkpt lat="43.7948807" lon="6.4076047"><ele>737.0</ele><time>2026-05-02T15:29:18.972Z</time></trkpt><trkpt lat="43.7950189" lon="6.4075844"><ele>737.0</ele><time>2026-05-02T15:29:22.972Z</time></trkpt><trkpt lat="43.7951508" lon="6.4076386"><ele>737.0</ele><time>2026-05-02T15:29:23.972Z</time></trkpt><trkpt lat="43.7953642" lon="6.4076955"><ele>737.0</ele><time>2026-05-02T15:29:24.972Z</time></trkpt><trkpt lat="43.795535" lon="6.4077256"><ele>738.4000000000001</ele><time>2026-05-02T15:29:25.972Z</time></trkpt><trkpt lat="43.7956289" lon="6.4077774"><ele>739.8000000000001</ele><time>2026-05-02T15:29:26.972Z</time></trkpt><trkpt lat="43.7957445" lon="6.4078288"><ele>741.2</ele><time>2026-05-02T15:29:27.972Z</time></trkpt><trkpt lat="43.7958649" lon="6.4078885"><ele>742.6</ele><time>2026-05-02T15:29:28.972Z</time></trkpt><trkpt lat="43.7959469" lon="6.4079167"><ele>744.0</ele><time>2026-05-02T15:29:29.972Z</time></trkpt><trkpt lat="43.7960349" lon="6.4080237"><ele>744.8571428571429</ele><time>2026-05-02T15:29:31.972Z</time></trkpt><trkpt lat="43.7961045" lon="6.4080613"><ele>745.7142857142858</ele><time>2026-05-02T15:29:32.972Z</time></trkpt><trkpt lat="43.7961337" lon="6.4081425"><ele>746.5714285714287</ele><time>2026-05-02T15:29:33.972Z</time></trkpt><trkpt lat="43.7961716" lon="6.4082181"><ele>747.4285714285714</ele><time>2026-05-02T15:29:34.972Z</time></trkpt><trkpt lat="43.7961621" lon="6.4083126"><ele>748.2857142857142</ele><time>2026-05-02T15:29:35.971Z</time></trkpt><trkpt lat="43.7961473" lon="6.4084225"><ele>749.1428571428572</ele><time>2026-05-02T15:29:36.972Z</time></trkpt><trkpt lat="43.7961561" lon="6.4085501"><ele>750.0</ele><time>2026-05-02T15:29:37.971Z</time></trkpt><trkpt lat="43.796121" lon="6.4086802"><ele>750.25</ele><time>2026-05-02T15:29:38.972Z</time></trkpt><trkpt lat="43.7960954" lon="6.4088342"><ele>750.5</ele><time>2026-05-02T15:29:39.971Z</time></trkpt><trkpt lat="43.7960824" lon="6.4089977"><ele>750.75</ele><time>2026-05-02T15:29:40.972Z</time></trkpt><trkpt lat="43.7960413" lon="6.4091331"><ele>751.0</ele><time>2026-05-02T15:29:41.972Z</time></trkpt><trkpt lat="43.7960402" lon="6.4092868"><ele>751.0</ele><time>2026-05-02T15:29:42.972Z</time></trkpt><trkpt lat="43.796063" lon="6.4094428"><ele>751.0</ele><time>2026-05-02T15:29:43.972Z</time></trkpt><trkpt lat="43.7960674" lon="6.4095467"><ele>751.0</ele><time>2026-05-02T15:29:44.971Z</time></trkpt><trkpt lat="43.7961113" lon="6.4096215"><ele>751.0</ele><time>2026-05-02T15:29:45.971Z</time></trkpt><trkpt lat="43.796165" lon="6.4097027"><ele>751.0</ele><time>2026-05-02T15:29:46.972Z</time></trkpt><trkpt lat="43.7962311" lon="6.4097706"><ele>751.0</ele><time>2026-05-02T15:29:47.972Z</time></trkpt><trkpt lat="43.7962774" lon="6.4098491"><ele>752.8333333333334</ele><time>2026-05-02T15:29:48.972Z</time></trkpt><trkpt lat="43.7963253" lon="6.4099275"><ele>754.6666666666667</ele><time>2026-05-02T15:29:49.971Z</time></trkpt><trkpt lat="43.7963285" lon="6.4100257"><ele>756.5</ele><time>2026-05-02T15:29:50.972Z</time></trkpt><trkpt lat="43.796295" lon="6.410165"><ele>758.3333333333334</ele><time>2026-05-02T15:29:51.972Z</time></trkpt><trkpt lat="43.7962836" lon="6.4102729"><ele>760.1666666666666</ele><time>2026-05-02T15:29:52.972Z</time></trkpt><trkpt lat="43.7962669" lon="6.4104085"><ele>762.0</ele><time>2026-05-02T15:29:53.971Z</time></trkpt><trkpt lat="43.7962705" lon="6.4105128"><ele>762.0</ele><time>2026-05-02T15:29:54.972Z</time></trkpt><trkpt lat="43.7962791" lon="6.4106199"><ele>762.0</ele><time>2026-05-02T15:29:55.971Z</time></trkpt><trkpt lat="43.7963107" lon="6.4108112"><ele>762.0</ele><time>2026-05-02T15:29:56.972Z</time></trkpt><trkpt lat="43.796314" lon="6.4109601"><ele>762.0</ele><time>2026-05-02T15:29:57.972Z</time></trkpt><trkpt lat="43.7963203" lon="6.4110882"><ele>762.0</ele><time>2026-05-02T15:29:58.972Z</time></trkpt><trkpt lat="43.7963561" lon="6.4112137"><ele>762.0</ele><time>2026-05-02T15:29:59.972Z</time></trkpt><trkpt lat="43.7964232" lon="6.4113317"><ele>762.0</ele><time>2026-05-02T15:30:00.972Z</time></trkpt><trkpt lat="43.7964637" lon="6.4114218"><ele>762.0</ele><time>2026-05-02T15:30:01.972Z</time></trkpt><trkpt lat="43.7965421" lon="6.4115528"><ele>762.0</ele><time>2026-05-02T15:30:02.972Z</time></trkpt><trkpt lat="43.7966251" lon="6.4116856"><ele>762.0</ele><time>2026-05-02T15:30:03.972Z</time></trkpt><trkpt lat="43.7966656" lon="6.4118247"><ele>779.8</ele><time>2026-05-02T15:30:04.972Z</time></trkpt><trkpt lat="43.796712" lon="6.4119738"><ele>797.6</ele><time>2026-05-02T15:30:05.972Z</time></trkpt><trkpt lat="43.7967592" lon="6.412085"><ele>815.4</ele><time>2026-05-02T15:30:06.972Z</time></trkpt><trkpt lat="43.7968297" lon="6.4121871"><ele>833.1999999999999</ele><time>2026-05-02T15:30:07.972Z</time></trkpt><trkpt lat="43.7968997" lon="6.412273"><ele>851.0</ele><time>2026-05-02T15:30:08.972Z</time></trkpt><trkpt lat="43.7969764" lon="6.4123292"><ele>855.0000000000001</ele><time>2026-05-02T15:30:09.972Z</time></trkpt><trkpt lat="43.7970445" lon="6.4123892"><ele>859.0</ele><time>2026-05-02T15:30:10.972Z</time></trkpt><trkpt lat="43.7971372" lon="6.4124741"><ele>863.0</ele><time>2026-05-02T15:30:11.971Z</time></trkpt><trkpt lat="43.7971673" lon="6.4125698"><ele>867.0</ele><time>2026-05-02T15:30:12.972Z</time></trkpt><trkpt lat="43.7971609" lon="6.412671"><ele>871.0000000000001</ele><time>2026-05-02T15:30:13.972Z</time></trkpt><trkpt lat="43.7971582" lon="6.4127856"><ele>875.0</ele><time>2026-05-02T15:30:14.972Z</time></trkpt><trkpt lat="43.7971381" lon="6.4128855"><ele>879.4</ele><time>2026-05-02T15:30:15.971Z</time></trkpt><trkpt lat="43.7970976" lon="6.4130139"><ele>883.8</ele><time>2026-05-02T15:30:16.972Z</time></trkpt><trkpt lat="43.7970502" lon="6.4131341"><ele>888.2</ele><time>2026-05-02T15:30:17.972Z</time></trkpt><trkpt lat="43.7969793" lon="6.4132637"><ele>892.6</ele><time>2026-05-02T15:30:18.972Z</time></trkpt><trkpt lat="43.7969109" lon="6.4133478"><ele>897.0</ele><time>2026-05-02T15:30:19.971Z</time></trkpt><trkpt lat="43.7968539" lon="6.4133915"><ele>891.1666666666666</ele><time>2026-05-02T15:30:20.972Z</time></trkpt><trkpt lat="43.7968134" lon="6.4134659"><ele>885.3333333333333</ele><time>2026-05-02T15:30:21.972Z</time></trkpt><trkpt lat="43.7968034" lon="6.4135774"><ele>879.5</ele><time>2026-05-02T15:30:22.972Z</time></trkpt><trkpt lat="43.7967967" lon="6.4136928"><ele>873.6666666666666</ele><time>2026-05-02T15:30:23.972Z</time></trkpt><trkpt lat="43.7967875" lon="6.4138162"><ele>867.8333333333333</ele><time>2026-05-02T15:30:24.972Z</time></trkpt><trkpt lat="43.7967624" lon="6.4139705"><ele>862.0</ele><time>2026-05-02T15:30:25.972Z</time></trkpt><trkpt lat="43.7967202" lon="6.4141305"><ele>862.0</ele><time>2026-05-02T15:30:26.972Z</time></trkpt><trkpt lat="43.7966681" lon="6.4142693"><ele>862.0</ele><time>2026-05-02T15:30:27.972Z</time></trkpt><trkpt lat="43.7966208" lon="6.4144001"><ele>862.0</ele><time>2026-05-02T15:30:28.972Z</time></trkpt><trkpt lat="43.7965798" lon="6.4145244"><ele>862.0</ele><time>2026-05-02T15:30:29.972Z</time></trkpt><trkpt lat="43.7965387" lon="6.4146294"><ele>862.0</ele><time>2026-05-02T15:30:30.972Z</time></trkpt><trkpt lat="43.7964727" lon="6.4147065"><ele>868.0</ele><time>2026-05-02T15:30:31.972Z</time></trkpt><trkpt lat="43.7963909" lon="6.4147781"><ele>874.0</ele><time>2026-05-02T15:30:32.972Z</time></trkpt><trkpt lat="43.7963111" lon="6.4148478"><ele>880.0</ele><time>2026-05-02T15:30:33.971Z</time></trkpt><trkpt lat="43.7962131" lon="6.414912"><ele>886.0</ele><time>2026-05-02T15:30:34.972Z</time></trkpt><trkpt lat="43.7961591" lon="6.4150094"><ele>892.0</ele><time>2026-05-02T15:30:35.972Z</time></trkpt><trkpt lat="43.79613" lon="6.4151234"><ele>892.0</ele><time>2026-05-02T15:30:36.972Z</time></trkpt><trkpt lat="43.79609" lon="6.4152182"><ele>892.0</ele><time>2026-05-02T15:30:37.971Z</time></trkpt><trkpt lat="43.796043" lon="6.4153253"><ele>892.0</ele><time>2026-05-02T15:30:38.972Z</time></trkpt><trkpt lat="43.7959787" lon="6.4154142"><ele>892.0</ele><time>2026-05-02T15:30:39.972Z</time></trkpt><trkpt lat="43.7959315" lon="6.415535"><ele>892.0</ele><time>2026-05-02T15:30:40.972Z</time></trkpt><trkpt lat="43.7958804" lon="6.4156543"><ele>886.2</ele><time>2026-05-02T15:30:41.972Z</time></trkpt><trkpt lat="43.7958346" lon="6.415789"><ele>880.4000000000001</ele><time>2026-05-02T15:30:42.972Z</time></trkpt><trkpt lat="43.7957976" lon="6.4159309"><ele>874.5999999999999</ele><time>2026-05-02T15:30:43.972Z</time></trkpt><trkpt lat="43.7957358" lon="6.4160582"><ele>868.8</ele><time>2026-05-02T15:30:44.972Z</time></trkpt><trkpt lat="43.7956845" lon="6.4161596"><ele>863.0</ele><time>2026-05-02T15:30:45.972Z</time></trkpt><trkpt lat="43.7956057" lon="6.4162994"><ele>871.25</ele><time>2026-05-02T15:30:46.972Z</time></trkpt><trkpt lat="43.7955254" lon="6.4164309"><ele>879.5</ele><time>2026-05-02T15:30:47.972Z</time></trkpt><trkpt lat="43.7954526" lon="6.4165792"><ele>887.75</ele><time>2026-05-02T15:30:48.972Z</time></trkpt><trkpt lat="43.7953688" lon="6.4167091"><ele>896.0</ele><time>2026-05-02T15:30:49.972Z</time></trkpt><trkpt lat="43.7952791" lon="6.4168395"><ele>896.0</ele><time>2026-05-02T15:30:50.971Z</time></trkpt><trkpt lat="43.7951867" lon="6.4169539"><ele>896.0</ele><time>2026-05-02T15:30:51.972Z</time></trkpt><trkpt lat="43.7950943" lon="6.4170657"><ele>896.0</ele><time>2026-05-02T15:30:52.972Z</time></trkpt><trkpt lat="43.7950099" lon="6.4171898"><ele>896.0</ele><time>2026-05-02T15:30:53.972Z</time></trkpt><trkpt lat="43.7949232" lon="6.4173003"><ele>887.0</ele><time>2026-05-02T15:30:54.972Z</time></trkpt><trkpt lat="43.7948463" lon="6.4174237"><ele>878.0</ele><time>2026-05-02T15:30:55.972Z</time></trkpt><trkpt lat="43.7947818" lon="6.4175564"><ele>869.0</ele><time>2026-05-02T15:30:56.972Z</time></trkpt><trkpt lat="43.7947155" lon="6.4176924"><ele>860.0</ele><time>2026-05-02T15:30:57.972Z</time></trkpt><trkpt lat="43.7946458" lon="6.4178277"><ele>860.0</ele><time>2026-05-02T15:30:58.972Z</time></trkpt><trkpt lat="43.7945879" lon="6.41797"><ele>860.0</ele><time>2026-05-02T15:30:59.972Z</time></trkpt><trkpt lat="43.7945346" lon="6.4180972"><ele>860.0</ele><time>2026-05-02T15:31:00.972Z</time></trkpt><trkpt lat="43.7944746" lon="6.4182094"><ele>860.0</ele><time>2026-05-02T15:31:01.972Z</time></trkpt><trkpt lat="43.7943707" lon="6.4182765"><ele>860.0</ele><time>2026-05-02T15:31:02.972Z</time></trkpt><trkpt lat="43.7943174" lon="6.4183764"><ele>859.4</ele><time>2026-05-02T15:31:03.972Z</time></trkpt><trkpt lat="43.794247" lon="6.4184811"><ele>858.8</ele><time>2026-05-02T15:31:04.972Z</time></trkpt><trkpt lat="43.7941803" lon="6.4186009"><ele>858.2</ele><time>2026-05-02T15:31:05.972Z</time></trkpt><trkpt lat="43.7941356" lon="6.4187239"><ele>857.6</ele><time>2026-05-02T15:31:06.971Z</time></trkpt><trkpt lat="43.7941013" lon="6.4188594"><ele>857.0</ele><time>2026-05-02T15:31:07.971Z</time></trkpt><trkpt lat="43.7940706" lon="6.4189911"><ele>857.0</ele><time>2026-05-02T15:31:08.971Z</time></trkpt><trkpt lat="43.7940368" lon="6.4191505"><ele>857.0</ele><time>2026-05-02T15:31:09.972Z</time></trkpt><trkpt lat="43.7939779" lon="6.4192755"><ele>857.0</ele><time>2026-05-02T15:31:10.972Z</time></trkpt><trkpt lat="43.7939135" lon="6.419402"><ele>857.0</ele><time>2026-05-02T15:31:11.972Z</time></trkpt><trkpt lat="43.793847" lon="6.4195367"><ele>861.6</ele><time>2026-05-02T15:31:12.972Z</time></trkpt><trkpt lat="43.7937877" lon="6.4196789"><ele>866.2</ele><time>2026-05-02T15:31:13.972Z</time></trkpt><trkpt lat="43.7937376" lon="6.4198153"><ele>870.8</ele><time>2026-05-02T15:31:14.972Z</time></trkpt><trkpt lat="43.7936842" lon="6.4199511"><ele>875.4</ele><time>2026-05-02T15:31:15.972Z</time></trkpt><trkpt lat="43.7936225" lon="6.4200749"><ele>880.0</ele><time>2026-05-02T15:31:16.972Z</time></trkpt><trkpt lat="43.7935444" lon="6.4201659"><ele>877.2</ele><time>2026-05-02T15:31:17.972Z</time></trkpt><trkpt lat="43.7934547" lon="6.420251"><ele>874.4</ele><time>2026-05-02T15:31:18.971Z</time></trkpt><trkpt lat="43.7933658" lon="6.420332"><ele>871.5999999999999</ele><time>2026-05-02T15:31:19.972Z</time></trkpt><trkpt lat="43.7933165" lon="6.4204705"><ele>868.8</ele><time>2026-05-02T15:31:20.972Z</time></trkpt><trkpt lat="43.7932455" lon="6.4205917"><ele>866.0</ele><time>2026-05-02T15:31:21.972Z</time></trkpt><trkpt lat="43.7931718" lon="6.4206989"><ele>866.0</ele><time>2026-05-02T15:31:22.971Z</time></trkpt><trkpt lat="43.793097" lon="6.4208019"><ele>865.9999999999999</ele><time>2026-05-02T15:31:23.972Z</time></trkpt><trkpt lat="43.7930403" lon="6.4209151"><ele>865.9999999999999</ele><time>2026-05-02T15:31:24.972Z</time></trkpt><trkpt lat="43.7930223" lon="6.4210564"><ele>866.0</ele><time>2026-05-02T15:31:25.972Z</time></trkpt><trkpt lat="43.7929643" lon="6.4211836"><ele>866.0</ele><time>2026-05-02T15:31:26.972Z</time></trkpt><trkpt lat="43.7928875" lon="6.4212955"><ele>864.75</ele><time>2026-05-02T15:31:27.972Z</time></trkpt><trkpt lat="43.7928309" lon="6.4214025"><ele>863.5</ele><time>2026-05-02T15:31:28.972Z</time></trkpt><trkpt lat="43.7927345" lon="6.4215106"><ele>862.25</ele><time>2026-05-02T15:31:29.972Z</time></trkpt><trkpt lat="43.792635" lon="6.4216179"><ele>861.0</ele><time>2026-05-02T15:31:30.972Z</time></trkpt><trkpt lat="43.7925462" lon="6.421711"><ele>861.0</ele><time>2026-05-02T15:31:31.972Z</time></trkpt><trkpt lat="43.792468" lon="6.421784"><ele>860.9999999999999</ele><time>2026-05-02T15:31:32.971Z</time></trkpt><trkpt lat="43.7923718" lon="6.4218331"><ele>860.9999999999999</ele><time>2026-05-02T15:31:33.971Z</time></trkpt><trkpt lat="43.7922843" lon="6.4218764"><ele>861.0</ele><time>2026-05-02T15:31:34.972Z</time></trkpt><trkpt lat="43.7921647" lon="6.4220026"><ele>861.0</ele><time>2026-05-02T15:31:36.972Z</time></trkpt><trkpt lat="43.7920986" lon="6.4221035"><ele>860.5999999999999</ele><time>2026-05-02T15:31:37.972Z</time></trkpt><trkpt lat="43.7920596" lon="6.4222254"><ele>860.1999999999999</ele><time>2026-05-02T15:31:38.972Z</time></trkpt><trkpt lat="43.7920091" lon="6.4223572"><ele>859.8000000000001</ele><time>2026-05-02T15:31:39.972Z</time></trkpt><trkpt lat="43.7919519" lon="6.4224876"><ele>859.4000000000001</ele><time>2026-05-02T15:31:40.972Z</time></trkpt><trkpt lat="43.7918975" lon="6.4226229"><ele>859.0</ele><time>2026-05-02T15:31:41.971Z</time></trkpt><trkpt lat="43.7918157" lon="6.4227531"><ele>859.0</ele><time>2026-05-02T15:31:42.972Z</time></trkpt><trkpt lat="43.7917225" lon="6.422855"><ele>859.0</ele><time>2026-05-02T15:31:43.972Z</time></trkpt><trkpt lat="43.7916492" lon="6.4229824"><ele>859.0</ele><time>2026-05-02T15:31:44.972Z</time></trkpt><trkpt lat="43.7915878" lon="6.4231224"><ele>859.0</ele><time>2026-05-02T15:31:45.972Z</time></trkpt><trkpt lat="43.7915236" lon="6.4232535"><ele>859.0</ele><time>2026-05-02T15:31:46.972Z</time></trkpt><trkpt lat="43.7914367" lon="6.4233563"><ele>859.0000000000001</ele><time>2026-05-02T15:31:47.972Z</time></trkpt><trkpt lat="43.7913566" lon="6.4234664"><ele>859.0000000000001</ele><time>2026-05-02T15:31:48.971Z</time></trkpt><trkpt lat="43.7912942" lon="6.4235903"><ele>859.0</ele><time>2026-05-02T15:31:49.972Z</time></trkpt><trkpt lat="43.7912306" lon="6.4237089"><ele>859.0</ele><time>2026-05-02T15:31:50.971Z</time></trkpt><trkpt lat="43.7911665" lon="6.4238218"><ele>859.0</ele><time>2026-05-02T15:31:51.972Z</time></trkpt><trkpt lat="43.791094" lon="6.4239546"><ele>859.0000000000001</ele><time>2026-05-02T15:31:52.971Z</time></trkpt><trkpt lat="43.7910376" lon="6.4240353"><ele>859.0000000000001</ele><time>2026-05-02T15:31:53.972Z</time></trkpt><trkpt lat="43.7909923" lon="6.4241242"><ele>859.0</ele><time>2026-05-02T15:31:54.972Z</time></trkpt><trkpt lat="43.7909522" lon="6.4242343"><ele>859.0</ele><time>2026-05-02T15:31:55.972Z</time></trkpt><trkpt lat="43.7909416" lon="6.4243529"><ele>834.6</ele><time>2026-05-02T15:31:56.972Z</time></trkpt><trkpt lat="43.7909091" lon="6.4244688"><ele>810.2</ele><time>2026-05-02T15:31:57.972Z</time></trkpt><trkpt lat="43.7909194" lon="6.4245813"><ele>785.8000000000001</ele><time>2026-05-02T15:31:58.972Z</time></trkpt><trkpt lat="43.7909581" lon="6.4247087"><ele>761.4000000000001</ele><time>2026-05-02T15:31:59.971Z</time></trkpt><trkpt lat="43.7909962" lon="6.424854"><ele>737.0</ele><time>2026-05-02T15:32:00.972Z</time></trkpt><trkpt lat="43.7910505" lon="6.4250213"><ele>730.0</ele><time>2026-05-02T15:32:01.971Z</time></trkpt><trkpt lat="43.7910922" lon="6.4252171"><ele>723.0</ele><time>2026-05-02T15:32:03.972Z</time></trkpt><trkpt lat="43.7911373" lon="6.4253571"><ele>716.0</ele><time>2026-05-02T15:32:04.972Z</time></trkpt><trkpt lat="43.791185" lon="6.4255513"><ele>709.0</ele><time>2026-05-02T15:32:05.971Z</time></trkpt><trkpt lat="43.7912634" lon="6.4257534"><ele>709.0</ele><time>2026-05-02T15:32:06.972Z</time></trkpt><trkpt lat="43.791282" lon="6.4258996"><ele>709.0</ele><time>2026-05-02T15:32:07.972Z</time></trkpt><trkpt lat="43.7913182" lon="6.4260527"><ele>709.0</ele><time>2026-05-02T15:32:08.972Z</time></trkpt><trkpt lat="43.7913508" lon="6.4262068"><ele>709.0</ele><time>2026-05-02T15:32:09.972Z</time></trkpt><trkpt lat="43.7913726" lon="6.426368"><ele>710.25</ele><time>2026-05-02T15:32:10.972Z</time></trkpt><trkpt lat="43.7914271" lon="6.4265749"><ele>711.5</ele><time>2026-05-02T15:32:11.971Z</time></trkpt><trkpt lat="43.7914546" lon="6.426758"><ele>712.75</ele><time>2026-05-02T15:32:12.972Z</time></trkpt><trkpt lat="43.7914715" lon="6.4269468"><ele>714.0</ele><time>2026-05-02T15:32:13.972Z</time></trkpt><trkpt lat="43.7914869" lon="6.4270773"><ele>710.6</ele><time>2026-05-02T15:32:14.972Z</time></trkpt><trkpt lat="43.791504" lon="6.4272128"><ele>707.2</ele><time>2026-05-02T15:32:15.971Z</time></trkpt><trkpt lat="43.7915365" lon="6.4273736"><ele>703.8000000000001</ele><time>2026-05-02T15:32:16.972Z</time></trkpt><trkpt lat="43.791493" lon="6.4274571"><ele>700.4000000000001</ele><time>2026-05-02T15:32:17.971Z</time></trkpt><trkpt lat="43.7915471" lon="6.427634"><ele>697.0</ele><time>2026-05-02T15:32:18.972Z</time></trkpt><trkpt lat="43.7915985" lon="6.4277839"><ele>697.0</ele><time>2026-05-02T15:32:19.971Z</time></trkpt><trkpt lat="43.7916306" lon="6.4279187"><ele>697.0</ele><time>2026-05-02T15:32:20.972Z</time></trkpt><trkpt lat="43.791663" lon="6.4280418"><ele>697.0</ele><time>2026-05-02T15:32:21.972Z</time></trkpt><trkpt lat="43.7916799" lon="6.4281593"><ele>697.0</ele><time>2026-05-02T15:32:22.972Z</time></trkpt><trkpt lat="43.7916103" lon="6.4283311"><ele>697.0</ele><time>2026-05-02T15:32:24.972Z</time></trkpt><trkpt lat="43.7915858" lon="6.4284464"><ele>694.5</ele><time>2026-05-02T15:32:25.972Z</time></trkpt><trkpt lat="43.7915585" lon="6.4285962"><ele>692.0</ele><time>2026-05-02T15:32:26.972Z</time></trkpt><trkpt lat="43.7915516" lon="6.4287688"><ele>689.5</ele><time>2026-05-02T15:32:28.972Z</time></trkpt><trkpt lat="43.7916169" lon="6.4290067"><ele>687.0</ele><time>2026-05-02T15:32:29.972Z</time></trkpt><trkpt lat="43.7916686" lon="6.4290938"><ele>690.25</ele><time>2026-05-02T15:32:30.972Z</time></trkpt><trkpt lat="43.7917279" lon="6.4292293"><ele>693.5</ele><time>2026-05-02T15:32:31.972Z</time></trkpt><trkpt lat="43.7918037" lon="6.4294171"><ele>696.75</ele><time>2026-05-02T15:32:32.972Z</time></trkpt><trkpt lat="43.7918564" lon="6.4295506"><ele>700.0</ele><time>2026-05-02T15:32:33.972Z</time></trkpt><trkpt lat="43.7918942" lon="6.4296893"><ele>690.75</ele><time>2026-05-02T15:32:34.972Z</time></trkpt><trkpt lat="43.7920174" lon="6.4297359"><ele>681.5</ele><time>2026-05-02T15:32:35.971Z</time></trkpt><trkpt lat="43.7921495" lon="6.4298884"><ele>672.25</ele><time>2026-05-02T15:32:36.972Z</time></trkpt><trkpt lat="43.792219" lon="6.4300528"><ele>663.0</ele><time>2026-05-02T15:32:37.972Z</time></trkpt><trkpt lat="43.7922601" lon="6.4301979"><ele>663.0</ele><time>2026-05-02T15:32:38.972Z</time></trkpt><trkpt lat="43.7923144" lon="6.430311"><ele>663.0</ele><time>2026-05-02T15:32:39.972Z</time></trkpt><trkpt lat="43.7923583" lon="6.4304032"><ele>663.0</ele><time>2026-05-02T15:32:40.972Z</time></trkpt><trkpt lat="43.7923932" lon="6.4305567"><ele>663.0</ele><time>2026-05-02T15:32:41.972Z</time></trkpt><trkpt lat="43.7924608" lon="6.4306991"><ele>663.0</ele><time>2026-05-02T15:32:42.972Z</time></trkpt><trkpt lat="43.7924946" lon="6.4308048"><ele>660.5</ele><time>2026-05-02T15:32:43.972Z</time></trkpt><trkpt lat="43.7925657" lon="6.4308977"><ele>658.0</ele><time>2026-05-02T15:32:44.972Z</time></trkpt><trkpt lat="43.7925903" lon="6.4309967"><ele>655.5</ele><time>2026-05-02T15:32:45.971Z</time></trkpt><trkpt lat="43.7926211" lon="6.4310757"><ele>653.0</ele><time>2026-05-02T15:32:46.971Z</time></trkpt><trkpt lat="43.7926219" lon="6.4311896"><ele>650.5</ele><time>2026-05-02T15:32:47.971Z</time></trkpt><trkpt lat="43.7926328" lon="6.4312836"><ele>648.0</ele><time>2026-05-02T15:32:48.972Z</time></trkpt><trkpt lat="43.792572" lon="6.4314674"><ele>647.5</ele><time>2026-05-02T15:32:49.972Z</time></trkpt><trkpt lat="43.7924724" lon="6.4315788"><ele>647.0</ele><time>2026-05-02T15:32:50.972Z</time></trkpt><trkpt lat="43.7923731" lon="6.4316929"><ele>646.5</ele><time>2026-05-02T15:32:51.972Z</time></trkpt><trkpt lat="43.7922955" lon="6.4318168"><ele>646.0</ele><time>2026-05-02T15:32:52.972Z</time></trkpt><trkpt lat="43.792227" lon="6.4319265"><ele>646.0</ele><time>2026-05-02T15:32:53.972Z</time></trkpt><trkpt lat="43.7921809" lon="6.4320905"><ele>646.0</ele><time>2026-05-02T15:32:54.972Z</time></trkpt><trkpt lat="43.7921409" lon="6.4322329"><ele>646.0</ele><time>2026-05-02T15:32:55.968Z</time></trkpt><trkpt lat="43.7921655" lon="6.4323809"><ele>646.0</ele><time>2026-05-02T15:32:56.971Z</time></trkpt><trkpt lat="43.7921719" lon="6.4325151"><ele>646.0</ele><time>2026-05-02T15:32:57.967Z</time></trkpt><trkpt lat="43.7922077" lon="6.4326383"><ele>645.5</ele><time>2026-05-02T15:32:58.967Z</time></trkpt><trkpt lat="43.7922765" lon="6.4326807"><ele>645.0</ele><time>2026-05-02T15:32:59.968Z</time></trkpt><trkpt lat="43.7923612" lon="6.4327419"><ele>644.5</ele><time>2026-05-02T15:33:00.967Z</time></trkpt><trkpt lat="43.792422" lon="6.4328195"><ele>644.0</ele><time>2026-05-02T15:33:01.967Z</time></trkpt><trkpt lat="43.7924833" lon="6.4328997"><ele>643.5</ele><time>2026-05-02T15:33:02.967Z</time></trkpt><trkpt lat="43.7924971" lon="6.4330247"><ele>643.0</ele><time>2026-05-02T15:33:03.967Z</time></trkpt><trkpt lat="43.7925245" lon="6.4331449"><ele>642.1999999999999</ele><time>2026-05-02T15:33:04.967Z</time></trkpt><trkpt lat="43.7925548" lon="6.4332268"><ele>641.4</ele><time>2026-05-02T15:33:05.967Z</time></trkpt><trkpt lat="43.7926052" lon="6.4333268"><ele>640.5999999999999</ele><time>2026-05-02T15:33:06.967Z</time></trkpt><trkpt lat="43.7927209" lon="6.4333758"><ele>639.8</ele><time>2026-05-02T15:33:07.967Z</time></trkpt><trkpt lat="43.7928312" lon="6.4334318"><ele>639.0</ele><time>2026-05-02T15:33:08.967Z</time></trkpt><trkpt lat="43.7929164" lon="6.4335163"><ele>641.0</ele><time>2026-05-02T15:33:09.967Z</time></trkpt><trkpt lat="43.7929794" lon="6.4335994"><ele>643.0</ele><time>2026-05-02T15:33:10.966Z</time></trkpt><trkpt lat="43.7930529" lon="6.4336653"><ele>645.0</ele><time>2026-05-02T15:33:11.967Z</time></trkpt><trkpt lat="43.7931411" lon="6.4336904"><ele>647.0</ele><time>2026-05-02T15:33:12.967Z</time></trkpt><trkpt lat="43.7932533" lon="6.4336947"><ele>649.0</ele><time>2026-05-02T15:33:13.966Z</time></trkpt><trkpt lat="43.7933573" lon="6.4337096"><ele>649.0</ele><time>2026-05-02T15:33:14.967Z</time></trkpt><trkpt lat="43.793451" lon="6.4336757"><ele>649.0</ele><time>2026-05-02T15:33:15.967Z</time></trkpt><trkpt lat="43.7935553" lon="6.4336736"><ele>649.0</ele><time>2026-05-02T15:33:16.967Z</time></trkpt><trkpt lat="43.7936262" lon="6.4336695"><ele>649.0</ele><time>2026-05-02T15:33:17.966Z</time></trkpt><trkpt lat="43.7937098" lon="6.4336923"><ele>649.0</ele><time>2026-05-02T15:33:18.966Z</time></trkpt><trkpt lat="43.7937838" lon="6.4337448"><ele>649.0</ele><time>2026-05-02T15:33:19.967Z</time></trkpt><trkpt lat="43.7938382" lon="6.4338319"><ele>648.4000000000001</ele><time>2026-05-02T15:33:20.967Z</time></trkpt><trkpt lat="43.7938775" lon="6.4339417"><ele>647.8</ele><time>2026-05-02T15:33:21.967Z</time></trkpt><trkpt lat="43.7939051" lon="6.4340764"><ele>647.2</ele><time>2026-05-02T15:33:22.967Z</time></trkpt><trkpt lat="43.7939437" lon="6.4342195"><ele>646.5999999999999</ele><time>2026-05-02T15:33:23.967Z</time></trkpt><trkpt lat="43.7939885" lon="6.4343548"><ele>646.0</ele><time>2026-05-02T15:33:24.967Z</time></trkpt><trkpt lat="43.7940409" lon="6.4344834"><ele>646.0</ele><time>2026-05-02T15:33:25.967Z</time></trkpt><trkpt lat="43.7941067" lon="6.4346167"><ele>646.0</ele><time>2026-05-02T15:33:26.967Z</time></trkpt><trkpt lat="43.7941965" lon="6.434751"><ele>646.0</ele><time>2026-05-02T15:33:27.967Z</time></trkpt><trkpt lat="43.7942868" lon="6.4349021"><ele>646.0</ele><time>2026-05-02T15:33:28.967Z</time></trkpt><trkpt lat="43.794382" lon="6.4350363"><ele>648.0</ele><time>2026-05-02T15:33:29.966Z</time></trkpt><trkpt lat="43.7944781" lon="6.4351647"><ele>650.0</ele><time>2026-05-02T15:33:30.967Z</time></trkpt><trkpt lat="43.7945541" lon="6.4352691"><ele>652.0</ele><time>2026-05-02T15:33:31.967Z</time></trkpt><trkpt lat="43.7946382" lon="6.435376"><ele>654.0</ele><time>2026-05-02T15:33:32.967Z</time></trkpt><trkpt lat="43.7947348" lon="6.4354599"><ele>653.0</ele><time>2026-05-02T15:33:33.967Z</time></trkpt><trkpt lat="43.7948166" lon="6.4355634"><ele>652.0</ele><time>2026-05-02T15:33:34.967Z</time></trkpt><trkpt lat="43.79492" lon="6.4356631"><ele>651.0</ele><time>2026-05-02T15:33:35.967Z</time></trkpt><trkpt lat="43.7950239" lon="6.4357392"><ele>650.0</ele><time>2026-05-02T15:33:36.967Z</time></trkpt><trkpt lat="43.7951322" lon="6.4358406"><ele>652.4</ele><time>2026-05-02T15:33:37.967Z</time></trkpt><trkpt lat="43.7952226" lon="6.4359106"><ele>654.8</ele><time>2026-05-02T15:33:38.967Z</time></trkpt><trkpt lat="43.7953041" lon="6.4359775"><ele>657.2</ele><time>2026-05-02T15:33:39.966Z</time></trkpt><trkpt lat="43.7953968" lon="6.4360312"><ele>659.6</ele><time>2026-05-02T15:33:40.966Z</time></trkpt><trkpt lat="43.7954976" lon="6.4361306"><ele>662.0</ele><time>2026-05-02T15:33:41.967Z</time></trkpt><trkpt lat="43.7956167" lon="6.4362104"><ele>660.0</ele><time>2026-05-02T15:33:42.967Z</time></trkpt><trkpt lat="43.7957241" lon="6.4363207"><ele>658.0</ele><time>2026-05-02T15:33:43.967Z</time></trkpt><trkpt lat="43.795789" lon="6.4365067"><ele>656.0</ele><time>2026-05-02T15:33:44.967Z</time></trkpt><trkpt lat="43.7958529" lon="6.4366677"><ele>654.0</ele><time>2026-05-02T15:33:45.967Z</time></trkpt><trkpt lat="43.7959315" lon="6.4368244"><ele>654.0</ele><time>2026-05-02T15:33:46.967Z</time></trkpt><trkpt lat="43.7959758" lon="6.4370173"><ele>654.0</ele><time>2026-05-02T15:33:47.967Z</time></trkpt><trkpt lat="43.7960451" lon="6.4372375"><ele>654.0</ele><time>2026-05-02T15:33:48.967Z</time></trkpt><trkpt lat="43.7960787" lon="6.4374106"><ele>654.0</ele><time>2026-05-02T15:33:49.967Z</time></trkpt><trkpt lat="43.7961321" lon="6.4376027"><ele>654.25</ele><time>2026-05-02T15:33:50.967Z</time></trkpt><trkpt lat="43.7961953" lon="6.4377659"><ele>654.5</ele><time>2026-05-02T15:33:51.967Z</time></trkpt><trkpt lat="43.7962743" lon="6.4379344"><ele>654.75</ele><time>2026-05-02T15:33:52.967Z</time></trkpt><trkpt lat="43.7963781" lon="6.4380729"><ele>655.0</ele><time>2026-05-02T15:33:53.967Z</time></trkpt><trkpt lat="43.796464" lon="6.4381929"><ele>655.0</ele><time>2026-05-02T15:33:54.967Z</time></trkpt><trkpt lat="43.7965748" lon="6.4382946"><ele>655.0</ele><time>2026-05-02T15:33:55.967Z</time></trkpt><trkpt lat="43.796692" lon="6.4383894"><ele>655.0</ele><time>2026-05-02T15:33:56.967Z</time></trkpt><trkpt lat="43.7968045" lon="6.4384659"><ele>655.0</ele><time>2026-05-02T15:33:57.967Z</time></trkpt><trkpt lat="43.7969062" lon="6.4385034"><ele>656.0</ele><time>2026-05-02T15:33:58.967Z</time></trkpt><trkpt lat="43.7970267" lon="6.4385396"><ele>657.0</ele><time>2026-05-02T15:33:59.967Z</time></trkpt><trkpt lat="43.7971738" lon="6.4385195"><ele>658.0</ele><time>2026-05-02T15:34:00.967Z</time></trkpt><trkpt lat="43.7973033" lon="6.4384985"><ele>659.0</ele><time>2026-05-02T15:34:01.967Z</time></trkpt><trkpt lat="43.7974679" lon="6.4384747"><ele>659.0</ele><time>2026-05-02T15:34:02.966Z</time></trkpt><trkpt lat="43.7976234" lon="6.4384456"><ele>659.0</ele><time>2026-05-02T15:34:03.967Z</time></trkpt><trkpt lat="43.7977796" lon="6.4384088"><ele>659.0</ele><time>2026-05-02T15:34:04.966Z</time></trkpt><trkpt lat="43.7979497" lon="6.4383738"><ele>656.3333333333333</ele><time>2026-05-02T15:34:05.967Z</time></trkpt><trkpt lat="43.7981067" lon="6.4383264"><ele>653.6666666666666</ele><time>2026-05-02T15:34:06.966Z</time></trkpt><trkpt lat="43.7982575" lon="6.4382668"><ele>651.0</ele><time>2026-05-02T15:34:07.967Z</time></trkpt><trkpt lat="43.7983855" lon="6.4382163"><ele>650.0</ele><time>2026-05-02T15:34:08.967Z</time></trkpt><trkpt lat="43.7985395" lon="6.4381418"><ele>649.0</ele><time>2026-05-02T15:34:09.967Z</time></trkpt><trkpt lat="43.7986898" lon="6.43809"><ele>648.0</ele><time>2026-05-02T15:34:10.966Z</time></trkpt><trkpt lat="43.7988075" lon="6.4380442"><ele>647.0</ele><time>2026-05-02T15:34:11.967Z</time></trkpt><trkpt lat="43.7989273" lon="6.4379896"><ele>652.0</ele><time>2026-05-02T15:34:12.967Z</time></trkpt><trkpt lat="43.7990521" lon="6.4379682"><ele>657.0</ele><time>2026-05-02T15:34:13.967Z</time></trkpt><trkpt lat="43.7991818" lon="6.4379409"><ele>662.0</ele><time>2026-05-02T15:34:14.967Z</time></trkpt><trkpt lat="43.7992876" lon="6.437886"><ele>667.0</ele><time>2026-05-02T15:34:15.967Z</time></trkpt><trkpt lat="43.7993985" lon="6.4378896"><ele>667.0</ele><time>2026-05-02T15:34:16.967Z</time></trkpt><trkpt lat="43.7995377" lon="6.4379133"><ele>667.0</ele><time>2026-05-02T15:34:17.966Z</time></trkpt><trkpt lat="43.7996528" lon="6.4379853"><ele>667.0</ele><time>2026-05-02T15:34:18.967Z</time></trkpt><trkpt lat="43.7997507" lon="6.4381095"><ele>667.0</ele><time>2026-05-02T15:34:19.967Z</time></trkpt><trkpt lat="43.7998564" lon="6.4382539"><ele>663.75</ele><time>2026-05-02T15:34:20.967Z</time></trkpt><trkpt lat="43.7999357" lon="6.438339"><ele>660.5</ele><time>2026-05-02T15:34:21.967Z</time></trkpt><trkpt lat="43.8000383" lon="6.438432"><ele>657.25</ele><time>2026-05-02T15:34:22.967Z</time></trkpt><trkpt lat="43.8001512" lon="6.4384999"><ele>654.0</ele><time>2026-05-02T15:34:23.967Z</time></trkpt><trkpt lat="43.8002773" lon="6.4385374"><ele>654.0</ele><time>2026-05-02T15:34:24.967Z</time></trkpt><trkpt lat="43.8003886" lon="6.438545"><ele>654.0</ele><time>2026-05-02T15:34:25.967Z</time></trkpt><trkpt lat="43.8004951" lon="6.4385468"><ele>654.0</ele><time>2026-05-02T15:34:26.967Z</time></trkpt><trkpt lat="43.8006379" lon="6.4385123"><ele>654.0</ele><time>2026-05-02T15:34:27.967Z</time></trkpt><trkpt lat="43.8008563" lon="6.4384271"><ele>653.0</ele><time>2026-05-02T15:34:28.967Z</time></trkpt><trkpt lat="43.8010223" lon="6.4383769"><ele>652.0</ele><time>2026-05-02T15:34:29.967Z</time></trkpt><trkpt lat="43.8011543" lon="6.4383162"><ele>651.0</ele><time>2026-05-02T15:34:30.967Z</time></trkpt><trkpt lat="43.8013125" lon="6.4382709"><ele>651.0</ele><time>2026-05-02T15:34:31.966Z</time></trkpt><trkpt lat="43.8014408" lon="6.4381763"><ele>651.0</ele><time>2026-05-02T15:34:32.967Z</time></trkpt><trkpt lat="43.8015934" lon="6.4381482"><ele>651.0</ele><time>2026-05-02T15:34:33.967Z</time></trkpt><trkpt lat="43.801728" lon="6.4380566"><ele>651.0</ele><time>2026-05-02T15:34:34.967Z</time></trkpt><trkpt lat="43.801872" lon="6.4380393"><ele>649.75</ele><time>2026-05-02T15:34:35.967Z</time></trkpt><trkpt lat="43.8020041" lon="6.4380109"><ele>648.5</ele><time>2026-05-02T15:34:36.967Z</time></trkpt><trkpt lat="43.8021222" lon="6.4379342"><ele>647.25</ele><time>2026-05-02T15:34:37.967Z</time></trkpt><trkpt lat="43.8022408" lon="6.4378976"><ele>646.0</ele><time>2026-05-02T15:34:38.967Z</time></trkpt><trkpt lat="43.8023546" lon="6.4378509"><ele>653.25</ele><time>2026-05-02T15:34:39.967Z</time></trkpt><trkpt lat="43.8024921" lon="6.4377896"><ele>660.5</ele><time>2026-05-02T15:34:40.967Z</time></trkpt><trkpt lat="43.8026391" lon="6.4377763"><ele>667.75</ele><time>2026-05-02T15:34:41.967Z</time></trkpt><trkpt lat="43.8027867" lon="6.4377869"><ele>675.0</ele><time>2026-05-02T15:34:42.966Z</time></trkpt><trkpt lat="43.8029098" lon="6.4378337"><ele>677.5</ele><time>2026-05-02T15:34:43.966Z</time></trkpt><trkpt lat="43.8030387" lon="6.4378605"><ele>680.0</ele><time>2026-05-02T15:34:44.967Z</time></trkpt><trkpt lat="43.8031611" lon="6.4378874"><ele>682.5</ele><time>2026-05-02T15:34:45.967Z</time></trkpt><trkpt lat="43.8032905" lon="6.4379174"><ele>685.0</ele><time>2026-05-02T15:34:46.967Z</time></trkpt><trkpt lat="43.8034187" lon="6.4379531"><ele>682.25</ele><time>2026-05-02T15:34:47.967Z</time></trkpt><trkpt lat="43.8035285" lon="6.4380529"><ele>679.5</ele><time>2026-05-02T15:34:48.967Z</time></trkpt><trkpt lat="43.8036529" lon="6.4381357"><ele>676.75</ele><time>2026-05-02T15:34:49.967Z</time></trkpt><trkpt lat="43.8037665" lon="6.4382182"><ele>674.0</ele><time>2026-05-02T15:34:50.967Z</time></trkpt><trkpt lat="43.8038875" lon="6.4383005"><ele>674.0</ele><time>2026-05-02T15:34:51.966Z</time></trkpt><trkpt lat="43.8040033" lon="6.438375"><ele>674.0</ele><time>2026-05-02T15:34:52.967Z</time></trkpt><trkpt lat="43.8040881" lon="6.4384329"><ele>674.0</ele><time>2026-05-02T15:34:53.966Z</time></trkpt><trkpt lat="43.8041764" lon="6.4385178"><ele>674.0</ele><time>2026-05-02T15:34:54.967Z</time></trkpt><trkpt lat="43.8042676" lon="6.4385988"><ele>674.0</ele><time>2026-05-02T15:34:55.967Z</time></trkpt><trkpt lat="43.8043361" lon="6.4387109"><ele>674.5</ele><time>2026-05-02T15:34:56.967Z</time></trkpt><trkpt lat="43.8043337" lon="6.4389036"><ele>675.0</ele><time>2026-05-02T15:34:57.966Z</time></trkpt><trkpt lat="43.8043489" lon="6.4390775"><ele>675.5</ele><time>2026-05-02T15:34:58.967Z</time></trkpt><trkpt lat="43.8043786" lon="6.4392718"><ele>676.0</ele><time>2026-05-02T15:34:59.967Z</time></trkpt><trkpt lat="43.8043944" lon="6.4394534"><ele>673.75</ele><time>2026-05-02T15:35:00.967Z</time></trkpt><trkpt lat="43.8044031" lon="6.4396481"><ele>671.5</ele><time>2026-05-02T15:35:01.967Z</time></trkpt><trkpt lat="43.8043807" lon="6.4398482"><ele>669.25</ele><time>2026-05-02T15:35:02.967Z</time></trkpt><trkpt lat="43.8043704" lon="6.4400448"><ele>667.0</ele><time>2026-05-02T15:35:03.966Z</time></trkpt><trkpt lat="43.8043655" lon="6.440241"><ele>667.0</ele><time>2026-05-02T15:35:04.967Z</time></trkpt><trkpt lat="43.8043534" lon="6.4404096"><ele>667.0</ele><time>2026-05-02T15:35:05.967Z</time></trkpt><trkpt lat="43.804328" lon="6.4405764"><ele>667.0</ele><time>2026-05-02T15:35:06.966Z</time></trkpt><trkpt lat="43.8043384" lon="6.4407248"><ele>667.0</ele><time>2026-05-02T15:35:07.967Z</time></trkpt><trkpt lat="43.8043661" lon="6.4408772"><ele>664.0</ele><time>2026-05-02T15:35:08.967Z</time></trkpt><trkpt lat="43.8044056" lon="6.441"><ele>661.0</ele><time>2026-05-02T15:35:09.966Z</time></trkpt><trkpt lat="43.8044655" lon="6.4410406"><ele>658.0</ele><time>2026-05-02T15:35:10.967Z</time></trkpt><trkpt lat="43.8045288" lon="6.4410831"><ele>655.0</ele><time>2026-05-02T15:35:11.966Z</time></trkpt><trkpt lat="43.8046033" lon="6.441133"><ele>652.0</ele><time>2026-05-02T15:35:12.966Z</time></trkpt><trkpt lat="43.8047323" lon="6.4411405"><ele>649.0</ele><time>2026-05-02T15:35:13.967Z</time></trkpt><trkpt lat="43.8048486" lon="6.4410952"><ele>649.0</ele><time>2026-05-02T15:35:14.967Z</time></trkpt><trkpt lat="43.8049841" lon="6.4410424"><ele>649.0</ele><time>2026-05-02T15:35:15.967Z</time></trkpt><trkpt lat="43.8051064" lon="6.4410026"><ele>649.0</ele><time>2026-05-02T15:35:16.967Z</time></trkpt><trkpt lat="43.8051613" lon="6.4409081"><ele>649.0</ele><time>2026-05-02T15:35:17.967Z</time></trkpt><trkpt lat="43.8051749" lon="6.4407092"><ele>649.0</ele><time>2026-05-02T15:35:18.966Z</time></trkpt><trkpt lat="43.8052677" lon="6.4405882"><ele>649.0</ele><time>2026-05-02T15:35:19.967Z</time></trkpt><trkpt lat="43.8053377" lon="6.4404737"><ele>649.0</ele><time>2026-05-02T15:35:20.967Z</time></trkpt><trkpt lat="43.8053749" lon="6.4403565"><ele>649.0</ele><time>2026-05-02T15:35:21.967Z</time></trkpt><trkpt lat="43.8054547" lon="6.4402969"><ele>649.0</ele><time>2026-05-02T15:35:22.967Z</time></trkpt><trkpt lat="43.805528" lon="6.4402431"><ele>650.2</ele><time>2026-05-02T15:35:23.967Z</time></trkpt><trkpt lat="43.8056037" lon="6.440226"><ele>651.4000000000001</ele><time>2026-05-02T15:35:24.967Z</time></trkpt><trkpt lat="43.8057048" lon="6.4401586"><ele>652.6</ele><time>2026-05-02T15:35:26.966Z</time></trkpt><trkpt lat="43.8058004" lon="6.4400075"><ele>653.8</ele><time>2026-05-02T15:35:28.967Z</time></trkpt><trkpt lat="43.8058664" lon="6.4399113"><ele>655.0</ele><time>2026-05-02T15:35:29.967Z</time></trkpt><trkpt lat="43.8059265" lon="6.4397746"><ele>654.0</ele><time>2026-05-02T15:35:30.967Z</time></trkpt><trkpt lat="43.8059794" lon="6.4396243"><ele>653.0</ele><time>2026-05-02T15:35:31.967Z</time></trkpt><trkpt lat="43.8060327" lon="6.4394822"><ele>652.0</ele><time>2026-05-02T15:35:32.967Z</time></trkpt><trkpt lat="43.8060984" lon="6.439315"><ele>651.0</ele><time>2026-05-02T15:35:33.967Z</time></trkpt><trkpt lat="43.8061016" lon="6.4391764"><ele>651.0</ele><time>2026-05-02T15:35:34.966Z</time></trkpt><trkpt lat="43.806132" lon="6.439021"><ele>651.0</ele><time>2026-05-02T15:35:35.967Z</time></trkpt><trkpt lat="43.8061741" lon="6.4388745"><ele>651.0</ele><time>2026-05-02T15:35:36.967Z</time></trkpt><trkpt lat="43.8062157" lon="6.4387201"><ele>651.0</ele><time>2026-05-02T15:35:37.967Z</time></trkpt><trkpt lat="43.8062971" lon="6.4385884"><ele>653.25</ele><time>2026-05-02T15:35:38.967Z</time></trkpt><trkpt lat="43.8064279" lon="6.4384946"><ele>655.5</ele><time>2026-05-02T15:35:39.966Z</time></trkpt><trkpt lat="43.8065511" lon="6.4383859"><ele>657.75</ele><time>2026-05-02T15:35:40.967Z</time></trkpt><trkpt lat="43.8066569" lon="6.4382835"><ele>660.0</ele><time>2026-05-02T15:35:41.967Z</time></trkpt><trkpt lat="43.806762" lon="6.438188"><ele>658.75</ele><time>2026-05-02T15:35:42.967Z</time></trkpt><trkpt lat="43.8068694" lon="6.4380842"><ele>657.5</ele><time>2026-05-02T15:35:43.966Z</time></trkpt><trkpt lat="43.8069986" lon="6.4379959"><ele>656.25</ele><time>2026-05-02T15:35:44.967Z</time></trkpt><trkpt lat="43.8071273" lon="6.4379287"><ele>655.0</ele><time>2026-05-02T15:35:45.967Z</time></trkpt><trkpt lat="43.8072748" lon="6.4378702"><ele>659.5</ele><time>2026-05-02T15:35:46.967Z</time></trkpt><trkpt lat="43.8074059" lon="6.4378797"><ele>664.0</ele><time>2026-05-02T15:35:47.966Z</time></trkpt><trkpt lat="43.8075417" lon="6.4378379"><ele>668.5</ele><time>2026-05-02T15:35:48.967Z</time></trkpt><trkpt lat="43.8076982" lon="6.4379234"><ele>673.0</ele><time>2026-05-02T15:35:49.967Z</time></trkpt><trkpt lat="43.8078882" lon="6.4379428"><ele>673.0</ele><time>2026-05-02T15:35:50.966Z</time></trkpt><trkpt lat="43.8080129" lon="6.4379644"><ele>673.0</ele><time>2026-05-02T15:35:51.967Z</time></trkpt><trkpt lat="43.808159" lon="6.4379835"><ele>673.0</ele><time>2026-05-02T15:35:52.967Z</time></trkpt><trkpt lat="43.8082992" lon="6.4380037"><ele>673.0</ele><time>2026-05-02T15:35:53.967Z</time></trkpt><trkpt lat="43.8084529" lon="6.4380313"><ele>669.25</ele><time>2026-05-02T15:35:54.966Z</time></trkpt><trkpt lat="43.8085696" lon="6.438074"><ele>665.5</ele><time>2026-05-02T15:35:55.967Z</time></trkpt><trkpt lat="43.8086993" lon="6.4380779"><ele>661.75</ele><time>2026-05-02T15:35:56.966Z</time></trkpt><trkpt lat="43.8088246" lon="6.4380649"><ele>658.0</ele><time>2026-05-02T15:35:57.966Z</time></trkpt><trkpt lat="43.8089593" lon="6.4380473"><ele>658.0</ele><time>2026-05-02T15:35:58.967Z</time></trkpt><trkpt lat="43.8090885" lon="6.4380181"><ele>658.0</ele><time>2026-05-02T15:35:59.967Z</time></trkpt><trkpt lat="43.8092258" lon="6.4379834"><ele>658.0</ele><time>2026-05-02T15:36:00.966Z</time></trkpt><trkpt lat="43.8093417" lon="6.4379642"><ele>658.0</ele><time>2026-05-02T15:36:01.967Z</time></trkpt><trkpt lat="43.8095061" lon="6.4378979"><ele>661.75</ele><time>2026-05-02T15:36:02.967Z</time></trkpt><trkpt lat="43.8096571" lon="6.4378305"><ele>665.5</ele><time>2026-05-02T15:36:03.967Z</time></trkpt><trkpt lat="43.8097825" lon="6.437785"><ele>669.25</ele><time>2026-05-02T15:36:04.967Z</time></trkpt><trkpt lat="43.8099013" lon="6.4377208"><ele>673.0</ele><time>2026-05-02T15:36:05.967Z</time></trkpt><trkpt lat="43.8100141" lon="6.4376305"><ele>673.0</ele><time>2026-05-02T15:36:06.967Z</time></trkpt><trkpt lat="43.8101016" lon="6.4375545"><ele>673.0</ele><time>2026-05-02T15:36:07.967Z</time></trkpt><trkpt lat="43.8101805" lon="6.4374638"><ele>673.0</ele><time>2026-05-02T15:36:08.967Z</time></trkpt><trkpt lat="43.8102834" lon="6.4373384"><ele>673.0</ele><time>2026-05-02T15:36:09.967Z</time></trkpt><trkpt lat="43.8103767" lon="6.4372585"><ele>672.8</ele><time>2026-05-02T15:36:10.967Z</time></trkpt><trkpt lat="43.8105066" lon="6.4371808"><ele>672.5999999999999</ele><time>2026-05-02T15:36:11.967Z</time></trkpt><trkpt lat="43.8105906" lon="6.437103"><ele>672.4000000000001</ele><time>2026-05-02T15:36:12.967Z</time></trkpt><trkpt lat="43.81069" lon="6.4370412"><ele>672.2</ele><time>2026-05-02T15:36:13.967Z</time></trkpt><trkpt lat="43.8107803" lon="6.4369997"><ele>672.0</ele><time>2026-05-02T15:36:14.967Z</time></trkpt><trkpt lat="43.810907" lon="6.4369243"><ele>668.5</ele><time>2026-05-02T15:36:15.967Z</time></trkpt><trkpt lat="43.8110213" lon="6.4368448"><ele>665.0</ele><time>2026-05-02T15:36:16.966Z</time></trkpt><trkpt lat="43.811164" lon="6.4367676"><ele>661.5</ele><time>2026-05-02T15:36:17.967Z</time></trkpt><trkpt lat="43.8112925" lon="6.4366857"><ele>658.0</ele><time>2026-05-02T15:36:18.967Z</time></trkpt><trkpt lat="43.8113712" lon="6.4365726"><ele>658.0</ele><time>2026-05-02T15:36:19.966Z</time></trkpt><trkpt lat="43.8115011" lon="6.436511"><ele>658.0</ele><time>2026-05-02T15:36:20.967Z</time></trkpt><trkpt lat="43.8116336" lon="6.4364554"><ele>658.0</ele><time>2026-05-02T15:36:21.967Z</time></trkpt><trkpt lat="43.8117461" lon="6.4364336"><ele>658.0</ele><time>2026-05-02T15:36:22.967Z</time></trkpt><trkpt lat="43.8118361" lon="6.4364331"><ele>660.5</ele><time>2026-05-02T15:36:23.966Z</time></trkpt><trkpt lat="43.8119835" lon="6.4364771"><ele>663.0</ele><time>2026-05-02T15:36:24.967Z</time></trkpt><trkpt lat="43.8121288" lon="6.4365695"><ele>665.5</ele><time>2026-05-02T15:36:25.967Z</time></trkpt><trkpt lat="43.8122437" lon="6.4366248"><ele>668.0</ele><time>2026-05-02T15:36:26.967Z</time></trkpt><trkpt lat="43.812375" lon="6.4366962"><ele>668.0</ele><time>2026-05-02T15:36:27.967Z</time></trkpt><trkpt lat="43.8125059" lon="6.4367744"><ele>668.0</ele><time>2026-05-02T15:36:28.966Z</time></trkpt><trkpt lat="43.8126221" lon="6.4368819"><ele>668.0</ele><time>2026-05-02T15:36:29.967Z</time></trkpt><trkpt lat="43.8127682" lon="6.4369938"><ele>668.0</ele><time>2026-05-02T15:36:30.967Z</time></trkpt><trkpt lat="43.8128815" lon="6.4370968"><ele>661.6666666666666</ele><time>2026-05-02T15:36:31.967Z</time></trkpt><trkpt lat="43.8130089" lon="6.4372224"><ele>655.3333333333334</ele><time>2026-05-02T15:36:32.967Z</time></trkpt><trkpt lat="43.8131233" lon="6.4373614"><ele>649.0</ele><time>2026-05-02T15:36:33.967Z</time></trkpt><trkpt lat="43.8132431" lon="6.4374891"><ele>649.0</ele><time>2026-05-02T15:36:34.966Z</time></trkpt><trkpt lat="43.8133858" lon="6.4376037"><ele>649.0</ele><time>2026-05-02T15:36:35.966Z</time></trkpt><trkpt lat="43.8134879" lon="6.4376854"><ele>649.0</ele><time>2026-05-02T15:36:36.967Z</time></trkpt><trkpt lat="43.8135937" lon="6.4378265"><ele>649.0</ele><time>2026-05-02T15:36:37.967Z</time></trkpt><trkpt lat="43.8136953" lon="6.4379228"><ele>649.0</ele><time>2026-05-02T15:36:38.967Z</time></trkpt><trkpt lat="43.8137821" lon="6.4380246"><ele>649.0</ele><time>2026-05-02T15:36:39.967Z</time></trkpt><trkpt lat="43.8138612" lon="6.4380921"><ele>649.0</ele><time>2026-05-02T15:36:40.967Z</time></trkpt><trkpt lat="43.8140217" lon="6.4381493"><ele>649.0</ele><time>2026-05-02T15:36:42.967Z</time></trkpt><trkpt lat="43.8141154" lon="6.4381871"><ele>652.25</ele><time>2026-05-02T15:36:43.966Z</time></trkpt><trkpt lat="43.8142275" lon="6.4382257"><ele>655.5</ele><time>2026-05-02T15:36:44.967Z</time></trkpt><trkpt lat="43.8143162" lon="6.4382219"><ele>658.75</ele><time>2026-05-02T15:36:45.967Z</time></trkpt><trkpt lat="43.814448" lon="6.4382147"><ele>662.0</ele><time>2026-05-02T15:36:46.967Z</time></trkpt><trkpt lat="43.8145664" lon="6.4382514"><ele>662.0</ele><time>2026-05-02T15:36:47.967Z</time></trkpt><trkpt lat="43.8146519" lon="6.4382597"><ele>662.0</ele><time>2026-05-02T15:36:48.967Z</time></trkpt><trkpt lat="43.8147782" lon="6.4382383"><ele>662.0</ele><time>2026-05-02T15:36:49.967Z</time></trkpt><trkpt lat="43.8148536" lon="6.4381747"><ele>662.0</ele><time>2026-05-02T15:36:50.967Z</time></trkpt><trkpt lat="43.8149531" lon="6.4381848"><ele>662.0</ele><time>2026-05-02T15:36:51.967Z</time></trkpt><trkpt lat="43.8150669" lon="6.4382089"><ele>670.0</ele><time>2026-05-02T15:36:52.966Z</time></trkpt><trkpt lat="43.8151746" lon="6.4382519"><ele>678.0</ele><time>2026-05-02T15:36:53.967Z</time></trkpt><trkpt lat="43.8152755" lon="6.438257"><ele>686.0</ele><time>2026-05-02T15:36:54.967Z</time></trkpt><trkpt lat="43.8154001" lon="6.4382809"><ele>694.0</ele><time>2026-05-02T15:36:55.967Z</time></trkpt><trkpt lat="43.8155012" lon="6.4382395"><ele>702.0</ele><time>2026-05-02T15:36:56.967Z</time></trkpt><trkpt lat="43.8156075" lon="6.4381676"><ele>702.0</ele><time>2026-05-02T15:36:57.966Z</time></trkpt><trkpt lat="43.8157059" lon="6.438082"><ele>702.0</ele><time>2026-05-02T15:36:58.967Z</time></trkpt><trkpt lat="43.8157642" lon="6.438006"><ele>702.0</ele><time>2026-05-02T15:36:59.967Z</time></trkpt><trkpt lat="43.8158396" lon="6.4378766"><ele>702.0</ele><time>2026-05-02T15:37:00.969Z</time></trkpt><trkpt lat="43.815872" lon="6.437724"><ele>702.0</ele><time>2026-05-02T15:37:01.967Z</time></trkpt><trkpt lat="43.8159198" lon="6.4375931"><ele>697.75</ele><time>2026-05-02T15:37:02.966Z</time></trkpt><trkpt lat="43.8159826" lon="6.437418"><ele>693.5</ele><time>2026-05-02T15:37:03.97Z</time></trkpt><trkpt lat="43.8160564" lon="6.4373065"><ele>689.25</ele><time>2026-05-02T15:37:04.967Z</time></trkpt><trkpt lat="43.8161238" lon="6.4372091"><ele>685.0</ele><time>2026-05-02T15:37:05.967Z</time></trkpt><trkpt lat="43.8162041" lon="6.4371142"><ele>684.6666666666667</ele><time>2026-05-02T15:37:06.967Z</time></trkpt><trkpt lat="43.8163451" lon="6.4369929"><ele>684.3333333333334</ele><time>2026-05-02T15:37:07.966Z</time></trkpt><trkpt lat="43.8164866" lon="6.4368494"><ele>684.0</ele><time>2026-05-02T15:37:08.967Z</time></trkpt><trkpt lat="43.8166186" lon="6.4367742"><ele>684.0</ele><time>2026-05-02T15:37:10.967Z</time></trkpt><trkpt lat="43.8167175" lon="6.4367625"><ele>684.0</ele><time>2026-05-02T15:37:11.967Z</time></trkpt><trkpt lat="43.8168111" lon="6.4367308"><ele>684.0</ele><time>2026-05-02T15:37:12.967Z</time></trkpt><trkpt lat="43.8171188" lon="6.4367085"><ele>680.6666666666666</ele><time>2026-05-02T15:37:15.967Z</time></trkpt><trkpt lat="43.8173618" lon="6.4366964"><ele>677.3333333333333</ele><time>2026-05-02T15:37:17.966Z</time></trkpt><trkpt lat="43.817479" lon="6.4366724"><ele>674.0</ele><time>2026-05-02T15:37:18.967Z</time></trkpt><trkpt lat="43.8176606" lon="6.436694"><ele>672.5</ele><time>2026-05-02T15:37:20.966Z</time></trkpt><trkpt lat="43.8178026" lon="6.4366258"><ele>671.0</ele><time>2026-05-02T15:37:21.967Z</time></trkpt><trkpt lat="43.8179228" lon="6.4365806"><ele>669.5</ele><time>2026-05-02T15:37:22.967Z</time></trkpt><trkpt lat="43.818035" lon="6.4365238"><ele>668.0</ele><time>2026-05-02T15:37:23.967Z</time></trkpt><trkpt lat="43.8181491" lon="6.4364675"><ele>668.0</ele><time>2026-05-02T15:37:24.967Z</time></trkpt><trkpt lat="43.8182519" lon="6.4363785"><ele>668.0</ele><time>2026-05-02T15:37:25.967Z</time></trkpt><trkpt lat="43.81837" lon="6.4363402"><ele>668.0</ele><time>2026-05-02T15:37:26.967Z</time></trkpt><trkpt lat="43.8184799" lon="6.4362613"><ele>668.0</ele><time>2026-05-02T15:37:27.967Z</time></trkpt><trkpt lat="43.8185636" lon="6.4361612"><ele>667.25</ele><time>2026-05-02T15:37:28.967Z</time></trkpt><trkpt lat="43.8186391" lon="6.4360623"><ele>666.5</ele><time>2026-05-02T15:37:29.967Z</time></trkpt><trkpt lat="43.8187258" lon="6.4359553"><ele>665.75</ele><time>2026-05-02T15:37:30.967Z</time></trkpt><trkpt lat="43.8187968" lon="6.43584"><ele>665.0</ele><time>2026-05-02T15:37:31.967Z</time></trkpt><trkpt lat="43.8188679" lon="6.4356942"><ele>665.0</ele><time>2026-05-02T15:37:32.966Z</time></trkpt><trkpt lat="43.8189451" lon="6.4355676"><ele>665.0</ele><time>2026-05-02T15:37:33.967Z</time></trkpt><trkpt lat="43.8189997" lon="6.4354203"><ele>665.0</ele><time>2026-05-02T15:37:34.967Z</time></trkpt><trkpt lat="43.8190509" lon="6.4352599"><ele>665.0</ele><time>2026-05-02T15:37:35.967Z</time></trkpt><trkpt lat="43.8190986" lon="6.4351071"><ele>665.0</ele><time>2026-05-02T15:37:36.967Z</time></trkpt><trkpt lat="43.8191562" lon="6.4349485"><ele>665.0</ele><time>2026-05-02T15:37:37.966Z</time></trkpt><trkpt lat="43.8192278" lon="6.4348108"><ele>665.0</ele><time>2026-05-02T15:37:38.966Z</time></trkpt><trkpt lat="43.8192721" lon="6.434655"><ele>665.0</ele><time>2026-05-02T15:37:39.967Z</time></trkpt><trkpt lat="43.8193418" lon="6.4344882"><ele>665.5</ele><time>2026-05-02T15:37:40.966Z</time></trkpt><trkpt lat="43.8193897" lon="6.4343258"><ele>666.0</ele><time>2026-05-02T15:37:41.966Z</time></trkpt><trkpt lat="43.8194333" lon="6.4341858"><ele>666.5</ele><time>2026-05-02T15:37:42.967Z</time></trkpt><trkpt lat="43.8195284" lon="6.4340545"><ele>667.0</ele><time>2026-05-02T15:37:43.966Z</time></trkpt><trkpt lat="43.8195917" lon="6.433926"><ele>667.0</ele><time>2026-05-02T15:37:44.967Z</time></trkpt><trkpt lat="43.8196781" lon="6.43382"><ele>667.0</ele><time>2026-05-02T15:37:45.967Z</time></trkpt><trkpt lat="43.8197748" lon="6.4337037"><ele>667.0</ele><time>2026-05-02T15:37:46.967Z</time></trkpt><trkpt lat="43.8198801" lon="6.433589"><ele>667.0</ele><time>2026-05-02T15:37:47.967Z</time></trkpt><trkpt lat="43.8199801" lon="6.4334979"><ele>667.8</ele><time>2026-05-02T15:37:48.967Z</time></trkpt><trkpt lat="43.8200697" lon="6.4334275"><ele>668.6</ele><time>2026-05-02T15:37:49.967Z</time></trkpt><trkpt lat="43.8201311" lon="6.4333037"><ele>669.4</ele><time>2026-05-02T15:37:50.967Z</time></trkpt><trkpt lat="43.8201943" lon="6.4331958"><ele>670.1999999999999</ele><time>2026-05-02T15:37:51.967Z</time></trkpt><trkpt lat="43.8202514" lon="6.4330788"><ele>671.0</ele><time>2026-05-02T15:37:52.967Z</time></trkpt><trkpt lat="43.8202646" lon="6.4329336"><ele>668.0</ele><time>2026-05-02T15:37:53.966Z</time></trkpt><trkpt lat="43.8203073" lon="6.4327997"><ele>665.0</ele><time>2026-05-02T15:37:54.966Z</time></trkpt><trkpt lat="43.8203745" lon="6.4326629"><ele>662.0</ele><time>2026-05-02T15:37:55.967Z</time></trkpt><trkpt lat="43.8204321" lon="6.4325204"><ele>659.0</ele><time>2026-05-02T15:37:56.967Z</time></trkpt><trkpt lat="43.8205086" lon="6.4323909"><ele>659.0</ele><time>2026-05-02T15:37:57.967Z</time></trkpt><trkpt lat="43.8205749" lon="6.4322684"><ele>659.0</ele><time>2026-05-02T15:37:58.967Z</time></trkpt><trkpt lat="43.8206536" lon="6.4321549"><ele>659.0</ele><time>2026-05-02T15:37:59.967Z</time></trkpt><trkpt lat="43.8207501" lon="6.4320914"><ele>659.0</ele><time>2026-05-02T15:38:00.967Z</time></trkpt><trkpt lat="43.8208278" lon="6.4320095"><ele>659.0</ele><time>2026-05-02T15:38:01.966Z</time></trkpt><trkpt lat="43.8209115" lon="6.4319217"><ele>660.0</ele><time>2026-05-02T15:38:02.967Z</time></trkpt><trkpt lat="43.820974" lon="6.4318453"><ele>661.0</ele><time>2026-05-02T15:38:03.967Z</time></trkpt><trkpt lat="43.8210088" lon="6.4317637"><ele>662.0</ele><time>2026-05-02T15:38:04.967Z</time></trkpt><trkpt lat="43.8210374" lon="6.4316804"><ele>663.0</ele><time>2026-05-02T15:38:05.967Z</time></trkpt><trkpt lat="43.8210885" lon="6.4316055"><ele>664.0</ele><time>2026-05-02T15:38:06.967Z</time></trkpt><trkpt lat="43.8211388" lon="6.4315422"><ele>665.0</ele><time>2026-05-02T15:38:07.967Z</time></trkpt><trkpt lat="43.8212039" lon="6.4314756"><ele>666.0</ele><time>2026-05-02T15:38:08.967Z</time></trkpt><trkpt lat="43.8212585" lon="6.4314132"><ele>666.0</ele><time>2026-05-02T15:38:09.966Z</time></trkpt><trkpt lat="43.8213615" lon="6.4313723"><ele>666.0</ele><time>2026-05-02T15:38:11.966Z</time></trkpt><trkpt lat="43.8214756" lon="6.4314047"><ele>666.0</ele><time>2026-05-02T15:38:12.967Z</time></trkpt><trkpt lat="43.8215627" lon="6.4314395"><ele>666.0</ele><time>2026-05-02T15:38:13.966Z</time></trkpt><trkpt lat="43.8216446" lon="6.4314571"><ele>666.0</ele><time>2026-05-02T15:38:14.967Z</time></trkpt><trkpt lat="43.8217446" lon="6.4314573"><ele>666.0</ele><time>2026-05-02T15:38:15.967Z</time></trkpt><trkpt lat="43.8218233" lon="6.4314903"><ele>666.0</ele><time>2026-05-02T15:38:16.966Z</time></trkpt><trkpt lat="43.8219283" lon="6.4314352"><ele>666.0</ele><time>2026-05-02T15:38:17.967Z</time></trkpt><trkpt lat="43.8220006" lon="6.4313963"><ele>666.0</ele><time>2026-05-02T15:38:18.967Z</time></trkpt><trkpt lat="43.8220701" lon="6.4313413"><ele>666.0</ele><time>2026-05-02T15:38:19.967Z</time></trkpt><trkpt lat="43.8221302" lon="6.4312779"><ele>666.0</ele><time>2026-05-02T15:38:20.967Z</time></trkpt><trkpt lat="43.8222038" lon="6.4312316"><ele>666.8333333333334</ele><time>2026-05-02T15:38:21.967Z</time></trkpt><trkpt lat="43.822283" lon="6.4312092"><ele>667.6666666666666</ele><time>2026-05-02T15:38:22.967Z</time></trkpt><trkpt lat="43.8223842" lon="6.4311762"><ele>668.5</ele><time>2026-05-02T15:38:23.967Z</time></trkpt><trkpt lat="43.8224688" lon="6.4312095"><ele>669.3333333333333</ele><time>2026-05-02T15:38:24.966Z</time></trkpt><trkpt lat="43.8225314" lon="6.4312344"><ele>670.1666666666666</ele><time>2026-05-02T15:38:25.967Z</time></trkpt><trkpt lat="43.822599" lon="6.4312539"><ele>671.0</ele><time>2026-05-02T15:38:26.966Z</time></trkpt><trkpt lat="43.8226891" lon="6.431273"><ele>671.0</ele><time>2026-05-02T15:38:27.967Z</time></trkpt><trkpt lat="43.8227787" lon="6.4312941"><ele>671.0</ele><time>2026-05-02T15:38:28.967Z</time></trkpt><trkpt lat="43.8228599" lon="6.4313131"><ele>671.0</ele><time>2026-05-02T15:38:29.967Z</time></trkpt><trkpt lat="43.8229491" lon="6.4313588"><ele>671.0</ele><time>2026-05-02T15:38:30.967Z</time></trkpt><trkpt lat="43.8230304" lon="6.4313736"><ele>671.0</ele><time>2026-05-02T15:38:31.967Z</time></trkpt><trkpt lat="43.8231163" lon="6.4314039"><ele>671.0</ele><time>2026-05-02T15:38:32.967Z</time></trkpt><trkpt lat="43.8231892" lon="6.4314059"><ele>671.1666666666666</ele><time>2026-05-02T15:38:33.967Z</time></trkpt><trkpt lat="43.8232561" lon="6.4313818"><ele>671.3333333333333</ele><time>2026-05-02T15:38:34.967Z</time></trkpt><trkpt lat="43.8233348" lon="6.4313494"><ele>671.5</ele><time>2026-05-02T15:38:35.967Z</time></trkpt><trkpt lat="43.8234096" lon="6.4313111"><ele>671.6666666666666</ele><time>2026-05-02T15:38:36.967Z</time></trkpt><trkpt lat="43.8234936" lon="6.4312948"><ele>671.8333333333334</ele><time>2026-05-02T15:38:37.967Z</time></trkpt><trkpt lat="43.8235704" lon="6.4312189"><ele>672.0</ele><time>2026-05-02T15:38:38.967Z</time></trkpt><trkpt lat="43.8236482" lon="6.4311536"><ele>672.0</ele><time>2026-05-02T15:38:39.967Z</time></trkpt><trkpt lat="43.8237574" lon="6.4310502"><ele>672.0</ele><time>2026-05-02T15:38:40.966Z</time></trkpt><trkpt lat="43.8238604" lon="6.4309409"><ele>672.0</ele><time>2026-05-02T15:38:41.967Z</time></trkpt><trkpt lat="43.8239659" lon="6.4308479"><ele>672.0</ele><time>2026-05-02T15:38:42.967Z</time></trkpt><trkpt lat="43.8240557" lon="6.4307537"><ele>672.0</ele><time>2026-05-02T15:38:43.967Z</time></trkpt><trkpt lat="43.8241657" lon="6.4307137"><ele>672.0</ele><time>2026-05-02T15:38:44.967Z</time></trkpt><trkpt lat="43.8242898" lon="6.4306774"><ele>672.0</ele><time>2026-05-02T15:38:45.967Z</time></trkpt><trkpt lat="43.8244097" lon="6.430642"><ele>672.0</ele><time>2026-05-02T15:38:46.967Z</time></trkpt><trkpt lat="43.8245273" lon="6.4305913"><ele>672.0</ele><time>2026-05-02T15:38:47.966Z</time></trkpt><trkpt lat="43.8246415" lon="6.4305671"><ele>672.0</ele><time>2026-05-02T15:38:48.967Z</time></trkpt><trkpt lat="43.8247736" lon="6.4305275"><ele>672.0</ele><time>2026-05-02T15:38:49.967Z</time></trkpt><trkpt lat="43.8248981" lon="6.4305057"><ele>672.0</ele><time>2026-05-02T15:38:50.967Z</time></trkpt><trkpt lat="43.8250401" lon="6.4304981"><ele>673.0</ele><time>2026-05-02T15:38:51.967Z</time></trkpt><trkpt lat="43.82516" lon="6.4304571"><ele>674.0</ele><time>2026-05-02T15:38:52.967Z</time></trkpt><trkpt lat="43.8252885" lon="6.430426"><ele>675.0</ele><time>2026-05-02T15:38:53.966Z</time></trkpt><trkpt lat="43.8254238" lon="6.4303939"><ele>676.0</ele><time>2026-05-02T15:38:54.967Z</time></trkpt><trkpt lat="43.825486" lon="6.4304262"><ele>676.0</ele><time>2026-05-02T15:38:55.967Z</time></trkpt><trkpt lat="43.8255927" lon="6.4304425"><ele>676.0</ele><time>2026-05-02T15:38:56.966Z</time></trkpt><trkpt lat="43.8256989" lon="6.4304669"><ele>676.0</ele><time>2026-05-02T15:38:57.967Z</time></trkpt><trkpt lat="43.8257819" lon="6.4304942"><ele>676.0</ele><time>2026-05-02T15:38:58.967Z</time></trkpt><trkpt lat="43.8258648" lon="6.4304687"><ele>676.0</ele><time>2026-05-02T15:38:59.967Z</time></trkpt><trkpt lat="43.8259462" lon="6.4304792"><ele>674.3333333333334</ele><time>2026-05-02T15:39:00.966Z</time></trkpt><trkpt lat="43.8260139" lon="6.4303923"><ele>672.6666666666667</ele><time>2026-05-02T15:39:01.967Z</time></trkpt><trkpt lat="43.8260825" lon="6.4303094"><ele>671.0</ele><time>2026-05-02T15:39:02.967Z</time></trkpt><trkpt lat="43.826114" lon="6.4301976"><ele>669.3333333333334</ele><time>2026-05-02T15:39:03.967Z</time></trkpt><trkpt lat="43.8261567" lon="6.4301294"><ele>667.6666666666666</ele><time>2026-05-02T15:39:04.966Z</time></trkpt><trkpt lat="43.8261952" lon="6.4300515"><ele>666.0</ele><time>2026-05-02T15:39:05.967Z</time></trkpt><trkpt lat="43.8262127" lon="6.4299188"><ele>666.0</ele><time>2026-05-02T15:39:06.967Z</time></trkpt><trkpt lat="43.8262532" lon="6.4297254"><ele>666.0</ele><time>2026-05-02T15:39:07.967Z</time></trkpt><trkpt lat="43.8262964" lon="6.4295655"><ele>666.0</ele><time>2026-05-02T15:39:08.967Z</time></trkpt><trkpt lat="43.8263408" lon="6.4294043"><ele>666.0</ele><time>2026-05-02T15:39:09.967Z</time></trkpt><trkpt lat="43.8263838" lon="6.4292482"><ele>666.25</ele><time>2026-05-02T15:39:10.967Z</time></trkpt><trkpt lat="43.8264148" lon="6.4290834"><ele>666.5</ele><time>2026-05-02T15:39:11.967Z</time></trkpt><trkpt lat="43.8264493" lon="6.4288968"><ele>666.75</ele><time>2026-05-02T15:39:12.967Z</time></trkpt><trkpt lat="43.8264656" lon="6.4287156"><ele>667.0</ele><time>2026-05-02T15:39:13.967Z</time></trkpt><trkpt lat="43.8264967" lon="6.4285207"><ele>667.75</ele><time>2026-05-02T15:39:14.967Z</time></trkpt><trkpt lat="43.8265271" lon="6.4283439"><ele>668.5</ele><time>2026-05-02T15:39:15.967Z</time></trkpt><trkpt lat="43.826552" lon="6.4281807"><ele>669.25</ele><time>2026-05-02T15:39:16.967Z</time></trkpt><trkpt lat="43.8265501" lon="6.4280499"><ele>670.0</ele><time>2026-05-02T15:39:17.967Z</time></trkpt><trkpt lat="43.8265684" lon="6.4279011"><ele>671.8</ele><time>2026-05-02T15:39:18.967Z</time></trkpt><trkpt lat="43.8265792" lon="6.4277508"><ele>673.6</ele><time>2026-05-02T15:39:19.967Z</time></trkpt><trkpt lat="43.8266235" lon="6.4276308"><ele>675.4000000000001</ele><time>2026-05-02T15:39:20.967Z</time></trkpt><trkpt lat="43.8266531" lon="6.4275008"><ele>677.2</ele><time>2026-05-02T15:39:21.967Z</time></trkpt><trkpt lat="43.826687" lon="6.4273662"><ele>679.0</ele><time>2026-05-02T15:39:22.967Z</time></trkpt><trkpt lat="43.8267391" lon="6.4272426"><ele>679.0</ele><time>2026-05-02T15:39:23.967Z</time></trkpt><trkpt lat="43.8267845" lon="6.4271624"><ele>679.0</ele><time>2026-05-02T15:39:24.967Z</time></trkpt><trkpt lat="43.8268518" lon="6.4270368"><ele>679.0</ele><time>2026-05-02T15:39:25.967Z</time></trkpt><trkpt lat="43.8269155" lon="6.4269105"><ele>679.0</ele><time>2026-05-02T15:39:26.967Z</time></trkpt><trkpt lat="43.826959" lon="6.4267893"><ele>679.0</ele><time>2026-05-02T15:39:27.967Z</time></trkpt><trkpt lat="43.8270425" lon="6.4266962"><ele>677.4000000000001</ele><time>2026-05-02T15:39:28.967Z</time></trkpt><trkpt lat="43.8271091" lon="6.4265913"><ele>675.8</ele><time>2026-05-02T15:39:29.967Z</time></trkpt><trkpt lat="43.8271811" lon="6.4264945"><ele>674.2</ele><time>2026-05-02T15:39:30.967Z</time></trkpt><trkpt lat="43.827255" lon="6.4264039"><ele>672.5999999999999</ele><time>2026-05-02T15:39:31.967Z</time></trkpt><trkpt lat="43.8273323" lon="6.4263222"><ele>671.0</ele><time>2026-05-02T15:39:32.967Z</time></trkpt><trkpt lat="43.8274002" lon="6.4262291"><ele>674.0</ele><time>2026-05-02T15:39:33.966Z</time></trkpt><trkpt lat="43.8274778" lon="6.4261493"><ele>677.0</ele><time>2026-05-02T15:39:34.967Z</time></trkpt><trkpt lat="43.8275555" lon="6.4260693"><ele>680.0</ele><time>2026-05-02T15:39:35.967Z</time></trkpt><trkpt lat="43.8276286" lon="6.4259943"><ele>683.0</ele><time>2026-05-02T15:39:36.967Z</time></trkpt><trkpt lat="43.8277148" lon="6.4259447"><ele>686.0</ele><time>2026-05-02T15:39:37.967Z</time></trkpt><trkpt lat="43.827809" lon="6.4259075"><ele>686.0</ele><time>2026-05-02T15:39:38.967Z</time></trkpt><trkpt lat="43.8278965" lon="6.425947"><ele>686.0</ele><time>2026-05-02T15:39:39.967Z</time></trkpt><trkpt lat="43.8280032" lon="6.4259685"><ele>686.0</ele><time>2026-05-02T15:39:40.967Z</time></trkpt><trkpt lat="43.8281232" lon="6.4259808"><ele>686.0</ele><time>2026-05-02T15:39:41.967Z</time></trkpt><trkpt lat="43.828236" lon="6.42601"><ele>686.0</ele><time>2026-05-02T15:39:42.967Z</time></trkpt><trkpt lat="43.8283389" lon="6.4260503"><ele>686.0</ele><time>2026-05-02T15:39:43.967Z</time></trkpt><trkpt lat="43.8284499" lon="6.4260948"><ele>686.0</ele><time>2026-05-02T15:39:44.967Z</time></trkpt><trkpt lat="43.8285295" lon="6.4261564"><ele>686.0</ele><time>2026-05-02T15:39:45.967Z</time></trkpt><trkpt lat="43.8286276" lon="6.42621"><ele>686.0</ele><time>2026-05-02T15:39:46.967Z</time></trkpt><trkpt lat="43.8287071" lon="6.42626"><ele>686.0</ele><time>2026-05-02T15:39:47.967Z</time></trkpt><trkpt lat="43.8287923" lon="6.4262936"><ele>684.0</ele><time>2026-05-02T15:39:48.967Z</time></trkpt><trkpt lat="43.8288641" lon="6.4263686"><ele>682.0</ele><time>2026-05-02T15:39:49.967Z</time></trkpt><trkpt lat="43.8289636" lon="6.4264288"><ele>680.0</ele><time>2026-05-02T15:39:50.967Z</time></trkpt><trkpt lat="43.8290635" lon="6.4264902"><ele>678.0</ele><time>2026-05-02T15:39:51.967Z</time></trkpt><trkpt lat="43.8291565" lon="6.426541"><ele>676.0</ele><time>2026-05-02T15:39:52.967Z</time></trkpt><trkpt lat="43.829231" lon="6.4265894"><ele>676.0</ele><time>2026-05-02T15:39:53.966Z</time></trkpt><trkpt lat="43.8293051" lon="6.42666"><ele>676.0</ele><time>2026-05-02T15:39:54.966Z</time></trkpt><trkpt lat="43.8293719" lon="6.4267256"><ele>676.0</ele><time>2026-05-02T15:39:55.967Z</time></trkpt><trkpt lat="43.8294269" lon="6.4267871"><ele>676.0</ele><time>2026-05-02T15:39:56.967Z</time></trkpt><trkpt lat="43.8294921" lon="6.4268611"><ele>676.0</ele><time>2026-05-02T15:39:57.967Z</time></trkpt><trkpt lat="43.8295415" lon="6.4269482"><ele>676.0</ele><time>2026-05-02T15:39:58.967Z</time></trkpt><trkpt lat="43.8295877" lon="6.4270381"><ele>675.8333333333334</ele><time>2026-05-02T15:39:59.967Z</time></trkpt><trkpt lat="43.8296157" lon="6.4271467"><ele>675.6666666666667</ele><time>2026-05-02T15:40:00.967Z</time></trkpt><trkpt lat="43.8296342" lon="6.4272438"><ele>675.5</ele><time>2026-05-02T15:40:01.967Z</time></trkpt><trkpt lat="43.829676" lon="6.4273351"><ele>675.3333333333334</ele><time>2026-05-02T15:40:02.967Z</time></trkpt><trkpt lat="43.8297286" lon="6.4274216"><ele>675.1666666666666</ele><time>2026-05-02T15:40:03.967Z</time></trkpt><trkpt lat="43.8297959" lon="6.4274827"><ele>675.0</ele><time>2026-05-02T15:40:04.966Z</time></trkpt><trkpt lat="43.8298769" lon="6.4275609"><ele>675.0</ele><time>2026-05-02T15:40:05.967Z</time></trkpt><trkpt lat="43.8299643" lon="6.4276387"><ele>675.0</ele><time>2026-05-02T15:40:06.967Z</time></trkpt><trkpt lat="43.8300458" lon="6.4277158"><ele>675.0</ele><time>2026-05-02T15:40:07.967Z</time></trkpt><trkpt lat="43.8301113" lon="6.4278154"><ele>675.0</ele><time>2026-05-02T15:40:08.967Z</time></trkpt><trkpt lat="43.830178" lon="6.4279175"><ele>675.0</ele><time>2026-05-02T15:40:09.967Z</time></trkpt><trkpt lat="43.8302435" lon="6.4280342"><ele>676.4</ele><time>2026-05-02T15:40:10.966Z</time></trkpt><trkpt lat="43.8303102" lon="6.4281495"><ele>677.8</ele><time>2026-05-02T15:40:11.966Z</time></trkpt><trkpt lat="43.8303544" lon="6.428245"><ele>679.2</ele><time>2026-05-02T15:40:12.967Z</time></trkpt><trkpt lat="43.830407" lon="6.4283487"><ele>680.6</ele><time>2026-05-02T15:40:13.967Z</time></trkpt><trkpt lat="43.8304379" lon="6.428477"><ele>682.0</ele><time>2026-05-02T15:40:14.967Z</time></trkpt><trkpt lat="43.8304729" lon="6.4286117"><ele>682.0</ele><time>2026-05-02T15:40:15.967Z</time></trkpt><trkpt lat="43.8305253" lon="6.428803"><ele>682.0</ele><time>2026-05-02T15:40:16.967Z</time></trkpt><trkpt lat="43.8305379" lon="6.4289627"><ele>682.0</ele><time>2026-05-02T15:40:17.967Z</time></trkpt><trkpt lat="43.8305005" lon="6.4290926"><ele>682.0</ele><time>2026-05-02T15:40:18.966Z</time></trkpt><trkpt lat="43.8304906" lon="6.4292326"><ele>681.4000000000001</ele><time>2026-05-02T15:40:19.967Z</time></trkpt><trkpt lat="43.8304848" lon="6.4293691"><ele>680.8000000000001</ele><time>2026-05-02T15:40:20.966Z</time></trkpt><trkpt lat="43.830499" lon="6.4295111"><ele>680.2</ele><time>2026-05-02T15:40:21.967Z</time></trkpt><trkpt lat="43.8305112" lon="6.4296352"><ele>679.6</ele><time>2026-05-02T15:40:22.967Z</time></trkpt><trkpt lat="43.8305339" lon="6.4297614"><ele>679.0</ele><time>2026-05-02T15:40:23.967Z</time></trkpt><trkpt lat="43.8305361" lon="6.4299068"><ele>679.0</ele><time>2026-05-02T15:40:24.967Z</time></trkpt><trkpt lat="43.830558" lon="6.4300467"><ele>679.0</ele><time>2026-05-02T15:40:25.967Z</time></trkpt><trkpt lat="43.8305914" lon="6.43019"><ele>679.0</ele><time>2026-05-02T15:40:26.967Z</time></trkpt><trkpt lat="43.8306565" lon="6.4303688"><ele>679.0</ele><time>2026-05-02T15:40:27.967Z</time></trkpt><trkpt lat="43.8307121" lon="6.4305511"><ele>678.5</ele><time>2026-05-02T15:40:28.967Z</time></trkpt><trkpt lat="43.8307691" lon="6.430731"><ele>678.0</ele><time>2026-05-02T15:40:29.967Z</time></trkpt><trkpt lat="43.8308489" lon="6.4309043"><ele>677.5</ele><time>2026-05-02T15:40:30.967Z</time></trkpt><trkpt lat="43.8309306" lon="6.4310809"><ele>677.0</ele><time>2026-05-02T15:40:31.966Z</time></trkpt><trkpt lat="43.8309858" lon="6.431232"><ele>679.8</ele><time>2026-05-02T15:40:32.967Z</time></trkpt><trkpt lat="43.8310461" lon="6.4313838"><ele>682.6</ele><time>2026-05-02T15:40:33.967Z</time></trkpt><trkpt lat="43.8310903" lon="6.4314889"><ele>685.4</ele><time>2026-05-02T15:40:34.967Z</time></trkpt><trkpt lat="43.8311241" lon="6.4315835"><ele>688.1999999999999</ele><time>2026-05-02T15:40:35.967Z</time></trkpt><trkpt lat="43.8311532" lon="6.4317304"><ele>691.0</ele><time>2026-05-02T15:40:37.967Z</time></trkpt><trkpt lat="43.8312172" lon="6.4318897"><ele>691.0</ele><time>2026-05-02T15:40:39.966Z</time></trkpt><trkpt lat="43.8312538" lon="6.432061"><ele>691.0</ele><time>2026-05-02T15:40:41.967Z</time></trkpt><trkpt lat="43.8312753" lon="6.4321646"><ele>691.0</ele><time>2026-05-02T15:40:42.967Z</time></trkpt><trkpt lat="43.8312907" lon="6.4322773"><ele>691.0</ele><time>2026-05-02T15:40:43.967Z</time></trkpt><trkpt lat="43.8312965" lon="6.4323916"><ele>691.0</ele><time>2026-05-02T15:40:44.966Z</time></trkpt><trkpt lat="43.8312916" lon="6.4325085"><ele>690.5</ele><time>2026-05-02T15:40:45.966Z</time></trkpt><trkpt lat="43.831289" lon="6.4326235"><ele>690.0</ele><time>2026-05-02T15:40:46.967Z</time></trkpt><trkpt lat="43.8312833" lon="6.4327475"><ele>689.5</ele><time>2026-05-02T15:40:47.967Z</time></trkpt><trkpt lat="43.8312813" lon="6.432867"><ele>689.0</ele><time>2026-05-02T15:40:48.967Z</time></trkpt><trkpt lat="43.8312833" lon="6.4329924"><ele>688.5</ele><time>2026-05-02T15:40:49.966Z</time></trkpt><trkpt lat="43.8312936" lon="6.4331188"><ele>688.0</ele><time>2026-05-02T15:40:50.967Z</time></trkpt><trkpt lat="43.8313018" lon="6.4332249"><ele>688.0</ele><time>2026-05-02T15:40:51.967Z</time></trkpt><trkpt lat="43.8313278" lon="6.4333438"><ele>688.0</ele><time>2026-05-02T15:40:52.967Z</time></trkpt><trkpt lat="43.8313698" lon="6.4334601"><ele>688.0</ele><time>2026-05-02T15:40:53.967Z</time></trkpt><trkpt lat="43.8314198" lon="6.4335667"><ele>688.0</ele><time>2026-05-02T15:40:54.967Z</time></trkpt><trkpt lat="43.8314958" lon="6.4336782"><ele>688.0</ele><time>2026-05-02T15:40:55.967Z</time></trkpt><trkpt lat="43.8316119" lon="6.4338168"><ele>685.75</ele><time>2026-05-02T15:40:56.967Z</time></trkpt><trkpt lat="43.8317057" lon="6.4339508"><ele>683.5</ele><time>2026-05-02T15:40:57.967Z</time></trkpt><trkpt lat="43.8317881" lon="6.4340762"><ele>681.25</ele><time>2026-05-02T15:40:58.967Z</time></trkpt><trkpt lat="43.8318948" lon="6.4341914"><ele>679.0</ele><time>2026-05-02T15:40:59.966Z</time></trkpt><trkpt lat="43.8320078" lon="6.4343332"><ele>679.6666666666667</ele><time>2026-05-02T15:41:00.967Z</time></trkpt><trkpt lat="43.8321478" lon="6.4344863"><ele>680.3333333333334</ele><time>2026-05-02T15:41:01.967Z</time></trkpt><trkpt lat="43.8322759" lon="6.4346302"><ele>681.0</ele><time>2026-05-02T15:41:02.967Z</time></trkpt><trkpt lat="43.8324126" lon="6.4347835"><ele>681.0</ele><time>2026-05-02T15:41:03.967Z</time></trkpt><trkpt lat="43.832572" lon="6.4349343"><ele>681.0</ele><time>2026-05-02T15:41:04.967Z</time></trkpt><trkpt lat="43.8327322" lon="6.4350644"><ele>681.0</ele><time>2026-05-02T15:41:05.966Z</time></trkpt><trkpt lat="43.8328475" lon="6.4351603"><ele>684.5</ele><time>2026-05-02T15:41:06.967Z</time></trkpt><trkpt lat="43.8329122" lon="6.4353166"><ele>688.0</ele><time>2026-05-02T15:41:07.967Z</time></trkpt><trkpt lat="43.8329878" lon="6.4354512"><ele>691.5</ele><time>2026-05-02T15:41:08.966Z</time></trkpt><trkpt lat="43.8330469" lon="6.4356349"><ele>695.0</ele><time>2026-05-02T15:41:09.967Z</time></trkpt><trkpt lat="43.8330851" lon="6.435809"><ele>695.0</ele><time>2026-05-02T15:41:10.967Z</time></trkpt><trkpt lat="43.8331302" lon="6.4360173"><ele>695.0</ele><time>2026-05-02T15:41:11.967Z</time></trkpt><trkpt lat="43.833129" lon="6.4362535"><ele>695.0</ele><time>2026-05-02T15:41:12.967Z</time></trkpt><trkpt lat="43.8331531" lon="6.436492"><ele>692.3333333333333</ele><time>2026-05-02T15:41:13.967Z</time></trkpt><trkpt lat="43.8332146" lon="6.436768"><ele>689.6666666666666</ele><time>2026-05-02T15:41:14.967Z</time></trkpt><trkpt lat="43.8332469" lon="6.4370153"><ele>687.0</ele><time>2026-05-02T15:41:15.966Z</time></trkpt><trkpt lat="43.8332727" lon="6.4372628"><ele>686.0</ele><time>2026-05-02T15:41:16.967Z</time></trkpt><trkpt lat="43.8333094" lon="6.4374846"><ele>685.0</ele><time>2026-05-02T15:41:17.967Z</time></trkpt><trkpt lat="43.8333625" lon="6.4377198"><ele>684.0</ele><time>2026-05-02T15:41:18.967Z</time></trkpt><trkpt lat="43.8334245" lon="6.4379562"><ele>695.0</ele><time>2026-05-02T15:41:19.967Z</time></trkpt><trkpt lat="43.8334803" lon="6.4382061"><ele>706.0</ele><time>2026-05-02T15:41:20.966Z</time></trkpt><trkpt lat="43.8335337" lon="6.4384675"><ele>717.0</ele><time>2026-05-02T15:41:21.967Z</time></trkpt><trkpt lat="43.8335641" lon="6.438723"><ele>718.6666666666666</ele><time>2026-05-02T15:41:22.967Z</time></trkpt><trkpt lat="43.8335785" lon="6.4389745"><ele>720.3333333333333</ele><time>2026-05-02T15:41:23.967Z</time></trkpt><trkpt lat="43.8335961" lon="6.4392284"><ele>722.0</ele><time>2026-05-02T15:41:24.967Z</time></trkpt><trkpt lat="43.8336141" lon="6.4394831"><ele>724.0</ele><time>2026-05-02T15:41:25.966Z</time></trkpt><trkpt lat="43.8335762" lon="6.4397058"><ele>726.0</ele><time>2026-05-02T15:41:26.967Z</time></trkpt><trkpt lat="43.8335415" lon="6.4399263"><ele>728.0</ele><time>2026-05-02T15:41:27.967Z</time></trkpt><trkpt lat="43.8334551" lon="6.4401312"><ele>715.6666666666666</ele><time>2026-05-02T15:41:28.967Z</time></trkpt><trkpt lat="43.8333379" lon="6.4403148"><ele>703.3333333333334</ele><time>2026-05-02T15:41:29.967Z</time></trkpt><trkpt lat="43.833272" lon="6.4405216"><ele>691.0</ele><time>2026-05-02T15:41:30.966Z</time></trkpt><trkpt lat="43.833208" lon="6.4407434"><ele>691.0</ele><time>2026-05-02T15:41:31.967Z</time></trkpt><trkpt lat="43.8331329" lon="6.4409412"><ele>691.0</ele><time>2026-05-02T15:41:32.967Z</time></trkpt><trkpt lat="43.8330501" lon="6.4411399"><ele>691.0</ele><time>2026-05-02T15:41:33.967Z</time></trkpt><trkpt lat="43.8329997" lon="6.4413155"><ele>698.0</ele><time>2026-05-02T15:41:34.966Z</time></trkpt><trkpt lat="43.8329273" lon="6.4415059"><ele>705.0</ele><time>2026-05-02T15:41:35.967Z</time></trkpt><trkpt lat="43.8328479" lon="6.4416912"><ele>712.0</ele><time>2026-05-02T15:41:36.967Z</time></trkpt><trkpt lat="43.8327447" lon="6.4418567"><ele>707.3333333333334</ele><time>2026-05-02T15:41:37.967Z</time></trkpt><trkpt lat="43.8326192" lon="6.4420092"><ele>702.6666666666666</ele><time>2026-05-02T15:41:38.967Z</time></trkpt><trkpt lat="43.8324961" lon="6.4421691"><ele>698.0</ele><time>2026-05-02T15:41:39.967Z</time></trkpt><trkpt lat="43.8323612" lon="6.4423259"><ele>698.0</ele><time>2026-05-02T15:41:40.967Z</time></trkpt><trkpt lat="43.832207" lon="6.4424552"><ele>698.0</ele><time>2026-05-02T15:41:41.966Z</time></trkpt><trkpt lat="43.8320546" lon="6.4425623"><ele>698.0</ele><time>2026-05-02T15:41:42.967Z</time></trkpt><trkpt lat="43.8318941" lon="6.44267"><ele>692.6666666666666</ele><time>2026-05-02T15:41:43.966Z</time></trkpt><trkpt lat="43.8317384" lon="6.4427592"><ele>687.3333333333334</ele><time>2026-05-02T15:41:44.967Z</time></trkpt><trkpt lat="43.8315807" lon="6.44283"><ele>682.0</ele><time>2026-05-02T15:41:45.967Z</time></trkpt><trkpt lat="43.8314187" lon="6.4429072"><ele>686.5</ele><time>2026-05-02T15:41:46.967Z</time></trkpt><trkpt lat="43.8312957" lon="6.4429954"><ele>691.0</ele><time>2026-05-02T15:41:47.966Z</time></trkpt><trkpt lat="43.8311614" lon="6.4430975"><ele>695.5</ele><time>2026-05-02T15:41:48.967Z</time></trkpt><trkpt lat="43.8310553" lon="6.443224"><ele>700.0</ele><time>2026-05-02T15:41:49.967Z</time></trkpt><trkpt lat="43.8309562" lon="6.4433438"><ele>700.0</ele><time>2026-05-02T15:41:50.967Z</time></trkpt><trkpt lat="43.8308649" lon="6.443509"><ele>700.0</ele><time>2026-05-02T15:41:51.967Z</time></trkpt><trkpt lat="43.830782" lon="6.4436663"><ele>700.0</ele><time>2026-05-02T15:41:52.967Z</time></trkpt><trkpt lat="43.8307054" lon="6.4438459"><ele>700.0</ele><time>2026-05-02T15:41:53.967Z</time></trkpt><trkpt lat="43.8306545" lon="6.4440017"><ele>703.3333333333334</ele><time>2026-05-02T15:41:54.967Z</time></trkpt><trkpt lat="43.83062" lon="6.4441788"><ele>706.6666666666666</ele><time>2026-05-02T15:41:55.967Z</time></trkpt><trkpt lat="43.8306377" lon="6.4444205"><ele>710.0</ele><time>2026-05-02T15:41:56.967Z</time></trkpt><trkpt lat="43.8306735" lon="6.4446465"><ele>710.0</ele><time>2026-05-02T15:41:57.967Z</time></trkpt><trkpt lat="43.8307145" lon="6.4448216"><ele>710.0</ele><time>2026-05-02T15:41:58.967Z</time></trkpt><trkpt lat="43.8307448" lon="6.4450433"><ele>710.0</ele><time>2026-05-02T15:41:59.966Z</time></trkpt><trkpt lat="43.8308289" lon="6.4451602"><ele>710.0</ele><time>2026-05-02T15:42:00.966Z</time></trkpt><trkpt lat="43.8309134" lon="6.4452063"><ele>718.25</ele><time>2026-05-02T15:42:01.967Z</time></trkpt><trkpt lat="43.8309753" lon="6.445342"><ele>726.5</ele><time>2026-05-02T15:42:02.967Z</time></trkpt><trkpt lat="43.8310226" lon="6.4454621"><ele>734.75</ele><time>2026-05-02T15:42:03.966Z</time></trkpt><trkpt lat="43.8311057" lon="6.4455326"><ele>743.0</ele><time>2026-05-02T15:42:05.967Z</time></trkpt><trkpt lat="43.831271" lon="6.4455738"><ele>743.0</ele><time>2026-05-02T15:42:06.967Z</time></trkpt><trkpt lat="43.8313414" lon="6.4457065"><ele>743.0</ele><time>2026-05-02T15:42:07.966Z</time></trkpt><trkpt lat="43.8314366" lon="6.4458643"><ele>743.0</ele><time>2026-05-02T15:42:08.967Z</time></trkpt><trkpt lat="43.8314837" lon="6.445973"><ele>743.0</ele><time>2026-05-02T15:42:09.966Z</time></trkpt><trkpt lat="43.8315639" lon="6.4462017"><ele>729.0</ele><time>2026-05-02T15:42:10.967Z</time></trkpt><trkpt lat="43.8315829" lon="6.4463739"><ele>715.0</ele><time>2026-05-02T15:42:11.966Z</time></trkpt><trkpt lat="43.8316298" lon="6.4466216"><ele>701.0</ele><time>2026-05-02T15:42:12.967Z</time></trkpt><trkpt lat="43.8317165" lon="6.4470059"><ele>699.0</ele><time>2026-05-02T15:42:13.967Z</time></trkpt><trkpt lat="43.8317637" lon="6.4472773"><ele>697.0</ele><time>2026-05-02T15:42:14.967Z</time></trkpt><trkpt lat="43.8317838" lon="6.4475342"><ele>695.0</ele><time>2026-05-02T15:42:15.967Z</time></trkpt><trkpt lat="43.831791" lon="6.4477297"><ele>695.0</ele><time>2026-05-02T15:42:16.967Z</time></trkpt><trkpt lat="43.8318277" lon="6.4480245"><ele>695.0</ele><time>2026-05-02T15:42:17.966Z</time></trkpt><trkpt lat="43.8318892" lon="6.4483055"><ele>695.0</ele><time>2026-05-02T15:42:18.966Z</time></trkpt><trkpt lat="43.8318934" lon="6.448535"><ele>694.6666666666666</ele><time>2026-05-02T15:42:19.967Z</time></trkpt><trkpt lat="43.8318888" lon="6.4487993"><ele>694.3333333333334</ele><time>2026-05-02T15:42:20.966Z</time></trkpt><trkpt lat="43.831859" lon="6.4490535"><ele>694.0</ele><time>2026-05-02T15:42:21.967Z</time></trkpt><trkpt lat="43.8317816" lon="6.4492144"><ele>694.0</ele><time>2026-05-02T15:42:22.967Z</time></trkpt><trkpt lat="43.8317068" lon="6.4494164"><ele>694.0</ele><time>2026-05-02T15:42:23.967Z</time></trkpt><trkpt lat="43.8316486" lon="6.4496116"><ele>694.0</ele><time>2026-05-02T15:42:24.967Z</time></trkpt><trkpt lat="43.8316137" lon="6.4497907"><ele>694.75</ele><time>2026-05-02T15:42:25.966Z</time></trkpt><trkpt lat="43.8315512" lon="6.4499525"><ele>695.5</ele><time>2026-05-02T15:42:26.967Z</time></trkpt><trkpt lat="43.831557" lon="6.450111"><ele>696.25</ele><time>2026-05-02T15:42:27.967Z</time></trkpt><trkpt lat="43.8315979" lon="6.4503087"><ele>697.0</ele><time>2026-05-02T15:42:28.967Z</time></trkpt><trkpt lat="43.8317029" lon="6.4505414"><ele>697.6666666666667</ele><time>2026-05-02T15:42:29.967Z</time></trkpt><trkpt lat="43.8317376" lon="6.4507401"><ele>698.3333333333334</ele><time>2026-05-02T15:42:30.967Z</time></trkpt><trkpt lat="43.8317111" lon="6.4509486"><ele>699.0</ele><time>2026-05-02T15:42:31.966Z</time></trkpt><trkpt lat="43.8317175" lon="6.4511767"><ele>701.0</ele><time>2026-05-02T15:42:32.967Z</time></trkpt><trkpt lat="43.8316839" lon="6.4513849"><ele>703.0</ele><time>2026-05-02T15:42:33.967Z</time></trkpt><trkpt lat="43.8316531" lon="6.451601"><ele>705.0</ele><time>2026-05-02T15:42:34.967Z</time></trkpt><trkpt lat="43.8316117" lon="6.4517984"><ele>705.0</ele><time>2026-05-02T15:42:35.967Z</time></trkpt><trkpt lat="43.8315532" lon="6.4519878"><ele>705.0</ele><time>2026-05-02T15:42:36.966Z</time></trkpt><trkpt lat="43.8314286" lon="6.4521476"><ele>705.0</ele><time>2026-05-02T15:42:37.967Z</time></trkpt><trkpt lat="43.8313214" lon="6.4523149"><ele>708.3333333333334</ele><time>2026-05-02T15:42:38.967Z</time></trkpt><trkpt lat="43.8312186" lon="6.4524675"><ele>711.6666666666667</ele><time>2026-05-02T15:42:39.966Z</time></trkpt><trkpt lat="43.8310792" lon="6.4525881"><ele>715.0</ele><time>2026-05-02T15:42:40.967Z</time></trkpt><trkpt lat="43.8309561" lon="6.4527456"><ele>711.0</ele><time>2026-05-02T15:42:41.967Z</time></trkpt><trkpt lat="43.8308635" lon="6.4529319"><ele>707.0</ele><time>2026-05-02T15:42:42.967Z</time></trkpt><trkpt lat="43.830769" lon="6.4531079"><ele>703.0</ele><time>2026-05-02T15:42:43.967Z</time></trkpt><trkpt lat="43.8306825" lon="6.453316"><ele>703.0</ele><time>2026-05-02T15:42:44.967Z</time></trkpt><trkpt lat="43.830617" lon="6.4535199"><ele>703.0</ele><time>2026-05-02T15:42:45.967Z</time></trkpt><trkpt lat="43.83057" lon="6.4537367"><ele>703.0</ele><time>2026-05-02T15:42:46.967Z</time></trkpt><trkpt lat="43.8305117" lon="6.4539136"><ele>706.3333333333334</ele><time>2026-05-02T15:42:47.966Z</time></trkpt><trkpt lat="43.8305006" lon="6.4541771"><ele>709.6666666666666</ele><time>2026-05-02T15:42:48.967Z</time></trkpt><trkpt lat="43.8304851" lon="6.4544219"><ele>713.0</ele><time>2026-05-02T15:42:49.967Z</time></trkpt><trkpt lat="43.8304883" lon="6.4546454"><ele>714.3333333333333</ele><time>2026-05-02T15:42:50.967Z</time></trkpt><trkpt lat="43.8305063" lon="6.4548683"><ele>715.6666666666666</ele><time>2026-05-02T15:42:51.967Z</time></trkpt><trkpt lat="43.8305314" lon="6.4550726"><ele>717.0</ele><time>2026-05-02T15:42:52.966Z</time></trkpt><trkpt lat="43.8305512" lon="6.4552716"><ele>719.0</ele><time>2026-05-02T15:42:53.966Z</time></trkpt><trkpt lat="43.8305727" lon="6.4554709"><ele>721.0</ele><time>2026-05-02T15:42:54.967Z</time></trkpt><trkpt lat="43.8305868" lon="6.4556687"><ele>723.0</ele><time>2026-05-02T15:42:55.967Z</time></trkpt><trkpt lat="43.8306022" lon="6.4558583"><ele>725.0</ele><time>2026-05-02T15:42:56.967Z</time></trkpt><trkpt lat="43.8305984" lon="6.4560619"><ele>725.0</ele><time>2026-05-02T15:42:57.967Z</time></trkpt><trkpt lat="43.8305688" lon="6.4562597"><ele>725.0</ele><time>2026-05-02T15:42:58.966Z</time></trkpt><trkpt lat="43.8304943" lon="6.4564277"><ele>725.0</ele><time>2026-05-02T15:42:59.967Z</time></trkpt><trkpt lat="43.8303952" lon="6.4565905"><ele>725.0</ele><time>2026-05-02T15:43:00.966Z</time></trkpt><trkpt lat="43.8302472" lon="6.4567322"><ele>720.3333333333333</ele><time>2026-05-02T15:43:01.967Z</time></trkpt><trkpt lat="43.8301325" lon="6.4568916"><ele>715.6666666666666</ele><time>2026-05-02T15:43:02.967Z</time></trkpt><trkpt lat="43.8300097" lon="6.4570487"><ele>711.0</ele><time>2026-05-02T15:43:03.967Z</time></trkpt><trkpt lat="43.8298948" lon="6.4572134"><ele>711.0</ele><time>2026-05-02T15:43:04.967Z</time></trkpt><trkpt lat="43.8297881" lon="6.4573968"><ele>711.0</ele><time>2026-05-02T15:43:05.967Z</time></trkpt><trkpt lat="43.8296761" lon="6.457568"><ele>711.0</ele><time>2026-05-02T15:43:06.967Z</time></trkpt><trkpt lat="43.8295969" lon="6.4577649"><ele>711.0</ele><time>2026-05-02T15:43:07.967Z</time></trkpt><trkpt lat="43.8294987" lon="6.4579357"><ele>711.0</ele><time>2026-05-02T15:43:08.966Z</time></trkpt><trkpt lat="43.8294129" lon="6.4581075"><ele>711.0</ele><time>2026-05-02T15:43:09.967Z</time></trkpt><trkpt lat="43.8293261" lon="6.4582796"><ele>712.5</ele><time>2026-05-02T15:43:10.967Z</time></trkpt><trkpt lat="43.8292488" lon="6.4584597"><ele>714.0</ele><time>2026-05-02T15:43:11.967Z</time></trkpt><trkpt lat="43.8291343" lon="6.4585911"><ele>715.5</ele><time>2026-05-02T15:43:12.967Z</time></trkpt><trkpt lat="43.829011" lon="6.4587009"><ele>717.0</ele><time>2026-05-02T15:43:13.966Z</time></trkpt><trkpt lat="43.8289205" lon="6.4588428"><ele>717.0</ele><time>2026-05-02T15:43:14.967Z</time></trkpt><trkpt lat="43.8288253" lon="6.4589902"><ele>717.0</ele><time>2026-05-02T15:43:15.967Z</time></trkpt><trkpt lat="43.8287437" lon="6.4591279"><ele>717.0</ele><time>2026-05-02T15:43:16.967Z</time></trkpt><trkpt lat="43.8286821" lon="6.4592768"><ele>717.0</ele><time>2026-05-02T15:43:17.966Z</time></trkpt><trkpt lat="43.8286606" lon="6.4594662"><ele>719.75</ele><time>2026-05-02T15:43:18.967Z</time></trkpt><trkpt lat="43.8286514" lon="6.4596469"><ele>722.5</ele><time>2026-05-02T15:43:19.967Z</time></trkpt><trkpt lat="43.8286111" lon="6.4598149"><ele>725.25</ele><time>2026-05-02T15:43:20.967Z</time></trkpt><trkpt lat="43.8285556" lon="6.4599672"><ele>728.0</ele><time>2026-05-02T15:43:21.967Z</time></trkpt><trkpt lat="43.8284808" lon="6.4601179"><ele>723.75</ele><time>2026-05-02T15:43:22.967Z</time></trkpt><trkpt lat="43.8283558" lon="6.4602691"><ele>719.5</ele><time>2026-05-02T15:43:23.967Z</time></trkpt><trkpt lat="43.8282557" lon="6.4603854"><ele>715.25</ele><time>2026-05-02T15:43:24.967Z</time></trkpt><trkpt lat="43.8281553" lon="6.4605272"><ele>711.0</ele><time>2026-05-02T15:43:25.967Z</time></trkpt><trkpt lat="43.8280993" lon="6.4607199"><ele>711.0</ele><time>2026-05-02T15:43:26.967Z</time></trkpt><trkpt lat="43.8280063" lon="6.4608816"><ele>711.0</ele><time>2026-05-02T15:43:27.967Z</time></trkpt><trkpt lat="43.8279163" lon="6.4610291"><ele>711.0</ele><time>2026-05-02T15:43:28.966Z</time></trkpt><trkpt lat="43.827825" lon="6.4611548"><ele>711.0</ele><time>2026-05-02T15:43:29.966Z</time></trkpt><trkpt lat="43.8277664" lon="6.4613398"><ele>713.25</ele><time>2026-05-02T15:43:30.967Z</time></trkpt><trkpt lat="43.8277238" lon="6.4615287"><ele>715.5</ele><time>2026-05-02T15:43:31.966Z</time></trkpt><trkpt lat="43.8276742" lon="6.4617102"><ele>717.75</ele><time>2026-05-02T15:43:32.967Z</time></trkpt><trkpt lat="43.827629" lon="6.461891"><ele>720.0</ele><time>2026-05-02T15:43:33.967Z</time></trkpt><trkpt lat="43.8276219" lon="6.4620232"><ele>718.3333333333334</ele><time>2026-05-02T15:43:34.967Z</time></trkpt><trkpt lat="43.827673" lon="6.4622341"><ele>716.6666666666667</ele><time>2026-05-02T15:43:35.966Z</time></trkpt><trkpt lat="43.8278319" lon="6.4624894"><ele>715.0</ele><time>2026-05-02T15:43:36.967Z</time></trkpt><trkpt lat="43.8279149" lon="6.462688"><ele>715.0</ele><time>2026-05-02T15:43:37.967Z</time></trkpt><trkpt lat="43.8279849" lon="6.4628927"><ele>715.0</ele><time>2026-05-02T15:43:38.967Z</time></trkpt><trkpt lat="43.8280644" lon="6.4630879"><ele>715.0</ele><time>2026-05-02T15:43:39.967Z</time></trkpt><trkpt lat="43.8281629" lon="6.4632606"><ele>713.0</ele><time>2026-05-02T15:43:40.967Z</time></trkpt><trkpt lat="43.8282505" lon="6.4634341"><ele>711.0</ele><time>2026-05-02T15:43:41.967Z</time></trkpt><trkpt lat="43.8283351" lon="6.4636109"><ele>709.0</ele><time>2026-05-02T15:43:42.967Z</time></trkpt><trkpt lat="43.8284478" lon="6.4637315"><ele>707.0</ele><time>2026-05-02T15:43:43.966Z</time></trkpt><trkpt lat="43.8285575" lon="6.4638529"><ele>712.25</ele><time>2026-05-02T15:43:44.967Z</time></trkpt><trkpt lat="43.8286636" lon="6.4639863"><ele>717.5</ele><time>2026-05-02T15:43:45.967Z</time></trkpt><trkpt lat="43.828693" lon="6.4641465"><ele>722.75</ele><time>2026-05-02T15:43:46.966Z</time></trkpt><trkpt lat="43.8287297" lon="6.464313"><ele>728.0</ele><time>2026-05-02T15:43:47.966Z</time></trkpt><trkpt lat="43.8287221" lon="6.4644594"><ele>727.3333333333333</ele><time>2026-05-02T15:43:48.967Z</time></trkpt><trkpt lat="43.8287166" lon="6.4647051"><ele>726.6666666666666</ele><time>2026-05-02T15:43:49.967Z</time></trkpt><trkpt lat="43.8287081" lon="6.4649193"><ele>726.0</ele><time>2026-05-02T15:43:50.967Z</time></trkpt><trkpt lat="43.8286938" lon="6.4651258"><ele>726.0</ele><time>2026-05-02T15:43:51.967Z</time></trkpt><trkpt lat="43.8286962" lon="6.4653189"><ele>726.0</ele><time>2026-05-02T15:43:52.967Z</time></trkpt><trkpt lat="43.8286912" lon="6.4654998"><ele>726.0</ele><time>2026-05-02T15:43:53.967Z</time></trkpt><trkpt lat="43.8287687" lon="6.465679"><ele>726.0</ele><time>2026-05-02T15:43:54.967Z</time></trkpt><trkpt lat="43.8288055" lon="6.4658555"><ele>725.5</ele><time>2026-05-02T15:43:55.967Z</time></trkpt><trkpt lat="43.8288515" lon="6.4660212"><ele>725.0</ele><time>2026-05-02T15:43:56.967Z</time></trkpt><trkpt lat="43.828953" lon="6.4661981"><ele>724.5</ele><time>2026-05-02T15:43:57.967Z</time></trkpt><trkpt lat="43.8290274" lon="6.4663747"><ele>724.0</ele><time>2026-05-02T15:43:58.967Z</time></trkpt><trkpt lat="43.8290954" lon="6.4665019"><ele>722.5</ele><time>2026-05-02T15:43:59.967Z</time></trkpt><trkpt lat="43.8291311" lon="6.4666435"><ele>721.0</ele><time>2026-05-02T15:44:00.967Z</time></trkpt><trkpt lat="43.8291422" lon="6.46678"><ele>719.5</ele><time>2026-05-02T15:44:01.967Z</time></trkpt><trkpt lat="43.8291314" lon="6.4669374"><ele>718.0</ele><time>2026-05-02T15:44:02.967Z</time></trkpt><trkpt lat="43.8290634" lon="6.4671163"><ele>718.0</ele><time>2026-05-02T15:44:03.967Z</time></trkpt><trkpt lat="43.8290196" lon="6.467287"><ele>718.0</ele><time>2026-05-02T15:44:04.967Z</time></trkpt><trkpt lat="43.8289844" lon="6.4674786"><ele>718.0</ele><time>2026-05-02T15:44:05.967Z</time></trkpt><trkpt lat="43.828971" lon="6.4676713"><ele>718.0</ele><time>2026-05-02T15:44:06.967Z</time></trkpt><trkpt lat="43.8289768" lon="6.4678545"><ele>717.6666666666667</ele><time>2026-05-02T15:44:07.967Z</time></trkpt><trkpt lat="43.8290291" lon="6.4680561"><ele>717.3333333333334</ele><time>2026-05-02T15:44:08.967Z</time></trkpt><trkpt lat="43.8290997" lon="6.4682474"><ele>717.0</ele><time>2026-05-02T15:44:09.967Z</time></trkpt><trkpt lat="43.8291639" lon="6.4684259"><ele>717.0</ele><time>2026-05-02T15:44:10.967Z</time></trkpt><trkpt lat="43.8291884" lon="6.4686059"><ele>717.0</ele><time>2026-05-02T15:44:11.966Z</time></trkpt><trkpt lat="43.8292339" lon="6.4688136"><ele>717.0</ele><time>2026-05-02T15:44:12.967Z</time></trkpt><trkpt lat="43.8292116" lon="6.4690239"><ele>717.0</ele><time>2026-05-02T15:44:13.967Z</time></trkpt><trkpt lat="43.8291527" lon="6.4692172"><ele>718.3333333333334</ele><time>2026-05-02T15:44:14.966Z</time></trkpt><trkpt lat="43.8291312" lon="6.46943"><ele>719.6666666666667</ele><time>2026-05-02T15:44:15.966Z</time></trkpt><trkpt lat="43.8291192" lon="6.469646"><ele>721.0</ele><time>2026-05-02T15:44:16.967Z</time></trkpt><trkpt lat="43.8291261" lon="6.4698575"><ele>721.0</ele><time>2026-05-02T15:44:17.967Z</time></trkpt><trkpt lat="43.8291658" lon="6.4700717"><ele>721.0</ele><time>2026-05-02T15:44:18.967Z</time></trkpt><trkpt lat="43.8292368" lon="6.4702887"><ele>721.0</ele><time>2026-05-02T15:44:19.967Z</time></trkpt><trkpt lat="43.8292983" lon="6.4704975"><ele>729.6666666666667</ele><time>2026-05-02T15:44:20.967Z</time></trkpt><trkpt lat="43.8293696" lon="6.4707172"><ele>738.3333333333334</ele><time>2026-05-02T15:44:21.967Z</time></trkpt><trkpt lat="43.8294404" lon="6.4709288"><ele>747.0</ele><time>2026-05-02T15:44:22.967Z</time></trkpt><trkpt lat="43.8295169" lon="6.4711436"><ele>740.0</ele><time>2026-05-02T15:44:23.967Z</time></trkpt><trkpt lat="43.8296074" lon="6.4713518"><ele>733.0</ele><time>2026-05-02T15:44:24.967Z</time></trkpt><trkpt lat="43.8297159" lon="6.4715368"><ele>726.0</ele><time>2026-05-02T15:44:25.967Z</time></trkpt><trkpt lat="43.8298348" lon="6.4716942"><ele>726.0</ele><time>2026-05-02T15:44:26.966Z</time></trkpt><trkpt lat="43.8299695" lon="6.4718108"><ele>726.0</ele><time>2026-05-02T15:44:27.967Z</time></trkpt><trkpt lat="43.8300843" lon="6.4719261"><ele>726.0</ele><time>2026-05-02T15:44:28.967Z</time></trkpt><trkpt lat="43.8301639" lon="6.4720675"><ele>726.0</ele><time>2026-05-02T15:44:29.966Z</time></trkpt><trkpt lat="43.8302204" lon="6.4722481"><ele>727.0</ele><time>2026-05-02T15:44:30.967Z</time></trkpt><trkpt lat="43.8302791" lon="6.4724393"><ele>728.0</ele><time>2026-05-02T15:44:31.967Z</time></trkpt><trkpt lat="43.8303434" lon="6.4726258"><ele>729.0</ele><time>2026-05-02T15:44:32.966Z</time></trkpt><trkpt lat="43.8304033" lon="6.472809"><ele>730.0</ele><time>2026-05-02T15:44:33.967Z</time></trkpt><trkpt lat="43.8304571" lon="6.4729962"><ele>730.0</ele><time>2026-05-02T15:44:34.967Z</time></trkpt><trkpt lat="43.8305052" lon="6.4731609"><ele>730.0</ele><time>2026-05-02T15:44:35.967Z</time></trkpt><trkpt lat="43.8305885" lon="6.473319"><ele>730.0</ele><time>2026-05-02T15:44:36.967Z</time></trkpt><trkpt lat="43.8306932" lon="6.4734517"><ele>730.0</ele><time>2026-05-02T15:44:37.967Z</time></trkpt><trkpt lat="43.8308135" lon="6.4735608"><ele>730.0</ele><time>2026-05-02T15:44:38.967Z</time></trkpt><trkpt lat="43.8309272" lon="6.4736797"><ele>730.0</ele><time>2026-05-02T15:44:39.966Z</time></trkpt><trkpt lat="43.8310335" lon="6.4738149"><ele>730.0</ele><time>2026-05-02T15:44:40.967Z</time></trkpt><trkpt lat="43.8311252" lon="6.4739703"><ele>730.0</ele><time>2026-05-02T15:44:41.967Z</time></trkpt><trkpt lat="43.8311685" lon="6.4741748"><ele>734.0</ele><time>2026-05-02T15:44:42.967Z</time></trkpt><trkpt lat="43.8312118" lon="6.47439"><ele>738.0</ele><time>2026-05-02T15:44:43.967Z</time></trkpt><trkpt lat="43.8312365" lon="6.4746102"><ele>742.0</ele><time>2026-05-02T15:44:44.967Z</time></trkpt><trkpt lat="43.8312488" lon="6.4748481"><ele>742.0</ele><time>2026-05-02T15:44:45.967Z</time></trkpt><trkpt lat="43.8312539" lon="6.4750727"><ele>742.0</ele><time>2026-05-02T15:44:46.966Z</time></trkpt><trkpt lat="43.8312866" lon="6.475289"><ele>742.0</ele><time>2026-05-02T15:44:47.967Z</time></trkpt><trkpt lat="43.8313503" lon="6.4755183"><ele>739.0</ele><time>2026-05-02T15:44:48.967Z</time></trkpt><trkpt lat="43.8314139" lon="6.4757226"><ele>736.0</ele><time>2026-05-02T15:44:49.967Z</time></trkpt><trkpt lat="43.8314838" lon="6.4759233"><ele>733.0</ele><time>2026-05-02T15:44:50.967Z</time></trkpt><trkpt lat="43.8315487" lon="6.4761127"><ele>731.75</ele><time>2026-05-02T15:44:51.967Z</time></trkpt><trkpt lat="43.8315748" lon="6.4762957"><ele>730.5</ele><time>2026-05-02T15:44:52.967Z</time></trkpt><trkpt lat="43.8315983" lon="6.4764869"><ele>729.25</ele><time>2026-05-02T15:44:53.967Z</time></trkpt><trkpt lat="43.8316097" lon="6.4767054"><ele>728.0</ele><time>2026-05-02T15:44:54.967Z</time></trkpt><trkpt lat="43.8316323" lon="6.4768902"><ele>728.0</ele><time>2026-05-02T15:44:55.967Z</time></trkpt><trkpt lat="43.8316718" lon="6.4770811"><ele>728.0</ele><time>2026-05-02T15:44:56.966Z</time></trkpt><trkpt lat="43.8317463" lon="6.4772908"><ele>728.0</ele><time>2026-05-02T15:44:57.967Z</time></trkpt><trkpt lat="43.831803" lon="6.4774795"><ele>738.0</ele><time>2026-05-02T15:44:58.967Z</time></trkpt><trkpt lat="43.8318355" lon="6.4776691"><ele>748.0</ele><time>2026-05-02T15:44:59.966Z</time></trkpt><trkpt lat="43.8318817" lon="6.4779027"><ele>758.0</ele><time>2026-05-02T15:45:00.967Z</time></trkpt><trkpt lat="43.8319441" lon="6.4781216"><ele>758.0</ele><time>2026-05-02T15:45:01.966Z</time></trkpt><trkpt lat="43.8320198" lon="6.4783207"><ele>758.0</ele><time>2026-05-02T15:45:02.966Z</time></trkpt><trkpt lat="43.8320741" lon="6.4785009"><ele>758.0</ele><time>2026-05-02T15:45:03.967Z</time></trkpt><trkpt lat="43.8321021" lon="6.4786667"><ele>758.0</ele><time>2026-05-02T15:45:04.967Z</time></trkpt><trkpt lat="43.8320841" lon="6.4788596"><ele>756.0</ele><time>2026-05-02T15:45:05.967Z</time></trkpt><trkpt lat="43.8320917" lon="6.4790581"><ele>754.0</ele><time>2026-05-02T15:45:06.967Z</time></trkpt><trkpt lat="43.8321109" lon="6.4792284"><ele>752.0</ele><time>2026-05-02T15:45:07.967Z</time></trkpt><trkpt lat="43.8321422" lon="6.4793997"><ele>750.0</ele><time>2026-05-02T15:45:08.966Z</time></trkpt><trkpt lat="43.8322285" lon="6.4795761"><ele>745.0</ele><time>2026-05-02T15:45:09.967Z</time></trkpt><trkpt lat="43.8323328" lon="6.4797572"><ele>740.0</ele><time>2026-05-02T15:45:10.967Z</time></trkpt><trkpt lat="43.8324384" lon="6.4799384"><ele>735.0</ele><time>2026-05-02T15:45:11.967Z</time></trkpt><trkpt lat="43.8325392" lon="6.4801272"><ele>735.0</ele><time>2026-05-02T15:45:12.967Z</time></trkpt><trkpt lat="43.8326338" lon="6.4803084"><ele>735.0</ele><time>2026-05-02T15:45:13.967Z</time></trkpt><trkpt lat="43.8327299" lon="6.480478"><ele>735.0</ele><time>2026-05-02T15:45:14.967Z</time></trkpt><trkpt lat="43.8328203" lon="6.4806413"><ele>741.6666666666666</ele><time>2026-05-02T15:45:15.966Z</time></trkpt><trkpt lat="43.8328977" lon="6.4808196"><ele>748.3333333333333</ele><time>2026-05-02T15:45:16.967Z</time></trkpt><trkpt lat="43.832922" lon="6.4810508"><ele>755.0</ele><time>2026-05-02T15:45:17.967Z</time></trkpt><trkpt lat="43.832945" lon="6.4812449"><ele>753.5</ele><time>2026-05-02T15:45:18.967Z</time></trkpt><trkpt lat="43.8329657" lon="6.4814354"><ele>752.0</ele><time>2026-05-02T15:45:19.967Z</time></trkpt><trkpt lat="43.8329988" lon="6.4815744"><ele>750.5</ele><time>2026-05-02T15:45:20.966Z</time></trkpt><trkpt lat="43.8330331" lon="6.4817295"><ele>749.0</ele><time>2026-05-02T15:45:21.967Z</time></trkpt><trkpt lat="43.833079" lon="6.4818859"><ele>749.0</ele><time>2026-05-02T15:45:22.967Z</time></trkpt><trkpt lat="43.8331287" lon="6.4820369"><ele>749.0</ele><time>2026-05-02T15:45:23.967Z</time></trkpt><trkpt lat="43.8332075" lon="6.4821727"><ele>749.0</ele><time>2026-05-02T15:45:24.967Z</time></trkpt><trkpt lat="43.8332965" lon="6.4823052"><ele>749.0</ele><time>2026-05-02T15:45:25.967Z</time></trkpt><trkpt lat="43.8333942" lon="6.4824283"><ele>751.5</ele><time>2026-05-02T15:45:26.967Z</time></trkpt><trkpt lat="43.8335058" lon="6.4825286"><ele>754.0</ele><time>2026-05-02T15:45:27.966Z</time></trkpt><trkpt lat="43.8336204" lon="6.4826184"><ele>756.5</ele><time>2026-05-02T15:45:28.967Z</time></trkpt><trkpt lat="43.8337647" lon="6.4826973"><ele>759.0</ele><time>2026-05-02T15:45:29.967Z</time></trkpt><trkpt lat="43.8338957" lon="6.4827717"><ele>759.0</ele><time>2026-05-02T15:45:30.967Z</time></trkpt><trkpt lat="43.8340216" lon="6.4828456"><ele>759.0</ele><time>2026-05-02T15:45:31.966Z</time></trkpt><trkpt lat="43.8341704" lon="6.482901"><ele>759.0</ele><time>2026-05-02T15:45:32.967Z</time></trkpt><trkpt lat="43.8342917" lon="6.4829875"><ele>759.0</ele><time>2026-05-02T15:45:33.967Z</time></trkpt><trkpt lat="43.8344226" lon="6.4830864"><ele>757.0</ele><time>2026-05-02T15:45:34.967Z</time></trkpt><trkpt lat="43.8345324" lon="6.4832203"><ele>755.0</ele><time>2026-05-02T15:45:35.967Z</time></trkpt><trkpt lat="43.8346445" lon="6.4833725"><ele>753.0</ele><time>2026-05-02T15:45:36.967Z</time></trkpt><trkpt lat="43.8347524" lon="6.4835472"><ele>753.0</ele><time>2026-05-02T15:45:37.966Z</time></trkpt><trkpt lat="43.834862" lon="6.4836784"><ele>753.0</ele><time>2026-05-02T15:45:38.967Z</time></trkpt><trkpt lat="43.8349912" lon="6.4837938"><ele>753.0</ele><time>2026-05-02T15:45:39.967Z</time></trkpt><trkpt lat="43.8351198" lon="6.4839028"><ele>753.0</ele><time>2026-05-02T15:45:40.967Z</time></trkpt><trkpt lat="43.8352197" lon="6.4840488"><ele>757.0</ele><time>2026-05-02T15:45:41.966Z</time></trkpt><trkpt lat="43.835323" lon="6.4841789"><ele>761.0</ele><time>2026-05-02T15:45:42.967Z</time></trkpt><trkpt lat="43.8354102" lon="6.4843359"><ele>765.0</ele><time>2026-05-02T15:45:43.967Z</time></trkpt><trkpt lat="43.8354523" lon="6.4845666"><ele>761.3333333333334</ele><time>2026-05-02T15:45:44.967Z</time></trkpt><trkpt lat="43.8355004" lon="6.4847735"><ele>757.6666666666667</ele><time>2026-05-02T15:45:45.967Z</time></trkpt><trkpt lat="43.8355351" lon="6.4849853"><ele>754.0</ele><time>2026-05-02T15:45:46.967Z</time></trkpt><trkpt lat="43.8355774" lon="6.4851851"><ele>754.0</ele><time>2026-05-02T15:45:47.967Z</time></trkpt><trkpt lat="43.835628" lon="6.4853691"><ele>754.0</ele><time>2026-05-02T15:45:48.966Z</time></trkpt><trkpt lat="43.8356636" lon="6.4855381"><ele>754.0</ele><time>2026-05-02T15:45:49.967Z</time></trkpt><trkpt lat="43.8356555" lon="6.4857036"><ele>754.0</ele><time>2026-05-02T15:45:50.967Z</time></trkpt><trkpt lat="43.8356342" lon="6.4858671"><ele>753.25</ele><time>2026-05-02T15:45:51.967Z</time></trkpt><trkpt lat="43.8355881" lon="6.4860026"><ele>752.5</ele><time>2026-05-02T15:45:52.967Z</time></trkpt><trkpt lat="43.8355092" lon="6.4860957"><ele>751.75</ele><time>2026-05-02T15:45:53.967Z</time></trkpt><trkpt lat="43.8353898" lon="6.486217"><ele>751.0</ele><time>2026-05-02T15:45:54.967Z</time></trkpt><trkpt lat="43.8352922" lon="6.4863309"><ele>754.5</ele><time>2026-05-02T15:45:55.966Z</time></trkpt><trkpt lat="43.8352211" lon="6.4864868"><ele>758.0</ele><time>2026-05-02T15:45:56.967Z</time></trkpt><trkpt lat="43.8351762" lon="6.4866852"><ele>761.5</ele><time>2026-05-02T15:45:57.966Z</time></trkpt><trkpt lat="43.8351388" lon="6.4868803"><ele>765.0</ele><time>2026-05-02T15:45:58.967Z</time></trkpt><trkpt lat="43.8350786" lon="6.4870634"><ele>755.75</ele><time>2026-05-02T15:45:59.967Z</time></trkpt><trkpt lat="43.8350755" lon="6.4872383"><ele>746.5</ele><time>2026-05-02T15:46:00.967Z</time></trkpt><trkpt lat="43.8350787" lon="6.4874109"><ele>737.25</ele><time>2026-05-02T15:46:01.966Z</time></trkpt><trkpt lat="43.8350802" lon="6.4875697"><ele>728.0</ele><time>2026-05-02T15:46:02.967Z</time></trkpt><trkpt lat="43.8351002" lon="6.4877302"><ele>734.6666666666666</ele><time>2026-05-02T15:46:03.967Z</time></trkpt><trkpt lat="43.8351505" lon="6.4879427"><ele>741.3333333333334</ele><time>2026-05-02T15:46:04.967Z</time></trkpt><trkpt lat="43.8351734" lon="6.4881401"><ele>748.0</ele><time>2026-05-02T15:46:05.966Z</time></trkpt><trkpt lat="43.8352414" lon="6.4884011"><ele>748.0</ele><time>2026-05-02T15:46:06.966Z</time></trkpt><trkpt lat="43.8352764" lon="6.4885761"><ele>748.0</ele><time>2026-05-02T15:46:07.967Z</time></trkpt><trkpt lat="43.8353305" lon="6.4887736"><ele>748.0</ele><time>2026-05-02T15:46:08.967Z</time></trkpt><trkpt lat="43.8353758" lon="6.4889462"><ele>748.0</ele><time>2026-05-02T15:46:09.967Z</time></trkpt><trkpt lat="43.8354274" lon="6.489124"><ele>747.2</ele><time>2026-05-02T15:46:10.967Z</time></trkpt><trkpt lat="43.835447" lon="6.4892838"><ele>746.4</ele><time>2026-05-02T15:46:11.967Z</time></trkpt><trkpt lat="43.8354207" lon="6.489391"><ele>745.6</ele><time>2026-05-02T15:46:12.967Z</time></trkpt><trkpt lat="43.8354101" lon="6.4895323"><ele>744.8000000000001</ele><time>2026-05-02T15:46:13.967Z</time></trkpt><trkpt lat="43.8353521" lon="6.4896503"><ele>744.0</ele><time>2026-05-02T15:46:14.966Z</time></trkpt><trkpt lat="43.8352687" lon="6.4897433"><ele>744.0</ele><time>2026-05-02T15:46:15.967Z</time></trkpt><trkpt lat="43.835168" lon="6.4898406"><ele>744.0</ele><time>2026-05-02T15:46:16.967Z</time></trkpt><trkpt lat="43.8350826" lon="6.489921"><ele>744.0</ele><time>2026-05-02T15:46:17.967Z</time></trkpt><trkpt lat="43.834991" lon="6.4900231"><ele>744.0</ele><time>2026-05-02T15:46:18.967Z</time></trkpt><trkpt lat="43.8349349" lon="6.490177"><ele>740.5</ele><time>2026-05-02T15:46:19.967Z</time></trkpt><trkpt lat="43.8349028" lon="6.4903105"><ele>737.0</ele><time>2026-05-02T15:46:20.967Z</time></trkpt><trkpt lat="43.8348952" lon="6.4904526"><ele>733.5</ele><time>2026-05-02T15:46:21.966Z</time></trkpt><trkpt lat="43.835" lon="6.4906824"><ele>730.0</ele><time>2026-05-02T15:46:22.967Z</time></trkpt><trkpt lat="43.8350676" lon="6.4908699"><ele>729.75</ele><time>2026-05-02T15:46:23.967Z</time></trkpt><trkpt lat="43.8351136" lon="6.4910851"><ele>729.5</ele><time>2026-05-02T15:46:24.967Z</time></trkpt><trkpt lat="43.8351711" lon="6.4912545"><ele>729.25</ele><time>2026-05-02T15:46:25.967Z</time></trkpt><trkpt lat="43.8352071" lon="6.4914396"><ele>729.0</ele><time>2026-05-02T15:46:26.967Z</time></trkpt><trkpt lat="43.8352222" lon="6.4916352"><ele>731.3333333333334</ele><time>2026-05-02T15:46:27.967Z</time></trkpt><trkpt lat="43.8352188" lon="6.4918504"><ele>733.6666666666667</ele><time>2026-05-02T15:46:28.967Z</time></trkpt><trkpt lat="43.8351925" lon="6.4920311"><ele>736.0</ele><time>2026-05-02T15:46:29.967Z</time></trkpt><trkpt lat="43.835091" lon="6.4922272"><ele>736.0</ele><time>2026-05-02T15:46:30.967Z</time></trkpt><trkpt lat="43.8350501" lon="6.4924091"><ele>736.0</ele><time>2026-05-02T15:46:31.967Z</time></trkpt><trkpt lat="43.8349908" lon="6.492586"><ele>736.0</ele><time>2026-05-02T15:46:32.967Z</time></trkpt><trkpt lat="43.8349376" lon="6.4927468"><ele>736.0</ele><time>2026-05-02T15:46:33.967Z</time></trkpt><trkpt lat="43.8348941" lon="6.4929042"><ele>734.0</ele><time>2026-05-02T15:46:34.966Z</time></trkpt><trkpt lat="43.8348621" lon="6.4930354"><ele>732.0</ele><time>2026-05-02T15:46:35.967Z</time></trkpt><trkpt lat="43.8348354" lon="6.4931602"><ele>730.0</ele><time>2026-05-02T15:46:36.967Z</time></trkpt><trkpt lat="43.8348385" lon="6.4932809"><ele>728.0</ele><time>2026-05-02T15:46:37.967Z</time></trkpt><trkpt lat="43.8350504" lon="6.4934236"><ele>729.0</ele><time>2026-05-02T15:46:39.967Z</time></trkpt><trkpt lat="43.8351603" lon="6.4934874"><ele>730.0</ele><time>2026-05-02T15:46:40.967Z</time></trkpt><trkpt lat="43.8352981" lon="6.4935189"><ele>731.0</ele><time>2026-05-02T15:46:41.967Z</time></trkpt><trkpt lat="43.835429" lon="6.4935296"><ele>732.0</ele><time>2026-05-02T15:46:42.967Z</time></trkpt><trkpt lat="43.8355707" lon="6.4935236"><ele>732.0</ele><time>2026-05-02T15:46:43.967Z</time></trkpt><trkpt lat="43.8356976" lon="6.4934852"><ele>732.0</ele><time>2026-05-02T15:46:44.967Z</time></trkpt><trkpt lat="43.8358521" lon="6.493473"><ele>732.0</ele><time>2026-05-02T15:46:45.967Z</time></trkpt><trkpt lat="43.8359861" lon="6.4934279"><ele>732.0</ele><time>2026-05-02T15:46:46.967Z</time></trkpt><trkpt lat="43.8361153" lon="6.4933173"><ele>729.25</ele><time>2026-05-02T15:46:47.967Z</time></trkpt><trkpt lat="43.8362302" lon="6.493209"><ele>726.5</ele><time>2026-05-02T15:46:48.967Z</time></trkpt><trkpt lat="43.8363211" lon="6.4930117"><ele>723.75</ele><time>2026-05-02T15:46:49.966Z</time></trkpt><trkpt lat="43.8364219" lon="6.4929683"><ele>721.0</ele><time>2026-05-02T15:46:50.966Z</time></trkpt><trkpt lat="43.8365468" lon="6.4929528"><ele>721.0</ele><time>2026-05-02T15:46:51.967Z</time></trkpt><trkpt lat="43.8366544" lon="6.4929535"><ele>721.0</ele><time>2026-05-02T15:46:52.967Z</time></trkpt><trkpt lat="43.8368208" lon="6.4930141"><ele>721.0</ele><time>2026-05-02T15:46:53.967Z</time></trkpt><trkpt lat="43.8369872" lon="6.4931013"><ele>726.0</ele><time>2026-05-02T15:46:54.967Z</time></trkpt><trkpt lat="43.8371146" lon="6.493146"><ele>731.0</ele><time>2026-05-02T15:46:55.966Z</time></trkpt><trkpt lat="43.8372696" lon="6.4932402"><ele>736.0</ele><time>2026-05-02T15:46:56.967Z</time></trkpt><trkpt lat="43.8373986" lon="6.493364"><ele>736.0</ele><time>2026-05-02T15:46:57.967Z</time></trkpt><trkpt lat="43.8375307" lon="6.4934992"><ele>736.0</ele><time>2026-05-02T15:46:58.967Z</time></trkpt><trkpt lat="43.8376638" lon="6.4936206"><ele>736.0</ele><time>2026-05-02T15:46:59.967Z</time></trkpt><trkpt lat="43.8377959" lon="6.4937616"><ele>731.5</ele><time>2026-05-02T15:47:00.967Z</time></trkpt><trkpt lat="43.8378721" lon="6.4939005"><ele>727.0</ele><time>2026-05-02T15:47:01.967Z</time></trkpt><trkpt lat="43.8379821" lon="6.4940349"><ele>722.5</ele><time>2026-05-02T15:47:02.967Z</time></trkpt><trkpt lat="43.8380924" lon="6.494128"><ele>718.0</ele><time>2026-05-02T15:47:03.967Z</time></trkpt><trkpt lat="43.8381706" lon="6.494185"><ele>718.0</ele><time>2026-05-02T15:47:04.967Z</time></trkpt><trkpt lat="43.8382475" lon="6.4941698"><ele>718.0</ele><time>2026-05-02T15:47:05.967Z</time></trkpt><trkpt lat="43.8383145" lon="6.494143"><ele>718.0</ele><time>2026-05-02T15:47:06.967Z</time></trkpt><trkpt lat="43.8383652" lon="6.4940652"><ele>718.0</ele><time>2026-05-02T15:47:07.967Z</time></trkpt><trkpt lat="43.8384489" lon="6.4938625"><ele>718.0</ele><time>2026-05-02T15:47:08.967Z</time></trkpt><trkpt lat="43.83851" lon="6.4937606"><ele>719.4</ele><time>2026-05-02T15:47:09.967Z</time></trkpt><trkpt lat="43.838599" lon="6.4936622"><ele>720.8</ele><time>2026-05-02T15:47:10.966Z</time></trkpt><trkpt lat="43.8387014" lon="6.4935879"><ele>722.2</ele><time>2026-05-02T15:47:11.967Z</time></trkpt><trkpt lat="43.8387907" lon="6.4935289"><ele>723.6</ele><time>2026-05-02T15:47:12.967Z</time></trkpt><trkpt lat="43.8388904" lon="6.4935368"><ele>725.0</ele><time>2026-05-02T15:47:13.966Z</time></trkpt><trkpt lat="43.8389833" lon="6.4935592"><ele>725.0</ele><time>2026-05-02T15:47:14.967Z</time></trkpt><trkpt lat="43.8390799" lon="6.4936097"><ele>725.0</ele><time>2026-05-02T15:47:15.966Z</time></trkpt><trkpt lat="43.8391751" lon="6.49367"><ele>725.0</ele><time>2026-05-02T15:47:16.967Z</time></trkpt><trkpt lat="43.839274" lon="6.4937332"><ele>725.0</ele><time>2026-05-02T15:47:17.967Z</time></trkpt><trkpt lat="43.8393844" lon="6.4938056"><ele>725.0</ele><time>2026-05-02T15:47:18.967Z</time></trkpt><trkpt lat="43.8394908" lon="6.4938762"><ele>725.0</ele><time>2026-05-02T15:47:19.966Z</time></trkpt><trkpt lat="43.8395941" lon="6.4939667"><ele>725.0</ele><time>2026-05-02T15:47:20.967Z</time></trkpt><trkpt lat="43.8396878" lon="6.4940792"><ele>725.0</ele><time>2026-05-02T15:47:21.967Z</time></trkpt><trkpt lat="43.8397812" lon="6.4941983"><ele>725.0</ele><time>2026-05-02T15:47:22.967Z</time></trkpt><trkpt lat="43.8398817" lon="6.49431"><ele>725.0</ele><time>2026-05-02T15:47:23.967Z</time></trkpt><trkpt lat="43.8399906" lon="6.4944073"><ele>725.0</ele><time>2026-05-02T15:47:24.967Z</time></trkpt><trkpt lat="43.840104" lon="6.4944835"><ele>725.0</ele><time>2026-05-02T15:47:25.966Z</time></trkpt><trkpt lat="43.8402071" lon="6.4946048"><ele>725.0</ele><time>2026-05-02T15:47:26.967Z</time></trkpt><trkpt lat="43.8403167" lon="6.4947142"><ele>725.5</ele><time>2026-05-02T15:47:27.966Z</time></trkpt><trkpt lat="43.8404249" lon="6.4948367"><ele>726.0</ele><time>2026-05-02T15:47:28.967Z</time></trkpt><trkpt lat="43.8405269" lon="6.4949506"><ele>726.5</ele><time>2026-05-02T15:47:29.967Z</time></trkpt><trkpt lat="43.8406298" lon="6.4950645"><ele>727.0</ele><time>2026-05-02T15:47:30.967Z</time></trkpt><trkpt lat="43.8407266" lon="6.4951753"><ele>727.0</ele><time>2026-05-02T15:47:31.967Z</time></trkpt><trkpt lat="43.840832" lon="6.4952863"><ele>727.0</ele><time>2026-05-02T15:47:32.967Z</time></trkpt><trkpt lat="43.8409302" lon="6.4953928"><ele>727.0</ele><time>2026-05-02T15:47:33.967Z</time></trkpt><trkpt lat="43.8410385" lon="6.495485"><ele>727.0</ele><time>2026-05-02T15:47:34.967Z</time></trkpt><trkpt lat="43.841151" lon="6.4955753"><ele>726.25</ele><time>2026-05-02T15:47:35.966Z</time></trkpt><trkpt lat="43.8412629" lon="6.4956789"><ele>725.5</ele><time>2026-05-02T15:47:36.967Z</time></trkpt><trkpt lat="43.8413587" lon="6.4957679"><ele>724.75</ele><time>2026-05-02T15:47:37.967Z</time></trkpt><trkpt lat="43.8414573" lon="6.4958698"><ele>724.0</ele><time>2026-05-02T15:47:38.967Z</time></trkpt><trkpt lat="43.841552" lon="6.4959835"><ele>724.0</ele><time>2026-05-02T15:47:39.967Z</time></trkpt><trkpt lat="43.841658" lon="6.4961103"><ele>724.0</ele><time>2026-05-02T15:47:40.967Z</time></trkpt><trkpt lat="43.8417464" lon="6.496226"><ele>724.0</ele><time>2026-05-02T15:47:41.967Z</time></trkpt><trkpt lat="43.8418355" lon="6.4963243"><ele>724.0</ele><time>2026-05-02T15:47:42.967Z</time></trkpt><trkpt lat="43.841906" lon="6.4964551"><ele>726.5</ele><time>2026-05-02T15:47:43.967Z</time></trkpt><trkpt lat="43.8419711" lon="6.4966056"><ele>729.0</ele><time>2026-05-02T15:47:44.967Z</time></trkpt><trkpt lat="43.8420312" lon="6.4967599"><ele>731.5</ele><time>2026-05-02T15:47:45.967Z</time></trkpt><trkpt lat="43.8420948" lon="6.4969403"><ele>734.0</ele><time>2026-05-02T15:47:46.967Z</time></trkpt><trkpt lat="43.8421717" lon="6.4971036"><ele>734.0</ele><time>2026-05-02T15:47:47.967Z</time></trkpt><trkpt lat="43.8422374" lon="6.4972673"><ele>734.0</ele><time>2026-05-02T15:47:48.966Z</time></trkpt><trkpt lat="43.8422844" lon="6.4974197"><ele>734.0</ele><time>2026-05-02T15:47:49.967Z</time></trkpt><trkpt lat="43.8423701" lon="6.4975936"><ele>734.0</ele><time>2026-05-02T15:47:50.966Z</time></trkpt><trkpt lat="43.842439" lon="6.4977721"><ele>730.5</ele><time>2026-05-02T15:47:51.966Z</time></trkpt><trkpt lat="43.842528" lon="6.4979322"><ele>727.0</ele><time>2026-05-02T15:47:52.967Z</time></trkpt><trkpt lat="43.8426161" lon="6.4980928"><ele>723.5</ele><time>2026-05-02T15:47:53.967Z</time></trkpt><trkpt lat="43.8427163" lon="6.4982498"><ele>720.0</ele><time>2026-05-02T15:47:54.967Z</time></trkpt><trkpt lat="43.8427975" lon="6.4983984"><ele>725.75</ele><time>2026-05-02T15:47:55.967Z</time></trkpt><trkpt lat="43.8428755" lon="6.4985457"><ele>731.5</ele><time>2026-05-02T15:47:56.967Z</time></trkpt><trkpt lat="43.8429388" lon="6.4987018"><ele>737.25</ele><time>2026-05-02T15:47:57.967Z</time></trkpt><trkpt lat="43.8429853" lon="6.4988736"><ele>743.0</ele><time>2026-05-02T15:47:58.967Z</time></trkpt><trkpt lat="43.8430169" lon="6.4990242"><ele>743.0</ele><time>2026-05-02T15:47:59.967Z</time></trkpt><trkpt lat="43.8430327" lon="6.4992314"><ele>743.0</ele><time>2026-05-02T15:48:00.967Z</time></trkpt><trkpt lat="43.8430422" lon="6.4994274"><ele>743.0</ele><time>2026-05-02T15:48:01.967Z</time></trkpt><trkpt lat="43.8430501" lon="6.499605"><ele>743.0</ele><time>2026-05-02T15:48:02.966Z</time></trkpt><trkpt lat="43.8430819" lon="6.4998099"><ele>740.5</ele><time>2026-05-02T15:48:03.967Z</time></trkpt><trkpt lat="43.8431148" lon="6.5000132"><ele>738.0</ele><time>2026-05-02T15:48:04.966Z</time></trkpt><trkpt lat="43.8431393" lon="6.5002029"><ele>735.5</ele><time>2026-05-02T15:48:05.967Z</time></trkpt><trkpt lat="43.8431973" lon="6.5003993"><ele>733.0</ele><time>2026-05-02T15:48:06.967Z</time></trkpt><trkpt lat="43.8432554" lon="6.5005755"><ele>730.0</ele><time>2026-05-02T15:48:07.966Z</time></trkpt><trkpt lat="43.843336" lon="6.5007506"><ele>727.0</ele><time>2026-05-02T15:48:08.967Z</time></trkpt><trkpt lat="43.8434228" lon="6.5009266"><ele>724.0</ele><time>2026-05-02T15:48:09.967Z</time></trkpt><trkpt lat="43.843509" lon="6.5011004"><ele>725.0</ele><time>2026-05-02T15:48:10.967Z</time></trkpt><trkpt lat="43.8436058" lon="6.5012836"><ele>726.0</ele><time>2026-05-02T15:48:11.967Z</time></trkpt><trkpt lat="43.8437001" lon="6.5014601"><ele>727.0</ele><time>2026-05-02T15:48:12.967Z</time></trkpt><trkpt lat="43.8438078" lon="6.5016368"><ele>727.0</ele><time>2026-05-02T15:48:13.967Z</time></trkpt><trkpt lat="43.8439137" lon="6.5018189"><ele>727.0</ele><time>2026-05-02T15:48:14.967Z</time></trkpt><trkpt lat="43.8439974" lon="6.5019723"><ele>727.0</ele><time>2026-05-02T15:48:15.967Z</time></trkpt><trkpt lat="43.8440781" lon="6.5021579"><ele>727.0</ele><time>2026-05-02T15:48:16.966Z</time></trkpt><trkpt lat="43.8441757" lon="6.5023309"><ele>727.0</ele><time>2026-05-02T15:48:17.967Z</time></trkpt><trkpt lat="43.8442445" lon="6.5024944"><ele>727.0</ele><time>2026-05-02T15:48:18.967Z</time></trkpt><trkpt lat="43.8443215" lon="6.5026555"><ele>727.0</ele><time>2026-05-02T15:48:19.967Z</time></trkpt><trkpt lat="43.8444003" lon="6.5028101"><ele>726.25</ele><time>2026-05-02T15:48:20.967Z</time></trkpt><trkpt lat="43.844466" lon="6.5029481"><ele>725.5</ele><time>2026-05-02T15:48:21.967Z</time></trkpt><trkpt lat="43.8445392" lon="6.5030835"><ele>724.75</ele><time>2026-05-02T15:48:22.967Z</time></trkpt><trkpt lat="43.8446122" lon="6.5032271"><ele>724.0</ele><time>2026-05-02T15:48:23.967Z</time></trkpt><trkpt lat="43.8446848" lon="6.5033715"><ele>724.0</ele><time>2026-05-02T15:48:24.967Z</time></trkpt><trkpt lat="43.8447405" lon="6.5035283"><ele>724.0</ele><time>2026-05-02T15:48:25.967Z</time></trkpt><trkpt lat="43.8447925" lon="6.5036937"><ele>724.0</ele><time>2026-05-02T15:48:26.967Z</time></trkpt><trkpt lat="43.8448512" lon="6.503853"><ele>724.0</ele><time>2026-05-02T15:48:27.967Z</time></trkpt><trkpt lat="43.8449184" lon="6.5040178"><ele>724.25</ele><time>2026-05-02T15:48:28.966Z</time></trkpt><trkpt lat="43.8449737" lon="6.5041839"><ele>724.5</ele><time>2026-05-02T15:48:29.966Z</time></trkpt><trkpt lat="43.8450335" lon="6.5043772"><ele>724.75</ele><time>2026-05-02T15:48:30.967Z</time></trkpt><trkpt lat="43.8451037" lon="6.5045099"><ele>725.0</ele><time>2026-05-02T15:48:31.967Z</time></trkpt><trkpt lat="43.8451591" lon="6.504655"><ele>724.25</ele><time>2026-05-02T15:48:32.967Z</time></trkpt><trkpt lat="43.8452098" lon="6.5048048"><ele>723.5</ele><time>2026-05-02T15:48:33.967Z</time></trkpt><trkpt lat="43.8452685" lon="6.5049572"><ele>722.75</ele><time>2026-05-02T15:48:34.966Z</time></trkpt><trkpt lat="43.8453282" lon="6.5051127"><ele>722.0</ele><time>2026-05-02T15:48:35.967Z</time></trkpt><trkpt lat="43.8453885" lon="6.5052781"><ele>722.0</ele><time>2026-05-02T15:48:36.966Z</time></trkpt><trkpt lat="43.8454496" lon="6.5054402"><ele>722.0</ele><time>2026-05-02T15:48:37.967Z</time></trkpt><trkpt lat="43.8455057" lon="6.5056037"><ele>722.0</ele><time>2026-05-02T15:48:38.967Z</time></trkpt><trkpt lat="43.8455609" lon="6.5057556"><ele>722.0</ele><time>2026-05-02T15:48:39.967Z</time></trkpt><trkpt lat="43.8456154" lon="6.5059573"><ele>722.0</ele><time>2026-05-02T15:48:40.967Z</time></trkpt><trkpt lat="43.845661" lon="6.5061279"><ele>722.0</ele><time>2026-05-02T15:48:41.967Z</time></trkpt><trkpt lat="43.8457083" lon="6.5063134"><ele>722.0</ele><time>2026-05-02T15:48:42.967Z</time></trkpt><trkpt lat="43.8457484" lon="6.5064917"><ele>722.0</ele><time>2026-05-02T15:48:43.967Z</time></trkpt><trkpt lat="43.8457905" lon="6.506667"><ele>722.0</ele><time>2026-05-02T15:48:44.967Z</time></trkpt><trkpt lat="43.8458451" lon="6.50685"><ele>722.0</ele><time>2026-05-02T15:48:45.967Z</time></trkpt><trkpt lat="43.8458789" lon="6.5070214"><ele>722.0</ele><time>2026-05-02T15:48:46.967Z</time></trkpt><trkpt lat="43.8459184" lon="6.507192"><ele>722.0</ele><time>2026-05-02T15:48:47.967Z</time></trkpt><trkpt lat="43.8459545" lon="6.5073541"><ele>722.0</ele><time>2026-05-02T15:48:48.966Z</time></trkpt><trkpt lat="43.8460051" lon="6.5075109"><ele>722.0</ele><time>2026-05-02T15:48:49.967Z</time></trkpt><trkpt lat="43.8460462" lon="6.5076935"><ele>722.0</ele><time>2026-05-02T15:48:50.967Z</time></trkpt><trkpt lat="43.8460792" lon="6.5078625"><ele>722.0</ele><time>2026-05-02T15:48:51.967Z</time></trkpt><trkpt lat="43.8461137" lon="6.5080322"><ele>722.0</ele><time>2026-05-02T15:48:52.967Z</time></trkpt><trkpt lat="43.8461533" lon="6.508182"><ele>722.0</ele><time>2026-05-02T15:48:53.967Z</time></trkpt><trkpt lat="43.846204" lon="6.5083662"><ele>722.0</ele><time>2026-05-02T15:48:54.966Z</time></trkpt><trkpt lat="43.8462299" lon="6.5085361"><ele>722.0</ele><time>2026-05-02T15:48:55.967Z</time></trkpt><trkpt lat="43.8462639" lon="6.5086979"><ele>722.5</ele><time>2026-05-02T15:48:56.967Z</time></trkpt><trkpt lat="43.846242" lon="6.5088317"><ele>723.0</ele><time>2026-05-02T15:48:57.967Z</time></trkpt><trkpt lat="43.8462494" lon="6.5089892"><ele>723.5</ele><time>2026-05-02T15:48:58.967Z</time></trkpt><trkpt lat="43.8462568" lon="6.5091845"><ele>724.0</ele><time>2026-05-02T15:48:59.967Z</time></trkpt><trkpt lat="43.8462356" lon="6.5093554"><ele>724.0</ele><time>2026-05-02T15:49:00.967Z</time></trkpt><trkpt lat="43.8462278" lon="6.5095465"><ele>724.0</ele><time>2026-05-02T15:49:01.967Z</time></trkpt><trkpt lat="43.8462067" lon="6.5097156"><ele>724.0</ele><time>2026-05-02T15:49:02.967Z</time></trkpt><trkpt lat="43.8461999" lon="6.5098862"><ele>724.0</ele><time>2026-05-02T15:49:03.967Z</time></trkpt><trkpt lat="43.8461996" lon="6.5100671"><ele>723.75</ele><time>2026-05-02T15:49:04.967Z</time></trkpt><trkpt lat="43.8461969" lon="6.510233"><ele>723.5</ele><time>2026-05-02T15:49:05.967Z</time></trkpt><trkpt lat="43.8461913" lon="6.5104023"><ele>723.25</ele><time>2026-05-02T15:49:06.966Z</time></trkpt><trkpt lat="43.8461895" lon="6.5105907"><ele>723.0</ele><time>2026-05-02T15:49:07.967Z</time></trkpt><trkpt lat="43.846191" lon="6.5107363"><ele>723.0</ele><time>2026-05-02T15:49:08.967Z</time></trkpt><trkpt lat="43.8461823" lon="6.5108873"><ele>723.0</ele><time>2026-05-02T15:49:09.967Z</time></trkpt><trkpt lat="43.8461723" lon="6.5110287"><ele>723.0</ele><time>2026-05-02T15:49:10.967Z</time></trkpt><trkpt lat="43.8461673" lon="6.5111495"><ele>723.0</ele><time>2026-05-02T15:49:11.967Z</time></trkpt><trkpt lat="43.8461584" lon="6.511272"><ele>723.0</ele><time>2026-05-02T15:49:12.967Z</time></trkpt><trkpt lat="43.846152" lon="6.5113738"><ele>723.4</ele><time>2026-05-02T15:49:13.967Z</time></trkpt><trkpt lat="43.8461574" lon="6.5114791"><ele>723.8</ele><time>2026-05-02T15:49:14.967Z</time></trkpt><trkpt lat="43.846136" lon="6.5115624"><ele>724.2</ele><time>2026-05-02T15:49:15.967Z</time></trkpt><trkpt lat="43.8461418" lon="6.5116649"><ele>724.6</ele><time>2026-05-02T15:49:16.967Z</time></trkpt><trkpt lat="43.8461318" lon="6.5118432"><ele>725.0</ele><time>2026-05-02T15:49:18.967Z</time></trkpt><trkpt lat="43.8461151" lon="6.5119953"><ele>725.2857142857143</ele><time>2026-05-02T15:49:20.967Z</time></trkpt><trkpt lat="43.846108" lon="6.5120995"><ele>725.5714285714287</ele><time>2026-05-02T15:49:22.967Z</time></trkpt><trkpt lat="43.8461" lon="6.5122087"><ele>725.8571428571429</ele><time>2026-05-02T15:49:25.967Z</time></trkpt><trkpt lat="43.8460889" lon="6.5123118"><ele>726.1428571428571</ele><time>2026-05-02T15:49:27.966Z</time></trkpt><trkpt lat="43.8460631" lon="6.5124073"><ele>726.4285714285714</ele><time>2026-05-02T15:49:29.967Z</time></trkpt><trkpt lat="43.8460479" lon="6.5125072"><ele>726.7142857142857</ele><time>2026-05-02T15:49:31.966Z</time></trkpt><trkpt lat="43.8460679" lon="6.5125966"><ele>727.0</ele><time>2026-05-02T15:49:33.967Z</time></trkpt><trkpt lat="43.8461455" lon="6.5126282"><ele>727.0</ele><time>2026-05-02T15:49:35.967Z</time></trkpt><trkpt lat="43.8462276" lon="6.5126451"><ele>727.0</ele><time>2026-05-02T15:49:37.967Z</time></trkpt><trkpt lat="43.8462932" lon="6.5126566"><ele>727.0</ele><time>2026-05-02T15:49:39.967Z</time></trkpt><trkpt lat="43.8463676" lon="6.5126853"><ele>727.0</ele><time>2026-05-02T15:49:42.967Z</time></trkpt></trkseg><trkseg><trkpt lat="43.8464915" lon="6.5125775"><ele>727.0</ele><time>2026-05-02T18:02:25.989Z</time></trkpt><trkpt lat="43.8465943" lon="6.5125632"><ele>727.0</ele><time>2026-05-02T18:02:26.989Z</time></trkpt><trkpt lat="43.8466628" lon="6.5125382"><ele>727.0</ele><time>2026-05-02T18:02:27.989Z</time></trkpt><trkpt lat="43.8467221" lon="6.5124936"><ele>727.0</ele><time>2026-05-02T18:02:28.988Z</time></trkpt><trkpt lat="43.8467925" lon="6.512421"><ele>727.0</ele><time>2026-05-02T18:02:29.988Z</time></trkpt><trkpt lat="43.8468609" lon="6.512352"><ele>727.0</ele><time>2026-05-02T18:02:30.988Z</time></trkpt><trkpt lat="43.8469255" lon="6.5122834"><ele>727.4000000000001</ele><time>2026-05-02T18:02:31.989Z</time></trkpt><trkpt lat="43.8469901" lon="6.5122164"><ele>727.8000000000001</ele><time>2026-05-02T18:02:32.989Z</time></trkpt><trkpt lat="43.8470557" lon="6.5121485"><ele>728.2</ele><time>2026-05-02T18:02:33.989Z</time></trkpt><trkpt lat="43.8471133" lon="6.5120908"><ele>728.6</ele><time>2026-05-02T18:02:34.989Z</time></trkpt><trkpt lat="43.8471863" lon="6.5120566"><ele>729.0</ele><time>2026-05-02T18:02:35.989Z</time></trkpt><trkpt lat="43.8473353" lon="6.5120616"><ele>729.0</ele><time>2026-05-02T18:02:37.989Z</time></trkpt><trkpt lat="43.8474207" lon="6.5120613"><ele>729.0</ele><time>2026-05-02T18:02:38.988Z</time></trkpt><trkpt lat="43.8474961" lon="6.5120638"><ele>729.0</ele><time>2026-05-02T18:02:39.989Z</time></trkpt><trkpt lat="43.8475666" lon="6.5120641"><ele>729.0</ele><time>2026-05-02T18:02:40.988Z</time></trkpt><trkpt lat="43.8476359" lon="6.5120775"><ele>729.0</ele><time>2026-05-02T18:02:41.989Z</time></trkpt><trkpt lat="43.8477069" lon="6.5120516"><ele>729.0</ele><time>2026-05-02T18:02:42.989Z</time></trkpt><trkpt lat="43.8477511" lon="6.5119643"><ele>731.4000000000001</ele><time>2026-05-02T18:02:43.989Z</time></trkpt><trkpt lat="43.847794" lon="6.5118733"><ele>733.8</ele><time>2026-05-02T18:02:44.988Z</time></trkpt><trkpt lat="43.8478246" lon="6.5117693"><ele>736.2</ele><time>2026-05-02T18:02:45.989Z</time></trkpt><trkpt lat="43.8478604" lon="6.5116302"><ele>738.5999999999999</ele><time>2026-05-02T18:02:46.989Z</time></trkpt><trkpt lat="43.847886" lon="6.5114857"><ele>741.0</ele><time>2026-05-02T18:02:47.989Z</time></trkpt><trkpt lat="43.8479205" lon="6.511344"><ele>739.5999999999999</ele><time>2026-05-02T18:02:48.988Z</time></trkpt><trkpt lat="43.847953" lon="6.5112283"><ele>738.2</ele><time>2026-05-02T18:02:49.989Z</time></trkpt><trkpt lat="43.8479912" lon="6.5110878"><ele>736.8</ele><time>2026-05-02T18:02:50.989Z</time></trkpt><trkpt lat="43.8480273" lon="6.510964"><ele>735.4000000000001</ele><time>2026-05-02T18:02:51.989Z</time></trkpt><trkpt lat="43.8480797" lon="6.5108513"><ele>734.0</ele><time>2026-05-02T18:02:52.989Z</time></trkpt><trkpt lat="43.848158" lon="6.5107564"><ele>734.0</ele><time>2026-05-02T18:02:53.989Z</time></trkpt><trkpt lat="43.84823" lon="6.5106301"><ele>734.0</ele><time>2026-05-02T18:02:54.989Z</time></trkpt><trkpt lat="43.8482871" lon="6.5104976"><ele>734.0</ele><time>2026-05-02T18:02:55.989Z</time></trkpt><trkpt lat="43.8483428" lon="6.5103677"><ele>734.0</ele><time>2026-05-02T18:02:56.988Z</time></trkpt><trkpt lat="43.8484031" lon="6.5102418"><ele>734.0</ele><time>2026-05-02T18:02:57.989Z</time></trkpt><trkpt lat="43.8484575" lon="6.5101068"><ele>734.8000000000001</ele><time>2026-05-02T18:02:58.989Z</time></trkpt><trkpt lat="43.8485152" lon="6.509973"><ele>735.6</ele><time>2026-05-02T18:02:59.989Z</time></trkpt><trkpt lat="43.8485807" lon="6.5098579"><ele>736.4</ele><time>2026-05-02T18:03:00.988Z</time></trkpt><trkpt lat="43.8486498" lon="6.5097421"><ele>737.2</ele><time>2026-05-02T18:03:01.989Z</time></trkpt><trkpt lat="43.84872" lon="6.5096038"><ele>738.0</ele><time>2026-05-02T18:03:02.989Z</time></trkpt><trkpt lat="43.848797" lon="6.5094772"><ele>738.0</ele><time>2026-05-02T18:03:03.989Z</time></trkpt><trkpt lat="43.8488706" lon="6.5093449"><ele>738.0</ele><time>2026-05-02T18:03:04.989Z</time></trkpt><trkpt lat="43.8489528" lon="6.5092394"><ele>738.0</ele><time>2026-05-02T18:03:05.988Z</time></trkpt><trkpt lat="43.8490498" lon="6.5091506"><ele>738.0</ele><time>2026-05-02T18:03:06.989Z</time></trkpt><trkpt lat="43.8491539" lon="6.5090827"><ele>738.0</ele><time>2026-05-02T18:03:07.989Z</time></trkpt><trkpt lat="43.8492686" lon="6.5090255"><ele>738.0</ele><time>2026-05-02T18:03:08.989Z</time></trkpt><trkpt lat="43.8493913" lon="6.5089714"><ele>738.0</ele><time>2026-05-02T18:03:09.989Z</time></trkpt><trkpt lat="43.8495042" lon="6.5089164"><ele>738.0</ele><time>2026-05-02T18:03:10.989Z</time></trkpt><trkpt lat="43.8496338" lon="6.5088508"><ele>738.5</ele><time>2026-05-02T18:03:11.988Z</time></trkpt><trkpt lat="43.8497621" lon="6.5087806"><ele>739.0</ele><time>2026-05-02T18:03:12.989Z</time></trkpt><trkpt lat="43.8498852" lon="6.5087132"><ele>739.5</ele><time>2026-05-02T18:03:13.989Z</time></trkpt><trkpt lat="43.8500113" lon="6.5086498"><ele>740.0</ele><time>2026-05-02T18:03:14.989Z</time></trkpt><trkpt lat="43.8501358" lon="6.5085856"><ele>741.5</ele><time>2026-05-02T18:03:15.989Z</time></trkpt><trkpt lat="43.8502653" lon="6.5085149"><ele>743.0</ele><time>2026-05-02T18:03:16.989Z</time></trkpt><trkpt lat="43.8503906" lon="6.5084533"><ele>744.5</ele><time>2026-05-02T18:03:17.989Z</time></trkpt><trkpt lat="43.8505131" lon="6.5083912"><ele>746.0</ele><time>2026-05-02T18:03:18.989Z</time></trkpt><trkpt lat="43.8506373" lon="6.5083237"><ele>746.0</ele><time>2026-05-02T18:03:19.989Z</time></trkpt><trkpt lat="43.8507502" lon="6.5082687"><ele>746.0</ele><time>2026-05-02T18:03:20.989Z</time></trkpt><trkpt lat="43.8508566" lon="6.5082213"><ele>746.0</ele><time>2026-05-02T18:03:21.989Z</time></trkpt><trkpt lat="43.8509521" lon="6.5081778"><ele>746.0</ele><time>2026-05-02T18:03:22.988Z</time></trkpt><trkpt lat="43.8510369" lon="6.5081389"><ele>746.0</ele><time>2026-05-02T18:03:23.989Z</time></trkpt><trkpt lat="43.8511151" lon="6.5080983"><ele>746.1666666666666</ele><time>2026-05-02T18:03:24.989Z</time></trkpt><trkpt lat="43.8511956" lon="6.5080675"><ele>746.3333333333333</ele><time>2026-05-02T18:03:25.989Z</time></trkpt><trkpt lat="43.8512771" lon="6.5080627"><ele>746.5</ele><time>2026-05-02T18:03:26.989Z</time></trkpt><trkpt lat="43.8513554" lon="6.5080714"><ele>746.6666666666666</ele><time>2026-05-02T18:03:27.989Z</time></trkpt><trkpt lat="43.8514322" lon="6.5080915"><ele>746.8333333333334</ele><time>2026-05-02T18:03:28.989Z</time></trkpt><trkpt lat="43.8515016" lon="6.5081097"><ele>747.0</ele><time>2026-05-02T18:03:29.989Z</time></trkpt><trkpt lat="43.8515678" lon="6.5081055"><ele>747.0</ele><time>2026-05-02T18:03:30.989Z</time></trkpt><trkpt lat="43.8516386" lon="6.5081011"><ele>747.0</ele><time>2026-05-02T18:03:31.989Z</time></trkpt><trkpt lat="43.8517156" lon="6.5079403"><ele>747.0</ele><time>2026-05-02T18:03:33.989Z</time></trkpt><trkpt lat="43.8517528" lon="6.5078114"><ele>747.0</ele><time>2026-05-02T18:03:34.989Z</time></trkpt><trkpt lat="43.8518115" lon="6.5076883"><ele>747.0</ele><time>2026-05-02T18:03:35.989Z</time></trkpt><trkpt lat="43.8518841" lon="6.5075727"><ele>746.5</ele><time>2026-05-02T18:03:36.989Z</time></trkpt><trkpt lat="43.8519591" lon="6.5074486"><ele>746.0</ele><time>2026-05-02T18:03:37.989Z</time></trkpt><trkpt lat="43.8520372" lon="6.5073096"><ele>745.5</ele><time>2026-05-02T18:03:38.989Z</time></trkpt><trkpt lat="43.8521121" lon="6.5071606"><ele>745.0</ele><time>2026-05-02T18:03:39.989Z</time></trkpt><trkpt lat="43.8521867" lon="6.507012"><ele>745.0</ele><time>2026-05-02T18:03:40.988Z</time></trkpt><trkpt lat="43.8522596" lon="6.5068455"><ele>745.0</ele><time>2026-05-02T18:03:41.989Z</time></trkpt><trkpt lat="43.8523296" lon="6.5066774"><ele>745.0</ele><time>2026-05-02T18:03:42.989Z</time></trkpt><trkpt lat="43.852411" lon="6.5064884"><ele>745.0</ele><time>2026-05-02T18:03:43.989Z</time></trkpt><trkpt lat="43.8524934" lon="6.5062923"><ele>746.3333333333334</ele><time>2026-05-02T18:03:44.989Z</time></trkpt><trkpt lat="43.8525717" lon="6.5061009"><ele>747.6666666666666</ele><time>2026-05-02T18:03:45.989Z</time></trkpt><trkpt lat="43.8526539" lon="6.505913"><ele>749.0</ele><time>2026-05-02T18:03:46.989Z</time></trkpt><trkpt lat="43.852734" lon="6.5057282"><ele>746.3333333333333</ele><time>2026-05-02T18:03:47.989Z</time></trkpt><trkpt lat="43.8528212" lon="6.505514"><ele>743.6666666666666</ele><time>2026-05-02T18:03:48.989Z</time></trkpt><trkpt lat="43.8529129" lon="6.505306"><ele>741.0</ele><time>2026-05-02T18:03:49.989Z</time></trkpt><trkpt lat="43.853009" lon="6.5051022"><ele>741.0</ele><time>2026-05-02T18:03:50.989Z</time></trkpt><trkpt lat="43.8530941" lon="6.5048983"><ele>741.0</ele><time>2026-05-02T18:03:51.989Z</time></trkpt><trkpt lat="43.8531814" lon="6.5046858"><ele>741.0</ele><time>2026-05-02T18:03:52.989Z</time></trkpt><trkpt lat="43.8532619" lon="6.5044795"><ele>741.0</ele><time>2026-05-02T18:03:53.989Z</time></trkpt><trkpt lat="43.8533413" lon="6.504272"><ele>741.0</ele><time>2026-05-02T18:03:54.989Z</time></trkpt><trkpt lat="43.8534207" lon="6.5040654"><ele>741.0</ele><time>2026-05-02T18:03:55.988Z</time></trkpt><trkpt lat="43.853501" lon="6.5038548"><ele>741.3333333333334</ele><time>2026-05-02T18:03:56.989Z</time></trkpt><trkpt lat="43.8535804" lon="6.5036414"><ele>741.6666666666667</ele><time>2026-05-02T18:03:57.989Z</time></trkpt><trkpt lat="43.853685" lon="6.503485"><ele>742.0</ele><time>2026-05-02T18:03:58.989Z</time></trkpt><trkpt lat="43.8537692" lon="6.5032916"><ele>742.0</ele><time>2026-05-02T18:03:59.989Z</time></trkpt><trkpt lat="43.8538521" lon="6.5030765"><ele>742.0</ele><time>2026-05-02T18:04:00.989Z</time></trkpt><trkpt lat="43.8539491" lon="6.5028944"><ele>742.0</ele><time>2026-05-02T18:04:01.989Z</time></trkpt><trkpt lat="43.854035" lon="6.5026892"><ele>743.0</ele><time>2026-05-02T18:04:02.989Z</time></trkpt><trkpt lat="43.8541278" lon="6.5024983"><ele>744.0</ele><time>2026-05-02T18:04:03.989Z</time></trkpt><trkpt lat="43.8542319" lon="6.5023027"><ele>745.0</ele><time>2026-05-02T18:04:04.989Z</time></trkpt><trkpt lat="43.8543428" lon="6.5021161"><ele>746.0</ele><time>2026-05-02T18:04:05.989Z</time></trkpt><trkpt lat="43.8544605" lon="6.5019631"><ele>747.0</ele><time>2026-05-02T18:04:06.989Z</time></trkpt><trkpt lat="43.8545782" lon="6.5018074"><ele>748.0</ele><time>2026-05-02T18:04:07.989Z</time></trkpt><trkpt lat="43.8546978" lon="6.5016442"><ele>748.0</ele><time>2026-05-02T18:04:08.989Z</time></trkpt><trkpt lat="43.8548221" lon="6.5014914"><ele>748.0</ele><time>2026-05-02T18:04:09.989Z</time></trkpt><trkpt lat="43.8549479" lon="6.5013328"><ele>748.0</ele><time>2026-05-02T18:04:10.988Z</time></trkpt><trkpt lat="43.8550673" lon="6.5011783"><ele>749.0</ele><time>2026-05-02T18:04:11.989Z</time></trkpt><trkpt lat="43.8551805" lon="6.5010113"><ele>750.0</ele><time>2026-05-02T18:04:12.988Z</time></trkpt><trkpt lat="43.8552885" lon="6.500878"><ele>751.0</ele><time>2026-05-02T18:04:13.989Z</time></trkpt><trkpt lat="43.8554006" lon="6.5007347"><ele>751.0</ele><time>2026-05-02T18:04:14.989Z</time></trkpt><trkpt lat="43.8555017" lon="6.5005843"><ele>751.0</ele><time>2026-05-02T18:04:15.989Z</time></trkpt><trkpt lat="43.8555956" lon="6.5004275"><ele>751.0</ele><time>2026-05-02T18:04:16.989Z</time></trkpt><trkpt lat="43.8556741" lon="6.5002631"><ele>751.0</ele><time>2026-05-02T18:04:17.989Z</time></trkpt><trkpt lat="43.8557116" lon="6.5000712"><ele>752.0</ele><time>2026-05-02T18:04:18.989Z</time></trkpt><trkpt lat="43.8557352" lon="6.4998716"><ele>753.0</ele><time>2026-05-02T18:04:19.988Z</time></trkpt><trkpt lat="43.8557681" lon="6.4996727"><ele>754.0</ele><time>2026-05-02T18:04:20.989Z</time></trkpt><trkpt lat="43.8557708" lon="6.499426"><ele>754.6666666666667</ele><time>2026-05-02T18:04:21.989Z</time></trkpt><trkpt lat="43.855784" lon="6.4992085"><ele>755.3333333333334</ele><time>2026-05-02T18:04:22.988Z</time></trkpt><trkpt lat="43.855799" lon="6.499"><ele>756.0</ele><time>2026-05-02T18:04:23.989Z</time></trkpt><trkpt lat="43.8557931" lon="6.49873"><ele>756.3333333333334</ele><time>2026-05-02T18:04:24.989Z</time></trkpt><trkpt lat="43.8558003" lon="6.4984714"><ele>756.6666666666667</ele><time>2026-05-02T18:04:25.989Z</time></trkpt><trkpt lat="43.8558154" lon="6.4982146"><ele>757.0</ele><time>2026-05-02T18:04:26.989Z</time></trkpt><trkpt lat="43.8558175" lon="6.4979599"><ele>757.6666666666667</ele><time>2026-05-02T18:04:27.988Z</time></trkpt><trkpt lat="43.8558313" lon="6.4977263"><ele>758.3333333333334</ele><time>2026-05-02T18:04:28.988Z</time></trkpt><trkpt lat="43.8558416" lon="6.4974561"><ele>759.0</ele><time>2026-05-02T18:04:29.989Z</time></trkpt><trkpt lat="43.8558507" lon="6.4972039"><ele>759.3333333333334</ele><time>2026-05-02T18:04:30.989Z</time></trkpt><trkpt lat="43.8558666" lon="6.4969478"><ele>759.6666666666667</ele><time>2026-05-02T18:04:31.989Z</time></trkpt><trkpt lat="43.8558794" lon="6.4967222"><ele>760.0</ele><time>2026-05-02T18:04:32.988Z</time></trkpt><trkpt lat="43.8558864" lon="6.4965194"><ele>760.0</ele><time>2026-05-02T18:04:33.989Z</time></trkpt><trkpt lat="43.8558814" lon="6.4963007"><ele>760.0</ele><time>2026-05-02T18:04:34.989Z</time></trkpt><trkpt lat="43.8558777" lon="6.4961343"><ele>760.0</ele><time>2026-05-02T18:04:35.988Z</time></trkpt><trkpt lat="43.855899" lon="6.4959873"><ele>760.0</ele><time>2026-05-02T18:04:36.989Z</time></trkpt><trkpt lat="43.8559424" lon="6.4958408"><ele>762.0</ele><time>2026-05-02T18:04:37.988Z</time></trkpt><trkpt lat="43.8560001" lon="6.4957036"><ele>764.0</ele><time>2026-05-02T18:04:38.988Z</time></trkpt><trkpt lat="43.8561121" lon="6.4956265"><ele>766.0</ele><time>2026-05-02T18:04:39.989Z</time></trkpt><trkpt lat="43.8562361" lon="6.4955653"><ele>768.0</ele><time>2026-05-02T18:04:40.988Z</time></trkpt><trkpt lat="43.8563664" lon="6.4955642"><ele>768.0</ele><time>2026-05-02T18:04:41.989Z</time></trkpt><trkpt lat="43.8565165" lon="6.4955945"><ele>768.0</ele><time>2026-05-02T18:04:42.989Z</time></trkpt><trkpt lat="43.8566667" lon="6.4956155"><ele>768.0</ele><time>2026-05-02T18:04:43.989Z</time></trkpt><trkpt lat="43.8568137" lon="6.4956289"><ele>767.5</ele><time>2026-05-02T18:04:44.989Z</time></trkpt><trkpt lat="43.8569473" lon="6.4956434"><ele>767.0</ele><time>2026-05-02T18:04:45.989Z</time></trkpt><trkpt lat="43.8570703" lon="6.4956251"><ele>766.5</ele><time>2026-05-02T18:04:46.989Z</time></trkpt><trkpt lat="43.8571892" lon="6.495568"><ele>766.0</ele><time>2026-05-02T18:04:47.989Z</time></trkpt><trkpt lat="43.8572871" lon="6.4954464"><ele>770.5</ele><time>2026-05-02T18:04:48.988Z</time></trkpt><trkpt lat="43.8573812" lon="6.4953322"><ele>775.0</ele><time>2026-05-02T18:04:49.988Z</time></trkpt><trkpt lat="43.8574978" lon="6.4952279"><ele>779.5</ele><time>2026-05-02T18:04:50.989Z</time></trkpt><trkpt lat="43.8576167" lon="6.4951691"><ele>784.0</ele><time>2026-05-02T18:04:51.989Z</time></trkpt><trkpt lat="43.8577514" lon="6.4951455"><ele>784.6666666666666</ele><time>2026-05-02T18:04:52.989Z</time></trkpt><trkpt lat="43.8578962" lon="6.4951408"><ele>785.3333333333333</ele><time>2026-05-02T18:04:53.989Z</time></trkpt><trkpt lat="43.8580515" lon="6.4951182"><ele>786.0</ele><time>2026-05-02T18:04:54.989Z</time></trkpt><trkpt lat="43.858199" lon="6.4950788"><ele>786.0</ele><time>2026-05-02T18:04:55.989Z</time></trkpt><trkpt lat="43.858355" lon="6.4950309"><ele>786.0</ele><time>2026-05-02T18:04:56.989Z</time></trkpt><trkpt lat="43.8585061" lon="6.4949857"><ele>786.0</ele><time>2026-05-02T18:04:57.989Z</time></trkpt><trkpt lat="43.8586689" lon="6.4949531"><ele>787.6666666666667</ele><time>2026-05-02T18:04:58.989Z</time></trkpt><trkpt lat="43.8588375" lon="6.4949366"><ele>789.3333333333334</ele><time>2026-05-02T18:04:59.989Z</time></trkpt><trkpt lat="43.8590002" lon="6.4949324"><ele>791.0</ele><time>2026-05-02T18:05:00.989Z</time></trkpt><trkpt lat="43.8591771" lon="6.494927"><ele>793.6666666666667</ele><time>2026-05-02T18:05:01.989Z</time></trkpt><trkpt lat="43.8593588" lon="6.4949214"><ele>796.3333333333333</ele><time>2026-05-02T18:05:02.989Z</time></trkpt><trkpt lat="43.8595334" lon="6.4949278"><ele>799.0</ele><time>2026-05-02T18:05:03.989Z</time></trkpt><trkpt lat="43.8597064" lon="6.4949521"><ele>799.0</ele><time>2026-05-02T18:05:04.989Z</time></trkpt><trkpt lat="43.8598687" lon="6.4949722"><ele>799.0</ele><time>2026-05-02T18:05:05.989Z</time></trkpt><trkpt lat="43.8600126" lon="6.4949898"><ele>799.0</ele><time>2026-05-02T18:05:06.989Z</time></trkpt><trkpt lat="43.8601321" lon="6.4950228"><ele>799.0</ele><time>2026-05-02T18:05:07.989Z</time></trkpt><trkpt lat="43.8602548" lon="6.4950704"><ele>800.0</ele><time>2026-05-02T18:05:08.989Z</time></trkpt><trkpt lat="43.8603563" lon="6.4951285"><ele>801.0</ele><time>2026-05-02T18:05:09.989Z</time></trkpt><trkpt lat="43.8604232" lon="6.4952673"><ele>802.0</ele><time>2026-05-02T18:05:10.989Z</time></trkpt><trkpt lat="43.8605127" lon="6.4953627"><ele>803.0</ele><time>2026-05-02T18:05:11.989Z</time></trkpt><trkpt lat="43.8606195" lon="6.4954038"><ele>803.0</ele><time>2026-05-02T18:05:12.988Z</time></trkpt><trkpt lat="43.8607114" lon="6.4954164"><ele>803.0</ele><time>2026-05-02T18:05:13.988Z</time></trkpt><trkpt lat="43.8608114" lon="6.4954321"><ele>803.0</ele><time>2026-05-02T18:05:14.989Z</time></trkpt><trkpt lat="43.8608986" lon="6.4954301"><ele>803.0</ele><time>2026-05-02T18:05:15.989Z</time></trkpt><trkpt lat="43.8609672" lon="6.4953871"><ele>803.0</ele><time>2026-05-02T18:05:16.989Z</time></trkpt><trkpt lat="43.86104" lon="6.4952943"><ele>803.0</ele><time>2026-05-02T18:05:17.989Z</time></trkpt><trkpt lat="43.8611005" lon="6.4951995"><ele>803.0</ele><time>2026-05-02T18:05:18.989Z</time></trkpt><trkpt lat="43.8610389" lon="6.4949938"><ele>803.0</ele><time>2026-05-02T18:05:19.989Z</time></trkpt><trkpt lat="43.8610222" lon="6.4948521"><ele>803.0</ele><time>2026-05-02T18:05:20.989Z</time></trkpt><trkpt lat="43.8610009" lon="6.4947515"><ele>803.0</ele><time>2026-05-02T18:05:21.989Z</time></trkpt><trkpt lat="43.8608491" lon="6.4946674"><ele>803.0</ele><time>2026-05-02T18:05:22.989Z</time></trkpt><trkpt lat="43.8606973" lon="6.4946298"><ele>803.0</ele><time>2026-05-02T18:05:23.989Z</time></trkpt><trkpt lat="43.8605545" lon="6.4945746"><ele>803.0</ele><time>2026-05-02T18:05:24.989Z</time></trkpt><trkpt lat="43.8604163" lon="6.494494"><ele>794.5</ele><time>2026-05-02T18:05:25.988Z</time></trkpt><trkpt lat="43.8602667" lon="6.4944816"><ele>786.0</ele><time>2026-05-02T18:05:26.989Z</time></trkpt><trkpt lat="43.858355" lon="6.4950309"><ele>787.6666666666667</ele><time>2026-05-02T18:04:56.989Z</time></trkpt><trkpt lat="43.8585061" lon="6.4949857"><ele>789.3333333333334</ele><time>2026-05-02T18:04:57.989Z</time></trkpt><trkpt lat="43.8586689" lon="6.4949531"><ele>791.0</ele><time>2026-05-02T18:04:58.989Z</time></trkpt><trkpt lat="43.8588375" lon="6.4949366"><ele>791.0</ele><time>2026-05-02T18:04:59.989Z</time></trkpt><trkpt lat="43.8590002" lon="6.4949324"><ele>791.0</ele><time>2026-05-02T18:05:00.989Z</time></trkpt><trkpt lat="43.8591771" lon="6.494927"><ele>791.0</ele><time>2026-05-02T18:05:01.989Z</time></trkpt><trkpt lat="43.8593588" lon="6.4949214"><ele>793.6666666666667</ele><time>2026-05-02T18:05:02.989Z</time></trkpt><trkpt lat="43.8595334" lon="6.4949278"><ele>796.3333333333333</ele><time>2026-05-02T18:05:03.989Z</time></trkpt><trkpt lat="43.8597064" lon="6.4949521"><ele>799.0</ele><time>2026-05-02T18:05:04.989Z</time></trkpt><trkpt lat="43.8598687" lon="6.4949722"><ele>799.0</ele><time>2026-05-02T18:05:05.989Z</time></trkpt><trkpt lat="43.8600126" lon="6.4949898"><ele>799.0</ele><time>2026-05-02T18:05:06.989Z</time></trkpt><trkpt lat="43.8601321" lon="6.4950228"><ele>799.0</ele><time>2026-05-02T18:05:07.989Z</time></trkpt><trkpt lat="43.8602548" lon="6.4950704"><ele>799.0</ele><time>2026-05-02T18:05:08.989Z</time></trkpt><trkpt lat="43.8603563" lon="6.4951285"><ele>799.8000000000001</ele><time>2026-05-02T18:05:09.989Z</time></trkpt><trkpt lat="43.8604232" lon="6.4952673"><ele>800.6</ele><time>2026-05-02T18:05:10.989Z</time></trkpt><trkpt lat="43.8605127" lon="6.4953627"><ele>801.4</ele><time>2026-05-02T18:05:11.989Z</time></trkpt><trkpt lat="43.8606195" lon="6.4954038"><ele>802.2</ele><time>2026-05-02T18:05:12.988Z</time></trkpt><trkpt lat="43.8607114" lon="6.4954164"><ele>803.0</ele><time>2026-05-02T18:05:13.988Z</time></trkpt><trkpt lat="43.8608114" lon="6.4954321"><ele>802.5999999999999</ele><time>2026-05-02T18:05:14.989Z</time></trkpt><trkpt lat="43.8608986" lon="6.4954301"><ele>802.1999999999999</ele><time>2026-05-02T18:05:15.989Z</time></trkpt><trkpt lat="43.8609672" lon="6.4953871"><ele>801.8</ele><time>2026-05-02T18:05:16.989Z</time></trkpt><trkpt lat="43.86104" lon="6.4952943"><ele>801.4</ele><time>2026-05-02T18:05:17.989Z</time></trkpt><trkpt lat="43.8611005" lon="6.4951995"><ele>801.0</ele><time>2026-05-02T18:05:18.989Z</time></trkpt><trkpt lat="43.8610389" lon="6.4949938"><ele>801.0</ele><time>2026-05-02T18:05:19.989Z</time></trkpt><trkpt lat="43.8610222" lon="6.4948521"><ele>801.0</ele><time>2026-05-02T18:05:20.989Z</time></trkpt><trkpt lat="43.8610009" lon="6.4947515"><ele>801.0</ele><time>2026-05-02T18:05:21.989Z</time></trkpt><trkpt lat="43.8608491" lon="6.4946674"><ele>801.0</ele><time>2026-05-02T18:05:22.989Z</time></trkpt><trkpt lat="43.8606973" lon="6.4946298"><ele>808.25</ele><time>2026-05-02T18:05:23.989Z</time></trkpt><trkpt lat="43.8605545" lon="6.4945746"><ele>815.5</ele><time>2026-05-02T18:05:24.989Z</time></trkpt><trkpt lat="43.8604163" lon="6.494494"><ele>822.75</ele><time>2026-05-02T18:05:25.988Z</time></trkpt><trkpt lat="43.8602667" lon="6.4944816"><ele>830.0</ele><time>2026-05-02T18:05:26.989Z</time></trkpt><trkpt lat="43.8601105" lon="6.4944732"><ele>830.25</ele><time>2026-05-02T18:05:27.989Z</time></trkpt><trkpt lat="43.8599893" lon="6.4944543"><ele>830.5</ele><time>2026-05-02T18:05:28.989Z</time></trkpt><trkpt lat="43.8598521" lon="6.4944428"><ele>830.75</ele><time>2026-05-02T18:05:29.989Z</time></trkpt><trkpt lat="43.8597053" lon="6.4943917"><ele>831.0</ele><time>2026-05-02T18:05:30.989Z</time></trkpt><trkpt lat="43.8595653" lon="6.4943318"><ele>831.0</ele><time>2026-05-02T18:05:31.989Z</time></trkpt><trkpt lat="43.8594243" lon="6.4942487"><ele>831.0</ele><time>2026-05-02T18:05:32.989Z</time></trkpt><trkpt lat="43.8592694" lon="6.4942055"><ele>831.0</ele><time>2026-05-02T18:05:33.989Z</time></trkpt><trkpt lat="43.8591278" lon="6.4941624"><ele>829.25</ele><time>2026-05-02T18:05:34.989Z</time></trkpt><trkpt lat="43.8589843" lon="6.4941385"><ele>827.5</ele><time>2026-05-02T18:05:35.989Z</time></trkpt><trkpt lat="43.8588645" lon="6.4940978"><ele>825.75</ele><time>2026-05-02T18:05:36.989Z</time></trkpt><trkpt lat="43.8587599" lon="6.4940391"><ele>824.0</ele><time>2026-05-02T18:05:37.989Z</time></trkpt><trkpt lat="43.8586648" lon="6.4939951"><ele>824.0</ele><time>2026-05-02T18:05:38.989Z</time></trkpt><trkpt lat="43.8585679" lon="6.493952"><ele>824.0</ele><time>2026-05-02T18:05:39.989Z</time></trkpt><trkpt lat="43.8585018" lon="6.4938857"><ele>824.0</ele><time>2026-05-02T18:05:40.989Z</time></trkpt><trkpt lat="43.8584945" lon="6.4937453"><ele>824.0</ele><time>2026-05-02T18:05:41.989Z</time></trkpt><trkpt lat="43.858492" lon="6.4936194"><ele>824.0</ele><time>2026-05-02T18:05:42.989Z</time></trkpt><trkpt lat="43.8585092" lon="6.4934945"><ele>827.75</ele><time>2026-05-02T18:05:43.989Z</time></trkpt><trkpt lat="43.8585707" lon="6.4933569"><ele>831.5</ele><time>2026-05-02T18:05:44.989Z</time></trkpt><trkpt lat="43.8586889" lon="6.4931963"><ele>835.25</ele><time>2026-05-02T18:05:45.989Z</time></trkpt><trkpt lat="43.8587659" lon="6.4930351"><ele>839.0</ele><time>2026-05-02T18:05:46.988Z</time></trkpt><trkpt lat="43.8588525" lon="6.4928904"><ele>839.0</ele><time>2026-05-02T18:05:47.989Z</time></trkpt><trkpt lat="43.8589342" lon="6.4927277"><ele>839.0</ele><time>2026-05-02T18:05:48.988Z</time></trkpt><trkpt lat="43.858998" lon="6.4925433"><ele>839.0</ele><time>2026-05-02T18:05:49.989Z</time></trkpt><trkpt lat="43.8590593" lon="6.4923576"><ele>839.0</ele><time>2026-05-02T18:05:50.989Z</time></trkpt><trkpt lat="43.8591404" lon="6.4921819"><ele>833.0</ele><time>2026-05-02T18:05:51.989Z</time></trkpt><trkpt lat="43.859232" lon="6.492025"><ele>827.0</ele><time>2026-05-02T18:05:52.989Z</time></trkpt><trkpt lat="43.8593455" lon="6.4918505"><ele>821.0</ele><time>2026-05-02T18:05:53.988Z</time></trkpt><trkpt lat="43.8594935" lon="6.4917332"><ele>830.75</ele><time>2026-05-02T18:05:54.989Z</time></trkpt><trkpt lat="43.8596228" lon="6.4916175"><ele>840.5</ele><time>2026-05-02T18:05:55.989Z</time></trkpt><trkpt lat="43.8597393" lon="6.4915122"><ele>850.25</ele><time>2026-05-02T18:05:56.989Z</time></trkpt><trkpt lat="43.8598536" lon="6.4914068"><ele>860.0</ele><time>2026-05-02T18:05:57.989Z</time></trkpt><trkpt lat="43.8599386" lon="6.4913305"><ele>857.8</ele><time>2026-05-02T18:05:58.988Z</time></trkpt><trkpt lat="43.8600184" lon="6.4912432"><ele>855.6</ele><time>2026-05-02T18:05:59.989Z</time></trkpt><trkpt lat="43.8600939" lon="6.4911472"><ele>853.4000000000001</ele><time>2026-05-02T18:06:00.989Z</time></trkpt><trkpt lat="43.8601369" lon="6.4910571"><ele>851.2</ele><time>2026-05-02T18:06:01.989Z</time></trkpt><trkpt lat="43.860149" lon="6.4908814"><ele>849.0</ele><time>2026-05-02T18:06:02.988Z</time></trkpt><trkpt lat="43.8601335" lon="6.4907119"><ele>849.0</ele><time>2026-05-02T18:06:03.989Z</time></trkpt><trkpt lat="43.8600972" lon="6.4905519"><ele>849.0</ele><time>2026-05-02T18:06:04.989Z</time></trkpt><trkpt lat="43.8600997" lon="6.4904056"><ele>849.0</ele><time>2026-05-02T18:06:05.989Z</time></trkpt><trkpt lat="43.860125" lon="6.490241"><ele>849.0</ele><time>2026-05-02T18:06:06.989Z</time></trkpt><trkpt lat="43.8601189" lon="6.4900937"><ele>850.6</ele><time>2026-05-02T18:06:07.989Z</time></trkpt><trkpt lat="43.8601362" lon="6.4899487"><ele>852.2</ele><time>2026-05-02T18:06:08.988Z</time></trkpt><trkpt lat="43.8601061" lon="6.4898128"><ele>853.8000000000001</ele><time>2026-05-02T18:06:09.989Z</time></trkpt><trkpt lat="43.8600441" lon="6.4897028"><ele>855.4000000000001</ele><time>2026-05-02T18:06:10.989Z</time></trkpt><trkpt lat="43.859963" lon="6.4896241"><ele>857.0</ele><time>2026-05-02T18:06:11.989Z</time></trkpt><trkpt lat="43.8599076" lon="6.4895228"><ele>857.4000000000001</ele><time>2026-05-02T18:06:12.989Z</time></trkpt><trkpt lat="43.8599176" lon="6.4894242"><ele>857.8000000000001</ele><time>2026-05-02T18:06:13.989Z</time></trkpt><trkpt lat="43.860013" lon="6.4893328"><ele>858.2</ele><time>2026-05-02T18:06:15.989Z</time></trkpt><trkpt lat="43.8600927" lon="6.4893635"><ele>858.6</ele><time>2026-05-02T18:06:16.989Z</time></trkpt><trkpt lat="43.860156" lon="6.4894035"><ele>859.0</ele><time>2026-05-02T18:06:17.989Z</time></trkpt><trkpt lat="43.8602" lon="6.4895455"><ele>871.0</ele><time>2026-05-02T18:06:18.989Z</time></trkpt><trkpt lat="43.8602457" lon="6.4897346"><ele>883.0</ele><time>2026-05-02T18:06:19.989Z</time></trkpt><trkpt lat="43.8602646" lon="6.4899124"><ele>895.0</ele><time>2026-05-02T18:06:20.988Z</time></trkpt><trkpt lat="43.8602535" lon="6.490092"><ele>907.0</ele><time>2026-05-02T18:06:21.989Z</time></trkpt><trkpt lat="43.8602413" lon="6.4902537"><ele>907.0</ele><time>2026-05-02T18:06:22.989Z</time></trkpt><trkpt lat="43.8602402" lon="6.4903953"><ele>907.0</ele><time>2026-05-02T18:06:23.989Z</time></trkpt><trkpt lat="43.8602358" lon="6.4905157"><ele>907.0</ele><time>2026-05-02T18:06:24.989Z</time></trkpt><trkpt lat="43.8603141" lon="6.4906712"><ele>907.0</ele><time>2026-05-02T18:06:25.988Z</time></trkpt><trkpt lat="43.8603713" lon="6.4908123"><ele>907.0</ele><time>2026-05-02T18:06:26.988Z</time></trkpt><trkpt lat="43.8604202" lon="6.4909681"><ele>906.0</ele><time>2026-05-02T18:06:27.989Z</time></trkpt><trkpt lat="43.86045" lon="6.4911211"><ele>905.0</ele><time>2026-05-02T18:06:28.988Z</time></trkpt><trkpt lat="43.8604484" lon="6.4912734"><ele>904.0</ele><time>2026-05-02T18:06:29.989Z</time></trkpt><trkpt lat="43.8604009" lon="6.49144"><ele>903.0</ele><time>2026-05-02T18:06:30.989Z</time></trkpt><trkpt lat="43.8603362" lon="6.4915607"><ele>902.5</ele><time>2026-05-02T18:06:31.988Z</time></trkpt><trkpt lat="43.8602006" lon="6.4916305"><ele>902.0</ele><time>2026-05-02T18:06:32.989Z</time></trkpt><trkpt lat="43.8601066" lon="6.4917419"><ele>901.5</ele><time>2026-05-02T18:06:33.989Z</time></trkpt><trkpt lat="43.8600225" lon="6.4918756"><ele>901.0</ele><time>2026-05-02T18:06:34.989Z</time></trkpt><trkpt lat="43.8599514" lon="6.492048"><ele>894.0</ele><time>2026-05-02T18:06:35.989Z</time></trkpt><trkpt lat="43.8598783" lon="6.4921896"><ele>887.0</ele><time>2026-05-02T18:06:36.988Z</time></trkpt><trkpt lat="43.8597996" lon="6.492303"><ele>880.0</ele><time>2026-05-02T18:06:37.989Z</time></trkpt><trkpt lat="43.8597553" lon="6.4924428"><ele>873.0</ele><time>2026-05-02T18:06:38.989Z</time></trkpt><trkpt lat="43.8597129" lon="6.4925874"><ele>873.0</ele><time>2026-05-02T18:06:39.989Z</time></trkpt><trkpt lat="43.8597304" lon="6.4927431"><ele>873.0</ele><time>2026-05-02T18:06:41.988Z</time></trkpt><trkpt lat="43.8597748" lon="6.4928051"><ele>873.0</ele><time>2026-05-02T18:06:42.989Z</time></trkpt><trkpt lat="43.8598204" lon="6.4928749"><ele>873.0</ele><time>2026-05-02T18:06:43.989Z</time></trkpt><trkpt lat="43.8599236" lon="6.4928477"><ele>873.0</ele><time>2026-05-02T18:06:44.989Z</time></trkpt><trkpt lat="43.8600368" lon="6.4928018"><ele>877.5</ele><time>2026-05-02T18:06:45.988Z</time></trkpt><trkpt lat="43.860144" lon="6.492742"><ele>882.0</ele><time>2026-05-02T18:06:46.989Z</time></trkpt><trkpt lat="43.8602555" lon="6.4926934"><ele>886.5</ele><time>2026-05-02T18:06:47.989Z</time></trkpt><trkpt lat="43.860372" lon="6.4926694"><ele>891.0</ele><time>2026-05-02T18:06:48.989Z</time></trkpt><trkpt lat="43.8605123" lon="6.4926404"><ele>891.0</ele><time>2026-05-02T18:06:49.989Z</time></trkpt><trkpt lat="43.8606488" lon="6.4926598"><ele>891.0</ele><time>2026-05-02T18:06:50.989Z</time></trkpt><trkpt lat="43.8607975" lon="6.492691"><ele>891.0</ele><time>2026-05-02T18:06:51.989Z</time></trkpt><trkpt lat="43.8609541" lon="6.492705"><ele>891.0</ele><time>2026-05-02T18:06:52.989Z</time></trkpt><trkpt lat="43.8611072" lon="6.4927175"><ele>894.0</ele><time>2026-05-02T18:06:53.989Z</time></trkpt><trkpt lat="43.86126" lon="6.4927225"><ele>897.0</ele><time>2026-05-02T18:06:54.989Z</time></trkpt><trkpt lat="43.8614012" lon="6.4927352"><ele>900.0</ele><time>2026-05-02T18:06:55.989Z</time></trkpt><trkpt lat="43.8615234" lon="6.4927701"><ele>903.0</ele><time>2026-05-02T18:06:56.989Z</time></trkpt><trkpt lat="43.8616429" lon="6.4928098"><ele>903.0</ele><time>2026-05-02T18:06:57.989Z</time></trkpt><trkpt lat="43.8617697" lon="6.4928315"><ele>903.0</ele><time>2026-05-02T18:06:58.989Z</time></trkpt><trkpt lat="43.8619064" lon="6.492767"><ele>903.0</ele><time>2026-05-02T18:06:59.989Z</time></trkpt><trkpt lat="43.8620423" lon="6.4926938"><ele>903.0</ele><time>2026-05-02T18:07:00.989Z</time></trkpt><trkpt lat="43.8621829" lon="6.4926225"><ele>900.0</ele><time>2026-05-02T18:07:01.989Z</time></trkpt><trkpt lat="43.8623297" lon="6.4925445"><ele>897.0</ele><time>2026-05-02T18:07:02.989Z</time></trkpt><trkpt lat="43.8624848" lon="6.492453"><ele>894.0</ele><time>2026-05-02T18:07:03.989Z</time></trkpt><trkpt lat="43.8626348" lon="6.4923803"><ele>889.0</ele><time>2026-05-02T18:07:04.989Z</time></trkpt><trkpt lat="43.8627898" lon="6.4923287"><ele>884.0</ele><time>2026-05-02T18:07:05.989Z</time></trkpt><trkpt lat="43.8629449" lon="6.4922695"><ele>879.0</ele><time>2026-05-02T18:07:06.988Z</time></trkpt><trkpt lat="43.8631045" lon="6.4921852"><ele>884.6666666666667</ele><time>2026-05-02T18:07:07.989Z</time></trkpt><trkpt lat="43.8632613" lon="6.4920821"><ele>890.3333333333334</ele><time>2026-05-02T18:07:08.988Z</time></trkpt><trkpt lat="43.8634139" lon="6.4919639"><ele>896.0</ele><time>2026-05-02T18:07:09.989Z</time></trkpt><trkpt lat="43.8635632" lon="6.4918411"><ele>896.0</ele><time>2026-05-02T18:07:10.989Z</time></trkpt><trkpt lat="43.8637116" lon="6.4917042"><ele>896.0</ele><time>2026-05-02T18:07:11.989Z</time></trkpt><trkpt lat="43.8638543" lon="6.4915464"><ele>896.0</ele><time>2026-05-02T18:07:12.989Z</time></trkpt><trkpt lat="43.8640051" lon="6.4914376"><ele>896.0</ele><time>2026-05-02T18:07:13.988Z</time></trkpt><trkpt lat="43.8641692" lon="6.4913293"><ele>896.0</ele><time>2026-05-02T18:07:14.989Z</time></trkpt><trkpt lat="43.8643356" lon="6.491264"><ele>896.0</ele><time>2026-05-02T18:07:15.989Z</time></trkpt><trkpt lat="43.8645004" lon="6.4912013"><ele>907.3333333333334</ele><time>2026-05-02T18:07:16.989Z</time></trkpt><trkpt lat="43.8646647" lon="6.491149"><ele>918.6666666666667</ele><time>2026-05-02T18:07:17.989Z</time></trkpt><trkpt lat="43.8648334" lon="6.4910946"><ele>930.0</ele><time>2026-05-02T18:07:18.989Z</time></trkpt><trkpt lat="43.8650019" lon="6.4910626"><ele>932.3333333333333</ele><time>2026-05-02T18:07:19.989Z</time></trkpt><trkpt lat="43.865169" lon="6.4910578"><ele>934.6666666666666</ele><time>2026-05-02T18:07:20.989Z</time></trkpt><trkpt lat="43.8653409" lon="6.491069"><ele>937.0</ele><time>2026-05-02T18:07:21.989Z</time></trkpt><trkpt lat="43.8655116" lon="6.4911175"><ele>937.0</ele><time>2026-05-02T18:07:22.989Z</time></trkpt><trkpt lat="43.8656761" lon="6.4911672"><ele>937.0</ele><time>2026-05-02T18:07:23.989Z</time></trkpt><trkpt lat="43.8658425" lon="6.4911949"><ele>937.0</ele><time>2026-05-02T18:07:24.989Z</time></trkpt><trkpt lat="43.8659808" lon="6.4912585"><ele>928.0</ele><time>2026-05-02T18:07:25.989Z</time></trkpt><trkpt lat="43.8661195" lon="6.491317"><ele>919.0</ele><time>2026-05-02T18:07:26.989Z</time></trkpt><trkpt lat="43.8662531" lon="6.4913634"><ele>910.0</ele><time>2026-05-02T18:07:27.989Z</time></trkpt><trkpt lat="43.8663334" lon="6.4914318"><ele>901.0</ele><time>2026-05-02T18:07:28.988Z</time></trkpt><trkpt lat="43.8664145" lon="6.4914652"><ele>900.9999999999999</ele><time>2026-05-02T18:07:29.988Z</time></trkpt><trkpt lat="43.8665002" lon="6.4914992"><ele>901.0</ele><time>2026-05-02T18:07:30.988Z</time></trkpt><trkpt lat="43.8665649" lon="6.4914703"><ele>901.0</ele><time>2026-05-02T18:07:31.989Z</time></trkpt><trkpt lat="43.8666636" lon="6.4913986"><ele>901.0</ele><time>2026-05-02T18:07:33.989Z</time></trkpt><trkpt lat="43.866626" lon="6.4912668"><ele>900.9999999999999</ele><time>2026-05-02T18:07:34.989Z</time></trkpt><trkpt lat="43.8665977" lon="6.4911839"><ele>901.0</ele><time>2026-05-02T18:07:35.989Z</time></trkpt><trkpt lat="43.8664833" lon="6.4911244"><ele>907.75</ele><time>2026-05-02T18:07:36.988Z</time></trkpt><trkpt lat="43.8663646" lon="6.4910944"><ele>914.5</ele><time>2026-05-02T18:07:37.989Z</time></trkpt><trkpt lat="43.8662362" lon="6.4910622"><ele>921.25</ele><time>2026-05-02T18:07:38.989Z</time></trkpt><trkpt lat="43.8661172" lon="6.4910134"><ele>928.0</ele><time>2026-05-02T18:07:39.989Z</time></trkpt><trkpt lat="43.8659793" lon="6.4909202"><ele>931.0</ele><time>2026-05-02T18:07:40.988Z</time></trkpt><trkpt lat="43.8658236" lon="6.4908297"><ele>934.0</ele><time>2026-05-02T18:07:41.989Z</time></trkpt><trkpt lat="43.8656597" lon="6.4907331"><ele>937.0</ele><time>2026-05-02T18:07:42.989Z</time></trkpt><trkpt lat="43.8655049" lon="6.4906539"><ele>937.0</ele><time>2026-05-02T18:07:43.988Z</time></trkpt><trkpt lat="43.8653428" lon="6.4905767"><ele>937.0</ele><time>2026-05-02T18:07:44.989Z</time></trkpt><trkpt lat="43.8651696" lon="6.490542"><ele>937.0</ele><time>2026-05-02T18:07:45.988Z</time></trkpt><trkpt lat="43.8649924" lon="6.4904962"><ele>934.6666666666666</ele><time>2026-05-02T18:07:46.989Z</time></trkpt><trkpt lat="43.8648205" lon="6.490483"><ele>932.3333333333333</ele><time>2026-05-02T18:07:47.989Z</time></trkpt><trkpt lat="43.8646413" lon="6.4904812"><ele>930.0</ele><time>2026-05-02T18:07:48.989Z</time></trkpt><trkpt lat="43.86447" lon="6.4904797"><ele>930.0</ele><time>2026-05-02T18:07:49.989Z</time></trkpt><trkpt lat="43.8643037" lon="6.4904811"><ele>930.0</ele><time>2026-05-02T18:07:50.989Z</time></trkpt><trkpt lat="43.8641405" lon="6.4904772"><ele>930.0</ele><time>2026-05-02T18:07:51.989Z</time></trkpt><trkpt lat="43.8639827" lon="6.4904954"><ele>931.3333333333333</ele><time>2026-05-02T18:07:52.989Z</time></trkpt><trkpt lat="43.8638235" lon="6.4905293"><ele>932.6666666666666</ele><time>2026-05-02T18:07:53.989Z</time></trkpt><trkpt lat="43.8636807" lon="6.4905857"><ele>934.0</ele><time>2026-05-02T18:07:54.989Z</time></trkpt><trkpt lat="43.863545" lon="6.4906609"><ele>937.25</ele><time>2026-05-02T18:07:55.989Z</time></trkpt><trkpt lat="43.8634198" lon="6.4907329"><ele>940.5</ele><time>2026-05-02T18:07:56.988Z</time></trkpt><trkpt lat="43.863312" lon="6.4907899"><ele>943.75</ele><time>2026-05-02T18:07:57.989Z</time></trkpt><trkpt lat="43.8632054" lon="6.4908448"><ele>947.0</ele><time>2026-05-02T18:07:58.989Z</time></trkpt><trkpt lat="43.8630993" lon="6.4908817"><ele>947.0</ele><time>2026-05-02T18:07:59.989Z</time></trkpt><trkpt lat="43.8629976" lon="6.4909067"><ele>947.0</ele><time>2026-05-02T18:08:00.989Z</time></trkpt><trkpt lat="43.8628703" lon="6.4908518"><ele>947.0</ele><time>2026-05-02T18:08:01.989Z</time></trkpt><trkpt lat="43.8627502" lon="6.4908026"><ele>947.0</ele><time>2026-05-02T18:08:02.989Z</time></trkpt><trkpt lat="43.8626294" lon="6.4907582"><ele>948.25</ele><time>2026-05-02T18:08:03.989Z</time></trkpt><trkpt lat="43.8625012" lon="6.4907119"><ele>949.5</ele><time>2026-05-02T18:08:04.989Z</time></trkpt><trkpt lat="43.8623719" lon="6.4906297"><ele>950.75</ele><time>2026-05-02T18:08:05.989Z</time></trkpt><trkpt lat="43.8622559" lon="6.4905173"><ele>952.0</ele><time>2026-05-02T18:08:06.989Z</time></trkpt><trkpt lat="43.8621563" lon="6.4903735"><ele>952.25</ele><time>2026-05-02T18:08:07.988Z</time></trkpt><trkpt lat="43.8620348" lon="6.4902341"><ele>952.5</ele><time>2026-05-02T18:08:08.989Z</time></trkpt><trkpt lat="43.8619253" lon="6.4901049"><ele>952.75</ele><time>2026-05-02T18:08:09.989Z</time></trkpt><trkpt lat="43.8618337" lon="6.4899875"><ele>953.0</ele><time>2026-05-02T18:08:10.989Z</time></trkpt><trkpt lat="43.8617544" lon="6.4898739"><ele>953.0000000000001</ele><time>2026-05-02T18:08:11.989Z</time></trkpt><trkpt lat="43.8616921" lon="6.4897645"><ele>953.0</ele><time>2026-05-02T18:08:12.989Z</time></trkpt><trkpt lat="43.8616527" lon="6.4896715"><ele>953.0</ele><time>2026-05-02T18:08:13.989Z</time></trkpt><trkpt lat="43.8616218" lon="6.4895885"><ele>953.0</ele><time>2026-05-02T18:08:14.989Z</time></trkpt><trkpt lat="43.8616008" lon="6.4895036"><ele>953.0000000000001</ele><time>2026-05-02T18:08:15.989Z</time></trkpt><trkpt lat="43.8616383" lon="6.4894225"><ele>953.0</ele><time>2026-05-02T18:08:16.989Z</time></trkpt><trkpt lat="43.8617263" lon="6.4893751"><ele>954.8333333333334</ele><time>2026-05-02T18:08:18.988Z</time></trkpt><trkpt lat="43.8617736" lon="6.4894637"><ele>956.6666666666667</ele><time>2026-05-02T18:08:19.988Z</time></trkpt><trkpt lat="43.861828" lon="6.4895516"><ele>958.5</ele><time>2026-05-02T18:08:20.989Z</time></trkpt><trkpt lat="43.8618745" lon="6.489625"><ele>960.3333333333333</ele><time>2026-05-02T18:08:21.989Z</time></trkpt><trkpt lat="43.8619337" lon="6.4896903"><ele>962.1666666666666</ele><time>2026-05-02T18:08:22.989Z</time></trkpt><trkpt lat="43.8620442" lon="6.4897424"><ele>964.0</ele><time>2026-05-02T18:08:23.989Z</time></trkpt><trkpt lat="43.8621366" lon="6.4897659"><ele>965.25</ele><time>2026-05-02T18:08:24.988Z</time></trkpt><trkpt lat="43.8622944" lon="6.4897568"><ele>966.5</ele><time>2026-05-02T18:08:25.989Z</time></trkpt><trkpt lat="43.8624238" lon="6.4897557"><ele>967.75</ele><time>2026-05-02T18:08:26.989Z</time></trkpt><trkpt lat="43.8625554" lon="6.4897748"><ele>969.0</ele><time>2026-05-02T18:08:27.989Z</time></trkpt><trkpt lat="43.8626908" lon="6.489834"><ele>969.5</ele><time>2026-05-02T18:08:28.989Z</time></trkpt><trkpt lat="43.8628229" lon="6.489887"><ele>970.0</ele><time>2026-05-02T18:08:29.989Z</time></trkpt><trkpt lat="43.8629597" lon="6.4899459"><ele>970.5</ele><time>2026-05-02T18:08:30.989Z</time></trkpt><trkpt lat="43.8630808" lon="6.4899989"><ele>971.0</ele><time>2026-05-02T18:08:31.989Z</time></trkpt><trkpt lat="43.8632015" lon="6.4900421"><ele>971.0</ele><time>2026-05-02T18:08:32.988Z</time></trkpt><trkpt lat="43.8633313" lon="6.4900341"><ele>971.0</ele><time>2026-05-02T18:08:33.989Z</time></trkpt><trkpt lat="43.8634626" lon="6.4899964"><ele>971.0</ele><time>2026-05-02T18:08:34.989Z</time></trkpt><trkpt lat="43.8635975" lon="6.4899381"><ele>971.0</ele><time>2026-05-02T18:08:35.988Z</time></trkpt><trkpt lat="43.8637353" lon="6.4898814"><ele>970.5</ele><time>2026-05-02T18:08:36.989Z</time></trkpt><trkpt lat="43.8638796" lon="6.4898289"><ele>970.0</ele><time>2026-05-02T18:08:37.989Z</time></trkpt><trkpt lat="43.8640285" lon="6.4897946"><ele>969.5</ele><time>2026-05-02T18:08:38.989Z</time></trkpt><trkpt lat="43.8641719" lon="6.4897525"><ele>969.0</ele><time>2026-05-02T18:08:39.989Z</time></trkpt><trkpt lat="43.864319" lon="6.489705"><ele>969.0</ele><time>2026-05-02T18:08:40.989Z</time></trkpt><trkpt lat="43.8644545" lon="6.4896604"><ele>969.0</ele><time>2026-05-02T18:08:41.989Z</time></trkpt><trkpt lat="43.8645934" lon="6.489585"><ele>969.0</ele><time>2026-05-02T18:08:42.989Z</time></trkpt><trkpt lat="43.8647319" lon="6.4894824"><ele>969.0</ele><time>2026-05-02T18:08:43.989Z</time></trkpt><trkpt lat="43.8648588" lon="6.4893634"><ele>972.75</ele><time>2026-05-02T18:08:44.989Z</time></trkpt><trkpt lat="43.8649942" lon="6.489261"><ele>976.5</ele><time>2026-05-02T18:08:45.989Z</time></trkpt><trkpt lat="43.8651282" lon="6.4892257"><ele>980.25</ele><time>2026-05-02T18:08:46.989Z</time></trkpt><trkpt lat="43.8652651" lon="6.489179"><ele>984.0</ele><time>2026-05-02T18:08:47.989Z</time></trkpt><trkpt lat="43.8654044" lon="6.4891233"><ele>984.0</ele><time>2026-05-02T18:08:48.989Z</time></trkpt><trkpt lat="43.8655187" lon="6.4890393"><ele>984.0</ele><time>2026-05-02T18:08:49.989Z</time></trkpt><trkpt lat="43.8656362" lon="6.4889467"><ele>984.0</ele><time>2026-05-02T18:08:50.989Z</time></trkpt><trkpt lat="43.8657446" lon="6.4888187"><ele>984.0</ele><time>2026-05-02T18:08:51.988Z</time></trkpt><trkpt lat="43.8658385" lon="6.4886641"><ele>982.6666666666667</ele><time>2026-05-02T18:08:52.989Z</time></trkpt><trkpt lat="43.8659235" lon="6.4884771"><ele>981.3333333333334</ele><time>2026-05-02T18:08:53.989Z</time></trkpt><trkpt lat="43.8659994" lon="6.4882871"><ele>980.0</ele><time>2026-05-02T18:08:54.989Z</time></trkpt><trkpt lat="43.8660646" lon="6.4880789"><ele>984.0</ele><time>2026-05-02T18:08:55.989Z</time></trkpt><trkpt lat="43.8661024" lon="6.4878952"><ele>988.0</ele><time>2026-05-02T18:08:56.989Z</time></trkpt><trkpt lat="43.8661321" lon="6.4876946"><ele>992.0</ele><time>2026-05-02T18:08:57.989Z</time></trkpt><trkpt lat="43.8661873" lon="6.4875913"><ele>996.0</ele><time>2026-05-02T18:08:58.989Z</time></trkpt><trkpt lat="43.8662657" lon="6.4874922"><ele>996.0</ele><time>2026-05-02T18:08:59.988Z</time></trkpt><trkpt lat="43.8663421" lon="6.4874105"><ele>996.0</ele><time>2026-05-02T18:09:00.988Z</time></trkpt><trkpt lat="43.8664727" lon="6.4873825"><ele>996.0</ele><time>2026-05-02T18:09:01.989Z</time></trkpt><trkpt lat="43.866601" lon="6.4873667"><ele>996.0</ele><time>2026-05-02T18:09:02.989Z</time></trkpt><trkpt lat="43.8667288" lon="6.4873295"><ele>998.0</ele><time>2026-05-02T18:09:03.989Z</time></trkpt><trkpt lat="43.8668559" lon="6.4872614"><ele>1000.0</ele><time>2026-05-02T18:09:04.989Z</time></trkpt><trkpt lat="43.8669826" lon="6.48716"><ele>1002.0</ele><time>2026-05-02T18:09:05.989Z</time></trkpt><trkpt lat="43.8671027" lon="6.4870466"><ele>1004.0</ele><time>2026-05-02T18:09:06.989Z</time></trkpt><trkpt lat="43.8672198" lon="6.4869376"><ele>1004.0</ele><time>2026-05-02T18:09:07.988Z</time></trkpt><trkpt lat="43.8673145" lon="6.4868281"><ele>1004.0000000000001</ele><time>2026-05-02T18:09:08.989Z</time></trkpt><trkpt lat="43.8673972" lon="6.4867347"><ele>1004.0000000000001</ele><time>2026-05-02T18:09:09.988Z</time></trkpt><trkpt lat="43.8674618" lon="6.4866351"><ele>1004.0</ele><time>2026-05-02T18:09:10.988Z</time></trkpt><trkpt lat="43.8675136" lon="6.4865398"><ele>1004.0</ele><time>2026-05-02T18:09:11.989Z</time></trkpt><trkpt lat="43.8675407" lon="6.4864173"><ele>1004.0000000000001</ele><time>2026-05-02T18:09:12.989Z</time></trkpt><trkpt lat="43.8675396" lon="6.4862996"><ele>1004.0</ele><time>2026-05-02T18:09:13.988Z</time></trkpt><trkpt lat="43.8675117" lon="6.4862043"><ele>1004.0</ele><time>2026-05-02T18:09:14.989Z</time></trkpt><trkpt lat="43.8674572" lon="6.4861127"><ele>1004.0</ele><time>2026-05-02T18:09:15.988Z</time></trkpt><trkpt lat="43.867382" lon="6.4860486"><ele>1004.0000000000001</ele><time>2026-05-02T18:09:16.989Z</time></trkpt><trkpt lat="43.8672795" lon="6.4860403"><ele>1004.0</ele><time>2026-05-02T18:09:17.988Z</time></trkpt><trkpt lat="43.8671644" lon="6.4860677"><ele>1004.0</ele><time>2026-05-02T18:09:18.988Z</time></trkpt><trkpt lat="43.867054" lon="6.4861488"><ele>1004.0</ele><time>2026-05-02T18:09:19.989Z</time></trkpt><trkpt lat="43.8669397" lon="6.4862358"><ele>1004.0</ele><time>2026-05-02T18:09:20.989Z</time></trkpt><trkpt lat="43.8668187" lon="6.4863284"><ele>1004.0</ele><time>2026-05-02T18:09:21.988Z</time></trkpt><trkpt lat="43.8666958" lon="6.4864066"><ele>1006.75</ele><time>2026-05-02T18:09:22.989Z</time></trkpt><trkpt lat="43.8665779" lon="6.4864758"><ele>1009.5</ele><time>2026-05-02T18:09:23.989Z</time></trkpt><trkpt lat="43.8664477" lon="6.4865075"><ele>1012.25</ele><time>2026-05-02T18:09:24.989Z</time></trkpt><trkpt lat="43.8663144" lon="6.4864995"><ele>1015.0</ele><time>2026-05-02T18:09:25.989Z</time></trkpt><trkpt lat="43.8661787" lon="6.4864761"><ele>1015.0</ele><time>2026-05-02T18:09:26.989Z</time></trkpt><trkpt lat="43.8660416" lon="6.4864251"><ele>1015.0</ele><time>2026-05-02T18:09:27.988Z</time></trkpt><trkpt lat="43.8659071" lon="6.4863688"><ele>1015.0</ele><time>2026-05-02T18:09:28.989Z</time></trkpt><trkpt lat="43.8657973" lon="6.4863403"><ele>1015.0</ele><time>2026-05-02T18:09:29.988Z</time></trkpt><trkpt lat="43.8656959" lon="6.4863188"><ele>1016.6</ele><time>2026-05-02T18:09:30.988Z</time></trkpt><trkpt lat="43.8655983" lon="6.4863193"><ele>1018.2</ele><time>2026-05-02T18:09:31.989Z</time></trkpt><trkpt lat="43.8655065" lon="6.4863549"><ele>1019.8</ele><time>2026-05-02T18:09:32.989Z</time></trkpt><trkpt lat="43.8654283" lon="6.486444"><ele>1021.4</ele><time>2026-05-02T18:09:33.989Z</time></trkpt><trkpt lat="43.865367" lon="6.4865745"><ele>1023.0</ele><time>2026-05-02T18:09:34.989Z</time></trkpt><trkpt lat="43.865318" lon="6.4867062"><ele>1023.0</ele><time>2026-05-02T18:09:35.989Z</time></trkpt><trkpt lat="43.8652544" lon="6.4868265"><ele>1023.0</ele><time>2026-05-02T18:09:36.988Z</time></trkpt><trkpt lat="43.865161" lon="6.4869009"><ele>1023.0</ele><time>2026-05-02T18:09:37.989Z</time></trkpt><trkpt lat="43.8650681" lon="6.4869587"><ele>1023.0</ele><time>2026-05-02T18:09:38.989Z</time></trkpt><trkpt lat="43.8649465" lon="6.4869865"><ele>1023.0</ele><time>2026-05-02T18:09:39.989Z</time></trkpt><trkpt lat="43.8648276" lon="6.4869998"><ele>1025.75</ele><time>2026-05-02T18:09:40.989Z</time></trkpt><trkpt lat="43.8647082" lon="6.4869888"><ele>1028.5</ele><time>2026-05-02T18:09:41.989Z</time></trkpt><trkpt lat="43.8645877" lon="6.4869527"><ele>1031.25</ele><time>2026-05-02T18:09:42.989Z</time></trkpt><trkpt lat="43.8644746" lon="6.4868506"><ele>1034.0</ele><time>2026-05-02T18:09:43.989Z</time></trkpt><trkpt lat="43.8643679" lon="6.4867289"><ele>1035.0</ele><time>2026-05-02T18:09:44.989Z</time></trkpt><trkpt lat="43.864251" lon="6.486603"><ele>1036.0</ele><time>2026-05-02T18:09:45.989Z</time></trkpt><trkpt lat="43.8641519" lon="6.4864537"><ele>1037.0</ele><time>2026-05-02T18:09:46.989Z</time></trkpt><trkpt lat="43.8640543" lon="6.4862998"><ele>1038.0</ele><time>2026-05-02T18:09:47.989Z</time></trkpt><trkpt lat="43.8639598" lon="6.4861373"><ele>1040.4</ele><time>2026-05-02T18:09:48.989Z</time></trkpt><trkpt lat="43.8638701" lon="6.4860055"><ele>1042.8</ele><time>2026-05-02T18:09:49.989Z</time></trkpt><trkpt lat="43.8637833" lon="6.4859022"><ele>1045.2</ele><time>2026-05-02T18:09:50.989Z</time></trkpt><trkpt lat="43.8636887" lon="6.4858252"><ele>1047.6</ele><time>2026-05-02T18:09:51.989Z</time></trkpt><trkpt lat="43.8636028" lon="6.4857757"><ele>1050.0</ele><time>2026-05-02T18:09:52.989Z</time></trkpt><trkpt lat="43.8635339" lon="6.485724"><ele>1050.0</ele><time>2026-05-02T18:09:53.988Z</time></trkpt><trkpt lat="43.8634794" lon="6.4856483"><ele>1050.0</ele><time>2026-05-02T18:09:54.989Z</time></trkpt><trkpt lat="43.8634464" lon="6.4855628"><ele>1050.0</ele><time>2026-05-02T18:09:55.989Z</time></trkpt><trkpt lat="43.8635399" lon="6.485438"><ele>1050.0</ele><time>2026-05-02T18:09:57.989Z</time></trkpt><trkpt lat="43.8636171" lon="6.485414"><ele>1050.0</ele><time>2026-05-02T18:09:58.989Z</time></trkpt><trkpt lat="43.8637119" lon="6.4854761"><ele>1050.0</ele><time>2026-05-02T18:09:59.989Z</time></trkpt><trkpt lat="43.863812" lon="6.4855282"><ele>1050.0</ele><time>2026-05-02T18:10:00.989Z</time></trkpt><trkpt lat="43.8639261" lon="6.4856045"><ele>1050.0</ele><time>2026-05-02T18:10:01.989Z</time></trkpt><trkpt lat="43.8640426" lon="6.4856333"><ele>1050.0</ele><time>2026-05-02T18:10:02.989Z</time></trkpt><trkpt lat="43.8641715" lon="6.48563"><ele>1048.75</ele><time>2026-05-02T18:10:03.989Z</time></trkpt><trkpt lat="43.8643088" lon="6.4855943"><ele>1047.5</ele><time>2026-05-02T18:10:04.989Z</time></trkpt><trkpt lat="43.8644528" lon="6.4855397"><ele>1046.25</ele><time>2026-05-02T18:10:05.989Z</time></trkpt><trkpt lat="43.8645901" lon="6.4854827"><ele>1045.0</ele><time>2026-05-02T18:10:06.989Z</time></trkpt><trkpt lat="43.8647177" lon="6.4854257"><ele>1047.8</ele><time>2026-05-02T18:10:07.988Z</time></trkpt><trkpt lat="43.8648411" lon="6.4853624"><ele>1050.6</ele><time>2026-05-02T18:10:08.989Z</time></trkpt><trkpt lat="43.8649221" lon="6.4853409"><ele>1053.4</ele><time>2026-05-02T18:10:09.989Z</time></trkpt><trkpt lat="43.8649921" lon="6.4852905"><ele>1056.2</ele><time>2026-05-02T18:10:10.989Z</time></trkpt><trkpt lat="43.8650533" lon="6.4852246"><ele>1059.0</ele><time>2026-05-02T18:10:11.989Z</time></trkpt><trkpt lat="43.8650902" lon="6.4850968"><ele>1059.0</ele><time>2026-05-02T18:10:13.989Z</time></trkpt><trkpt lat="43.8650126" lon="6.4850083"><ele>1059.0</ele><time>2026-05-02T18:10:14.989Z</time></trkpt><trkpt lat="43.8648922" lon="6.4850196"><ele>1059.0</ele><time>2026-05-02T18:10:15.989Z</time></trkpt><trkpt lat="43.8647895" lon="6.4850463"><ele>1059.0</ele><time>2026-05-02T18:10:16.989Z</time></trkpt><trkpt lat="43.8646761" lon="6.4851055"><ele>1059.0</ele><time>2026-05-02T18:10:17.988Z</time></trkpt><trkpt lat="43.8645673" lon="6.4851378"><ele>1059.0</ele><time>2026-05-02T18:10:18.989Z</time></trkpt><trkpt lat="43.8644655" lon="6.4851539"><ele>1059.0</ele><time>2026-05-02T18:10:19.989Z</time></trkpt><trkpt lat="43.8643679" lon="6.4851235"><ele>1059.0</ele><time>2026-05-02T18:10:20.989Z</time></trkpt><trkpt lat="43.8642823" lon="6.4850543"><ele>1059.0</ele><time>2026-05-02T18:10:21.989Z</time></trkpt><trkpt lat="43.8642179" lon="6.484949"><ele>1059.0</ele><time>2026-05-02T18:10:22.989Z</time></trkpt><trkpt lat="43.8641839" lon="6.4848122"><ele>1058.25</ele><time>2026-05-02T18:10:23.989Z</time></trkpt><trkpt lat="43.8641636" lon="6.4846722"><ele>1057.5</ele><time>2026-05-02T18:10:24.989Z</time></trkpt><trkpt lat="43.8641682" lon="6.4844965"><ele>1056.75</ele><time>2026-05-02T18:10:25.989Z</time></trkpt><trkpt lat="43.8641464" lon="6.4843127"><ele>1056.0</ele><time>2026-05-02T18:10:26.989Z</time></trkpt><trkpt lat="43.8641092" lon="6.4841469"><ele>1057.5</ele><time>2026-05-02T18:10:27.989Z</time></trkpt><trkpt lat="43.8640787" lon="6.4839772"><ele>1059.0</ele><time>2026-05-02T18:10:28.989Z</time></trkpt><trkpt lat="43.8640084" lon="6.4838068"><ele>1060.5</ele><time>2026-05-02T18:10:29.988Z</time></trkpt><trkpt lat="43.8639842" lon="6.4836157"><ele>1062.0</ele><time>2026-05-02T18:10:30.988Z</time></trkpt><trkpt lat="43.8639829" lon="6.4834134"><ele>1064.6666666666667</ele><time>2026-05-02T18:10:31.989Z</time></trkpt><trkpt lat="43.8639925" lon="6.4832012"><ele>1067.3333333333335</ele><time>2026-05-02T18:10:32.989Z</time></trkpt><trkpt lat="43.8640138" lon="6.4829761"><ele>1070.0</ele><time>2026-05-02T18:10:33.989Z</time></trkpt><trkpt lat="43.8640478" lon="6.4827579"><ele>1070.0</ele><time>2026-05-02T18:10:34.989Z</time></trkpt><trkpt lat="43.8640806" lon="6.4825489"><ele>1070.0</ele><time>2026-05-02T18:10:35.989Z</time></trkpt><trkpt lat="43.8641099" lon="6.4823568"><ele>1070.0</ele><time>2026-05-02T18:10:36.988Z</time></trkpt><trkpt lat="43.864139" lon="6.4821551"><ele>1070.0</ele><time>2026-05-02T18:10:37.989Z</time></trkpt><trkpt lat="43.8642194" lon="6.4820119"><ele>1080.0</ele><time>2026-05-02T18:10:38.989Z</time></trkpt><trkpt lat="43.864309" lon="6.4818637"><ele>1090.0</ele><time>2026-05-02T18:10:39.989Z</time></trkpt><trkpt lat="43.8644212" lon="6.4817164"><ele>1100.0</ele><time>2026-05-02T18:10:40.989Z</time></trkpt><trkpt lat="43.8645499" lon="6.481583"><ele>1100.0</ele><time>2026-05-02T18:10:41.989Z</time></trkpt><trkpt lat="43.8646718" lon="6.4814376"><ele>1100.0</ele><time>2026-05-02T18:10:42.989Z</time></trkpt><trkpt lat="43.8647841" lon="6.4812755"><ele>1100.0</ele><time>2026-05-02T18:10:43.989Z</time></trkpt><trkpt lat="43.8648808" lon="6.4810904"><ele>1095.3333333333335</ele><time>2026-05-02T18:10:44.989Z</time></trkpt><trkpt lat="43.8649413" lon="6.4808694"><ele>1090.6666666666667</ele><time>2026-05-02T18:10:45.989Z</time></trkpt><trkpt lat="43.8649937" lon="6.4806428"><ele>1086.0</ele><time>2026-05-02T18:10:46.989Z</time></trkpt><trkpt lat="43.8650487" lon="6.4804183"><ele>1095.6666666666667</ele><time>2026-05-02T18:10:47.989Z</time></trkpt><trkpt lat="43.8651183" lon="6.4802101"><ele>1105.3333333333335</ele><time>2026-05-02T18:10:48.989Z</time></trkpt><trkpt lat="43.865181" lon="6.4799984"><ele>1115.0</ele><time>2026-05-02T18:10:49.989Z</time></trkpt><trkpt lat="43.8652383" lon="6.4797845"><ele>1114.3333333333335</ele><time>2026-05-02T18:10:50.989Z</time></trkpt><trkpt lat="43.8652509" lon="6.4795441"><ele>1113.6666666666667</ele><time>2026-05-02T18:10:51.989Z</time></trkpt><trkpt lat="43.8652905" lon="6.4793314"><ele>1113.0</ele><time>2026-05-02T18:10:52.988Z</time></trkpt><trkpt lat="43.8653222" lon="6.4791316"><ele>1113.0</ele><time>2026-05-02T18:10:53.989Z</time></trkpt><trkpt lat="43.8653473" lon="6.478942"><ele>1113.0</ele><time>2026-05-02T18:10:54.989Z</time></trkpt><trkpt lat="43.8653569" lon="6.4787701"><ele>1113.0</ele><time>2026-05-02T18:10:55.989Z</time></trkpt><trkpt lat="43.8653639" lon="6.4786079"><ele>1113.0</ele><time>2026-05-02T18:10:56.989Z</time></trkpt><trkpt lat="43.8653568" lon="6.4784457"><ele>1111.25</ele><time>2026-05-02T18:10:57.989Z</time></trkpt><trkpt lat="43.8653885" lon="6.4783182"><ele>1109.5</ele><time>2026-05-02T18:10:58.988Z</time></trkpt><trkpt lat="43.8654487" lon="6.4781879"><ele>1107.75</ele><time>2026-05-02T18:10:59.989Z</time></trkpt><trkpt lat="43.8655097" lon="6.4780525"><ele>1106.0</ele><time>2026-05-02T18:11:00.988Z</time></trkpt><trkpt lat="43.865615" lon="6.477931"><ele>1109.6666666666667</ele><time>2026-05-02T18:11:01.989Z</time></trkpt><trkpt lat="43.8657275" lon="6.4777992"><ele>1113.3333333333333</ele><time>2026-05-02T18:11:02.989Z</time></trkpt><trkpt lat="43.8658495" lon="6.477661"><ele>1117.0</ele><time>2026-05-02T18:11:03.989Z</time></trkpt><trkpt lat="43.865964" lon="6.4775068"><ele>1117.0</ele><time>2026-05-02T18:11:04.988Z</time></trkpt><trkpt lat="43.8660901" lon="6.4773505"><ele>1117.0</ele><time>2026-05-02T18:11:05.989Z</time></trkpt><trkpt lat="43.8662058" lon="6.47718"><ele>1117.0</ele><time>2026-05-02T18:11:06.988Z</time></trkpt><trkpt lat="43.866319" lon="6.4770217"><ele>1113.6666666666665</ele><time>2026-05-02T18:11:07.989Z</time></trkpt><trkpt lat="43.8664279" lon="6.476844"><ele>1110.3333333333333</ele><time>2026-05-02T18:11:08.989Z</time></trkpt><trkpt lat="43.8665141" lon="6.4766728"><ele>1107.0</ele><time>2026-05-02T18:11:09.989Z</time></trkpt><trkpt lat="43.8665738" lon="6.4764867"><ele>1107.0</ele><time>2026-05-02T18:11:10.989Z</time></trkpt><trkpt lat="43.8666221" lon="6.4763009"><ele>1107.0</ele><time>2026-05-02T18:11:11.989Z</time></trkpt><trkpt lat="43.8666207" lon="6.476057"><ele>1107.0</ele><time>2026-05-02T18:11:12.988Z</time></trkpt><trkpt lat="43.8666406" lon="6.4758447"><ele>1106.0</ele><time>2026-05-02T18:11:13.989Z</time></trkpt><trkpt lat="43.8666479" lon="6.4756352"><ele>1105.0</ele><time>2026-05-02T18:11:14.989Z</time></trkpt><trkpt lat="43.8666707" lon="6.4754278"><ele>1104.0</ele><time>2026-05-02T18:11:15.989Z</time></trkpt><trkpt lat="43.8667289" lon="6.4752515"><ele>1103.0</ele><time>2026-05-02T18:11:16.988Z</time></trkpt><trkpt lat="43.8667945" lon="6.4750753"><ele>1105.0</ele><time>2026-05-02T18:11:17.989Z</time></trkpt><trkpt lat="43.8668825" lon="6.4748984"><ele>1107.0</ele><time>2026-05-02T18:11:18.989Z</time></trkpt><trkpt lat="43.866974" lon="6.4747096"><ele>1109.0</ele><time>2026-05-02T18:11:19.989Z</time></trkpt><trkpt lat="43.8670635" lon="6.4745258"><ele>1109.0</ele><time>2026-05-02T18:11:20.989Z</time></trkpt><trkpt lat="43.8671449" lon="6.4743567"><ele>1109.0</ele><time>2026-05-02T18:11:21.988Z</time></trkpt><trkpt lat="43.8672205" lon="6.474245"><ele>1109.0</ele><time>2026-05-02T18:11:22.989Z</time></trkpt><trkpt lat="43.867298" lon="6.4740959"><ele>1109.0</ele><time>2026-05-02T18:11:23.989Z</time></trkpt><trkpt lat="43.8673345" lon="6.4739733"><ele>1109.0</ele><time>2026-05-02T18:11:24.989Z</time></trkpt><trkpt lat="43.8673246" lon="6.4738131"><ele>1109.0</ele><time>2026-05-02T18:11:25.988Z</time></trkpt><trkpt lat="43.8673144" lon="6.4736675"><ele>1109.0</ele><time>2026-05-02T18:11:26.989Z</time></trkpt><trkpt lat="43.8673271" lon="6.473521"><ele>1109.0</ele><time>2026-05-02T18:11:27.989Z</time></trkpt><trkpt lat="43.8673623" lon="6.4733811"><ele>1109.0</ele><time>2026-05-02T18:11:28.988Z</time></trkpt><trkpt lat="43.8674484" lon="6.4732357"><ele>1107.6666666666667</ele><time>2026-05-02T18:11:29.989Z</time></trkpt><trkpt lat="43.8675352" lon="6.4730715"><ele>1106.3333333333333</ele><time>2026-05-02T18:11:30.988Z</time></trkpt><trkpt lat="43.8676213" lon="6.4729311"><ele>1105.0</ele><time>2026-05-02T18:11:31.989Z</time></trkpt><trkpt lat="43.8677242" lon="6.47272"><ele>1117.0</ele><time>2026-05-02T18:11:32.989Z</time></trkpt><trkpt lat="43.8678222" lon="6.4725248"><ele>1129.0</ele><time>2026-05-02T18:11:33.989Z</time></trkpt><trkpt lat="43.8679267" lon="6.472345"><ele>1141.0</ele><time>2026-05-02T18:11:34.989Z</time></trkpt><trkpt lat="43.8680128" lon="6.4721823"><ele>1134.75</ele><time>2026-05-02T18:11:35.989Z</time></trkpt><trkpt lat="43.8680839" lon="6.4720246"><ele>1128.5</ele><time>2026-05-02T18:11:36.989Z</time></trkpt><trkpt lat="43.8681321" lon="6.4718631"><ele>1122.25</ele><time>2026-05-02T18:11:37.988Z</time></trkpt><trkpt lat="43.8681817" lon="6.471721"><ele>1116.0</ele><time>2026-05-02T18:11:38.989Z</time></trkpt><trkpt lat="43.8682639" lon="6.4716347"><ele>1116.0</ele><time>2026-05-02T18:11:39.989Z</time></trkpt><trkpt lat="43.8683534" lon="6.4715254"><ele>1116.0</ele><time>2026-05-02T18:11:40.988Z</time></trkpt><trkpt lat="43.8684696" lon="6.4715013"><ele>1116.0</ele><time>2026-05-02T18:11:41.988Z</time></trkpt><trkpt lat="43.8685637" lon="6.4714469"><ele>1116.0</ele><time>2026-05-02T18:11:42.988Z</time></trkpt><trkpt lat="43.868627" lon="6.4713477"><ele>1116.0</ele><time>2026-05-02T18:11:43.989Z</time></trkpt><trkpt lat="43.8686685" lon="6.4712207"><ele>1123.75</ele><time>2026-05-02T18:11:44.989Z</time></trkpt><trkpt lat="43.8687091" lon="6.4710956"><ele>1131.5</ele><time>2026-05-02T18:11:45.989Z</time></trkpt><trkpt lat="43.8687029" lon="6.4709012"><ele>1139.25</ele><time>2026-05-02T18:11:46.988Z</time></trkpt><trkpt lat="43.868722" lon="6.4707333"><ele>1147.0</ele><time>2026-05-02T18:11:47.989Z</time></trkpt><trkpt lat="43.8687453" lon="6.4705089"><ele>1144.75</ele><time>2026-05-02T18:11:48.989Z</time></trkpt><trkpt lat="43.868769" lon="6.4702936"><ele>1142.5</ele><time>2026-05-02T18:11:49.989Z</time></trkpt><trkpt lat="43.8688168" lon="6.4700896"><ele>1140.25</ele><time>2026-05-02T18:11:50.989Z</time></trkpt><trkpt lat="43.8688724" lon="6.4699155"><ele>1138.0</ele><time>2026-05-02T18:11:51.988Z</time></trkpt><trkpt lat="43.868935" lon="6.4697661"><ele>1138.0</ele><time>2026-05-02T18:11:52.989Z</time></trkpt><trkpt lat="43.8689967" lon="6.4696261"><ele>1138.0</ele><time>2026-05-02T18:11:53.989Z</time></trkpt><trkpt lat="43.8690521" lon="6.4695059"><ele>1138.0</ele><time>2026-05-02T18:11:54.989Z</time></trkpt><trkpt lat="43.8690452" lon="6.4693711"><ele>1138.0</ele><time>2026-05-02T18:11:55.989Z</time></trkpt><trkpt lat="43.8690135" lon="6.4692212"><ele>1138.0</ele><time>2026-05-02T18:11:56.989Z</time></trkpt><trkpt lat="43.8689785" lon="6.4690702"><ele>1136.75</ele><time>2026-05-02T18:11:57.989Z</time></trkpt><trkpt lat="43.868968" lon="6.4689147"><ele>1135.5</ele><time>2026-05-02T18:11:58.989Z</time></trkpt><trkpt lat="43.8689705" lon="6.4687631"><ele>1134.25</ele><time>2026-05-02T18:11:59.989Z</time></trkpt><trkpt lat="43.8690067" lon="6.4685645"><ele>1133.0</ele><time>2026-05-02T18:12:00.989Z</time></trkpt><trkpt lat="43.869042" lon="6.4684008"><ele>1133.0</ele><time>2026-05-02T18:12:01.989Z</time></trkpt><trkpt lat="43.8690654" lon="6.468239"><ele>1133.0</ele><time>2026-05-02T18:12:02.989Z</time></trkpt><trkpt lat="43.8690383" lon="6.4680817"><ele>1133.0</ele><time>2026-05-02T18:12:03.989Z</time></trkpt><trkpt lat="43.8690043" lon="6.4679426"><ele>1133.0</ele><time>2026-05-02T18:12:04.989Z</time></trkpt><trkpt lat="43.868895" lon="6.4677928"><ele>1134.25</ele><time>2026-05-02T18:12:05.989Z</time></trkpt><trkpt lat="43.8688171" lon="6.4676497"><ele>1135.5</ele><time>2026-05-02T18:12:06.989Z</time></trkpt><trkpt lat="43.8687531" lon="6.4675355"><ele>1136.75</ele><time>2026-05-02T18:12:07.989Z</time></trkpt><trkpt lat="43.8686617" lon="6.4674257"><ele>1138.0</ele><time>2026-05-02T18:12:08.988Z</time></trkpt><trkpt lat="43.8685658" lon="6.4673481"><ele>1138.0</ele><time>2026-05-02T18:12:09.989Z</time></trkpt><trkpt lat="43.8684435" lon="6.467292"><ele>1138.0</ele><time>2026-05-02T18:12:10.988Z</time></trkpt><trkpt lat="43.8683239" lon="6.4672878"><ele>1138.0</ele><time>2026-05-02T18:12:11.989Z</time></trkpt><trkpt lat="43.8682013" lon="6.467322"><ele>1138.0</ele><time>2026-05-02T18:12:12.988Z</time></trkpt><trkpt lat="43.8681045" lon="6.4673693"><ele>1136.0</ele><time>2026-05-02T18:12:13.989Z</time></trkpt><trkpt lat="43.86798" lon="6.4674785"><ele>1134.0</ele><time>2026-05-02T18:12:14.989Z</time></trkpt><trkpt lat="43.8678461" lon="6.4675392"><ele>1132.0</ele><time>2026-05-02T18:12:15.989Z</time></trkpt><trkpt lat="43.8677151" lon="6.467563"><ele>1130.0</ele><time>2026-05-02T18:12:16.989Z</time></trkpt><trkpt lat="43.8675806" lon="6.4675541"><ele>1130.0</ele><time>2026-05-02T18:12:17.988Z</time></trkpt><trkpt lat="43.8674357" lon="6.4675561"><ele>1130.0</ele><time>2026-05-02T18:12:18.989Z</time></trkpt><trkpt lat="43.867297" lon="6.4675458"><ele>1130.0</ele><time>2026-05-02T18:12:19.989Z</time></trkpt><trkpt lat="43.8671523" lon="6.4675309"><ele>1130.0</ele><time>2026-05-02T18:12:20.989Z</time></trkpt><trkpt lat="43.8670173" lon="6.4675405"><ele>1130.0</ele><time>2026-05-02T18:12:21.988Z</time></trkpt><trkpt lat="43.8668687" lon="6.4675837"><ele>1130.0</ele><time>2026-05-02T18:12:22.988Z</time></trkpt><trkpt lat="43.8667403" lon="6.4676845"><ele>1130.0</ele><time>2026-05-02T18:12:23.989Z</time></trkpt><trkpt lat="43.8666099" lon="6.4677713"><ele>1130.0</ele><time>2026-05-02T18:12:24.989Z</time></trkpt><trkpt lat="43.8665025" lon="6.4678396"><ele>1131.0</ele><time>2026-05-02T18:12:25.989Z</time></trkpt><trkpt lat="43.8663951" lon="6.4678866"><ele>1132.0</ele><time>2026-05-02T18:12:26.989Z</time></trkpt><trkpt lat="43.8662944" lon="6.4679376"><ele>1133.0</ele><time>2026-05-02T18:12:27.989Z</time></trkpt><trkpt lat="43.8662029" lon="6.4678761"><ele>1134.0</ele><time>2026-05-02T18:12:28.989Z</time></trkpt><trkpt lat="43.8661175" lon="6.4678026"><ele>1135.0</ele><time>2026-05-02T18:12:29.989Z</time></trkpt><trkpt lat="43.8660428" lon="6.4677004"><ele>1135.0</ele><time>2026-05-02T18:12:30.989Z</time></trkpt><trkpt lat="43.86598" lon="6.4675375"><ele>1135.0</ele><time>2026-05-02T18:12:31.989Z</time></trkpt><trkpt lat="43.8659184" lon="6.4673634"><ele>1135.0</ele><time>2026-05-02T18:12:32.989Z</time></trkpt><trkpt lat="43.865847" lon="6.4671814"><ele>1135.0</ele><time>2026-05-02T18:12:33.988Z</time></trkpt><trkpt lat="43.8657678" lon="6.4670177"><ele>1138.25</ele><time>2026-05-02T18:12:34.988Z</time></trkpt><trkpt lat="43.8656647" lon="6.4668749"><ele>1141.5</ele><time>2026-05-02T18:12:35.989Z</time></trkpt><trkpt lat="43.8655449" lon="6.4667618"><ele>1144.75</ele><time>2026-05-02T18:12:36.989Z</time></trkpt><trkpt lat="43.8654234" lon="6.4666636"><ele>1148.0</ele><time>2026-05-02T18:12:37.989Z</time></trkpt><trkpt lat="43.8653109" lon="6.4665906"><ele>1148.0</ele><time>2026-05-02T18:12:38.989Z</time></trkpt><trkpt lat="43.8651858" lon="6.4665231"><ele>1148.0</ele><time>2026-05-02T18:12:39.989Z</time></trkpt><trkpt lat="43.8651164" lon="6.4664541"><ele>1148.0</ele><time>2026-05-02T18:12:40.988Z</time></trkpt><trkpt lat="43.8650476" lon="6.466342"><ele>1148.0</ele><time>2026-05-02T18:12:41.989Z</time></trkpt><trkpt lat="43.8649929" lon="6.4662311"><ele>1148.0</ele><time>2026-05-02T18:12:42.989Z</time></trkpt><trkpt lat="43.8650001" lon="6.4660574"><ele>1149.0</ele><time>2026-05-02T18:12:43.989Z</time></trkpt><trkpt lat="43.8650343" lon="6.4658861"><ele>1150.0</ele><time>2026-05-02T18:12:44.989Z</time></trkpt><trkpt lat="43.8650854" lon="6.4656941"><ele>1151.0</ele><time>2026-05-02T18:12:45.989Z</time></trkpt><trkpt lat="43.8651247" lon="6.4654967"><ele>1152.0</ele><time>2026-05-02T18:12:46.989Z</time></trkpt><trkpt lat="43.8651636" lon="6.4652923"><ele>1152.0</ele><time>2026-05-02T18:12:47.989Z</time></trkpt><trkpt lat="43.8652046" lon="6.4650853"><ele>1152.0</ele><time>2026-05-02T18:12:48.989Z</time></trkpt><trkpt lat="43.8652811" lon="6.4649121"><ele>1152.0</ele><time>2026-05-02T18:12:49.989Z</time></trkpt><trkpt lat="43.8653572" lon="6.4647279"><ele>1151.5</ele><time>2026-05-02T18:12:50.988Z</time></trkpt><trkpt lat="43.8654102" lon="6.464572"><ele>1151.0</ele><time>2026-05-02T18:12:51.988Z</time></trkpt><trkpt lat="43.8654648" lon="6.4644138"><ele>1150.5</ele><time>2026-05-02T18:12:52.989Z</time></trkpt><trkpt lat="43.8654836" lon="6.4642559"><ele>1150.0</ele><time>2026-05-02T18:12:53.989Z</time></trkpt><trkpt lat="43.865503" lon="6.4640837"><ele>1150.0</ele><time>2026-05-02T18:12:54.989Z</time></trkpt><trkpt lat="43.8655111" lon="6.4639096"><ele>1150.0</ele><time>2026-05-02T18:12:55.989Z</time></trkpt><trkpt lat="43.8655145" lon="6.4637398"><ele>1150.0</ele><time>2026-05-02T18:12:56.988Z</time></trkpt><trkpt lat="43.8655188" lon="6.4635266"><ele>1150.0</ele><time>2026-05-02T18:12:57.989Z</time></trkpt><trkpt lat="43.8655237" lon="6.4633343"><ele>1149.75</ele><time>2026-05-02T18:12:58.989Z</time></trkpt><trkpt lat="43.8655326" lon="6.4631225"><ele>1149.5</ele><time>2026-05-02T18:12:59.989Z</time></trkpt><trkpt lat="43.8655343" lon="6.4629193"><ele>1149.25</ele><time>2026-05-02T18:13:00.989Z</time></trkpt><trkpt lat="43.865537" lon="6.4627309"><ele>1149.0</ele><time>2026-05-02T18:13:01.989Z</time></trkpt><trkpt lat="43.8655334" lon="6.4625338"><ele>1148.25</ele><time>2026-05-02T18:13:02.989Z</time></trkpt><trkpt lat="43.8655258" lon="6.4623492"><ele>1147.5</ele><time>2026-05-02T18:13:03.989Z</time></trkpt><trkpt lat="43.8655562" lon="6.462164"><ele>1146.75</ele><time>2026-05-02T18:13:04.988Z</time></trkpt><trkpt lat="43.8655982" lon="6.4619709"><ele>1146.0</ele><time>2026-05-02T18:13:05.988Z</time></trkpt><trkpt lat="43.8656581" lon="6.461776"><ele>1143.6666666666667</ele><time>2026-05-02T18:13:06.989Z</time></trkpt><trkpt lat="43.8657249" lon="6.4615743"><ele>1141.3333333333335</ele><time>2026-05-02T18:13:07.989Z</time></trkpt><trkpt lat="43.8657948" lon="6.4613663"><ele>1139.0</ele><time>2026-05-02T18:13:08.988Z</time></trkpt><trkpt lat="43.865866" lon="6.4611575"><ele>1141.3333333333335</ele><time>2026-05-02T18:13:09.988Z</time></trkpt><trkpt lat="43.865939" lon="6.4609555"><ele>1143.6666666666667</ele><time>2026-05-02T18:13:10.989Z</time></trkpt><trkpt lat="43.8660069" lon="6.460752"><ele>1146.0</ele><time>2026-05-02T18:13:11.989Z</time></trkpt><trkpt lat="43.8660768" lon="6.4605502"><ele>1145.75</ele><time>2026-05-02T18:13:12.989Z</time></trkpt><trkpt lat="43.8661428" lon="6.4603483"><ele>1145.5</ele><time>2026-05-02T18:13:13.989Z</time></trkpt><trkpt lat="43.8662002" lon="6.4601597"><ele>1145.25</ele><time>2026-05-02T18:13:14.989Z</time></trkpt><trkpt lat="43.8662498" lon="6.4599773"><ele>1145.0</ele><time>2026-05-02T18:13:15.988Z</time></trkpt><trkpt lat="43.8662974" lon="6.45982"><ele>1145.0</ele><time>2026-05-02T18:13:16.989Z</time></trkpt><trkpt lat="43.8663446" lon="6.4596754"><ele>1145.0</ele><time>2026-05-02T18:13:17.989Z</time></trkpt><trkpt lat="43.8663911" lon="6.4595419"><ele>1145.0</ele><time>2026-05-02T18:13:18.989Z</time></trkpt><trkpt lat="43.866455" lon="6.4594151"><ele>1145.0</ele><time>2026-05-02T18:13:19.989Z</time></trkpt><trkpt lat="43.8664872" lon="6.4592567"><ele>1143.4</ele><time>2026-05-02T18:13:21.989Z</time></trkpt><trkpt lat="43.8664459" lon="6.4591292"><ele>1141.8</ele><time>2026-05-02T18:13:23.989Z</time></trkpt><trkpt lat="43.8663214" lon="6.459137"><ele>1140.2</ele><time>2026-05-02T18:13:25.989Z</time></trkpt><trkpt lat="43.8662594" lon="6.4591832"><ele>1138.6</ele><time>2026-05-02T18:13:26.989Z</time></trkpt><trkpt lat="43.866189" lon="6.4592474"><ele>1137.0</ele><time>2026-05-02T18:13:27.989Z</time></trkpt><trkpt lat="43.8660596" lon="6.4593875"><ele>1137.0</ele><time>2026-05-02T18:13:28.987Z</time></trkpt><trkpt lat="43.8659609" lon="6.4594766"><ele>1137.0</ele><time>2026-05-02T18:13:29.994Z</time></trkpt><trkpt lat="43.8658546" lon="6.4595991"><ele>1137.0</ele><time>2026-05-02T18:13:30.985Z</time></trkpt><trkpt lat="43.8657301" lon="6.4597295"><ele>1137.0</ele><time>2026-05-02T18:13:31.987Z</time></trkpt><trkpt lat="43.8656321" lon="6.4598788"><ele>1135.25</ele><time>2026-05-02T18:13:32.986Z</time></trkpt><trkpt lat="43.86557" lon="6.4600774"><ele>1133.5</ele><time>2026-05-02T18:13:33.986Z</time></trkpt><trkpt lat="43.8655042" lon="6.4602577"><ele>1131.75</ele><time>2026-05-02T18:13:34.986Z</time></trkpt><trkpt lat="43.8654559" lon="6.4604403"><ele>1130.0</ele><time>2026-05-02T18:13:35.986Z</time></trkpt><trkpt lat="43.8654068" lon="6.4606172"><ele>1130.0</ele><time>2026-05-02T18:13:36.986Z</time></trkpt><trkpt lat="43.8653559" lon="6.4608116"><ele>1130.0</ele><time>2026-05-02T18:13:37.985Z</time></trkpt><trkpt lat="43.8653094" lon="6.4609513"><ele>1130.0</ele><time>2026-05-02T18:13:38.986Z</time></trkpt><trkpt lat="43.8652777" lon="6.4610936"><ele>1130.0</ele><time>2026-05-02T18:13:39.985Z</time></trkpt><trkpt lat="43.8652356" lon="6.4612052"><ele>1129.0</ele><time>2026-05-02T18:13:40.986Z</time></trkpt><trkpt lat="43.8652097" lon="6.4613078"><ele>1128.0</ele><time>2026-05-02T18:13:41.986Z</time></trkpt><trkpt lat="43.8651575" lon="6.4613788"><ele>1127.0</ele><time>2026-05-02T18:13:42.986Z</time></trkpt><trkpt lat="43.8650988" lon="6.4614161"><ele>1126.0</ele><time>2026-05-02T18:13:43.986Z</time></trkpt><trkpt lat="43.8650077" lon="6.4614174"><ele>1125.0</ele><time>2026-05-02T18:13:44.985Z</time></trkpt><trkpt lat="43.8649906" lon="6.4612886"><ele>1124.0</ele><time>2026-05-02T18:13:45.986Z</time></trkpt><trkpt lat="43.8649563" lon="6.4611782"><ele>1121.0</ele><time>2026-05-02T18:13:46.986Z</time></trkpt><trkpt lat="43.8649676" lon="6.4610197"><ele>1118.0</ele><time>2026-05-02T18:13:47.986Z</time></trkpt><trkpt lat="43.8649896" lon="6.46084"><ele>1115.0</ele><time>2026-05-02T18:13:48.985Z</time></trkpt><trkpt lat="43.8650114" lon="6.4606374"><ele>1112.0</ele><time>2026-05-02T18:13:49.986Z</time></trkpt><trkpt lat="43.8650369" lon="6.4604331"><ele>1110.6666666666667</ele><time>2026-05-02T18:13:50.986Z</time></trkpt><trkpt lat="43.8650644" lon="6.4602197"><ele>1109.3333333333333</ele><time>2026-05-02T18:13:51.986Z</time></trkpt><trkpt lat="43.8650886" lon="6.4599995"><ele>1108.0</ele><time>2026-05-02T18:13:52.986Z</time></trkpt><trkpt lat="43.8651101" lon="6.4597711"><ele>1110.6666666666665</ele><time>2026-05-02T18:13:53.986Z</time></trkpt><trkpt lat="43.8651411" lon="6.4595508"><ele>1113.3333333333333</ele><time>2026-05-02T18:13:54.985Z</time></trkpt><trkpt lat="43.8651866" lon="6.4593226"><ele>1116.0</ele><time>2026-05-02T18:13:55.986Z</time></trkpt><trkpt lat="43.8652311" lon="6.4590942"><ele>1116.0</ele><time>2026-05-02T18:13:56.986Z</time></trkpt><trkpt lat="43.8653133" lon="6.458869"><ele>1116.0</ele><time>2026-05-02T18:13:57.986Z</time></trkpt><trkpt lat="43.8653744" lon="6.4586564"><ele>1116.0</ele><time>2026-05-02T18:13:58.986Z</time></trkpt><trkpt lat="43.8654458" lon="6.4584289"><ele>1112.6666666666667</ele><time>2026-05-02T18:13:59.985Z</time></trkpt><trkpt lat="43.8655115" lon="6.4581943"><ele>1109.3333333333335</ele><time>2026-05-02T18:14:00.986Z</time></trkpt><trkpt lat="43.8655736" lon="6.457967"><ele>1106.0</ele><time>2026-05-02T18:14:01.985Z</time></trkpt><trkpt lat="43.8656371" lon="6.4577523"><ele>1102.3333333333335</ele><time>2026-05-02T18:14:02.986Z</time></trkpt><trkpt lat="43.8656858" lon="6.4575539"><ele>1098.6666666666667</ele><time>2026-05-02T18:14:03.985Z</time></trkpt><trkpt lat="43.8657281" lon="6.4573612"><ele>1095.0</ele><time>2026-05-02T18:14:04.985Z</time></trkpt><trkpt lat="43.8657404" lon="6.4571419"><ele>1092.6666666666667</ele><time>2026-05-02T18:14:05.986Z</time></trkpt><trkpt lat="43.8657534" lon="6.4569362"><ele>1090.3333333333335</ele><time>2026-05-02T18:14:06.986Z</time></trkpt><trkpt lat="43.8657739" lon="6.4567279"><ele>1088.0</ele><time>2026-05-02T18:14:07.986Z</time></trkpt><trkpt lat="43.8658081" lon="6.4565146"><ele>1088.0</ele><time>2026-05-02T18:14:08.986Z</time></trkpt><trkpt lat="43.8658576" lon="6.456297"><ele>1088.0</ele><time>2026-05-02T18:14:09.986Z</time></trkpt><trkpt lat="43.865937" lon="6.4560845"><ele>1088.0</ele><time>2026-05-02T18:14:10.986Z</time></trkpt><trkpt lat="43.8659936" lon="6.4558752"><ele>1087.0</ele><time>2026-05-02T18:14:11.985Z</time></trkpt><trkpt lat="43.8660479" lon="6.4556716"><ele>1086.0</ele><time>2026-05-02T18:14:12.986Z</time></trkpt><trkpt lat="43.8661018" lon="6.4554555"><ele>1085.0</ele><time>2026-05-02T18:14:13.986Z</time></trkpt><trkpt lat="43.8661721" lon="6.4552492"><ele>1083.5</ele><time>2026-05-02T18:14:14.986Z</time></trkpt><trkpt lat="43.8662394" lon="6.455058"><ele>1082.0</ele><time>2026-05-02T18:14:15.986Z</time></trkpt><trkpt lat="43.8663231" lon="6.4548786"><ele>1080.5</ele><time>2026-05-02T18:14:16.986Z</time></trkpt><trkpt lat="43.8664133" lon="6.454732"><ele>1079.0</ele><time>2026-05-02T18:14:17.986Z</time></trkpt><trkpt lat="43.8665221" lon="6.4546189"><ele>1076.3333333333335</ele><time>2026-05-02T18:14:18.986Z</time></trkpt><trkpt lat="43.8666388" lon="6.4545133"><ele>1073.6666666666667</ele><time>2026-05-02T18:14:19.985Z</time></trkpt><trkpt lat="43.8668216" lon="6.4544238"><ele>1071.0</ele><time>2026-05-02T18:14:20.986Z</time></trkpt><trkpt lat="43.8669753" lon="6.4543697"><ele>1070.75</ele><time>2026-05-02T18:14:21.986Z</time></trkpt><trkpt lat="43.8671222" lon="6.4543351"><ele>1070.5</ele><time>2026-05-02T18:14:22.986Z</time></trkpt><trkpt lat="43.8672663" lon="6.4542964"><ele>1070.25</ele><time>2026-05-02T18:14:23.986Z</time></trkpt><trkpt lat="43.8674087" lon="6.4542192"><ele>1070.0</ele><time>2026-05-02T18:14:24.986Z</time></trkpt><trkpt lat="43.8675331" lon="6.4541652"><ele>1071.0</ele><time>2026-05-02T18:14:25.986Z</time></trkpt><trkpt lat="43.8676631" lon="6.4540687"><ele>1072.0</ele><time>2026-05-02T18:14:26.986Z</time></trkpt><trkpt lat="43.8678093" lon="6.4539455"><ele>1073.0</ele><time>2026-05-02T18:14:27.986Z</time></trkpt><trkpt lat="43.867918" lon="6.453762"><ele>1073.0</ele><time>2026-05-02T18:14:28.985Z</time></trkpt><trkpt lat="43.8680086" lon="6.4535695"><ele>1073.0</ele><time>2026-05-02T18:14:29.986Z</time></trkpt><trkpt lat="43.8681038" lon="6.4533829"><ele>1073.0</ele><time>2026-05-02T18:14:30.986Z</time></trkpt><trkpt lat="43.8681838" lon="6.4531739"><ele>1073.0</ele><time>2026-05-02T18:14:31.986Z</time></trkpt><trkpt lat="43.8682632" lon="6.4529669"><ele>1073.0</ele><time>2026-05-02T18:14:32.986Z</time></trkpt><trkpt lat="43.8683518" lon="6.4527674"><ele>1073.0</ele><time>2026-05-02T18:14:33.986Z</time></trkpt><trkpt lat="43.8684489" lon="6.4525701"><ele>1074.6666666666667</ele><time>2026-05-02T18:14:34.986Z</time></trkpt><trkpt lat="43.8685478" lon="6.4523829"><ele>1076.3333333333333</ele><time>2026-05-02T18:14:35.986Z</time></trkpt><trkpt lat="43.8686518" lon="6.4521902"><ele>1078.0</ele><time>2026-05-02T18:14:36.986Z</time></trkpt><trkpt lat="43.8687585" lon="6.451996"><ele>1074.0</ele><time>2026-05-02T18:14:37.986Z</time></trkpt><trkpt lat="43.8688721" lon="6.4518075"><ele>1070.0</ele><time>2026-05-02T18:14:38.986Z</time></trkpt><trkpt lat="43.8689823" lon="6.4516133"><ele>1066.0</ele><time>2026-05-02T18:14:39.985Z</time></trkpt><trkpt lat="43.8690856" lon="6.4514344"><ele>1064.3333333333333</ele><time>2026-05-02T18:14:40.986Z</time></trkpt><trkpt lat="43.8691775" lon="6.4512636"><ele>1062.6666666666667</ele><time>2026-05-02T18:14:41.986Z</time></trkpt><trkpt lat="43.8692686" lon="6.4510668"><ele>1061.0</ele><time>2026-05-02T18:14:42.986Z</time></trkpt><trkpt lat="43.86936" lon="6.4509239"><ele>1061.0</ele><time>2026-05-02T18:14:43.986Z</time></trkpt><trkpt lat="43.8694185" lon="6.4507775"><ele>1061.0</ele><time>2026-05-02T18:14:44.986Z</time></trkpt><trkpt lat="43.8694904" lon="6.4506573"><ele>1061.0</ele><time>2026-05-02T18:14:45.986Z</time></trkpt><trkpt lat="43.8695687" lon="6.4505498"><ele>1061.0</ele><time>2026-05-02T18:14:46.986Z</time></trkpt><trkpt lat="43.8696431" lon="6.450423"><ele>1060.0</ele><time>2026-05-02T18:14:47.986Z</time></trkpt><trkpt lat="43.8696958" lon="6.4503478"><ele>1059.0</ele><time>2026-05-02T18:14:48.986Z</time></trkpt><trkpt lat="43.8697771" lon="6.4502129"><ele>1058.0</ele><time>2026-05-02T18:14:50.986Z</time></trkpt><trkpt lat="43.8697363" lon="6.4500954"><ele>1057.0</ele><time>2026-05-02T18:14:52.985Z</time></trkpt><trkpt lat="43.8696498" lon="6.4499565"><ele>1056.0</ele><time>2026-05-02T18:14:54.986Z</time></trkpt><trkpt lat="43.8695925" lon="6.4498778"><ele>1056.0</ele><time>2026-05-02T18:14:55.986Z</time></trkpt><trkpt lat="43.8695435" lon="6.4498057"><ele>1056.0</ele><time>2026-05-02T18:14:56.986Z</time></trkpt><trkpt lat="43.869479" lon="6.4497223"><ele>1056.0</ele><time>2026-05-02T18:14:57.986Z</time></trkpt><trkpt lat="43.8693911" lon="6.449635"><ele>1056.0</ele><time>2026-05-02T18:14:59.985Z</time></trkpt><trkpt lat="43.8693275" lon="6.4495556"><ele>1056.0</ele><time>2026-05-02T18:15:01.986Z</time></trkpt><trkpt lat="43.8693339" lon="6.44944"><ele>1056.0</ele><time>2026-05-02T18:15:04.986Z</time></trkpt><trkpt lat="43.8693502" lon="6.4493282"><ele>1055.0</ele><time>2026-05-02T18:15:07.986Z</time></trkpt><trkpt lat="43.8693279" lon="6.4492355"><ele>1055.0</ele><time>2026-05-02T18:15:11.986Z</time></trkpt></trkseg></trk></gpx>